<?xml version="1.0" encoding="UTF-8" standalone="no" ?>
<gpx xmlns="http://www.topografix.com/GPX/1/1" xmlns:xsi="http://www.w3.org/2001/XMLSchema-instance" xsi:schemaLocation="http://www.topografix.com/GPX/1/1 http://www.topografix.com/GPX/1/1/gpx.xsd" version="1.1" creator="VisuGPX - https://www.visugpx.com">
  <metadata>
    <name>Fargues Saint Hilaire</name>
    <desc><![CDATA[Randonnée VTT]]></desc>
  </metadata>
  <trk>
    <name><![CDATA[Fargues]]></name>
    <trkseg>
      <trkpt lat="44.82055" lon="-0.43867">
        <ele>83</ele>
        <time>2011-12-23T10:53:11Z</time>
      </trkpt>
      <trkpt lat="44.82054" lon="-0.43853">
        <ele>83</ele>
        <time>2011-12-23T10:53:16Z</time>
      </trkpt>
      <trkpt lat="44.82052" lon="-0.43838">
        <ele>83</ele>
        <time>2011-12-23T10:53:21Z</time>
      </trkpt>
      <trkpt lat="44.8205" lon="-0.43822">
        <ele>83</ele>
        <time>2011-12-23T10:53:26Z</time>
      </trkpt>
      <trkpt lat="44.82048" lon="-0.43807">
        <ele>83</ele>
        <time>2011-12-23T10:53:30Z</time>
      </trkpt>
      <trkpt lat="44.82044" lon="-0.43794">
        <ele>82</ele>
        <time>2011-12-23T10:53:34Z</time>
      </trkpt>
      <trkpt lat="44.82041" lon="-0.43779">
        <ele>82</ele>
        <time>2011-12-23T10:53:38Z</time>
      </trkpt>
      <trkpt lat="44.82036" lon="-0.43765">
        <ele>82</ele>
        <time>2011-12-23T10:53:42Z</time>
      </trkpt>
      <trkpt lat="44.8203" lon="-0.43754">
        <ele>81</ele>
        <time>2011-12-23T10:53:48Z</time>
      </trkpt>
      <trkpt lat="44.82027" lon="-0.43741">
        <ele>81</ele>
        <time>2011-12-23T10:54:26Z</time>
      </trkpt>
      <trkpt lat="44.82025" lon="-0.43724">
        <ele>81</ele>
        <time>2011-12-23T10:54:30Z</time>
      </trkpt>
      <trkpt lat="44.82027" lon="-0.43708">
        <ele>81</ele>
        <time>2011-12-23T10:54:33Z</time>
      </trkpt>
      <trkpt lat="44.82032" lon="-0.43694">
        <ele>81</ele>
        <time>2011-12-23T10:54:36Z</time>
      </trkpt>
      <trkpt lat="44.82036" lon="-0.43682">
        <ele>81</ele>
        <time>2011-12-23T10:54:39Z</time>
      </trkpt>
      <trkpt lat="44.82041" lon="-0.4367">
        <ele>81</ele>
        <time>2011-12-23T10:54:42Z</time>
      </trkpt>
      <trkpt lat="44.82047" lon="-0.43656">
        <ele>82</ele>
        <time>2011-12-23T10:54:46Z</time>
      </trkpt>
      <trkpt lat="44.82051" lon="-0.4364">
        <ele>82</ele>
        <time>2011-12-23T10:54:50Z</time>
      </trkpt>
      <trkpt lat="44.82052" lon="-0.43627">
        <ele>82</ele>
        <time>2011-12-23T10:54:53Z</time>
      </trkpt>
      <trkpt lat="44.82052" lon="-0.43613">
        <ele>82</ele>
        <time>2011-12-23T10:54:56Z</time>
      </trkpt>
      <trkpt lat="44.82047" lon="-0.43598">
        <ele>81</ele>
        <time>2011-12-23T10:54:59Z</time>
      </trkpt>
      <trkpt lat="44.82042" lon="-0.43585">
        <ele>81</ele>
        <time>2011-12-23T10:55:02Z</time>
      </trkpt>
      <trkpt lat="44.82036" lon="-0.4357">
        <ele>81</ele>
        <time>2011-12-23T10:55:05Z</time>
      </trkpt>
      <trkpt lat="44.82031" lon="-0.43558">
        <ele>81</ele>
        <time>2011-12-23T10:55:07Z</time>
      </trkpt>
      <trkpt lat="44.82025" lon="-0.43548">
        <ele>80</ele>
        <time>2011-12-23T10:55:09Z</time>
      </trkpt>
      <trkpt lat="44.82019" lon="-0.43532">
        <ele>80</ele>
        <time>2011-12-23T10:55:12Z</time>
      </trkpt>
      <trkpt lat="44.82013" lon="-0.43516">
        <ele>80</ele>
        <time>2011-12-23T10:55:15Z</time>
      </trkpt>
      <trkpt lat="44.82008" lon="-0.43503">
        <ele>80</ele>
        <time>2011-12-23T10:55:18Z</time>
      </trkpt>
      <trkpt lat="44.82001" lon="-0.43487">
        <ele>80</ele>
        <time>2011-12-23T10:55:22Z</time>
      </trkpt>
      <trkpt lat="44.81997" lon="-0.43473">
        <ele>80</ele>
        <time>2011-12-23T10:55:25Z</time>
      </trkpt>
      <trkpt lat="44.81995" lon="-0.43458">
        <ele>79</ele>
        <time>2011-12-23T10:55:28Z</time>
      </trkpt>
      <trkpt lat="44.81993" lon="-0.43443">
        <ele>79</ele>
        <time>2011-12-23T10:55:31Z</time>
      </trkpt>
      <trkpt lat="44.8199" lon="-0.43427">
        <ele>78</ele>
        <time>2011-12-23T10:55:34Z</time>
      </trkpt>
      <trkpt lat="44.81989" lon="-0.43412">
        <ele>78</ele>
        <time>2011-12-23T10:55:37Z</time>
      </trkpt>
      <trkpt lat="44.81992" lon="-0.43399">
        <ele>77</ele>
        <time>2011-12-23T10:55:40Z</time>
      </trkpt>
      <trkpt lat="44.81997" lon="-0.43385">
        <ele>77</ele>
        <time>2011-12-23T10:55:43Z</time>
      </trkpt>
      <trkpt lat="44.82004" lon="-0.43372">
        <ele>76</ele>
        <time>2011-12-23T10:55:46Z</time>
      </trkpt>
      <trkpt lat="44.82011" lon="-0.43356">
        <ele>76</ele>
        <time>2011-12-23T10:55:49Z</time>
      </trkpt>
      <trkpt lat="44.82018" lon="-0.43342">
        <ele>76</ele>
        <time>2011-12-23T10:55:52Z</time>
      </trkpt>
      <trkpt lat="44.82024" lon="-0.43329">
        <ele>75</ele>
        <time>2011-12-23T10:55:55Z</time>
      </trkpt>
      <trkpt lat="44.82029" lon="-0.43318">
        <ele>74</ele>
        <time>2011-12-23T10:55:58Z</time>
      </trkpt>
      <trkpt lat="44.82025" lon="-0.43304">
        <ele>74</ele>
        <time>2011-12-23T10:56:06Z</time>
      </trkpt>
      <trkpt lat="44.82025" lon="-0.43288">
        <ele>73</ele>
        <time>2011-12-23T10:56:10Z</time>
      </trkpt>
      <trkpt lat="44.82027" lon="-0.43273">
        <ele>72</ele>
        <time>2011-12-23T10:56:14Z</time>
      </trkpt>
      <trkpt lat="44.8203" lon="-0.43257">
        <ele>71</ele>
        <time>2011-12-23T10:56:31Z</time>
      </trkpt>
      <trkpt lat="44.82033" lon="-0.43238">
        <ele>70</ele>
        <time>2011-12-23T10:56:34Z</time>
      </trkpt>
      <trkpt lat="44.82035" lon="-0.43222">
        <ele>69</ele>
        <time>2011-12-23T10:56:36Z</time>
      </trkpt>
      <trkpt lat="44.82035" lon="-0.43207">
        <ele>68</ele>
        <time>2011-12-23T10:56:38Z</time>
      </trkpt>
      <trkpt lat="44.82031" lon="-0.43191">
        <ele>67</ele>
        <time>2011-12-23T10:56:40Z</time>
      </trkpt>
      <trkpt lat="44.82027" lon="-0.43174">
        <ele>66</ele>
        <time>2011-12-23T10:56:42Z</time>
      </trkpt>
      <trkpt lat="44.82024" lon="-0.43159">
        <ele>65</ele>
        <time>2011-12-23T10:56:44Z</time>
      </trkpt>
      <trkpt lat="44.82021" lon="-0.43143">
        <ele>63</ele>
        <time>2011-12-23T10:56:46Z</time>
      </trkpt>
      <trkpt lat="44.82021" lon="-0.43128">
        <ele>62</ele>
        <time>2011-12-23T10:56:48Z</time>
      </trkpt>
      <trkpt lat="44.82022" lon="-0.43113">
        <ele>60</ele>
        <time>2011-12-23T10:56:50Z</time>
      </trkpt>
      <trkpt lat="44.82024" lon="-0.43099">
        <ele>58</ele>
        <time>2011-12-23T10:56:52Z</time>
      </trkpt>
      <trkpt lat="44.82027" lon="-0.43087">
        <ele>57</ele>
        <time>2011-12-23T10:56:54Z</time>
      </trkpt>
      <trkpt lat="44.82032" lon="-0.43076">
        <ele>56</ele>
        <time>2011-12-23T10:56:56Z</time>
      </trkpt>
      <trkpt lat="44.82041" lon="-0.43064">
        <ele>55</ele>
        <time>2011-12-23T10:56:58Z</time>
      </trkpt>
      <trkpt lat="44.82052" lon="-0.43055">
        <ele>54</ele>
        <time>2011-12-23T10:57:00Z</time>
      </trkpt>
      <trkpt lat="44.82063" lon="-0.43046">
        <ele>53</ele>
        <time>2011-12-23T10:57:02Z</time>
      </trkpt>
      <trkpt lat="44.82073" lon="-0.43038">
        <ele>53</ele>
        <time>2011-12-23T10:57:04Z</time>
      </trkpt>
      <trkpt lat="44.82083" lon="-0.43031">
        <ele>54</ele>
        <time>2011-12-23T10:57:06Z</time>
      </trkpt>
      <trkpt lat="44.82093" lon="-0.4302">
        <ele>55</ele>
        <time>2011-12-23T10:57:09Z</time>
      </trkpt>
      <trkpt lat="44.82099" lon="-0.43009">
        <ele>55</ele>
        <time>2011-12-23T10:57:12Z</time>
      </trkpt>
      <trkpt lat="44.82105" lon="-0.42995">
        <ele>56</ele>
        <time>2011-12-23T10:57:16Z</time>
      </trkpt>
      <trkpt lat="44.8211" lon="-0.42983">
        <ele>57</ele>
        <time>2011-12-23T10:57:20Z</time>
      </trkpt>
      <trkpt lat="44.82117" lon="-0.4297">
        <ele>57</ele>
        <time>2011-12-23T10:57:25Z</time>
      </trkpt>
      <trkpt lat="44.82124" lon="-0.42959">
        <ele>59</ele>
        <time>2011-12-23T10:57:30Z</time>
      </trkpt>
      <trkpt lat="44.82131" lon="-0.4295">
        <ele>60</ele>
        <time>2011-12-23T10:57:34Z</time>
      </trkpt>
      <trkpt lat="44.82137" lon="-0.4294">
        <ele>61</ele>
        <time>2011-12-23T10:57:38Z</time>
      </trkpt>
      <trkpt lat="44.82144" lon="-0.42929">
        <ele>62</ele>
        <time>2011-12-23T10:57:43Z</time>
      </trkpt>
      <trkpt lat="44.8215" lon="-0.42917">
        <ele>63</ele>
        <time>2011-12-23T10:57:48Z</time>
      </trkpt>
      <trkpt lat="44.82158" lon="-0.42907">
        <ele>64</ele>
        <time>2011-12-23T10:57:53Z</time>
      </trkpt>
      <trkpt lat="44.82165" lon="-0.42897">
        <ele>65</ele>
        <time>2011-12-23T10:57:58Z</time>
      </trkpt>
      <trkpt lat="44.82169" lon="-0.42884">
        <ele>66</ele>
        <time>2011-12-23T10:58:03Z</time>
      </trkpt>
      <trkpt lat="44.82164" lon="-0.4287">
        <ele>66</ele>
        <time>2011-12-23T10:58:09Z</time>
      </trkpt>
      <trkpt lat="44.82159" lon="-0.42856">
        <ele>67</ele>
        <time>2011-12-23T10:58:15Z</time>
      </trkpt>
      <trkpt lat="44.82154" lon="-0.42843">
        <ele>67</ele>
        <time>2011-12-23T10:58:21Z</time>
      </trkpt>
      <trkpt lat="44.82149" lon="-0.42831">
        <ele>68</ele>
        <time>2011-12-23T10:58:27Z</time>
      </trkpt>
      <trkpt lat="44.82143" lon="-0.42818">
        <ele>69</ele>
        <time>2011-12-23T10:58:33Z</time>
      </trkpt>
      <trkpt lat="44.8214" lon="-0.42806">
        <ele>70</ele>
        <time>2011-12-23T10:58:39Z</time>
      </trkpt>
      <trkpt lat="44.82138" lon="-0.42791">
        <ele>71</ele>
        <time>2011-12-23T10:58:45Z</time>
      </trkpt>
      <trkpt lat="44.82138" lon="-0.42778">
        <ele>72</ele>
        <time>2011-12-23T10:58:50Z</time>
      </trkpt>
      <trkpt lat="44.82138" lon="-0.42763">
        <ele>73</ele>
        <time>2011-12-23T10:58:56Z</time>
      </trkpt>
      <trkpt lat="44.82138" lon="-0.42749">
        <ele>74</ele>
        <time>2011-12-23T10:59:02Z</time>
      </trkpt>
      <trkpt lat="44.82138" lon="-0.42734">
        <ele>75</ele>
        <time>2011-12-23T10:59:08Z</time>
      </trkpt>
      <trkpt lat="44.82139" lon="-0.42719">
        <ele>76</ele>
        <time>2011-12-23T10:59:15Z</time>
      </trkpt>
      <trkpt lat="44.8214" lon="-0.42706">
        <ele>76</ele>
        <time>2011-12-23T10:59:22Z</time>
      </trkpt>
      <trkpt lat="44.82141" lon="-0.42692">
        <ele>76</ele>
        <time>2011-12-23T10:59:30Z</time>
      </trkpt>
      <trkpt lat="44.82131" lon="-0.42687">
        <ele>76</ele>
        <time>2011-12-23T10:59:37Z</time>
      </trkpt>
      <trkpt lat="44.82119" lon="-0.42686">
        <ele>76</ele>
        <time>2011-12-23T10:59:42Z</time>
      </trkpt>
      <trkpt lat="44.82114" lon="-0.42675">
        <ele>76</ele>
        <time>2011-12-23T10:59:47Z</time>
      </trkpt>
      <trkpt lat="44.82114" lon="-0.4266">
        <ele>76</ele>
        <time>2011-12-23T10:59:52Z</time>
      </trkpt>
      <trkpt lat="44.82114" lon="-0.42644">
        <ele>75</ele>
        <time>2011-12-23T10:59:56Z</time>
      </trkpt>
      <trkpt lat="44.82112" lon="-0.42631">
        <ele>75</ele>
        <time>2011-12-23T10:59:59Z</time>
      </trkpt>
      <trkpt lat="44.82112" lon="-0.42614">
        <ele>74</ele>
        <time>2011-12-23T11:00:02Z</time>
      </trkpt>
      <trkpt lat="44.82111" lon="-0.42596">
        <ele>73</ele>
        <time>2011-12-23T11:00:05Z</time>
      </trkpt>
      <trkpt lat="44.8211" lon="-0.42577">
        <ele>72</ele>
        <time>2011-12-23T11:00:08Z</time>
      </trkpt>
      <trkpt lat="44.82109" lon="-0.42558">
        <ele>71</ele>
        <time>2011-12-23T11:00:11Z</time>
      </trkpt>
      <trkpt lat="44.8211" lon="-0.42541">
        <ele>70</ele>
        <time>2011-12-23T11:00:14Z</time>
      </trkpt>
      <trkpt lat="44.82109" lon="-0.42523">
        <ele>69</ele>
        <time>2011-12-23T11:00:17Z</time>
      </trkpt>
      <trkpt lat="44.82108" lon="-0.42507">
        <ele>68</ele>
        <time>2011-12-23T11:00:20Z</time>
      </trkpt>
      <trkpt lat="44.82106" lon="-0.42491">
        <ele>67</ele>
        <time>2011-12-23T11:00:23Z</time>
      </trkpt>
      <trkpt lat="44.82104" lon="-0.42477">
        <ele>66</ele>
        <time>2011-12-23T11:00:25Z</time>
      </trkpt>
      <trkpt lat="44.82101" lon="-0.42463">
        <ele>66</ele>
        <time>2011-12-23T11:00:27Z</time>
      </trkpt>
      <trkpt lat="44.82096" lon="-0.42444">
        <ele>64</ele>
        <time>2011-12-23T11:00:30Z</time>
      </trkpt>
      <trkpt lat="44.82094" lon="-0.42429">
        <ele>63</ele>
        <time>2011-12-23T11:00:34Z</time>
      </trkpt>
      <trkpt lat="44.82087" lon="-0.42418">
        <ele>62</ele>
        <time>2011-12-23T11:00:39Z</time>
      </trkpt>
      <trkpt lat="44.82083" lon="-0.42406">
        <ele>60</ele>
        <time>2011-12-23T11:00:47Z</time>
      </trkpt>
      <trkpt lat="44.82076" lon="-0.42396">
        <ele>59</ele>
        <time>2011-12-23T11:01:00Z</time>
      </trkpt>
      <trkpt lat="44.8207" lon="-0.42384">
        <ele>58</ele>
        <time>2011-12-23T11:01:26Z</time>
      </trkpt>
      <trkpt lat="44.8206" lon="-0.42386">
        <ele>56</ele>
        <time>2011-12-23T11:01:39Z</time>
      </trkpt>
      <trkpt lat="44.82052" lon="-0.4238">
        <ele>55</ele>
        <time>2011-12-23T11:01:57Z</time>
      </trkpt>
      <trkpt lat="44.82042" lon="-0.42379">
        <ele>53</ele>
        <time>2011-12-23T11:02:12Z</time>
      </trkpt>
      <trkpt lat="44.82033" lon="-0.42375">
        <ele>52</ele>
        <time>2011-12-23T11:02:29Z</time>
      </trkpt>
      <trkpt lat="44.82024" lon="-0.4237">
        <ele>51</ele>
        <time>2011-12-23T11:02:37Z</time>
      </trkpt>
      <trkpt lat="44.82014" lon="-0.42368">
        <ele>50</ele>
        <time>2011-12-23T11:02:48Z</time>
      </trkpt>
      <trkpt lat="44.82006" lon="-0.42361">
        <ele>49</ele>
        <time>2011-12-23T11:03:12Z</time>
      </trkpt>
      <trkpt lat="44.81997" lon="-0.42355">
        <ele>47</ele>
        <time>2011-12-23T11:03:29Z</time>
      </trkpt>
      <trkpt lat="44.81986" lon="-0.4235">
        <ele>46</ele>
        <time>2011-12-23T11:03:38Z</time>
      </trkpt>
      <trkpt lat="44.81976" lon="-0.42344">
        <ele>44</ele>
        <time>2011-12-23T11:03:43Z</time>
      </trkpt>
      <trkpt lat="44.81965" lon="-0.42339">
        <ele>42</ele>
        <time>2011-12-23T11:03:48Z</time>
      </trkpt>
      <trkpt lat="44.81955" lon="-0.42338">
        <ele>41</ele>
        <time>2011-12-23T11:03:53Z</time>
      </trkpt>
      <trkpt lat="44.81945" lon="-0.42332">
        <ele>40</ele>
        <time>2011-12-23T11:03:58Z</time>
      </trkpt>
      <trkpt lat="44.81936" lon="-0.42326">
        <ele>40</ele>
        <time>2011-12-23T11:04:02Z</time>
      </trkpt>
      <trkpt lat="44.81924" lon="-0.42321">
        <ele>39</ele>
        <time>2011-12-23T11:04:06Z</time>
      </trkpt>
      <trkpt lat="44.81913" lon="-0.42314">
        <ele>39</ele>
        <time>2011-12-23T11:04:09Z</time>
      </trkpt>
      <trkpt lat="44.81905" lon="-0.42304">
        <ele>38</ele>
        <time>2011-12-23T11:04:12Z</time>
      </trkpt>
      <trkpt lat="44.81894" lon="-0.42299">
        <ele>38</ele>
        <time>2011-12-23T11:04:15Z</time>
      </trkpt>
      <trkpt lat="44.81885" lon="-0.42294">
        <ele>37</ele>
        <time>2011-12-23T11:04:18Z</time>
      </trkpt>
      <trkpt lat="44.81876" lon="-0.42285">
        <ele>36</ele>
        <time>2011-12-23T11:04:22Z</time>
      </trkpt>
      <trkpt lat="44.81866" lon="-0.42283">
        <ele>36</ele>
        <time>2011-12-23T11:04:37Z</time>
      </trkpt>
      <trkpt lat="44.81855" lon="-0.42287">
        <ele>36</ele>
        <time>2011-12-23T11:04:54Z</time>
      </trkpt>
      <trkpt lat="44.81845" lon="-0.4229">
        <ele>36</ele>
        <time>2011-12-23T11:04:58Z</time>
      </trkpt>
      <trkpt lat="44.81835" lon="-0.42295">
        <ele>36</ele>
        <time>2011-12-23T11:05:02Z</time>
      </trkpt>
      <trkpt lat="44.81825" lon="-0.42298">
        <ele>36</ele>
        <time>2011-12-23T11:05:08Z</time>
      </trkpt>
      <trkpt lat="44.81816" lon="-0.42294">
        <ele>36</ele>
        <time>2011-12-23T11:05:28Z</time>
      </trkpt>
      <trkpt lat="44.81809" lon="-0.42285">
        <ele>36</ele>
        <time>2011-12-23T11:05:49Z</time>
      </trkpt>
      <trkpt lat="44.81804" lon="-0.42273">
        <ele>37</ele>
        <time>2011-12-23T11:05:59Z</time>
      </trkpt>
      <trkpt lat="44.81798" lon="-0.42262">
        <ele>37</ele>
        <time>2011-12-23T11:06:07Z</time>
      </trkpt>
      <trkpt lat="44.81795" lon="-0.42249">
        <ele>38</ele>
        <time>2011-12-23T11:06:12Z</time>
      </trkpt>
      <trkpt lat="44.81795" lon="-0.42235">
        <ele>38</ele>
        <time>2011-12-23T11:06:17Z</time>
      </trkpt>
      <trkpt lat="44.81793" lon="-0.42218">
        <ele>39</ele>
        <time>2011-12-23T11:06:22Z</time>
      </trkpt>
      <trkpt lat="44.81795" lon="-0.42203">
        <ele>39</ele>
        <time>2011-12-23T11:06:28Z</time>
      </trkpt>
      <trkpt lat="44.81796" lon="-0.42189">
        <ele>40</ele>
        <time>2011-12-23T11:06:32Z</time>
      </trkpt>
      <trkpt lat="44.81796" lon="-0.42173">
        <ele>41</ele>
        <time>2011-12-23T11:06:37Z</time>
      </trkpt>
      <trkpt lat="44.81798" lon="-0.4216">
        <ele>41</ele>
        <time>2011-12-23T11:06:42Z</time>
      </trkpt>
      <trkpt lat="44.81802" lon="-0.42147">
        <ele>42</ele>
        <time>2011-12-23T11:06:46Z</time>
      </trkpt>
      <trkpt lat="44.81801" lon="-0.42131">
        <ele>43</ele>
        <time>2011-12-23T11:06:51Z</time>
      </trkpt>
      <trkpt lat="44.81799" lon="-0.42115">
        <ele>44</ele>
        <time>2011-12-23T11:06:56Z</time>
      </trkpt>
      <trkpt lat="44.81798" lon="-0.42101">
        <ele>45</ele>
        <time>2011-12-23T11:07:02Z</time>
      </trkpt>
      <trkpt lat="44.81797" lon="-0.42087">
        <ele>46</ele>
        <time>2011-12-23T11:07:08Z</time>
      </trkpt>
      <trkpt lat="44.81794" lon="-0.42074">
        <ele>47</ele>
        <time>2011-12-23T11:07:15Z</time>
      </trkpt>
      <trkpt lat="44.81792" lon="-0.42061">
        <ele>48</ele>
        <time>2011-12-23T11:07:22Z</time>
      </trkpt>
      <trkpt lat="44.81785" lon="-0.42052">
        <ele>49</ele>
        <time>2011-12-23T11:07:31Z</time>
      </trkpt>
      <trkpt lat="44.81785" lon="-0.42039">
        <ele>49</ele>
        <time>2011-12-23T11:08:03Z</time>
      </trkpt>
      <trkpt lat="44.8179" lon="-0.42027">
        <ele>50</ele>
        <time>2011-12-23T11:08:09Z</time>
      </trkpt>
      <trkpt lat="44.81795" lon="-0.42013">
        <ele>50</ele>
        <time>2011-12-23T11:08:15Z</time>
      </trkpt>
      <trkpt lat="44.81798" lon="-0.42001">
        <ele>50</ele>
        <time>2011-12-23T11:08:20Z</time>
      </trkpt>
      <trkpt lat="44.81804" lon="-0.41988">
        <ele>50</ele>
        <time>2011-12-23T11:08:25Z</time>
      </trkpt>
      <trkpt lat="44.81807" lon="-0.41973">
        <ele>51</ele>
        <time>2011-12-23T11:08:31Z</time>
      </trkpt>
      <trkpt lat="44.81813" lon="-0.41961">
        <ele>51</ele>
        <time>2011-12-23T11:08:36Z</time>
      </trkpt>
      <trkpt lat="44.81819" lon="-0.41949">
        <ele>52</ele>
        <time>2011-12-23T11:08:40Z</time>
      </trkpt>
      <trkpt lat="44.81825" lon="-0.41939">
        <ele>51</ele>
        <time>2011-12-23T11:08:44Z</time>
      </trkpt>
      <trkpt lat="44.81833" lon="-0.41926">
        <ele>50</ele>
        <time>2011-12-23T11:08:48Z</time>
      </trkpt>
      <trkpt lat="44.81839" lon="-0.41912">
        <ele>50</ele>
        <time>2011-12-23T11:08:52Z</time>
      </trkpt>
      <trkpt lat="44.81844" lon="-0.41897">
        <ele>49</ele>
        <time>2011-12-23T11:08:56Z</time>
      </trkpt>
      <trkpt lat="44.81851" lon="-0.41885">
        <ele>48</ele>
        <time>2011-12-23T11:09:00Z</time>
      </trkpt>
      <trkpt lat="44.81857" lon="-0.41874">
        <ele>47</ele>
        <time>2011-12-23T11:09:03Z</time>
      </trkpt>
      <trkpt lat="44.81862" lon="-0.41862">
        <ele>46</ele>
        <time>2011-12-23T11:09:06Z</time>
      </trkpt>
      <trkpt lat="44.81866" lon="-0.41847">
        <ele>45</ele>
        <time>2011-12-23T11:09:09Z</time>
      </trkpt>
      <trkpt lat="44.81869" lon="-0.41832">
        <ele>45</ele>
        <time>2011-12-23T11:09:12Z</time>
      </trkpt>
      <trkpt lat="44.81868" lon="-0.41815">
        <ele>44</ele>
        <time>2011-12-23T11:09:15Z</time>
      </trkpt>
      <trkpt lat="44.81867" lon="-0.41799">
        <ele>44</ele>
        <time>2011-12-23T11:09:18Z</time>
      </trkpt>
      <trkpt lat="44.81866" lon="-0.41784">
        <ele>43</ele>
        <time>2011-12-23T11:09:21Z</time>
      </trkpt>
      <trkpt lat="44.81866" lon="-0.41771">
        <ele>43</ele>
        <time>2011-12-23T11:09:24Z</time>
      </trkpt>
      <trkpt lat="44.81867" lon="-0.41756">
        <ele>43</ele>
        <time>2011-12-23T11:09:29Z</time>
      </trkpt>
      <trkpt lat="44.81871" lon="-0.41745">
        <ele>43</ele>
        <time>2011-12-23T11:09:41Z</time>
      </trkpt>
      <trkpt lat="44.81876" lon="-0.41733">
        <ele>44</ele>
        <time>2011-12-23T11:09:53Z</time>
      </trkpt>
      <trkpt lat="44.81882" lon="-0.41721">
        <ele>44</ele>
        <time>2011-12-23T11:09:58Z</time>
      </trkpt>
      <trkpt lat="44.81885" lon="-0.41707">
        <ele>45</ele>
        <time>2011-12-23T11:10:05Z</time>
      </trkpt>
      <trkpt lat="44.81886" lon="-0.41692">
        <ele>46</ele>
        <time>2011-12-23T11:10:12Z</time>
      </trkpt>
      <trkpt lat="44.81882" lon="-0.41679">
        <ele>47</ele>
        <time>2011-12-23T11:10:19Z</time>
      </trkpt>
      <trkpt lat="44.81877" lon="-0.41668">
        <ele>48</ele>
        <time>2011-12-23T11:10:25Z</time>
      </trkpt>
      <trkpt lat="44.81873" lon="-0.41654">
        <ele>49</ele>
        <time>2011-12-23T11:10:31Z</time>
      </trkpt>
      <trkpt lat="44.81869" lon="-0.4164">
        <ele>50</ele>
        <time>2011-12-23T11:10:38Z</time>
      </trkpt>
      <trkpt lat="44.81869" lon="-0.41626">
        <ele>51</ele>
        <time>2011-12-23T11:10:52Z</time>
      </trkpt>
      <trkpt lat="44.8186" lon="-0.41633">
        <ele>51</ele>
        <time>2011-12-23T11:12:18Z</time>
      </trkpt>
      <trkpt lat="44.8185" lon="-0.41636">
        <ele>52</ele>
        <time>2011-12-23T11:12:25Z</time>
      </trkpt>
      <trkpt lat="44.81841" lon="-0.41638">
        <ele>52</ele>
        <time>2011-12-23T11:12:33Z</time>
      </trkpt>
      <trkpt lat="44.8183" lon="-0.41637">
        <ele>52</ele>
        <time>2011-12-23T11:12:39Z</time>
      </trkpt>
      <trkpt lat="44.81819" lon="-0.41633">
        <ele>52</ele>
        <time>2011-12-23T11:12:44Z</time>
      </trkpt>
      <trkpt lat="44.81809" lon="-0.4163">
        <ele>52</ele>
        <time>2011-12-23T11:12:48Z</time>
      </trkpt>
      <trkpt lat="44.81798" lon="-0.41624">
        <ele>52</ele>
        <time>2011-12-23T11:12:52Z</time>
      </trkpt>
      <trkpt lat="44.81787" lon="-0.41617">
        <ele>52</ele>
        <time>2011-12-23T11:12:56Z</time>
      </trkpt>
      <trkpt lat="44.81779" lon="-0.41611">
        <ele>52</ele>
        <time>2011-12-23T11:12:59Z</time>
      </trkpt>
      <trkpt lat="44.8177" lon="-0.41604">
        <ele>52</ele>
        <time>2011-12-23T11:13:02Z</time>
      </trkpt>
      <trkpt lat="44.81761" lon="-0.41597">
        <ele>52</ele>
        <time>2011-12-23T11:13:05Z</time>
      </trkpt>
      <trkpt lat="44.81752" lon="-0.41587">
        <ele>52</ele>
        <time>2011-12-23T11:13:08Z</time>
      </trkpt>
      <trkpt lat="44.81743" lon="-0.41576">
        <ele>53</ele>
        <time>2011-12-23T11:13:11Z</time>
      </trkpt>
      <trkpt lat="44.81733" lon="-0.41567">
        <ele>52</ele>
        <time>2011-12-23T11:13:14Z</time>
      </trkpt>
      <trkpt lat="44.81722" lon="-0.41558">
        <ele>52</ele>
        <time>2011-12-23T11:13:17Z</time>
      </trkpt>
      <trkpt lat="44.81713" lon="-0.41549">
        <ele>52</ele>
        <time>2011-12-23T11:13:20Z</time>
      </trkpt>
      <trkpt lat="44.81702" lon="-0.41542">
        <ele>52</ele>
        <time>2011-12-23T11:13:23Z</time>
      </trkpt>
      <trkpt lat="44.81692" lon="-0.41534">
        <ele>52</ele>
        <time>2011-12-23T11:13:26Z</time>
      </trkpt>
      <trkpt lat="44.81685" lon="-0.41517">
        <ele>53</ele>
        <time>2011-12-23T11:13:29Z</time>
      </trkpt>
      <trkpt lat="44.81681" lon="-0.41504">
        <ele>53</ele>
        <time>2011-12-23T11:13:32Z</time>
      </trkpt>
      <trkpt lat="44.81678" lon="-0.41491">
        <ele>54</ele>
        <time>2011-12-23T11:13:35Z</time>
      </trkpt>
      <trkpt lat="44.81674" lon="-0.41479">
        <ele>54</ele>
        <time>2011-12-23T11:13:38Z</time>
      </trkpt>
      <trkpt lat="44.81672" lon="-0.41464">
        <ele>55</ele>
        <time>2011-12-23T11:13:42Z</time>
      </trkpt>
      <trkpt lat="44.81669" lon="-0.41449">
        <ele>55</ele>
        <time>2011-12-23T11:13:46Z</time>
      </trkpt>
      <trkpt lat="44.81668" lon="-0.41434">
        <ele>56</ele>
        <time>2011-12-23T11:13:52Z</time>
      </trkpt>
      <trkpt lat="44.81671" lon="-0.41421">
        <ele>57</ele>
        <time>2011-12-23T11:13:59Z</time>
      </trkpt>
      <trkpt lat="44.81673" lon="-0.41408">
        <ele>59</ele>
        <time>2011-12-23T11:14:09Z</time>
      </trkpt>
      <trkpt lat="44.81674" lon="-0.41394">
        <ele>60</ele>
        <time>2011-12-23T11:14:19Z</time>
      </trkpt>
      <trkpt lat="44.81676" lon="-0.41382">
        <ele>61</ele>
        <time>2011-12-23T11:14:25Z</time>
      </trkpt>
      <trkpt lat="44.81678" lon="-0.41367">
        <ele>62</ele>
        <time>2011-12-23T11:14:31Z</time>
      </trkpt>
      <trkpt lat="44.8168" lon="-0.41354">
        <ele>63</ele>
        <time>2011-12-23T11:14:36Z</time>
      </trkpt>
      <trkpt lat="44.81677" lon="-0.41341">
        <ele>64</ele>
        <time>2011-12-23T11:14:41Z</time>
      </trkpt>
      <trkpt lat="44.81674" lon="-0.41327">
        <ele>64</ele>
        <time>2011-12-23T11:14:46Z</time>
      </trkpt>
      <trkpt lat="44.81671" lon="-0.41314">
        <ele>65</ele>
        <time>2011-12-23T11:14:52Z</time>
      </trkpt>
      <trkpt lat="44.81666" lon="-0.41293">
        <ele>66</ele>
        <time>2011-12-23T11:18:24Z</time>
      </trkpt>
      <trkpt lat="44.81676" lon="-0.41273">
        <ele>67</ele>
        <time>2011-12-23T11:18:58Z</time>
      </trkpt>
      <trkpt lat="44.81685" lon="-0.41279">
        <ele>68</ele>
        <time>2011-12-23T11:19:07Z</time>
      </trkpt>
      <trkpt lat="44.81695" lon="-0.41281">
        <ele>68</ele>
        <time>2011-12-23T11:19:14Z</time>
      </trkpt>
      <trkpt lat="44.81706" lon="-0.41283">
        <ele>69</ele>
        <time>2011-12-23T11:19:21Z</time>
      </trkpt>
      <trkpt lat="44.81715" lon="-0.41285">
        <ele>69</ele>
        <time>2011-12-23T11:19:27Z</time>
      </trkpt>
      <trkpt lat="44.81726" lon="-0.41287">
        <ele>70</ele>
        <time>2011-12-23T11:19:34Z</time>
      </trkpt>
      <trkpt lat="44.81736" lon="-0.41288">
        <ele>70</ele>
        <time>2011-12-23T11:19:40Z</time>
      </trkpt>
      <trkpt lat="44.81745" lon="-0.41289">
        <ele>70</ele>
        <time>2011-12-23T11:19:46Z</time>
      </trkpt>
      <trkpt lat="44.81756" lon="-0.41289">
        <ele>70</ele>
        <time>2011-12-23T11:19:53Z</time>
      </trkpt>
      <trkpt lat="44.81759" lon="-0.41276">
        <ele>70</ele>
        <time>2011-12-23T11:19:58Z</time>
      </trkpt>
      <trkpt lat="44.81761" lon="-0.41261">
        <ele>71</ele>
        <time>2011-12-23T11:20:02Z</time>
      </trkpt>
      <trkpt lat="44.81763" lon="-0.41247">
        <ele>71</ele>
        <time>2011-12-23T11:20:07Z</time>
      </trkpt>
      <trkpt lat="44.81764" lon="-0.41232">
        <ele>70</ele>
        <time>2011-12-23T11:20:13Z</time>
      </trkpt>
      <trkpt lat="44.81766" lon="-0.41217">
        <ele>70</ele>
        <time>2011-12-23T11:20:20Z</time>
      </trkpt>
      <trkpt lat="44.81776" lon="-0.41219">
        <ele>69</ele>
        <time>2011-12-23T11:20:32Z</time>
      </trkpt>
      <trkpt lat="44.81782" lon="-0.41232">
        <ele>69</ele>
        <time>2011-12-23T11:20:38Z</time>
      </trkpt>
      <trkpt lat="44.81788" lon="-0.41243">
        <ele>69</ele>
        <time>2011-12-23T11:20:46Z</time>
      </trkpt>
      <trkpt lat="44.81798" lon="-0.41243">
        <ele>69</ele>
        <time>2011-12-23T11:20:54Z</time>
      </trkpt>
      <trkpt lat="44.81808" lon="-0.41244">
        <ele>68</ele>
        <time>2011-12-23T11:21:01Z</time>
      </trkpt>
      <trkpt lat="44.81819" lon="-0.41245">
        <ele>68</ele>
        <time>2011-12-23T11:21:07Z</time>
      </trkpt>
      <trkpt lat="44.8183" lon="-0.41247">
        <ele>67</ele>
        <time>2011-12-23T11:21:11Z</time>
      </trkpt>
      <trkpt lat="44.8184" lon="-0.4125">
        <ele>67</ele>
        <time>2011-12-23T11:21:15Z</time>
      </trkpt>
      <trkpt lat="44.8185" lon="-0.41254">
        <ele>67</ele>
        <time>2011-12-23T11:21:19Z</time>
      </trkpt>
      <trkpt lat="44.81859" lon="-0.41257">
        <ele>66</ele>
        <time>2011-12-23T11:21:24Z</time>
      </trkpt>
      <trkpt lat="44.81868" lon="-0.41265">
        <ele>65</ele>
        <time>2011-12-23T11:21:31Z</time>
      </trkpt>
      <trkpt lat="44.81875" lon="-0.41273">
        <ele>64</ele>
        <time>2011-12-23T11:21:37Z</time>
      </trkpt>
      <trkpt lat="44.81884" lon="-0.41263">
        <ele>63</ele>
        <time>2011-12-23T11:21:44Z</time>
      </trkpt>
      <trkpt lat="44.81891" lon="-0.41249">
        <ele>62</ele>
        <time>2011-12-23T11:21:49Z</time>
      </trkpt>
      <trkpt lat="44.81897" lon="-0.41238">
        <ele>60</ele>
        <time>2011-12-23T11:21:52Z</time>
      </trkpt>
      <trkpt lat="44.81903" lon="-0.41227">
        <ele>58</ele>
        <time>2011-12-23T11:21:55Z</time>
      </trkpt>
      <trkpt lat="44.8191" lon="-0.41217">
        <ele>57</ele>
        <time>2011-12-23T11:21:59Z</time>
      </trkpt>
      <trkpt lat="44.81915" lon="-0.41205">
        <ele>56</ele>
        <time>2011-12-23T11:22:04Z</time>
      </trkpt>
      <trkpt lat="44.81925" lon="-0.41207">
        <ele>54</ele>
        <time>2011-12-23T11:22:11Z</time>
      </trkpt>
      <trkpt lat="44.81935" lon="-0.41211">
        <ele>52</ele>
        <time>2011-12-23T11:22:20Z</time>
      </trkpt>
      <trkpt lat="44.81942" lon="-0.412">
        <ele>51</ele>
        <time>2011-12-23T11:22:25Z</time>
      </trkpt>
      <trkpt lat="44.81947" lon="-0.41189">
        <ele>51</ele>
        <time>2011-12-23T11:22:30Z</time>
      </trkpt>
      <trkpt lat="44.81954" lon="-0.41175">
        <ele>51</ele>
        <time>2011-12-23T11:22:34Z</time>
      </trkpt>
      <trkpt lat="44.8196" lon="-0.41164">
        <ele>50</ele>
        <time>2011-12-23T11:22:37Z</time>
      </trkpt>
      <trkpt lat="44.81967" lon="-0.41153">
        <ele>50</ele>
        <time>2011-12-23T11:22:42Z</time>
      </trkpt>
      <trkpt lat="44.81977" lon="-0.41148">
        <ele>49</ele>
        <time>2011-12-23T11:23:02Z</time>
      </trkpt>
      <trkpt lat="44.81986" lon="-0.41142">
        <ele>49</ele>
        <time>2011-12-23T11:23:07Z</time>
      </trkpt>
      <trkpt lat="44.81995" lon="-0.41135">
        <ele>48</ele>
        <time>2011-12-23T11:23:11Z</time>
      </trkpt>
      <trkpt lat="44.82005" lon="-0.41129">
        <ele>48</ele>
        <time>2011-12-23T11:23:16Z</time>
      </trkpt>
      <trkpt lat="44.82015" lon="-0.41123">
        <ele>47</ele>
        <time>2011-12-23T11:23:21Z</time>
      </trkpt>
      <trkpt lat="44.82025" lon="-0.41116">
        <ele>47</ele>
        <time>2011-12-23T11:23:26Z</time>
      </trkpt>
      <trkpt lat="44.82036" lon="-0.4111">
        <ele>47</ele>
        <time>2011-12-23T11:23:31Z</time>
      </trkpt>
      <trkpt lat="44.82044" lon="-0.41102">
        <ele>48</ele>
        <time>2011-12-23T11:23:35Z</time>
      </trkpt>
      <trkpt lat="44.82049" lon="-0.41089">
        <ele>48</ele>
        <time>2011-12-23T11:23:39Z</time>
      </trkpt>
      <trkpt lat="44.82052" lon="-0.41075">
        <ele>49</ele>
        <time>2011-12-23T11:23:43Z</time>
      </trkpt>
      <trkpt lat="44.82052" lon="-0.41061">
        <ele>49</ele>
        <time>2011-12-23T11:23:47Z</time>
      </trkpt>
      <trkpt lat="44.82051" lon="-0.41048">
        <ele>50</ele>
        <time>2011-12-23T11:23:52Z</time>
      </trkpt>
      <trkpt lat="44.82052" lon="-0.41033">
        <ele>50</ele>
        <time>2011-12-23T11:23:58Z</time>
      </trkpt>
      <trkpt lat="44.82049" lon="-0.4102">
        <ele>50</ele>
        <time>2011-12-23T11:24:03Z</time>
      </trkpt>
      <trkpt lat="44.82045" lon="-0.41008">
        <ele>50</ele>
        <time>2011-12-23T11:24:07Z</time>
      </trkpt>
      <trkpt lat="44.82041" lon="-0.40994">
        <ele>50</ele>
        <time>2011-12-23T11:24:13Z</time>
      </trkpt>
      <trkpt lat="44.82041" lon="-0.40978">
        <ele>50</ele>
        <time>2011-12-23T11:24:19Z</time>
      </trkpt>
      <trkpt lat="44.82041" lon="-0.40964">
        <ele>50</ele>
        <time>2011-12-23T11:24:25Z</time>
      </trkpt>
      <trkpt lat="44.82049" lon="-0.40955">
        <ele>51</ele>
        <time>2011-12-23T11:24:40Z</time>
      </trkpt>
      <trkpt lat="44.82059" lon="-0.40959">
        <ele>52</ele>
        <time>2011-12-23T11:24:47Z</time>
      </trkpt>
      <trkpt lat="44.82066" lon="-0.40968">
        <ele>53</ele>
        <time>2011-12-23T11:25:06Z</time>
      </trkpt>
      <trkpt lat="44.82073" lon="-0.40976">
        <ele>53</ele>
        <time>2011-12-23T11:25:41Z</time>
      </trkpt>
      <trkpt lat="44.82082" lon="-0.40983">
        <ele>54</ele>
        <time>2011-12-23T11:26:00Z</time>
      </trkpt>
      <trkpt lat="44.82091" lon="-0.40984">
        <ele>55</ele>
        <time>2011-12-23T11:26:14Z</time>
      </trkpt>
      <trkpt lat="44.82101" lon="-0.40985">
        <ele>56</ele>
        <time>2011-12-23T11:26:26Z</time>
      </trkpt>
      <trkpt lat="44.8211" lon="-0.40989">
        <ele>57</ele>
        <time>2011-12-23T11:26:40Z</time>
      </trkpt>
      <trkpt lat="44.82121" lon="-0.40991">
        <ele>59</ele>
        <time>2011-12-23T11:26:47Z</time>
      </trkpt>
      <trkpt lat="44.82132" lon="-0.40994">
        <ele>59</ele>
        <time>2011-12-23T11:26:54Z</time>
      </trkpt>
      <trkpt lat="44.82142" lon="-0.40993">
        <ele>58</ele>
        <time>2011-12-23T11:27:00Z</time>
      </trkpt>
      <trkpt lat="44.82151" lon="-0.40987">
        <ele>59</ele>
        <time>2011-12-23T11:27:05Z</time>
      </trkpt>
      <trkpt lat="44.82157" lon="-0.40973">
        <ele>59</ele>
        <time>2011-12-23T11:27:10Z</time>
      </trkpt>
      <trkpt lat="44.82162" lon="-0.4096">
        <ele>60</ele>
        <time>2011-12-23T11:27:15Z</time>
      </trkpt>
      <trkpt lat="44.82167" lon="-0.40948">
        <ele>60</ele>
        <time>2011-12-23T11:27:19Z</time>
      </trkpt>
      <trkpt lat="44.82171" lon="-0.40935">
        <ele>60</ele>
        <time>2011-12-23T11:27:23Z</time>
      </trkpt>
      <trkpt lat="44.82176" lon="-0.4092">
        <ele>61</ele>
        <time>2011-12-23T11:27:28Z</time>
      </trkpt>
      <trkpt lat="44.8218" lon="-0.40908">
        <ele>61</ele>
        <time>2011-12-23T11:27:33Z</time>
      </trkpt>
      <trkpt lat="44.82181" lon="-0.40894">
        <ele>61</ele>
        <time>2011-12-23T11:27:40Z</time>
      </trkpt>
      <trkpt lat="44.82191" lon="-0.40892">
        <ele>61</ele>
        <time>2011-12-23T11:27:53Z</time>
      </trkpt>
      <trkpt lat="44.82199" lon="-0.40901">
        <ele>60</ele>
        <time>2011-12-23T11:28:06Z</time>
      </trkpt>
      <trkpt lat="44.82208" lon="-0.40907">
        <ele>60</ele>
        <time>2011-12-23T11:28:11Z</time>
      </trkpt>
      <trkpt lat="44.82216" lon="-0.40914">
        <ele>59</ele>
        <time>2011-12-23T11:28:16Z</time>
      </trkpt>
      <trkpt lat="44.82226" lon="-0.40923">
        <ele>57</ele>
        <time>2011-12-23T11:28:21Z</time>
      </trkpt>
      <trkpt lat="44.82235" lon="-0.40932">
        <ele>55</ele>
        <time>2011-12-23T11:28:25Z</time>
      </trkpt>
      <trkpt lat="44.82243" lon="-0.40938">
        <ele>54</ele>
        <time>2011-12-23T11:28:29Z</time>
      </trkpt>
      <trkpt lat="44.82251" lon="-0.40946">
        <ele>53</ele>
        <time>2011-12-23T11:28:35Z</time>
      </trkpt>
      <trkpt lat="44.8226" lon="-0.40953">
        <ele>51</ele>
        <time>2011-12-23T11:28:42Z</time>
      </trkpt>
      <trkpt lat="44.82269" lon="-0.40957">
        <ele>51</ele>
        <time>2011-12-23T11:28:51Z</time>
      </trkpt>
      <trkpt lat="44.82274" lon="-0.40969">
        <ele>51</ele>
        <time>2011-12-23T11:29:12Z</time>
      </trkpt>
      <trkpt lat="44.82283" lon="-0.40971">
        <ele>52</ele>
        <time>2011-12-23T11:29:26Z</time>
      </trkpt>
      <trkpt lat="44.82292" lon="-0.40967">
        <ele>52</ele>
        <time>2011-12-23T11:29:33Z</time>
      </trkpt>
      <trkpt lat="44.82302" lon="-0.40968">
        <ele>52</ele>
        <time>2011-12-23T11:29:41Z</time>
      </trkpt>
      <trkpt lat="44.82313" lon="-0.4097">
        <ele>53</ele>
        <time>2011-12-23T11:29:49Z</time>
      </trkpt>
      <trkpt lat="44.82321" lon="-0.40976">
        <ele>53</ele>
        <time>2011-12-23T11:29:55Z</time>
      </trkpt>
      <trkpt lat="44.82329" lon="-0.40985">
        <ele>54</ele>
        <time>2011-12-23T11:30:01Z</time>
      </trkpt>
      <trkpt lat="44.82338" lon="-0.40992">
        <ele>55</ele>
        <time>2011-12-23T11:30:08Z</time>
      </trkpt>
      <trkpt lat="44.82345" lon="-0.41001">
        <ele>55</ele>
        <time>2011-12-23T11:30:14Z</time>
      </trkpt>
      <trkpt lat="44.82353" lon="-0.41011">
        <ele>56</ele>
        <time>2011-12-23T11:30:20Z</time>
      </trkpt>
      <trkpt lat="44.82362" lon="-0.41019">
        <ele>57</ele>
        <time>2011-12-23T11:30:31Z</time>
      </trkpt>
      <trkpt lat="44.82369" lon="-0.4103">
        <ele>58</ele>
        <time>2011-12-23T11:30:50Z</time>
      </trkpt>
      <trkpt lat="44.82376" lon="-0.41039">
        <ele>59</ele>
        <time>2011-12-23T11:30:58Z</time>
      </trkpt>
      <trkpt lat="44.82383" lon="-0.41049">
        <ele>60</ele>
        <time>2011-12-23T11:31:05Z</time>
      </trkpt>
      <trkpt lat="44.82392" lon="-0.41058">
        <ele>60</ele>
        <time>2011-12-23T11:31:11Z</time>
      </trkpt>
      <trkpt lat="44.82401" lon="-0.41064">
        <ele>61</ele>
        <time>2011-12-23T11:31:17Z</time>
      </trkpt>
      <trkpt lat="44.82408" lon="-0.41073">
        <ele>62</ele>
        <time>2011-12-23T11:31:24Z</time>
      </trkpt>
      <trkpt lat="44.82417" lon="-0.41082">
        <ele>63</ele>
        <time>2011-12-23T11:31:32Z</time>
      </trkpt>
      <trkpt lat="44.82424" lon="-0.4109">
        <ele>64</ele>
        <time>2011-12-23T11:31:40Z</time>
      </trkpt>
      <trkpt lat="44.82434" lon="-0.41088">
        <ele>65</ele>
        <time>2011-12-23T11:31:50Z</time>
      </trkpt>
      <trkpt lat="44.82439" lon="-0.411">
        <ele>65</ele>
        <time>2011-12-23T11:32:17Z</time>
      </trkpt>
      <trkpt lat="44.82439" lon="-0.41085">
        <ele>65</ele>
        <time>2011-12-23T11:32:54Z</time>
      </trkpt>
      <trkpt lat="44.82445" lon="-0.41075">
        <ele>66</ele>
        <time>2011-12-23T11:33:01Z</time>
      </trkpt>
      <trkpt lat="44.82452" lon="-0.41062">
        <ele>66</ele>
        <time>2011-12-23T11:33:09Z</time>
      </trkpt>
      <trkpt lat="44.82457" lon="-0.41049">
        <ele>67</ele>
        <time>2011-12-23T11:33:18Z</time>
      </trkpt>
      <trkpt lat="44.82462" lon="-0.41038">
        <ele>67</ele>
        <time>2011-12-23T11:33:25Z</time>
      </trkpt>
      <trkpt lat="44.82467" lon="-0.41026">
        <ele>67</ele>
        <time>2011-12-23T11:33:32Z</time>
      </trkpt>
      <trkpt lat="44.82472" lon="-0.41014">
        <ele>67</ele>
        <time>2011-12-23T11:33:39Z</time>
      </trkpt>
      <trkpt lat="44.82475" lon="-0.41">
        <ele>66</ele>
        <time>2011-12-23T11:33:45Z</time>
      </trkpt>
      <trkpt lat="44.82478" lon="-0.40987">
        <ele>66</ele>
        <time>2011-12-23T11:33:51Z</time>
      </trkpt>
      <trkpt lat="44.82481" lon="-0.40973">
        <ele>65</ele>
        <time>2011-12-23T11:33:57Z</time>
      </trkpt>
      <trkpt lat="44.82484" lon="-0.4096">
        <ele>65</ele>
        <time>2011-12-23T11:34:02Z</time>
      </trkpt>
      <trkpt lat="44.82487" lon="-0.40946">
        <ele>64</ele>
        <time>2011-12-23T11:34:07Z</time>
      </trkpt>
      <trkpt lat="44.82492" lon="-0.40932">
        <ele>64</ele>
        <time>2011-12-23T11:34:13Z</time>
      </trkpt>
      <trkpt lat="44.82495" lon="-0.40918">
        <ele>64</ele>
        <time>2011-12-23T11:34:19Z</time>
      </trkpt>
      <trkpt lat="44.82495" lon="-0.40905">
        <ele>63</ele>
        <time>2011-12-23T11:34:42Z</time>
      </trkpt>
      <trkpt lat="44.825" lon="-0.40891">
        <ele>63</ele>
        <time>2011-12-23T11:34:51Z</time>
      </trkpt>
      <trkpt lat="44.82506" lon="-0.40879">
        <ele>63</ele>
        <time>2011-12-23T11:34:57Z</time>
      </trkpt>
      <trkpt lat="44.82511" lon="-0.40866">
        <ele>63</ele>
        <time>2011-12-23T11:35:03Z</time>
      </trkpt>
      <trkpt lat="44.82518" lon="-0.40858">
        <ele>63</ele>
        <time>2011-12-23T11:35:12Z</time>
      </trkpt>
      <trkpt lat="44.82509" lon="-0.40861">
        <ele>63</ele>
        <time>2011-12-23T11:35:27Z</time>
      </trkpt>
      <trkpt lat="44.82518" lon="-0.40856">
        <ele>63</ele>
        <time>2011-12-23T11:35:47Z</time>
      </trkpt>
      <trkpt lat="44.82508" lon="-0.40861">
        <ele>63</ele>
        <time>2011-12-23T11:35:57Z</time>
      </trkpt>
      <trkpt lat="44.82517" lon="-0.40856">
        <ele>63</ele>
        <time>2011-12-23T11:36:16Z</time>
      </trkpt>
      <trkpt lat="44.82527" lon="-0.40853">
        <ele>63</ele>
        <time>2011-12-23T11:36:25Z</time>
      </trkpt>
      <trkpt lat="44.82536" lon="-0.40845">
        <ele>63</ele>
        <time>2011-12-23T11:36:33Z</time>
      </trkpt>
      <trkpt lat="44.8254" lon="-0.4083">
        <ele>62</ele>
        <time>2011-12-23T11:36:40Z</time>
      </trkpt>
      <trkpt lat="44.8255" lon="-0.4082">
        <ele>61</ele>
        <time>2011-12-23T11:36:44Z</time>
      </trkpt>
      <trkpt lat="44.82556" lon="-0.40811">
        <ele>60</ele>
        <time>2011-12-23T11:36:48Z</time>
      </trkpt>
      <trkpt lat="44.82559" lon="-0.40795">
        <ele>59</ele>
        <time>2011-12-23T11:36:53Z</time>
      </trkpt>
      <trkpt lat="44.82559" lon="-0.40782">
        <ele>59</ele>
        <time>2011-12-23T11:36:58Z</time>
      </trkpt>
      <trkpt lat="44.82557" lon="-0.40768">
        <ele>59</ele>
        <time>2011-12-23T11:37:04Z</time>
      </trkpt>
      <trkpt lat="44.82556" lon="-0.40754">
        <ele>59</ele>
        <time>2011-12-23T11:37:12Z</time>
      </trkpt>
      <trkpt lat="44.82549" lon="-0.40742">
        <ele>59</ele>
        <time>2011-12-23T11:37:20Z</time>
      </trkpt>
      <trkpt lat="44.82543" lon="-0.40731">
        <ele>59</ele>
        <time>2011-12-23T11:37:26Z</time>
      </trkpt>
      <trkpt lat="44.82536" lon="-0.40722">
        <ele>59</ele>
        <time>2011-12-23T11:37:32Z</time>
      </trkpt>
      <trkpt lat="44.82533" lon="-0.40708">
        <ele>59</ele>
        <time>2011-12-23T11:37:38Z</time>
      </trkpt>
      <trkpt lat="44.82533" lon="-0.40693">
        <ele>59</ele>
        <time>2011-12-23T11:37:46Z</time>
      </trkpt>
      <trkpt lat="44.82534" lon="-0.40678">
        <ele>60</ele>
        <time>2011-12-23T11:37:52Z</time>
      </trkpt>
      <trkpt lat="44.82539" lon="-0.40665">
        <ele>60</ele>
        <time>2011-12-23T11:37:59Z</time>
      </trkpt>
      <trkpt lat="44.82544" lon="-0.40652">
        <ele>61</ele>
        <time>2011-12-23T11:38:06Z</time>
      </trkpt>
      <trkpt lat="44.82548" lon="-0.4064">
        <ele>61</ele>
        <time>2011-12-23T11:38:12Z</time>
      </trkpt>
      <trkpt lat="44.82555" lon="-0.40628">
        <ele>61</ele>
        <time>2011-12-23T11:38:18Z</time>
      </trkpt>
      <trkpt lat="44.82561" lon="-0.40617">
        <ele>62</ele>
        <time>2011-12-23T11:38:23Z</time>
      </trkpt>
      <trkpt lat="44.82568" lon="-0.40607">
        <ele>63</ele>
        <time>2011-12-23T11:38:30Z</time>
      </trkpt>
      <trkpt lat="44.82576" lon="-0.40599">
        <ele>63</ele>
        <time>2011-12-23T11:38:37Z</time>
      </trkpt>
      <trkpt lat="44.82582" lon="-0.40587">
        <ele>64</ele>
        <time>2011-12-23T11:38:44Z</time>
      </trkpt>
      <trkpt lat="44.82587" lon="-0.40572">
        <ele>65</ele>
        <time>2011-12-23T11:38:52Z</time>
      </trkpt>
      <trkpt lat="44.82588" lon="-0.40557">
        <ele>66</ele>
        <time>2011-12-23T11:38:58Z</time>
      </trkpt>
      <trkpt lat="44.8259" lon="-0.40543">
        <ele>66</ele>
        <time>2011-12-23T11:39:04Z</time>
      </trkpt>
      <trkpt lat="44.8259" lon="-0.40529">
        <ele>67</ele>
        <time>2011-12-23T11:39:10Z</time>
      </trkpt>
      <trkpt lat="44.8259" lon="-0.40516">
        <ele>67</ele>
        <time>2011-12-23T11:39:17Z</time>
      </trkpt>
      <trkpt lat="44.82589" lon="-0.40502">
        <ele>68</ele>
        <time>2011-12-23T11:39:23Z</time>
      </trkpt>
      <trkpt lat="44.82587" lon="-0.40487">
        <ele>69</ele>
        <time>2011-12-23T11:39:30Z</time>
      </trkpt>
      <trkpt lat="44.82585" lon="-0.40473">
        <ele>70</ele>
        <time>2011-12-23T11:39:37Z</time>
      </trkpt>
      <trkpt lat="44.82584" lon="-0.40459">
        <ele>70</ele>
        <time>2011-12-23T11:39:42Z</time>
      </trkpt>
      <trkpt lat="44.82584" lon="-0.40444">
        <ele>71</ele>
        <time>2011-12-23T11:39:48Z</time>
      </trkpt>
      <trkpt lat="44.82584" lon="-0.40431">
        <ele>71</ele>
        <time>2011-12-23T11:39:54Z</time>
      </trkpt>
      <trkpt lat="44.82585" lon="-0.40417">
        <ele>72</ele>
        <time>2011-12-23T11:40:01Z</time>
      </trkpt>
      <trkpt lat="44.82586" lon="-0.40402">
        <ele>72</ele>
        <time>2011-12-23T11:40:08Z</time>
      </trkpt>
      <trkpt lat="44.82587" lon="-0.40387">
        <ele>72</ele>
        <time>2011-12-23T11:40:15Z</time>
      </trkpt>
      <trkpt lat="44.82588" lon="-0.40372">
        <ele>73</ele>
        <time>2011-12-23T11:40:20Z</time>
      </trkpt>
      <trkpt lat="44.82589" lon="-0.40357">
        <ele>73</ele>
        <time>2011-12-23T11:40:26Z</time>
      </trkpt>
      <trkpt lat="44.82592" lon="-0.40343">
        <ele>73</ele>
        <time>2011-12-23T11:40:33Z</time>
      </trkpt>
      <trkpt lat="44.82593" lon="-0.4033">
        <ele>73</ele>
        <time>2011-12-23T11:40:40Z</time>
      </trkpt>
      <trkpt lat="44.82594" lon="-0.40316">
        <ele>74</ele>
        <time>2011-12-23T11:40:46Z</time>
      </trkpt>
      <trkpt lat="44.82596" lon="-0.40304">
        <ele>74</ele>
        <time>2011-12-23T11:40:54Z</time>
      </trkpt>
      <trkpt lat="44.82596" lon="-0.40289">
        <ele>74</ele>
        <time>2011-12-23T11:41:00Z</time>
      </trkpt>
      <trkpt lat="44.82596" lon="-0.40275">
        <ele>75</ele>
        <time>2011-12-23T11:41:06Z</time>
      </trkpt>
      <trkpt lat="44.82595" lon="-0.40262">
        <ele>75</ele>
        <time>2011-12-23T11:41:12Z</time>
      </trkpt>
      <trkpt lat="44.82595" lon="-0.40248">
        <ele>76</ele>
        <time>2011-12-23T11:41:18Z</time>
      </trkpt>
      <trkpt lat="44.82594" lon="-0.40235">
        <ele>77</ele>
        <time>2011-12-23T11:41:24Z</time>
      </trkpt>
      <trkpt lat="44.82593" lon="-0.40221">
        <ele>78</ele>
        <time>2011-12-23T11:41:29Z</time>
      </trkpt>
      <trkpt lat="44.82593" lon="-0.40208">
        <ele>78</ele>
        <time>2011-12-23T11:41:35Z</time>
      </trkpt>
      <trkpt lat="44.82593" lon="-0.40194">
        <ele>79</ele>
        <time>2011-12-23T11:41:41Z</time>
      </trkpt>
      <trkpt lat="44.82593" lon="-0.4018">
        <ele>79</ele>
        <time>2011-12-23T11:41:47Z</time>
      </trkpt>
      <trkpt lat="44.82593" lon="-0.40166">
        <ele>80</ele>
        <time>2011-12-23T11:41:52Z</time>
      </trkpt>
      <trkpt lat="44.82593" lon="-0.40152">
        <ele>80</ele>
        <time>2011-12-23T11:41:58Z</time>
      </trkpt>
      <trkpt lat="44.82595" lon="-0.40138">
        <ele>81</ele>
        <time>2011-12-23T11:42:03Z</time>
      </trkpt>
      <trkpt lat="44.82598" lon="-0.40123">
        <ele>81</ele>
        <time>2011-12-23T11:42:09Z</time>
      </trkpt>
      <trkpt lat="44.82603" lon="-0.40111">
        <ele>82</ele>
        <time>2011-12-23T11:42:15Z</time>
      </trkpt>
      <trkpt lat="44.82609" lon="-0.40101">
        <ele>83</ele>
        <time>2011-12-23T11:42:20Z</time>
      </trkpt>
      <trkpt lat="44.82617" lon="-0.40095">
        <ele>83</ele>
        <time>2011-12-23T11:42:25Z</time>
      </trkpt>
      <trkpt lat="44.82626" lon="-0.40089">
        <ele>84</ele>
        <time>2011-12-23T11:42:30Z</time>
      </trkpt>
      <trkpt lat="44.82635" lon="-0.40079">
        <ele>85</ele>
        <time>2011-12-23T11:42:36Z</time>
      </trkpt>
      <trkpt lat="44.82642" lon="-0.40069">
        <ele>85</ele>
        <time>2011-12-23T11:42:42Z</time>
      </trkpt>
      <trkpt lat="44.82649" lon="-0.40057">
        <ele>86</ele>
        <time>2011-12-23T11:42:49Z</time>
      </trkpt>
      <trkpt lat="44.82656" lon="-0.40046">
        <ele>86</ele>
        <time>2011-12-23T11:42:56Z</time>
      </trkpt>
      <trkpt lat="44.82662" lon="-0.40035">
        <ele>87</ele>
        <time>2011-12-23T11:43:02Z</time>
      </trkpt>
      <trkpt lat="44.82667" lon="-0.40024">
        <ele>87</ele>
        <time>2011-12-23T11:43:08Z</time>
      </trkpt>
      <trkpt lat="44.82672" lon="-0.40011">
        <ele>87</ele>
        <time>2011-12-23T11:43:14Z</time>
      </trkpt>
      <trkpt lat="44.82677" lon="-0.39998">
        <ele>87</ele>
        <time>2011-12-23T11:43:19Z</time>
      </trkpt>
      <trkpt lat="44.82684" lon="-0.39987">
        <ele>87</ele>
        <time>2011-12-23T11:43:25Z</time>
      </trkpt>
      <trkpt lat="44.82691" lon="-0.39978">
        <ele>87</ele>
        <time>2011-12-23T11:43:31Z</time>
      </trkpt>
      <trkpt lat="44.82699" lon="-0.39968">
        <ele>87</ele>
        <time>2011-12-23T11:43:38Z</time>
      </trkpt>
      <trkpt lat="44.82708" lon="-0.3996">
        <ele>87</ele>
        <time>2011-12-23T11:43:45Z</time>
      </trkpt>
      <trkpt lat="44.82717" lon="-0.39952">
        <ele>88</ele>
        <time>2011-12-23T11:43:51Z</time>
      </trkpt>
      <trkpt lat="44.82725" lon="-0.39943">
        <ele>88</ele>
        <time>2011-12-23T11:43:57Z</time>
      </trkpt>
      <trkpt lat="44.82734" lon="-0.39936">
        <ele>88</ele>
        <time>2011-12-23T11:44:02Z</time>
      </trkpt>
      <trkpt lat="44.82743" lon="-0.39927">
        <ele>88</ele>
        <time>2011-12-23T11:44:06Z</time>
      </trkpt>
      <trkpt lat="44.82753" lon="-0.39918">
        <ele>88</ele>
        <time>2011-12-23T11:44:10Z</time>
      </trkpt>
      <trkpt lat="44.82762" lon="-0.39911">
        <ele>89</ele>
        <time>2011-12-23T11:44:14Z</time>
      </trkpt>
      <trkpt lat="44.82771" lon="-0.39903">
        <ele>89</ele>
        <time>2011-12-23T11:44:18Z</time>
      </trkpt>
      <trkpt lat="44.8278" lon="-0.39895">
        <ele>89</ele>
        <time>2011-12-23T11:44:22Z</time>
      </trkpt>
      <trkpt lat="44.82789" lon="-0.39888">
        <ele>89</ele>
        <time>2011-12-23T11:44:26Z</time>
      </trkpt>
      <trkpt lat="44.82797" lon="-0.3988">
        <ele>89</ele>
        <time>2011-12-23T11:44:30Z</time>
      </trkpt>
      <trkpt lat="44.82805" lon="-0.39872">
        <ele>89</ele>
        <time>2011-12-23T11:44:34Z</time>
      </trkpt>
      <trkpt lat="44.82813" lon="-0.39865">
        <ele>90</ele>
        <time>2011-12-23T11:44:38Z</time>
      </trkpt>
      <trkpt lat="44.82822" lon="-0.39855">
        <ele>90</ele>
        <time>2011-12-23T11:44:43Z</time>
      </trkpt>
      <trkpt lat="44.82832" lon="-0.39846">
        <ele>90</ele>
        <time>2011-12-23T11:44:48Z</time>
      </trkpt>
      <trkpt lat="44.82841" lon="-0.39837">
        <ele>90</ele>
        <time>2011-12-23T11:44:53Z</time>
      </trkpt>
      <trkpt lat="44.82849" lon="-0.39829">
        <ele>90</ele>
        <time>2011-12-23T11:44:57Z</time>
      </trkpt>
      <trkpt lat="44.82857" lon="-0.3982">
        <ele>90</ele>
        <time>2011-12-23T11:45:02Z</time>
      </trkpt>
      <trkpt lat="44.82866" lon="-0.3981">
        <ele>91</ele>
        <time>2011-12-23T11:45:07Z</time>
      </trkpt>
      <trkpt lat="44.82875" lon="-0.39801">
        <ele>91</ele>
        <time>2011-12-23T11:45:12Z</time>
      </trkpt>
      <trkpt lat="44.82884" lon="-0.39792">
        <ele>91</ele>
        <time>2011-12-23T11:45:17Z</time>
      </trkpt>
      <trkpt lat="44.82892" lon="-0.39783">
        <ele>91</ele>
        <time>2011-12-23T11:45:22Z</time>
      </trkpt>
      <trkpt lat="44.829" lon="-0.39774">
        <ele>91</ele>
        <time>2011-12-23T11:45:27Z</time>
      </trkpt>
      <trkpt lat="44.82897" lon="-0.39761">
        <ele>91</ele>
        <time>2011-12-23T11:45:40Z</time>
      </trkpt>
      <trkpt lat="44.82892" lon="-0.3975">
        <ele>91</ele>
        <time>2011-12-23T11:46:30Z</time>
      </trkpt>
      <trkpt lat="44.82884" lon="-0.39742">
        <ele>91</ele>
        <time>2011-12-23T11:46:34Z</time>
      </trkpt>
      <trkpt lat="44.82874" lon="-0.3973">
        <ele>91</ele>
        <time>2011-12-23T11:46:38Z</time>
      </trkpt>
      <trkpt lat="44.82865" lon="-0.39719">
        <ele>91</ele>
        <time>2011-12-23T11:46:41Z</time>
      </trkpt>
      <trkpt lat="44.82855" lon="-0.39706">
        <ele>90</ele>
        <time>2011-12-23T11:46:44Z</time>
      </trkpt>
      <trkpt lat="44.82844" lon="-0.39694">
        <ele>90</ele>
        <time>2011-12-23T11:46:47Z</time>
      </trkpt>
      <trkpt lat="44.82837" lon="-0.39684">
        <ele>90</ele>
        <time>2011-12-23T11:46:49Z</time>
      </trkpt>
      <trkpt lat="44.82832" lon="-0.39672">
        <ele>89</ele>
        <time>2011-12-23T11:46:51Z</time>
      </trkpt>
      <trkpt lat="44.82826" lon="-0.39661">
        <ele>89</ele>
        <time>2011-12-23T11:46:53Z</time>
      </trkpt>
      <trkpt lat="44.82819" lon="-0.39651">
        <ele>88</ele>
        <time>2011-12-23T11:46:55Z</time>
      </trkpt>
      <trkpt lat="44.82812" lon="-0.39642">
        <ele>88</ele>
        <time>2011-12-23T11:46:57Z</time>
      </trkpt>
      <trkpt lat="44.82805" lon="-0.39633">
        <ele>88</ele>
        <time>2011-12-23T11:46:59Z</time>
      </trkpt>
      <trkpt lat="44.82795" lon="-0.39621">
        <ele>87</ele>
        <time>2011-12-23T11:47:02Z</time>
      </trkpt>
      <trkpt lat="44.82786" lon="-0.39609">
        <ele>87</ele>
        <time>2011-12-23T11:47:05Z</time>
      </trkpt>
      <trkpt lat="44.82779" lon="-0.396">
        <ele>87</ele>
        <time>2011-12-23T11:47:08Z</time>
      </trkpt>
      <trkpt lat="44.82771" lon="-0.3959">
        <ele>87</ele>
        <time>2011-12-23T11:47:12Z</time>
      </trkpt>
      <trkpt lat="44.82762" lon="-0.39581">
        <ele>87</ele>
        <time>2011-12-23T11:47:18Z</time>
      </trkpt>
      <trkpt lat="44.82755" lon="-0.39572">
        <ele>87</ele>
        <time>2011-12-23T11:47:24Z</time>
      </trkpt>
      <trkpt lat="44.82748" lon="-0.39563">
        <ele>87</ele>
        <time>2011-12-23T11:47:30Z</time>
      </trkpt>
      <trkpt lat="44.82745" lon="-0.39549">
        <ele>87</ele>
        <time>2011-12-23T11:47:34Z</time>
      </trkpt>
      <trkpt lat="44.8274" lon="-0.39537">
        <ele>88</ele>
        <time>2011-12-23T11:47:38Z</time>
      </trkpt>
      <trkpt lat="44.82735" lon="-0.39524">
        <ele>88</ele>
        <time>2011-12-23T11:47:42Z</time>
      </trkpt>
      <trkpt lat="44.82731" lon="-0.39512">
        <ele>88</ele>
        <time>2011-12-23T11:47:46Z</time>
      </trkpt>
      <trkpt lat="44.82726" lon="-0.39499">
        <ele>89</ele>
        <time>2011-12-23T11:47:50Z</time>
      </trkpt>
      <trkpt lat="44.82722" lon="-0.39485">
        <ele>89</ele>
        <time>2011-12-23T11:47:54Z</time>
      </trkpt>
      <trkpt lat="44.82717" lon="-0.39472">
        <ele>89</ele>
        <time>2011-12-23T11:47:58Z</time>
      </trkpt>
      <trkpt lat="44.82711" lon="-0.39458">
        <ele>89</ele>
        <time>2011-12-23T11:48:02Z</time>
      </trkpt>
      <trkpt lat="44.82706" lon="-0.39443">
        <ele>90</ele>
        <time>2011-12-23T11:48:06Z</time>
      </trkpt>
      <trkpt lat="44.827" lon="-0.3943">
        <ele>90</ele>
        <time>2011-12-23T11:48:10Z</time>
      </trkpt>
      <trkpt lat="44.82695" lon="-0.39418">
        <ele>90</ele>
        <time>2011-12-23T11:48:14Z</time>
      </trkpt>
      <trkpt lat="44.8269" lon="-0.39406">
        <ele>91</ele>
        <time>2011-12-23T11:48:19Z</time>
      </trkpt>
      <trkpt lat="44.82685" lon="-0.39392">
        <ele>91</ele>
        <time>2011-12-23T11:48:24Z</time>
      </trkpt>
      <trkpt lat="44.82679" lon="-0.39378">
        <ele>91</ele>
        <time>2011-12-23T11:48:29Z</time>
      </trkpt>
      <trkpt lat="44.82675" lon="-0.39362">
        <ele>91</ele>
        <time>2011-12-23T11:48:34Z</time>
      </trkpt>
      <trkpt lat="44.82671" lon="-0.39349">
        <ele>91</ele>
        <time>2011-12-23T11:48:39Z</time>
      </trkpt>
      <trkpt lat="44.82666" lon="-0.39335">
        <ele>91</ele>
        <time>2011-12-23T11:48:44Z</time>
      </trkpt>
      <trkpt lat="44.82662" lon="-0.39323">
        <ele>91</ele>
        <time>2011-12-23T11:48:48Z</time>
      </trkpt>
      <trkpt lat="44.82658" lon="-0.39309">
        <ele>91</ele>
        <time>2011-12-23T11:48:53Z</time>
      </trkpt>
      <trkpt lat="44.82655" lon="-0.39296">
        <ele>91</ele>
        <time>2011-12-23T11:48:58Z</time>
      </trkpt>
      <trkpt lat="44.82651" lon="-0.39283">
        <ele>91</ele>
        <time>2011-12-23T11:49:03Z</time>
      </trkpt>
      <trkpt lat="44.82647" lon="-0.39269">
        <ele>91</ele>
        <time>2011-12-23T11:49:07Z</time>
      </trkpt>
      <trkpt lat="44.82645" lon="-0.39256">
        <ele>91</ele>
        <time>2011-12-23T11:49:10Z</time>
      </trkpt>
      <trkpt lat="44.82643" lon="-0.39239">
        <ele>91</ele>
        <time>2011-12-23T11:49:14Z</time>
      </trkpt>
      <trkpt lat="44.82641" lon="-0.39226">
        <ele>91</ele>
        <time>2011-12-23T11:49:18Z</time>
      </trkpt>
      <trkpt lat="44.82639" lon="-0.3921">
        <ele>91</ele>
        <time>2011-12-23T11:49:23Z</time>
      </trkpt>
      <trkpt lat="44.82637" lon="-0.39193">
        <ele>91</ele>
        <time>2011-12-23T11:49:27Z</time>
      </trkpt>
      <trkpt lat="44.82636" lon="-0.39176">
        <ele>91</ele>
        <time>2011-12-23T11:49:31Z</time>
      </trkpt>
      <trkpt lat="44.82634" lon="-0.3916">
        <ele>90</ele>
        <time>2011-12-23T11:49:35Z</time>
      </trkpt>
      <trkpt lat="44.82633" lon="-0.39145">
        <ele>90</ele>
        <time>2011-12-23T11:49:39Z</time>
      </trkpt>
      <trkpt lat="44.82631" lon="-0.3913">
        <ele>90</ele>
        <time>2011-12-23T11:49:43Z</time>
      </trkpt>
      <trkpt lat="44.82629" lon="-0.39114">
        <ele>90</ele>
        <time>2011-12-23T11:49:47Z</time>
      </trkpt>
      <trkpt lat="44.82626" lon="-0.391">
        <ele>91</ele>
        <time>2011-12-23T11:49:52Z</time>
      </trkpt>
      <trkpt lat="44.82632" lon="-0.39097">
        <ele>91</ele>
        <time>2011-12-23T11:50:57Z</time>
      </trkpt>
      <trkpt lat="44.82642" lon="-0.39096">
        <ele>90</ele>
        <time>2011-12-23T11:51:01Z</time>
      </trkpt>
      <trkpt lat="44.82653" lon="-0.39095">
        <ele>90</ele>
        <time>2011-12-23T11:51:05Z</time>
      </trkpt>
      <trkpt lat="44.82663" lon="-0.39092">
        <ele>90</ele>
        <time>2011-12-23T11:51:09Z</time>
      </trkpt>
      <trkpt lat="44.82673" lon="-0.39089">
        <ele>90</ele>
        <time>2011-12-23T11:51:12Z</time>
      </trkpt>
      <trkpt lat="44.82683" lon="-0.39088">
        <ele>89</ele>
        <time>2011-12-23T11:51:15Z</time>
      </trkpt>
      <trkpt lat="44.82693" lon="-0.39085">
        <ele>89</ele>
        <time>2011-12-23T11:51:18Z</time>
      </trkpt>
      <trkpt lat="44.82703" lon="-0.39081">
        <ele>88</ele>
        <time>2011-12-23T11:51:24Z</time>
      </trkpt>
      <trkpt lat="44.82706" lon="-0.39069">
        <ele>89</ele>
        <time>2011-12-23T11:51:29Z</time>
      </trkpt>
      <trkpt lat="44.82708" lon="-0.39055">
        <ele>89</ele>
        <time>2011-12-23T11:51:33Z</time>
      </trkpt>
      <trkpt lat="44.8271" lon="-0.39042">
        <ele>90</ele>
        <time>2011-12-23T11:51:37Z</time>
      </trkpt>
      <trkpt lat="44.82711" lon="-0.39027">
        <ele>91</ele>
        <time>2011-12-23T11:51:41Z</time>
      </trkpt>
      <trkpt lat="44.82711" lon="-0.39014">
        <ele>91</ele>
        <time>2011-12-23T11:51:45Z</time>
      </trkpt>
      <trkpt lat="44.82711" lon="-0.39">
        <ele>91</ele>
        <time>2011-12-23T11:51:49Z</time>
      </trkpt>
      <trkpt lat="44.82713" lon="-0.38984">
        <ele>91</ele>
        <time>2011-12-23T11:51:54Z</time>
      </trkpt>
      <trkpt lat="44.82714" lon="-0.3897">
        <ele>92</ele>
        <time>2011-12-23T11:51:58Z</time>
      </trkpt>
      <trkpt lat="44.82714" lon="-0.38955">
        <ele>92</ele>
        <time>2011-12-23T11:52:02Z</time>
      </trkpt>
      <trkpt lat="44.82715" lon="-0.3894">
        <ele>91</ele>
        <time>2011-12-23T11:52:05Z</time>
      </trkpt>
      <trkpt lat="44.82716" lon="-0.38927">
        <ele>91</ele>
        <time>2011-12-23T11:52:08Z</time>
      </trkpt>
      <trkpt lat="44.82716" lon="-0.38911">
        <ele>90</ele>
        <time>2011-12-23T11:52:11Z</time>
      </trkpt>
      <trkpt lat="44.82716" lon="-0.38893">
        <ele>90</ele>
        <time>2011-12-23T11:52:14Z</time>
      </trkpt>
      <trkpt lat="44.82715" lon="-0.38879">
        <ele>89</ele>
        <time>2011-12-23T11:52:16Z</time>
      </trkpt>
      <trkpt lat="44.82713" lon="-0.38863">
        <ele>88</ele>
        <time>2011-12-23T11:52:18Z</time>
      </trkpt>
      <trkpt lat="44.8271" lon="-0.38847">
        <ele>87</ele>
        <time>2011-12-23T11:52:20Z</time>
      </trkpt>
      <trkpt lat="44.82706" lon="-0.38831">
        <ele>87</ele>
        <time>2011-12-23T11:52:22Z</time>
      </trkpt>
      <trkpt lat="44.82702" lon="-0.38814">
        <ele>86</ele>
        <time>2011-12-23T11:52:24Z</time>
      </trkpt>
      <trkpt lat="44.82698" lon="-0.38796">
        <ele>85</ele>
        <time>2011-12-23T11:52:26Z</time>
      </trkpt>
      <trkpt lat="44.82695" lon="-0.38779">
        <ele>85</ele>
        <time>2011-12-23T11:52:28Z</time>
      </trkpt>
      <trkpt lat="44.82691" lon="-0.38761">
        <ele>84</ele>
        <time>2011-12-23T11:52:30Z</time>
      </trkpt>
      <trkpt lat="44.82688" lon="-0.38744">
        <ele>83</ele>
        <time>2011-12-23T11:52:32Z</time>
      </trkpt>
      <trkpt lat="44.82684" lon="-0.38727">
        <ele>83</ele>
        <time>2011-12-23T11:52:34Z</time>
      </trkpt>
      <trkpt lat="44.8268" lon="-0.38709">
        <ele>82</ele>
        <time>2011-12-23T11:52:36Z</time>
      </trkpt>
      <trkpt lat="44.82676" lon="-0.38691">
        <ele>81</ele>
        <time>2011-12-23T11:52:38Z</time>
      </trkpt>
      <trkpt lat="44.82673" lon="-0.38674">
        <ele>81</ele>
        <time>2011-12-23T11:52:40Z</time>
      </trkpt>
      <trkpt lat="44.82669" lon="-0.38657">
        <ele>81</ele>
        <time>2011-12-23T11:52:42Z</time>
      </trkpt>
      <trkpt lat="44.82665" lon="-0.3864">
        <ele>80</ele>
        <time>2011-12-23T11:52:44Z</time>
      </trkpt>
      <trkpt lat="44.82662" lon="-0.38624">
        <ele>79</ele>
        <time>2011-12-23T11:52:46Z</time>
      </trkpt>
      <trkpt lat="44.82658" lon="-0.38609">
        <ele>78</ele>
        <time>2011-12-23T11:52:48Z</time>
      </trkpt>
      <trkpt lat="44.82656" lon="-0.38595">
        <ele>78</ele>
        <time>2011-12-23T11:52:50Z</time>
      </trkpt>
      <trkpt lat="44.82653" lon="-0.38582">
        <ele>77</ele>
        <time>2011-12-23T11:52:52Z</time>
      </trkpt>
      <trkpt lat="44.82649" lon="-0.38565">
        <ele>77</ele>
        <time>2011-12-23T11:52:55Z</time>
      </trkpt>
      <trkpt lat="44.82646" lon="-0.3855">
        <ele>77</ele>
        <time>2011-12-23T11:52:58Z</time>
      </trkpt>
      <trkpt lat="44.82644" lon="-0.38538">
        <ele>76</ele>
        <time>2011-12-23T11:53:01Z</time>
      </trkpt>
      <trkpt lat="44.82641" lon="-0.38522">
        <ele>76</ele>
        <time>2011-12-23T11:53:05Z</time>
      </trkpt>
      <trkpt lat="44.8264" lon="-0.38505">
        <ele>76</ele>
        <time>2011-12-23T11:53:08Z</time>
      </trkpt>
      <trkpt lat="44.82639" lon="-0.38491">
        <ele>75</ele>
        <time>2011-12-23T11:53:11Z</time>
      </trkpt>
      <trkpt lat="44.8264" lon="-0.38475">
        <ele>75</ele>
        <time>2011-12-23T11:53:15Z</time>
      </trkpt>
      <trkpt lat="44.8264" lon="-0.38461">
        <ele>74</ele>
        <time>2011-12-23T11:53:18Z</time>
      </trkpt>
      <trkpt lat="44.8264" lon="-0.38448">
        <ele>74</ele>
        <time>2011-12-23T11:53:21Z</time>
      </trkpt>
      <trkpt lat="44.82638" lon="-0.38433">
        <ele>73</ele>
        <time>2011-12-23T11:53:25Z</time>
      </trkpt>
      <trkpt lat="44.82633" lon="-0.38417">
        <ele>72</ele>
        <time>2011-12-23T11:53:29Z</time>
      </trkpt>
      <trkpt lat="44.82628" lon="-0.38405">
        <ele>71</ele>
        <time>2011-12-23T11:53:32Z</time>
      </trkpt>
      <trkpt lat="44.82621" lon="-0.38393">
        <ele>70</ele>
        <time>2011-12-23T11:53:36Z</time>
      </trkpt>
      <trkpt lat="44.82616" lon="-0.38381">
        <ele>69</ele>
        <time>2011-12-23T11:53:40Z</time>
      </trkpt>
      <trkpt lat="44.82608" lon="-0.3837">
        <ele>68</ele>
        <time>2011-12-23T11:53:46Z</time>
      </trkpt>
      <trkpt lat="44.82605" lon="-0.38356">
        <ele>67</ele>
        <time>2011-12-23T11:53:52Z</time>
      </trkpt>
      <trkpt lat="44.82598" lon="-0.38345">
        <ele>66</ele>
        <time>2011-12-23T11:53:59Z</time>
      </trkpt>
      <trkpt lat="44.82596" lon="-0.38332">
        <ele>65</ele>
        <time>2011-12-23T11:54:05Z</time>
      </trkpt>
      <trkpt lat="44.82589" lon="-0.38322">
        <ele>64</ele>
        <time>2011-12-23T11:54:09Z</time>
      </trkpt>
      <trkpt lat="44.82582" lon="-0.38311">
        <ele>63</ele>
        <time>2011-12-23T11:54:14Z</time>
      </trkpt>
      <trkpt lat="44.82577" lon="-0.38299">
        <ele>63</ele>
        <time>2011-12-23T11:54:19Z</time>
      </trkpt>
      <trkpt lat="44.82571" lon="-0.38288">
        <ele>62</ele>
        <time>2011-12-23T11:54:24Z</time>
      </trkpt>
      <trkpt lat="44.82569" lon="-0.38273">
        <ele>62</ele>
        <time>2011-12-23T11:54:29Z</time>
      </trkpt>
      <trkpt lat="44.82569" lon="-0.38258">
        <ele>62</ele>
        <time>2011-12-23T11:54:36Z</time>
      </trkpt>
      <trkpt lat="44.82568" lon="-0.38243">
        <ele>62</ele>
        <time>2011-12-23T11:54:41Z</time>
      </trkpt>
      <trkpt lat="44.82568" lon="-0.38229">
        <ele>63</ele>
        <time>2011-12-23T11:54:45Z</time>
      </trkpt>
      <trkpt lat="44.8257" lon="-0.38214">
        <ele>63</ele>
        <time>2011-12-23T11:54:51Z</time>
      </trkpt>
      <trkpt lat="44.8257" lon="-0.38199">
        <ele>63</ele>
        <time>2011-12-23T11:54:59Z</time>
      </trkpt>
      <trkpt lat="44.82568" lon="-0.38186">
        <ele>64</ele>
        <time>2011-12-23T11:55:07Z</time>
      </trkpt>
      <trkpt lat="44.82566" lon="-0.38172">
        <ele>64</ele>
        <time>2011-12-23T11:55:14Z</time>
      </trkpt>
      <trkpt lat="44.82561" lon="-0.3816">
        <ele>64</ele>
        <time>2011-12-23T11:55:20Z</time>
      </trkpt>
      <trkpt lat="44.82559" lon="-0.38144">
        <ele>65</ele>
        <time>2011-12-23T11:55:28Z</time>
      </trkpt>
      <trkpt lat="44.82553" lon="-0.38133">
        <ele>65</ele>
        <time>2011-12-23T11:55:34Z</time>
      </trkpt>
      <trkpt lat="44.82546" lon="-0.38121">
        <ele>66</ele>
        <time>2011-12-23T11:55:40Z</time>
      </trkpt>
      <trkpt lat="44.82539" lon="-0.38108">
        <ele>67</ele>
        <time>2011-12-23T11:55:48Z</time>
      </trkpt>
      <trkpt lat="44.82537" lon="-0.38096">
        <ele>67</ele>
        <time>2011-12-23T11:55:54Z</time>
      </trkpt>
      <trkpt lat="44.82536" lon="-0.38082">
        <ele>68</ele>
        <time>2011-12-23T11:55:59Z</time>
      </trkpt>
      <trkpt lat="44.82532" lon="-0.3807">
        <ele>68</ele>
        <time>2011-12-23T11:56:05Z</time>
      </trkpt>
      <trkpt lat="44.82531" lon="-0.38056">
        <ele>69</ele>
        <time>2011-12-23T11:56:11Z</time>
      </trkpt>
      <trkpt lat="44.8253" lon="-0.38043">
        <ele>69</ele>
        <time>2011-12-23T11:56:19Z</time>
      </trkpt>
      <trkpt lat="44.8253" lon="-0.38029">
        <ele>69</ele>
        <time>2011-12-23T11:56:27Z</time>
      </trkpt>
      <trkpt lat="44.82525" lon="-0.38017">
        <ele>69</ele>
        <time>2011-12-23T11:56:34Z</time>
      </trkpt>
      <trkpt lat="44.82521" lon="-0.38002">
        <ele>69</ele>
        <time>2011-12-23T11:56:40Z</time>
      </trkpt>
      <trkpt lat="44.82515" lon="-0.37992">
        <ele>70</ele>
        <time>2011-12-23T11:56:45Z</time>
      </trkpt>
      <trkpt lat="44.8251" lon="-0.37978">
        <ele>70</ele>
        <time>2011-12-23T11:56:51Z</time>
      </trkpt>
      <trkpt lat="44.82505" lon="-0.37966">
        <ele>70</ele>
        <time>2011-12-23T11:56:56Z</time>
      </trkpt>
      <trkpt lat="44.82496" lon="-0.37958">
        <ele>71</ele>
        <time>2011-12-23T11:57:02Z</time>
      </trkpt>
      <trkpt lat="44.82488" lon="-0.3795">
        <ele>71</ele>
        <time>2011-12-23T11:57:07Z</time>
      </trkpt>
      <trkpt lat="44.82479" lon="-0.3794">
        <ele>72</ele>
        <time>2011-12-23T11:57:12Z</time>
      </trkpt>
      <trkpt lat="44.82472" lon="-0.37932">
        <ele>73</ele>
        <time>2011-12-23T11:57:16Z</time>
      </trkpt>
      <trkpt lat="44.82463" lon="-0.37922">
        <ele>73</ele>
        <time>2011-12-23T11:57:22Z</time>
      </trkpt>
      <trkpt lat="44.82457" lon="-0.37913">
        <ele>72</ele>
        <time>2011-12-23T11:58:15Z</time>
      </trkpt>
      <trkpt lat="44.8246" lon="-0.379">
        <ele>72</ele>
        <time>2011-12-23T11:58:22Z</time>
      </trkpt>
      <trkpt lat="44.82469" lon="-0.37895">
        <ele>71</ele>
        <time>2011-12-23T11:58:26Z</time>
      </trkpt>
      <trkpt lat="44.82478" lon="-0.3789">
        <ele>70</ele>
        <time>2011-12-23T11:58:29Z</time>
      </trkpt>
      <trkpt lat="44.82488" lon="-0.37885">
        <ele>70</ele>
        <time>2011-12-23T11:58:32Z</time>
      </trkpt>
      <trkpt lat="44.82499" lon="-0.37877">
        <ele>69</ele>
        <time>2011-12-23T11:58:35Z</time>
      </trkpt>
      <trkpt lat="44.82509" lon="-0.37867">
        <ele>68</ele>
        <time>2011-12-23T11:58:38Z</time>
      </trkpt>
      <trkpt lat="44.82519" lon="-0.37854">
        <ele>67</ele>
        <time>2011-12-23T11:58:41Z</time>
      </trkpt>
      <trkpt lat="44.82526" lon="-0.37844">
        <ele>67</ele>
        <time>2011-12-23T11:58:43Z</time>
      </trkpt>
      <trkpt lat="44.82535" lon="-0.37832">
        <ele>66</ele>
        <time>2011-12-23T11:58:46Z</time>
      </trkpt>
      <trkpt lat="44.82544" lon="-0.37821">
        <ele>65</ele>
        <time>2011-12-23T11:58:49Z</time>
      </trkpt>
      <trkpt lat="44.82555" lon="-0.37811">
        <ele>64</ele>
        <time>2011-12-23T11:58:52Z</time>
      </trkpt>
      <trkpt lat="44.82567" lon="-0.378">
        <ele>63</ele>
        <time>2011-12-23T11:58:55Z</time>
      </trkpt>
      <trkpt lat="44.82575" lon="-0.37793">
        <ele>62</ele>
        <time>2011-12-23T11:58:57Z</time>
      </trkpt>
      <trkpt lat="44.82585" lon="-0.37787">
        <ele>61</ele>
        <time>2011-12-23T11:58:59Z</time>
      </trkpt>
      <trkpt lat="44.82596" lon="-0.37782">
        <ele>60</ele>
        <time>2011-12-23T11:59:01Z</time>
      </trkpt>
      <trkpt lat="44.82608" lon="-0.37779">
        <ele>58</ele>
        <time>2011-12-23T11:59:03Z</time>
      </trkpt>
      <trkpt lat="44.82621" lon="-0.37775">
        <ele>58</ele>
        <time>2011-12-23T11:59:05Z</time>
      </trkpt>
      <trkpt lat="44.82633" lon="-0.37772">
        <ele>57</ele>
        <time>2011-12-23T11:59:07Z</time>
      </trkpt>
      <trkpt lat="44.82644" lon="-0.3777">
        <ele>57</ele>
        <time>2011-12-23T11:59:10Z</time>
      </trkpt>
      <trkpt lat="44.82653" lon="-0.37765">
        <ele>56</ele>
        <time>2011-12-23T11:59:14Z</time>
      </trkpt>
      <trkpt lat="44.82654" lon="-0.37752">
        <ele>56</ele>
        <time>2011-12-23T11:59:19Z</time>
      </trkpt>
      <trkpt lat="44.82649" lon="-0.3774">
        <ele>56</ele>
        <time>2011-12-23T11:59:24Z</time>
      </trkpt>
      <trkpt lat="44.82641" lon="-0.37732">
        <ele>57</ele>
        <time>2011-12-23T11:59:28Z</time>
      </trkpt>
      <trkpt lat="44.82632" lon="-0.37722">
        <ele>57</ele>
        <time>2011-12-23T11:59:32Z</time>
      </trkpt>
      <trkpt lat="44.82626" lon="-0.37711">
        <ele>56</ele>
        <time>2011-12-23T11:59:35Z</time>
      </trkpt>
      <trkpt lat="44.82619" lon="-0.37701">
        <ele>56</ele>
        <time>2011-12-23T11:59:39Z</time>
      </trkpt>
      <trkpt lat="44.82613" lon="-0.37688">
        <ele>55</ele>
        <time>2011-12-23T11:59:44Z</time>
      </trkpt>
      <trkpt lat="44.82605" lon="-0.37678">
        <ele>55</ele>
        <time>2011-12-23T11:59:48Z</time>
      </trkpt>
      <trkpt lat="44.826" lon="-0.37664">
        <ele>55</ele>
        <time>2011-12-23T11:59:53Z</time>
      </trkpt>
      <trkpt lat="44.82597" lon="-0.37648">
        <ele>55</ele>
        <time>2011-12-23T11:59:57Z</time>
      </trkpt>
      <trkpt lat="44.82592" lon="-0.37637">
        <ele>55</ele>
        <time>2011-12-23T12:00:01Z</time>
      </trkpt>
      <trkpt lat="44.82589" lon="-0.37621">
        <ele>55</ele>
        <time>2011-12-23T12:00:06Z</time>
      </trkpt>
      <trkpt lat="44.82584" lon="-0.37605">
        <ele>55</ele>
        <time>2011-12-23T12:00:10Z</time>
      </trkpt>
      <trkpt lat="44.8258" lon="-0.37592">
        <ele>55</ele>
        <time>2011-12-23T12:00:13Z</time>
      </trkpt>
      <trkpt lat="44.82578" lon="-0.37577">
        <ele>54</ele>
        <time>2011-12-23T12:00:17Z</time>
      </trkpt>
      <trkpt lat="44.82575" lon="-0.37565">
        <ele>54</ele>
        <time>2011-12-23T12:00:23Z</time>
      </trkpt>
      <trkpt lat="44.82571" lon="-0.37551">
        <ele>54</ele>
        <time>2011-12-23T12:00:28Z</time>
      </trkpt>
      <trkpt lat="44.82567" lon="-0.37539">
        <ele>54</ele>
        <time>2011-12-23T12:00:32Z</time>
      </trkpt>
      <trkpt lat="44.82562" lon="-0.37526">
        <ele>54</ele>
        <time>2011-12-23T12:00:36Z</time>
      </trkpt>
      <trkpt lat="44.82557" lon="-0.37513">
        <ele>54</ele>
        <time>2011-12-23T12:00:41Z</time>
      </trkpt>
      <trkpt lat="44.82555" lon="-0.37498">
        <ele>54</ele>
        <time>2011-12-23T12:00:45Z</time>
      </trkpt>
      <trkpt lat="44.8255" lon="-0.37484">
        <ele>54</ele>
        <time>2011-12-23T12:00:49Z</time>
      </trkpt>
      <trkpt lat="44.82547" lon="-0.37471">
        <ele>54</ele>
        <time>2011-12-23T12:00:53Z</time>
      </trkpt>
      <trkpt lat="44.82545" lon="-0.37456">
        <ele>54</ele>
        <time>2011-12-23T12:00:57Z</time>
      </trkpt>
      <trkpt lat="44.82544" lon="-0.3744">
        <ele>54</ele>
        <time>2011-12-23T12:01:01Z</time>
      </trkpt>
      <trkpt lat="44.82545" lon="-0.37424">
        <ele>54</ele>
        <time>2011-12-23T12:01:05Z</time>
      </trkpt>
      <trkpt lat="44.82543" lon="-0.3741">
        <ele>54</ele>
        <time>2011-12-23T12:01:09Z</time>
      </trkpt>
      <trkpt lat="44.8254" lon="-0.37395">
        <ele>54</ele>
        <time>2011-12-23T12:01:14Z</time>
      </trkpt>
      <trkpt lat="44.82538" lon="-0.37379">
        <ele>54</ele>
        <time>2011-12-23T12:01:19Z</time>
      </trkpt>
      <trkpt lat="44.82537" lon="-0.37365">
        <ele>54</ele>
        <time>2011-12-23T12:01:23Z</time>
      </trkpt>
      <trkpt lat="44.82538" lon="-0.37348">
        <ele>54</ele>
        <time>2011-12-23T12:01:27Z</time>
      </trkpt>
      <trkpt lat="44.82536" lon="-0.37335">
        <ele>54</ele>
        <time>2011-12-23T12:01:31Z</time>
      </trkpt>
      <trkpt lat="44.82534" lon="-0.37321">
        <ele>54</ele>
        <time>2011-12-23T12:01:36Z</time>
      </trkpt>
      <trkpt lat="44.82534" lon="-0.37308">
        <ele>54</ele>
        <time>2011-12-23T12:01:41Z</time>
      </trkpt>
      <trkpt lat="44.82532" lon="-0.37295">
        <ele>53</ele>
        <time>2011-12-23T12:01:46Z</time>
      </trkpt>
      <trkpt lat="44.82532" lon="-0.37281">
        <ele>53</ele>
        <time>2011-12-23T12:01:50Z</time>
      </trkpt>
      <trkpt lat="44.82531" lon="-0.37268">
        <ele>53</ele>
        <time>2011-12-23T12:01:55Z</time>
      </trkpt>
      <trkpt lat="44.8253" lon="-0.37252">
        <ele>52</ele>
        <time>2011-12-23T12:02:01Z</time>
      </trkpt>
      <trkpt lat="44.82527" lon="-0.3724">
        <ele>52</ele>
        <time>2011-12-23T12:02:08Z</time>
      </trkpt>
      <trkpt lat="44.82525" lon="-0.37226">
        <ele>52</ele>
        <time>2011-12-23T12:02:16Z</time>
      </trkpt>
      <trkpt lat="44.82522" lon="-0.37214">
        <ele>52</ele>
        <time>2011-12-23T12:02:24Z</time>
      </trkpt>
      <trkpt lat="44.82518" lon="-0.372">
        <ele>52</ele>
        <time>2011-12-23T12:02:32Z</time>
      </trkpt>
      <trkpt lat="44.82514" lon="-0.37186">
        <ele>52</ele>
        <time>2011-12-23T12:02:38Z</time>
      </trkpt>
      <trkpt lat="44.82507" lon="-0.37176">
        <ele>51</ele>
        <time>2011-12-23T12:02:45Z</time>
      </trkpt>
      <trkpt lat="44.82503" lon="-0.37163">
        <ele>51</ele>
        <time>2011-12-23T12:02:52Z</time>
      </trkpt>
      <trkpt lat="44.82497" lon="-0.37153">
        <ele>51</ele>
        <time>2011-12-23T12:03:07Z</time>
      </trkpt>
      <trkpt lat="44.82492" lon="-0.37141">
        <ele>51</ele>
        <time>2011-12-23T12:03:34Z</time>
      </trkpt>
      <trkpt lat="44.82488" lon="-0.37128">
        <ele>51</ele>
        <time>2011-12-23T12:03:38Z</time>
      </trkpt>
      <trkpt lat="44.82484" lon="-0.37115">
        <ele>51</ele>
        <time>2011-12-23T12:03:45Z</time>
      </trkpt>
      <trkpt lat="44.82476" lon="-0.37109">
        <ele>51</ele>
        <time>2011-12-23T12:04:22Z</time>
      </trkpt>
      <trkpt lat="44.82466" lon="-0.37108">
        <ele>51</ele>
        <time>2011-12-23T12:04:49Z</time>
      </trkpt>
      <trkpt lat="44.82458" lon="-0.37116">
        <ele>51</ele>
        <time>2011-12-23T12:05:14Z</time>
      </trkpt>
      <trkpt lat="44.82448" lon="-0.3712">
        <ele>51</ele>
        <time>2011-12-23T12:05:21Z</time>
      </trkpt>
      <trkpt lat="44.82439" lon="-0.37127">
        <ele>52</ele>
        <time>2011-12-23T12:05:26Z</time>
      </trkpt>
      <trkpt lat="44.82428" lon="-0.37129">
        <ele>52</ele>
        <time>2011-12-23T12:05:31Z</time>
      </trkpt>
      <trkpt lat="44.82418" lon="-0.37131">
        <ele>53</ele>
        <time>2011-12-23T12:05:36Z</time>
      </trkpt>
      <trkpt lat="44.82408" lon="-0.37134">
        <ele>53</ele>
        <time>2011-12-23T12:05:43Z</time>
      </trkpt>
      <trkpt lat="44.82398" lon="-0.37132">
        <ele>53</ele>
        <time>2011-12-23T12:05:50Z</time>
      </trkpt>
      <trkpt lat="44.82388" lon="-0.37134">
        <ele>54</ele>
        <time>2011-12-23T12:06:01Z</time>
      </trkpt>
      <trkpt lat="44.82379" lon="-0.37128">
        <ele>54</ele>
        <time>2011-12-23T12:06:14Z</time>
      </trkpt>
      <trkpt lat="44.8237" lon="-0.37122">
        <ele>54</ele>
        <time>2011-12-23T12:06:28Z</time>
      </trkpt>
      <trkpt lat="44.8236" lon="-0.3712">
        <ele>55</ele>
        <time>2011-12-23T12:06:45Z</time>
      </trkpt>
      <trkpt lat="44.82351" lon="-0.37115">
        <ele>55</ele>
        <time>2011-12-23T12:07:04Z</time>
      </trkpt>
      <trkpt lat="44.82341" lon="-0.37118">
        <ele>55</ele>
        <time>2011-12-23T12:07:21Z</time>
      </trkpt>
      <trkpt lat="44.82332" lon="-0.37118">
        <ele>56</ele>
        <time>2011-12-23T12:07:36Z</time>
      </trkpt>
      <trkpt lat="44.82323" lon="-0.37122">
        <ele>56</ele>
        <time>2011-12-23T12:07:48Z</time>
      </trkpt>
      <trkpt lat="44.82313" lon="-0.37121">
        <ele>56</ele>
        <time>2011-12-23T12:08:04Z</time>
      </trkpt>
      <trkpt lat="44.82304" lon="-0.37123">
        <ele>57</ele>
        <time>2011-12-23T12:08:16Z</time>
      </trkpt>
      <trkpt lat="44.82293" lon="-0.37126">
        <ele>58</ele>
        <time>2011-12-23T12:08:25Z</time>
      </trkpt>
      <trkpt lat="44.82283" lon="-0.37127">
        <ele>59</ele>
        <time>2011-12-23T12:08:33Z</time>
      </trkpt>
      <trkpt lat="44.82273" lon="-0.37129">
        <ele>60</ele>
        <time>2011-12-23T12:08:42Z</time>
      </trkpt>
      <trkpt lat="44.82263" lon="-0.37127">
        <ele>61</ele>
        <time>2011-12-23T12:08:58Z</time>
      </trkpt>
      <trkpt lat="44.82254" lon="-0.37127">
        <ele>62</ele>
        <time>2011-12-23T12:09:15Z</time>
      </trkpt>
      <trkpt lat="44.82244" lon="-0.37129">
        <ele>63</ele>
        <time>2011-12-23T12:09:28Z</time>
      </trkpt>
      <trkpt lat="44.82234" lon="-0.37128">
        <ele>65</ele>
        <time>2011-12-23T12:09:47Z</time>
      </trkpt>
      <trkpt lat="44.82224" lon="-0.37125">
        <ele>66</ele>
        <time>2011-12-23T12:09:57Z</time>
      </trkpt>
      <trkpt lat="44.82215" lon="-0.37122">
        <ele>68</ele>
        <time>2011-12-23T12:10:10Z</time>
      </trkpt>
      <trkpt lat="44.82205" lon="-0.37123">
        <ele>69</ele>
        <time>2011-12-23T12:10:37Z</time>
      </trkpt>
      <trkpt lat="44.82196" lon="-0.37122">
        <ele>70</ele>
        <time>2011-12-23T12:10:51Z</time>
      </trkpt>
      <trkpt lat="44.82187" lon="-0.37118">
        <ele>72</ele>
        <time>2011-12-23T12:11:08Z</time>
      </trkpt>
      <trkpt lat="44.82177" lon="-0.37118">
        <ele>73</ele>
        <time>2011-12-23T12:11:21Z</time>
      </trkpt>
      <trkpt lat="44.82167" lon="-0.37118">
        <ele>74</ele>
        <time>2011-12-23T12:11:33Z</time>
      </trkpt>
      <trkpt lat="44.82158" lon="-0.37117">
        <ele>75</ele>
        <time>2011-12-23T12:11:47Z</time>
      </trkpt>
      <trkpt lat="44.82148" lon="-0.37118">
        <ele>76</ele>
        <time>2011-12-23T12:12:08Z</time>
      </trkpt>
      <trkpt lat="44.82139" lon="-0.37118">
        <ele>76</ele>
        <time>2011-12-23T12:12:19Z</time>
      </trkpt>
      <trkpt lat="44.82128" lon="-0.37117">
        <ele>77</ele>
        <time>2011-12-23T12:12:30Z</time>
      </trkpt>
      <trkpt lat="44.82119" lon="-0.37114">
        <ele>79</ele>
        <time>2011-12-23T12:12:40Z</time>
      </trkpt>
      <trkpt lat="44.82109" lon="-0.37114">
        <ele>80</ele>
        <time>2011-12-23T12:12:49Z</time>
      </trkpt>
      <trkpt lat="44.821" lon="-0.37115">
        <ele>81</ele>
        <time>2011-12-23T12:12:59Z</time>
      </trkpt>
      <trkpt lat="44.8209" lon="-0.37112">
        <ele>82</ele>
        <time>2011-12-23T12:13:09Z</time>
      </trkpt>
      <trkpt lat="44.82081" lon="-0.37109">
        <ele>83</ele>
        <time>2011-12-23T12:13:19Z</time>
      </trkpt>
      <trkpt lat="44.82075" lon="-0.37099">
        <ele>85</ele>
        <time>2011-12-23T12:13:29Z</time>
      </trkpt>
      <trkpt lat="44.82074" lon="-0.37084">
        <ele>86</ele>
        <time>2011-12-23T12:13:39Z</time>
      </trkpt>
      <trkpt lat="44.82071" lon="-0.37072">
        <ele>87</ele>
        <time>2011-12-23T12:13:47Z</time>
      </trkpt>
      <trkpt lat="44.82063" lon="-0.37065">
        <ele>87</ele>
        <time>2011-12-23T12:13:56Z</time>
      </trkpt>
      <trkpt lat="44.82052" lon="-0.37065">
        <ele>88</ele>
        <time>2011-12-23T12:14:08Z</time>
      </trkpt>
      <trkpt lat="44.82043" lon="-0.37066">
        <ele>88</ele>
        <time>2011-12-23T12:14:16Z</time>
      </trkpt>
      <trkpt lat="44.82033" lon="-0.37063">
        <ele>89</ele>
        <time>2011-12-23T12:14:25Z</time>
      </trkpt>
      <trkpt lat="44.82023" lon="-0.37065">
        <ele>89</ele>
        <time>2011-12-23T12:14:35Z</time>
      </trkpt>
      <trkpt lat="44.82014" lon="-0.37068">
        <ele>89</ele>
        <time>2011-12-23T12:14:44Z</time>
      </trkpt>
      <trkpt lat="44.82005" lon="-0.37074">
        <ele>90</ele>
        <time>2011-12-23T12:14:52Z</time>
      </trkpt>
      <trkpt lat="44.81996" lon="-0.3708">
        <ele>90</ele>
        <time>2011-12-23T12:14:59Z</time>
      </trkpt>
      <trkpt lat="44.81986" lon="-0.37086">
        <ele>91</ele>
        <time>2011-12-23T12:15:05Z</time>
      </trkpt>
      <trkpt lat="44.81976" lon="-0.37089">
        <ele>91</ele>
        <time>2011-12-23T12:15:12Z</time>
      </trkpt>
      <trkpt lat="44.81966" lon="-0.37093">
        <ele>91</ele>
        <time>2011-12-23T12:15:18Z</time>
      </trkpt>
      <trkpt lat="44.81955" lon="-0.37096">
        <ele>91</ele>
        <time>2011-12-23T12:15:25Z</time>
      </trkpt>
      <trkpt lat="44.81944" lon="-0.371">
        <ele>92</ele>
        <time>2011-12-23T12:15:31Z</time>
      </trkpt>
      <trkpt lat="44.81934" lon="-0.37102">
        <ele>92</ele>
        <time>2011-12-23T12:15:36Z</time>
      </trkpt>
      <trkpt lat="44.81923" lon="-0.37105">
        <ele>93</ele>
        <time>2011-12-23T12:15:41Z</time>
      </trkpt>
      <trkpt lat="44.81913" lon="-0.37108">
        <ele>93</ele>
        <time>2011-12-23T12:15:46Z</time>
      </trkpt>
      <trkpt lat="44.81902" lon="-0.37109">
        <ele>93</ele>
        <time>2011-12-23T12:15:51Z</time>
      </trkpt>
      <trkpt lat="44.81892" lon="-0.37111">
        <ele>94</ele>
        <time>2011-12-23T12:15:56Z</time>
      </trkpt>
      <trkpt lat="44.8188" lon="-0.37114">
        <ele>94</ele>
        <time>2011-12-23T12:16:01Z</time>
      </trkpt>
      <trkpt lat="44.8187" lon="-0.37117">
        <ele>95</ele>
        <time>2011-12-23T12:16:06Z</time>
      </trkpt>
      <trkpt lat="44.8186" lon="-0.37119">
        <ele>96</ele>
        <time>2011-12-23T12:16:12Z</time>
      </trkpt>
      <trkpt lat="44.8185" lon="-0.37123">
        <ele>96</ele>
        <time>2011-12-23T12:16:17Z</time>
      </trkpt>
      <trkpt lat="44.81841" lon="-0.37127">
        <ele>96</ele>
        <time>2011-12-23T12:16:22Z</time>
      </trkpt>
      <trkpt lat="44.81832" lon="-0.37134">
        <ele>96</ele>
        <time>2011-12-23T12:16:27Z</time>
      </trkpt>
      <trkpt lat="44.81824" lon="-0.37144">
        <ele>96</ele>
        <time>2011-12-23T12:16:32Z</time>
      </trkpt>
      <trkpt lat="44.81818" lon="-0.37156">
        <ele>96</ele>
        <time>2011-12-23T12:16:37Z</time>
      </trkpt>
      <trkpt lat="44.81812" lon="-0.37171">
        <ele>96</ele>
        <time>2011-12-23T12:16:42Z</time>
      </trkpt>
      <trkpt lat="44.81806" lon="-0.37183">
        <ele>96</ele>
        <time>2011-12-23T12:16:46Z</time>
      </trkpt>
      <trkpt lat="44.81801" lon="-0.37195">
        <ele>96</ele>
        <time>2011-12-23T12:16:49Z</time>
      </trkpt>
      <trkpt lat="44.81796" lon="-0.37206">
        <ele>96</ele>
        <time>2011-12-23T12:16:52Z</time>
      </trkpt>
      <trkpt lat="44.8179" lon="-0.37218">
        <ele>95</ele>
        <time>2011-12-23T12:16:55Z</time>
      </trkpt>
      <trkpt lat="44.81785" lon="-0.3723">
        <ele>95</ele>
        <time>2011-12-23T12:16:58Z</time>
      </trkpt>
      <trkpt lat="44.81779" lon="-0.37245">
        <ele>95</ele>
        <time>2011-12-23T12:17:02Z</time>
      </trkpt>
      <trkpt lat="44.81772" lon="-0.37255">
        <ele>95</ele>
        <time>2011-12-23T12:17:05Z</time>
      </trkpt>
      <trkpt lat="44.81766" lon="-0.37268">
        <ele>95</ele>
        <time>2011-12-23T12:17:08Z</time>
      </trkpt>
      <trkpt lat="44.81761" lon="-0.37279">
        <ele>95</ele>
        <time>2011-12-23T12:17:11Z</time>
      </trkpt>
      <trkpt lat="44.81755" lon="-0.37294">
        <ele>95</ele>
        <time>2011-12-23T12:17:15Z</time>
      </trkpt>
      <trkpt lat="44.81748" lon="-0.37308">
        <ele>94</ele>
        <time>2011-12-23T12:17:19Z</time>
      </trkpt>
      <trkpt lat="44.81743" lon="-0.3732">
        <ele>94</ele>
        <time>2011-12-23T12:17:22Z</time>
      </trkpt>
      <trkpt lat="44.81736" lon="-0.37334">
        <ele>94</ele>
        <time>2011-12-23T12:17:26Z</time>
      </trkpt>
      <trkpt lat="44.81732" lon="-0.37346">
        <ele>94</ele>
        <time>2011-12-23T12:17:29Z</time>
      </trkpt>
      <trkpt lat="44.81726" lon="-0.37357">
        <ele>94</ele>
        <time>2011-12-23T12:17:32Z</time>
      </trkpt>
      <trkpt lat="44.81721" lon="-0.3737">
        <ele>94</ele>
        <time>2011-12-23T12:17:35Z</time>
      </trkpt>
      <trkpt lat="44.81715" lon="-0.37383">
        <ele>95</ele>
        <time>2011-12-23T12:17:38Z</time>
      </trkpt>
      <trkpt lat="44.8171" lon="-0.37395">
        <ele>94</ele>
        <time>2011-12-23T12:17:41Z</time>
      </trkpt>
      <trkpt lat="44.81705" lon="-0.37409">
        <ele>94</ele>
        <time>2011-12-23T12:17:44Z</time>
      </trkpt>
      <trkpt lat="44.817" lon="-0.37421">
        <ele>94</ele>
        <time>2011-12-23T12:17:47Z</time>
      </trkpt>
      <trkpt lat="44.81694" lon="-0.37435">
        <ele>94</ele>
        <time>2011-12-23T12:17:50Z</time>
      </trkpt>
      <trkpt lat="44.81689" lon="-0.37447">
        <ele>94</ele>
        <time>2011-12-23T12:17:53Z</time>
      </trkpt>
      <trkpt lat="44.81684" lon="-0.3746">
        <ele>93</ele>
        <time>2011-12-23T12:17:56Z</time>
      </trkpt>
      <trkpt lat="44.81678" lon="-0.37472">
        <ele>93</ele>
        <time>2011-12-23T12:17:59Z</time>
      </trkpt>
      <trkpt lat="44.81673" lon="-0.37487">
        <ele>93</ele>
        <time>2011-12-23T12:18:02Z</time>
      </trkpt>
      <trkpt lat="44.81667" lon="-0.37499">
        <ele>92</ele>
        <time>2011-12-23T12:18:05Z</time>
      </trkpt>
      <trkpt lat="44.81662" lon="-0.37513">
        <ele>92</ele>
        <time>2011-12-23T12:18:08Z</time>
      </trkpt>
      <trkpt lat="44.81656" lon="-0.37526">
        <ele>92</ele>
        <time>2011-12-23T12:18:11Z</time>
      </trkpt>
      <trkpt lat="44.8165" lon="-0.37539">
        <ele>92</ele>
        <time>2011-12-23T12:18:14Z</time>
      </trkpt>
      <trkpt lat="44.81644" lon="-0.37551">
        <ele>92</ele>
        <time>2011-12-23T12:18:17Z</time>
      </trkpt>
      <trkpt lat="44.81639" lon="-0.37564">
        <ele>93</ele>
        <time>2011-12-23T12:18:20Z</time>
      </trkpt>
      <trkpt lat="44.81633" lon="-0.37576">
        <ele>93</ele>
        <time>2011-12-23T12:18:23Z</time>
      </trkpt>
      <trkpt lat="44.81626" lon="-0.37591">
        <ele>94</ele>
        <time>2011-12-23T12:18:27Z</time>
      </trkpt>
      <trkpt lat="44.81619" lon="-0.37604">
        <ele>94</ele>
        <time>2011-12-23T12:18:31Z</time>
      </trkpt>
      <trkpt lat="44.81612" lon="-0.37618">
        <ele>95</ele>
        <time>2011-12-23T12:18:35Z</time>
      </trkpt>
      <trkpt lat="44.81607" lon="-0.3763">
        <ele>95</ele>
        <time>2011-12-23T12:18:39Z</time>
      </trkpt>
      <trkpt lat="44.816" lon="-0.37642">
        <ele>96</ele>
        <time>2011-12-23T12:18:44Z</time>
      </trkpt>
      <trkpt lat="44.81595" lon="-0.37655">
        <ele>96</ele>
        <time>2011-12-23T12:18:49Z</time>
      </trkpt>
      <trkpt lat="44.81584" lon="-0.37655">
        <ele>96</ele>
        <time>2011-12-23T12:18:56Z</time>
      </trkpt>
      <trkpt lat="44.81577" lon="-0.37645">
        <ele>95</ele>
        <time>2011-12-23T12:19:00Z</time>
      </trkpt>
      <trkpt lat="44.81568" lon="-0.37637">
        <ele>95</ele>
        <time>2011-12-23T12:19:04Z</time>
      </trkpt>
      <trkpt lat="44.81561" lon="-0.37629">
        <ele>95</ele>
        <time>2011-12-23T12:19:08Z</time>
      </trkpt>
      <trkpt lat="44.81552" lon="-0.37619">
        <ele>94</ele>
        <time>2011-12-23T12:19:12Z</time>
      </trkpt>
      <trkpt lat="44.81543" lon="-0.37611">
        <ele>94</ele>
        <time>2011-12-23T12:19:16Z</time>
      </trkpt>
      <trkpt lat="44.81534" lon="-0.37601">
        <ele>94</ele>
        <time>2011-12-23T12:19:20Z</time>
      </trkpt>
      <trkpt lat="44.81527" lon="-0.37591">
        <ele>94</ele>
        <time>2011-12-23T12:19:24Z</time>
      </trkpt>
      <trkpt lat="44.81518" lon="-0.3758">
        <ele>94</ele>
        <time>2011-12-23T12:19:29Z</time>
      </trkpt>
      <trkpt lat="44.8151" lon="-0.3757">
        <ele>94</ele>
        <time>2011-12-23T12:19:34Z</time>
      </trkpt>
      <trkpt lat="44.81502" lon="-0.37561">
        <ele>94</ele>
        <time>2011-12-23T12:19:39Z</time>
      </trkpt>
      <trkpt lat="44.81493" lon="-0.37552">
        <ele>94</ele>
        <time>2011-12-23T12:19:45Z</time>
      </trkpt>
      <trkpt lat="44.81485" lon="-0.37544">
        <ele>94</ele>
        <time>2011-12-23T12:19:51Z</time>
      </trkpt>
      <trkpt lat="44.81477" lon="-0.37534">
        <ele>94</ele>
        <time>2011-12-23T12:19:56Z</time>
      </trkpt>
      <trkpt lat="44.8147" lon="-0.37525">
        <ele>94</ele>
        <time>2011-12-23T12:19:59Z</time>
      </trkpt>
      <trkpt lat="44.81462" lon="-0.37516">
        <ele>94</ele>
        <time>2011-12-23T12:20:03Z</time>
      </trkpt>
      <trkpt lat="44.81453" lon="-0.37507">
        <ele>94</ele>
        <time>2011-12-23T12:20:08Z</time>
      </trkpt>
      <trkpt lat="44.81444" lon="-0.37501">
        <ele>95</ele>
        <time>2011-12-23T12:20:13Z</time>
      </trkpt>
      <trkpt lat="44.81437" lon="-0.3749">
        <ele>94</ele>
        <time>2011-12-23T12:20:17Z</time>
      </trkpt>
      <trkpt lat="44.8143" lon="-0.3748">
        <ele>93</ele>
        <time>2011-12-23T12:20:21Z</time>
      </trkpt>
      <trkpt lat="44.81423" lon="-0.37465">
        <ele>93</ele>
        <time>2011-12-23T12:20:26Z</time>
      </trkpt>
      <trkpt lat="44.81415" lon="-0.37453">
        <ele>92</ele>
        <time>2011-12-23T12:20:30Z</time>
      </trkpt>
      <trkpt lat="44.81408" lon="-0.37441">
        <ele>92</ele>
        <time>2011-12-23T12:20:34Z</time>
      </trkpt>
      <trkpt lat="44.81402" lon="-0.37427">
        <ele>92</ele>
        <time>2011-12-23T12:20:38Z</time>
      </trkpt>
      <trkpt lat="44.81392" lon="-0.37419">
        <ele>91</ele>
        <time>2011-12-23T12:20:42Z</time>
      </trkpt>
      <trkpt lat="44.81386" lon="-0.37408">
        <ele>90</ele>
        <time>2011-12-23T12:20:46Z</time>
      </trkpt>
      <trkpt lat="44.81381" lon="-0.37395">
        <ele>90</ele>
        <time>2011-12-23T12:20:49Z</time>
      </trkpt>
      <trkpt lat="44.81376" lon="-0.37383">
        <ele>90</ele>
        <time>2011-12-23T12:20:52Z</time>
      </trkpt>
      <trkpt lat="44.81371" lon="-0.37371">
        <ele>89</ele>
        <time>2011-12-23T12:20:55Z</time>
      </trkpt>
      <trkpt lat="44.81364" lon="-0.37358">
        <ele>89</ele>
        <time>2011-12-23T12:20:58Z</time>
      </trkpt>
      <trkpt lat="44.81359" lon="-0.37345">
        <ele>89</ele>
        <time>2011-12-23T12:21:01Z</time>
      </trkpt>
      <trkpt lat="44.81355" lon="-0.3733">
        <ele>88</ele>
        <time>2011-12-23T12:21:04Z</time>
      </trkpt>
      <trkpt lat="44.81353" lon="-0.37317">
        <ele>87</ele>
        <time>2011-12-23T12:21:07Z</time>
      </trkpt>
      <trkpt lat="44.81348" lon="-0.37303">
        <ele>86</ele>
        <time>2011-12-23T12:21:10Z</time>
      </trkpt>
      <trkpt lat="44.81341" lon="-0.37287">
        <ele>85</ele>
        <time>2011-12-23T12:21:13Z</time>
      </trkpt>
      <trkpt lat="44.81334" lon="-0.37275">
        <ele>84</ele>
        <time>2011-12-23T12:21:15Z</time>
      </trkpt>
      <trkpt lat="44.81329" lon="-0.37261">
        <ele>83</ele>
        <time>2011-12-23T12:21:17Z</time>
      </trkpt>
      <trkpt lat="44.81325" lon="-0.37247">
        <ele>83</ele>
        <time>2011-12-23T12:21:19Z</time>
      </trkpt>
      <trkpt lat="44.81321" lon="-0.37232">
        <ele>82</ele>
        <time>2011-12-23T12:21:21Z</time>
      </trkpt>
      <trkpt lat="44.81314" lon="-0.37214">
        <ele>80</ele>
        <time>2011-12-23T12:21:23Z</time>
      </trkpt>
      <trkpt lat="44.81305" lon="-0.37192">
        <ele>77</ele>
        <time>2011-12-23T12:21:25Z</time>
      </trkpt>
      <trkpt lat="44.81296" lon="-0.37171">
        <ele>75</ele>
        <time>2011-12-23T12:21:27Z</time>
      </trkpt>
      <trkpt lat="44.81288" lon="-0.37153">
        <ele>74</ele>
        <time>2011-12-23T12:21:29Z</time>
      </trkpt>
      <trkpt lat="44.8128" lon="-0.37134">
        <ele>73</ele>
        <time>2011-12-23T12:21:31Z</time>
      </trkpt>
      <trkpt lat="44.81274" lon="-0.37114">
        <ele>72</ele>
        <time>2011-12-23T12:21:33Z</time>
      </trkpt>
      <trkpt lat="44.81266" lon="-0.37097">
        <ele>70</ele>
        <time>2011-12-23T12:21:35Z</time>
      </trkpt>
      <trkpt lat="44.81259" lon="-0.37083">
        <ele>69</ele>
        <time>2011-12-23T12:21:37Z</time>
      </trkpt>
      <trkpt lat="44.81252" lon="-0.37071">
        <ele>68</ele>
        <time>2011-12-23T12:21:39Z</time>
      </trkpt>
      <trkpt lat="44.81244" lon="-0.37061">
        <ele>67</ele>
        <time>2011-12-23T12:21:41Z</time>
      </trkpt>
      <trkpt lat="44.81237" lon="-0.37052">
        <ele>67</ele>
        <time>2011-12-23T12:21:43Z</time>
      </trkpt>
      <trkpt lat="44.81227" lon="-0.37041">
        <ele>66</ele>
        <time>2011-12-23T12:21:46Z</time>
      </trkpt>
      <trkpt lat="44.81219" lon="-0.3703">
        <ele>65</ele>
        <time>2011-12-23T12:21:49Z</time>
      </trkpt>
      <trkpt lat="44.81211" lon="-0.37021">
        <ele>64</ele>
        <time>2011-12-23T12:21:51Z</time>
      </trkpt>
      <trkpt lat="44.81205" lon="-0.37012">
        <ele>63</ele>
        <time>2011-12-23T12:21:53Z</time>
      </trkpt>
      <trkpt lat="44.81198" lon="-0.37003">
        <ele>62</ele>
        <time>2011-12-23T12:21:55Z</time>
      </trkpt>
      <trkpt lat="44.81191" lon="-0.36992">
        <ele>61</ele>
        <time>2011-12-23T12:21:57Z</time>
      </trkpt>
      <trkpt lat="44.81183" lon="-0.36982">
        <ele>60</ele>
        <time>2011-12-23T12:21:59Z</time>
      </trkpt>
      <trkpt lat="44.81176" lon="-0.36973">
        <ele>58</ele>
        <time>2011-12-23T12:22:01Z</time>
      </trkpt>
      <trkpt lat="44.81167" lon="-0.36959">
        <ele>55</ele>
        <time>2011-12-23T12:22:04Z</time>
      </trkpt>
      <trkpt lat="44.81158" lon="-0.36949">
        <ele>53</ele>
        <time>2011-12-23T12:22:07Z</time>
      </trkpt>
      <trkpt lat="44.81149" lon="-0.36938">
        <ele>51</ele>
        <time>2011-12-23T12:22:10Z</time>
      </trkpt>
      <trkpt lat="44.81141" lon="-0.36928">
        <ele>50</ele>
        <time>2011-12-23T12:22:13Z</time>
      </trkpt>
      <trkpt lat="44.81132" lon="-0.36915">
        <ele>49</ele>
        <time>2011-12-23T12:22:16Z</time>
      </trkpt>
      <trkpt lat="44.81122" lon="-0.36905">
        <ele>48</ele>
        <time>2011-12-23T12:22:19Z</time>
      </trkpt>
      <trkpt lat="44.81111" lon="-0.36905">
        <ele>47</ele>
        <time>2011-12-23T12:22:22Z</time>
      </trkpt>
      <trkpt lat="44.81101" lon="-0.36911">
        <ele>47</ele>
        <time>2011-12-23T12:22:25Z</time>
      </trkpt>
      <trkpt lat="44.81091" lon="-0.36915">
        <ele>47</ele>
        <time>2011-12-23T12:22:28Z</time>
      </trkpt>
      <trkpt lat="44.81082" lon="-0.3692">
        <ele>47</ele>
        <time>2011-12-23T12:22:31Z</time>
      </trkpt>
      <trkpt lat="44.81071" lon="-0.36924">
        <ele>47</ele>
        <time>2011-12-23T12:22:34Z</time>
      </trkpt>
      <trkpt lat="44.81062" lon="-0.36929">
        <ele>47</ele>
        <time>2011-12-23T12:22:37Z</time>
      </trkpt>
      <trkpt lat="44.81052" lon="-0.36933">
        <ele>47</ele>
        <time>2011-12-23T12:22:40Z</time>
      </trkpt>
      <trkpt lat="44.81041" lon="-0.36938">
        <ele>47</ele>
        <time>2011-12-23T12:22:44Z</time>
      </trkpt>
      <trkpt lat="44.81031" lon="-0.36944">
        <ele>48</ele>
        <time>2011-12-23T12:22:47Z</time>
      </trkpt>
      <trkpt lat="44.81022" lon="-0.36949">
        <ele>48</ele>
        <time>2011-12-23T12:22:50Z</time>
      </trkpt>
      <trkpt lat="44.81011" lon="-0.36952">
        <ele>48</ele>
        <time>2011-12-23T12:22:53Z</time>
      </trkpt>
      <trkpt lat="44.81001" lon="-0.36955">
        <ele>48</ele>
        <time>2011-12-23T12:22:56Z</time>
      </trkpt>
      <trkpt lat="44.80988" lon="-0.36958">
        <ele>48</ele>
        <time>2011-12-23T12:23:00Z</time>
      </trkpt>
      <trkpt lat="44.80979" lon="-0.3696">
        <ele>48</ele>
        <time>2011-12-23T12:23:03Z</time>
      </trkpt>
      <trkpt lat="44.80968" lon="-0.36962">
        <ele>48</ele>
        <time>2011-12-23T12:23:06Z</time>
      </trkpt>
      <trkpt lat="44.80959" lon="-0.36963">
        <ele>47</ele>
        <time>2011-12-23T12:23:09Z</time>
      </trkpt>
      <trkpt lat="44.80947" lon="-0.36966">
        <ele>47</ele>
        <time>2011-12-23T12:23:13Z</time>
      </trkpt>
      <trkpt lat="44.80937" lon="-0.36967">
        <ele>47</ele>
        <time>2011-12-23T12:23:16Z</time>
      </trkpt>
      <trkpt lat="44.80926" lon="-0.36968">
        <ele>46</ele>
        <time>2011-12-23T12:23:19Z</time>
      </trkpt>
      <trkpt lat="44.80916" lon="-0.36969">
        <ele>46</ele>
        <time>2011-12-23T12:23:22Z</time>
      </trkpt>
      <trkpt lat="44.80906" lon="-0.36969">
        <ele>46</ele>
        <time>2011-12-23T12:23:25Z</time>
      </trkpt>
      <trkpt lat="44.80894" lon="-0.36971">
        <ele>46</ele>
        <time>2011-12-23T12:23:28Z</time>
      </trkpt>
      <trkpt lat="44.80883" lon="-0.36974">
        <ele>47</ele>
        <time>2011-12-23T12:23:31Z</time>
      </trkpt>
      <trkpt lat="44.80871" lon="-0.36976">
        <ele>47</ele>
        <time>2011-12-23T12:23:34Z</time>
      </trkpt>
      <trkpt lat="44.8086" lon="-0.36978">
        <ele>47</ele>
        <time>2011-12-23T12:23:37Z</time>
      </trkpt>
      <trkpt lat="44.80849" lon="-0.36981">
        <ele>47</ele>
        <time>2011-12-23T12:23:40Z</time>
      </trkpt>
      <trkpt lat="44.80839" lon="-0.36984">
        <ele>47</ele>
        <time>2011-12-23T12:23:43Z</time>
      </trkpt>
      <trkpt lat="44.80827" lon="-0.36985">
        <ele>48</ele>
        <time>2011-12-23T12:23:46Z</time>
      </trkpt>
      <trkpt lat="44.80817" lon="-0.36988">
        <ele>48</ele>
        <time>2011-12-23T12:23:49Z</time>
      </trkpt>
      <trkpt lat="44.80805" lon="-0.36991">
        <ele>48</ele>
        <time>2011-12-23T12:23:53Z</time>
      </trkpt>
      <trkpt lat="44.80795" lon="-0.36993">
        <ele>48</ele>
        <time>2011-12-23T12:23:57Z</time>
      </trkpt>
      <trkpt lat="44.80785" lon="-0.36998">
        <ele>48</ele>
        <time>2011-12-23T12:24:00Z</time>
      </trkpt>
      <trkpt lat="44.80776" lon="-0.37003">
        <ele>49</ele>
        <time>2011-12-23T12:24:03Z</time>
      </trkpt>
      <trkpt lat="44.80766" lon="-0.37008">
        <ele>49</ele>
        <time>2011-12-23T12:24:07Z</time>
      </trkpt>
      <trkpt lat="44.80757" lon="-0.37014">
        <ele>50</ele>
        <time>2011-12-23T12:24:11Z</time>
      </trkpt>
      <trkpt lat="44.80747" lon="-0.37019">
        <ele>50</ele>
        <time>2011-12-23T12:24:16Z</time>
      </trkpt>
      <trkpt lat="44.80738" lon="-0.37024">
        <ele>51</ele>
        <time>2011-12-23T12:24:21Z</time>
      </trkpt>
      <trkpt lat="44.80727" lon="-0.37028">
        <ele>51</ele>
        <time>2011-12-23T12:24:26Z</time>
      </trkpt>
      <trkpt lat="44.80718" lon="-0.37032">
        <ele>52</ele>
        <time>2011-12-23T12:24:31Z</time>
      </trkpt>
      <trkpt lat="44.80708" lon="-0.37038">
        <ele>52</ele>
        <time>2011-12-23T12:24:36Z</time>
      </trkpt>
      <trkpt lat="44.80699" lon="-0.37043">
        <ele>53</ele>
        <time>2011-12-23T12:24:41Z</time>
      </trkpt>
      <trkpt lat="44.8069" lon="-0.3705">
        <ele>54</ele>
        <time>2011-12-23T12:24:46Z</time>
      </trkpt>
      <trkpt lat="44.80681" lon="-0.37058">
        <ele>55</ele>
        <time>2011-12-23T12:24:52Z</time>
      </trkpt>
      <trkpt lat="44.80672" lon="-0.37069">
        <ele>56</ele>
        <time>2011-12-23T12:24:58Z</time>
      </trkpt>
      <trkpt lat="44.80664" lon="-0.3708">
        <ele>57</ele>
        <time>2011-12-23T12:25:03Z</time>
      </trkpt>
      <trkpt lat="44.80658" lon="-0.3709">
        <ele>58</ele>
        <time>2011-12-23T12:25:08Z</time>
      </trkpt>
      <trkpt lat="44.80651" lon="-0.371">
        <ele>59</ele>
        <time>2011-12-23T12:25:13Z</time>
      </trkpt>
      <trkpt lat="44.80645" lon="-0.3711">
        <ele>60</ele>
        <time>2011-12-23T12:25:18Z</time>
      </trkpt>
      <trkpt lat="44.80638" lon="-0.37122">
        <ele>61</ele>
        <time>2011-12-23T12:25:23Z</time>
      </trkpt>
      <trkpt lat="44.80631" lon="-0.37133">
        <ele>61</ele>
        <time>2011-12-23T12:25:28Z</time>
      </trkpt>
      <trkpt lat="44.80626" lon="-0.37144">
        <ele>62</ele>
        <time>2011-12-23T12:25:33Z</time>
      </trkpt>
      <trkpt lat="44.80619" lon="-0.37157">
        <ele>63</ele>
        <time>2011-12-23T12:25:39Z</time>
      </trkpt>
      <trkpt lat="44.80612" lon="-0.37168">
        <ele>63</ele>
        <time>2011-12-23T12:25:44Z</time>
      </trkpt>
      <trkpt lat="44.80605" lon="-0.37179">
        <ele>64</ele>
        <time>2011-12-23T12:25:49Z</time>
      </trkpt>
      <trkpt lat="44.80599" lon="-0.3719">
        <ele>64</ele>
        <time>2011-12-23T12:25:54Z</time>
      </trkpt>
      <trkpt lat="44.80592" lon="-0.37201">
        <ele>65</ele>
        <time>2011-12-23T12:25:59Z</time>
      </trkpt>
      <trkpt lat="44.80587" lon="-0.37213">
        <ele>65</ele>
        <time>2011-12-23T12:26:05Z</time>
      </trkpt>
      <trkpt lat="44.80578" lon="-0.37223">
        <ele>65</ele>
        <time>2011-12-23T12:26:11Z</time>
      </trkpt>
      <trkpt lat="44.80569" lon="-0.37216">
        <ele>66</ele>
        <time>2011-12-23T12:26:18Z</time>
      </trkpt>
      <trkpt lat="44.80559" lon="-0.37213">
        <ele>66</ele>
        <time>2011-12-23T12:26:24Z</time>
      </trkpt>
      <trkpt lat="44.80548" lon="-0.37211">
        <ele>66</ele>
        <time>2011-12-23T12:26:31Z</time>
      </trkpt>
      <trkpt lat="44.80539" lon="-0.37207">
        <ele>66</ele>
        <time>2011-12-23T12:26:36Z</time>
      </trkpt>
      <trkpt lat="44.8053" lon="-0.37204">
        <ele>66</ele>
        <time>2011-12-23T12:26:42Z</time>
      </trkpt>
      <trkpt lat="44.80519" lon="-0.37203">
        <ele>65</ele>
        <time>2011-12-23T12:26:49Z</time>
      </trkpt>
      <trkpt lat="44.80509" lon="-0.37202">
        <ele>65</ele>
        <time>2011-12-23T12:26:55Z</time>
      </trkpt>
      <trkpt lat="44.80498" lon="-0.37199">
        <ele>64</ele>
        <time>2011-12-23T12:27:06Z</time>
      </trkpt>
      <trkpt lat="44.8049" lon="-0.3719">
        <ele>64</ele>
        <time>2011-12-23T12:27:17Z</time>
      </trkpt>
      <trkpt lat="44.8048" lon="-0.37187">
        <ele>63</ele>
        <time>2011-12-23T12:27:23Z</time>
      </trkpt>
      <trkpt lat="44.8047" lon="-0.37184">
        <ele>63</ele>
        <time>2011-12-23T12:27:28Z</time>
      </trkpt>
      <trkpt lat="44.80468" lon="-0.3717">
        <ele>62</ele>
        <time>2011-12-23T12:27:35Z</time>
      </trkpt>
      <trkpt lat="44.80469" lon="-0.37156">
        <ele>62</ele>
        <time>2011-12-23T12:27:40Z</time>
      </trkpt>
      <trkpt lat="44.80468" lon="-0.37143">
        <ele>62</ele>
        <time>2011-12-23T12:27:46Z</time>
      </trkpt>
      <trkpt lat="44.80465" lon="-0.37127">
        <ele>61</ele>
        <time>2011-12-23T12:27:52Z</time>
      </trkpt>
      <trkpt lat="44.80463" lon="-0.37115">
        <ele>60</ele>
        <time>2011-12-23T12:27:57Z</time>
      </trkpt>
      <trkpt lat="44.8046" lon="-0.37101">
        <ele>59</ele>
        <time>2011-12-23T12:28:03Z</time>
      </trkpt>
      <trkpt lat="44.80456" lon="-0.37087">
        <ele>58</ele>
        <time>2011-12-23T12:28:07Z</time>
      </trkpt>
      <trkpt lat="44.80449" lon="-0.37072">
        <ele>57</ele>
        <time>2011-12-23T12:28:11Z</time>
      </trkpt>
      <trkpt lat="44.80443" lon="-0.37061">
        <ele>56</ele>
        <time>2011-12-23T12:28:15Z</time>
      </trkpt>
      <trkpt lat="44.80435" lon="-0.37055">
        <ele>55</ele>
        <time>2011-12-23T12:28:19Z</time>
      </trkpt>
      <trkpt lat="44.80425" lon="-0.37047">
        <ele>54</ele>
        <time>2011-12-23T12:28:23Z</time>
      </trkpt>
      <trkpt lat="44.80416" lon="-0.37043">
        <ele>54</ele>
        <time>2011-12-23T12:28:29Z</time>
      </trkpt>
      <trkpt lat="44.80408" lon="-0.37034">
        <ele>54</ele>
        <time>2011-12-23T12:28:42Z</time>
      </trkpt>
      <trkpt lat="44.80399" lon="-0.3703">
        <ele>55</ele>
        <time>2011-12-23T12:29:38Z</time>
      </trkpt>
      <trkpt lat="44.8039" lon="-0.37036">
        <ele>55</ele>
        <time>2011-12-23T12:30:11Z</time>
      </trkpt>
      <trkpt lat="44.80381" lon="-0.37045">
        <ele>55</ele>
        <time>2011-12-23T12:30:26Z</time>
      </trkpt>
      <trkpt lat="44.80372" lon="-0.3705">
        <ele>56</ele>
        <time>2011-12-23T12:30:38Z</time>
      </trkpt>
      <trkpt lat="44.80363" lon="-0.37052">
        <ele>56</ele>
        <time>2011-12-23T12:30:50Z</time>
      </trkpt>
      <trkpt lat="44.80353" lon="-0.37051">
        <ele>57</ele>
        <time>2011-12-23T12:31:11Z</time>
      </trkpt>
      <trkpt lat="44.80344" lon="-0.37047">
        <ele>58</ele>
        <time>2011-12-23T12:31:27Z</time>
      </trkpt>
      <trkpt lat="44.80335" lon="-0.37047">
        <ele>59</ele>
        <time>2011-12-23T12:31:46Z</time>
      </trkpt>
      <trkpt lat="44.80325" lon="-0.37045">
        <ele>60</ele>
        <time>2011-12-23T12:31:59Z</time>
      </trkpt>
      <trkpt lat="44.80316" lon="-0.37043">
        <ele>61</ele>
        <time>2011-12-23T12:32:15Z</time>
      </trkpt>
      <trkpt lat="44.80307" lon="-0.37037">
        <ele>62</ele>
        <time>2011-12-23T12:32:35Z</time>
      </trkpt>
      <trkpt lat="44.80298" lon="-0.3703">
        <ele>62</ele>
        <time>2011-12-23T12:32:41Z</time>
      </trkpt>
      <trkpt lat="44.80291" lon="-0.37021">
        <ele>63</ele>
        <time>2011-12-23T12:32:49Z</time>
      </trkpt>
      <trkpt lat="44.80282" lon="-0.37015">
        <ele>64</ele>
        <time>2011-12-23T12:33:00Z</time>
      </trkpt>
      <trkpt lat="44.80272" lon="-0.37018">
        <ele>65</ele>
        <time>2011-12-23T12:33:08Z</time>
      </trkpt>
      <trkpt lat="44.80266" lon="-0.37029">
        <ele>65</ele>
        <time>2011-12-23T12:33:15Z</time>
      </trkpt>
      <trkpt lat="44.80261" lon="-0.37041">
        <ele>65</ele>
        <time>2011-12-23T12:33:23Z</time>
      </trkpt>
      <trkpt lat="44.8025" lon="-0.37038">
        <ele>66</ele>
        <time>2011-12-23T12:33:30Z</time>
      </trkpt>
      <trkpt lat="44.80241" lon="-0.37035">
        <ele>67</ele>
        <time>2011-12-23T12:33:37Z</time>
      </trkpt>
      <trkpt lat="44.80232" lon="-0.3703">
        <ele>67</ele>
        <time>2011-12-23T12:33:44Z</time>
      </trkpt>
      <trkpt lat="44.80222" lon="-0.3703">
        <ele>68</ele>
        <time>2011-12-23T12:33:50Z</time>
      </trkpt>
      <trkpt lat="44.80213" lon="-0.3703">
        <ele>69</ele>
        <time>2011-12-23T12:33:57Z</time>
      </trkpt>
      <trkpt lat="44.80205" lon="-0.37021">
        <ele>69</ele>
        <time>2011-12-23T12:34:04Z</time>
      </trkpt>
      <trkpt lat="44.80198" lon="-0.37011">
        <ele>70</ele>
        <time>2011-12-23T12:34:14Z</time>
      </trkpt>
      <trkpt lat="44.80189" lon="-0.37005">
        <ele>70</ele>
        <time>2011-12-23T12:34:19Z</time>
      </trkpt>
      <trkpt lat="44.80178" lon="-0.37002">
        <ele>71</ele>
        <time>2011-12-23T12:34:26Z</time>
      </trkpt>
      <trkpt lat="44.80167" lon="-0.36999">
        <ele>71</ele>
        <time>2011-12-23T12:34:33Z</time>
      </trkpt>
      <trkpt lat="44.80156" lon="-0.36999">
        <ele>72</ele>
        <time>2011-12-23T12:34:39Z</time>
      </trkpt>
      <trkpt lat="44.80147" lon="-0.36999">
        <ele>72</ele>
        <time>2011-12-23T12:34:46Z</time>
      </trkpt>
      <trkpt lat="44.80136" lon="-0.36997">
        <ele>72</ele>
        <time>2011-12-23T12:34:53Z</time>
      </trkpt>
      <trkpt lat="44.80126" lon="-0.36999">
        <ele>73</ele>
        <time>2011-12-23T12:34:58Z</time>
      </trkpt>
      <trkpt lat="44.80117" lon="-0.36997">
        <ele>73</ele>
        <time>2011-12-23T12:35:03Z</time>
      </trkpt>
      <trkpt lat="44.80107" lon="-0.36997">
        <ele>73</ele>
        <time>2011-12-23T12:35:11Z</time>
      </trkpt>
      <trkpt lat="44.80097" lon="-0.36997">
        <ele>74</ele>
        <time>2011-12-23T12:35:19Z</time>
      </trkpt>
      <trkpt lat="44.80088" lon="-0.36992">
        <ele>74</ele>
        <time>2011-12-23T12:35:26Z</time>
      </trkpt>
      <trkpt lat="44.80078" lon="-0.36992">
        <ele>75</ele>
        <time>2011-12-23T12:35:33Z</time>
      </trkpt>
      <trkpt lat="44.80067" lon="-0.36991">
        <ele>75</ele>
        <time>2011-12-23T12:35:39Z</time>
      </trkpt>
      <trkpt lat="44.80057" lon="-0.36991">
        <ele>76</ele>
        <time>2011-12-23T12:35:45Z</time>
      </trkpt>
      <trkpt lat="44.80047" lon="-0.36991">
        <ele>78</ele>
        <time>2011-12-23T12:35:52Z</time>
      </trkpt>
      <trkpt lat="44.80036" lon="-0.36989">
        <ele>79</ele>
        <time>2011-12-23T12:35:59Z</time>
      </trkpt>
      <trkpt lat="44.80026" lon="-0.36987">
        <ele>81</ele>
        <time>2011-12-23T12:36:07Z</time>
      </trkpt>
      <trkpt lat="44.80017" lon="-0.36983">
        <ele>82</ele>
        <time>2011-12-23T12:36:15Z</time>
      </trkpt>
      <trkpt lat="44.80007" lon="-0.36981">
        <ele>83</ele>
        <time>2011-12-23T12:36:22Z</time>
      </trkpt>
      <trkpt lat="44.79998" lon="-0.36984">
        <ele>84</ele>
        <time>2011-12-23T12:36:28Z</time>
      </trkpt>
      <trkpt lat="44.79988" lon="-0.36985">
        <ele>84</ele>
        <time>2011-12-23T12:36:35Z</time>
      </trkpt>
      <trkpt lat="44.79978" lon="-0.36984">
        <ele>85</ele>
        <time>2011-12-23T12:36:43Z</time>
      </trkpt>
      <trkpt lat="44.79969" lon="-0.36979">
        <ele>86</ele>
        <time>2011-12-23T12:36:50Z</time>
      </trkpt>
      <trkpt lat="44.79959" lon="-0.36977">
        <ele>87</ele>
        <time>2011-12-23T12:36:58Z</time>
      </trkpt>
      <trkpt lat="44.79949" lon="-0.3698">
        <ele>88</ele>
        <time>2011-12-23T12:37:07Z</time>
      </trkpt>
      <trkpt lat="44.79941" lon="-0.36989">
        <ele>89</ele>
        <time>2011-12-23T12:37:15Z</time>
      </trkpt>
      <trkpt lat="44.79934" lon="-0.36998">
        <ele>89</ele>
        <time>2011-12-23T12:37:21Z</time>
      </trkpt>
      <trkpt lat="44.79925" lon="-0.37006">
        <ele>89</ele>
        <time>2011-12-23T12:37:27Z</time>
      </trkpt>
      <trkpt lat="44.79916" lon="-0.37014">
        <ele>89</ele>
        <time>2011-12-23T12:37:32Z</time>
      </trkpt>
      <trkpt lat="44.79908" lon="-0.37023">
        <ele>89</ele>
        <time>2011-12-23T12:37:37Z</time>
      </trkpt>
      <trkpt lat="44.79899" lon="-0.37031">
        <ele>89</ele>
        <time>2011-12-23T12:37:41Z</time>
      </trkpt>
      <trkpt lat="44.7989" lon="-0.37038">
        <ele>90</ele>
        <time>2011-12-23T12:37:46Z</time>
      </trkpt>
      <trkpt lat="44.79882" lon="-0.37046">
        <ele>90</ele>
        <time>2011-12-23T12:37:50Z</time>
      </trkpt>
      <trkpt lat="44.79874" lon="-0.37054">
        <ele>90</ele>
        <time>2011-12-23T12:37:55Z</time>
      </trkpt>
      <trkpt lat="44.79867" lon="-0.37062">
        <ele>90</ele>
        <time>2011-12-23T12:38:10Z</time>
      </trkpt>
      <trkpt lat="44.7986" lon="-0.37073">
        <ele>90</ele>
        <time>2011-12-23T12:38:27Z</time>
      </trkpt>
      <trkpt lat="44.79855" lon="-0.37086">
        <ele>89</ele>
        <time>2011-12-23T12:38:34Z</time>
      </trkpt>
      <trkpt lat="44.79849" lon="-0.37098">
        <ele>89</ele>
        <time>2011-12-23T12:38:40Z</time>
      </trkpt>
      <trkpt lat="44.79842" lon="-0.37109">
        <ele>90</ele>
        <time>2011-12-23T12:38:47Z</time>
      </trkpt>
      <trkpt lat="44.79836" lon="-0.3712">
        <ele>90</ele>
        <time>2011-12-23T12:38:53Z</time>
      </trkpt>
      <trkpt lat="44.79829" lon="-0.3713">
        <ele>90</ele>
        <time>2011-12-23T12:38:58Z</time>
      </trkpt>
      <trkpt lat="44.79821" lon="-0.3714">
        <ele>90</ele>
        <time>2011-12-23T12:39:03Z</time>
      </trkpt>
      <trkpt lat="44.79812" lon="-0.37149">
        <ele>90</ele>
        <time>2011-12-23T12:39:08Z</time>
      </trkpt>
      <trkpt lat="44.79801" lon="-0.37155">
        <ele>91</ele>
        <time>2011-12-23T12:39:13Z</time>
      </trkpt>
      <trkpt lat="44.79791" lon="-0.37159">
        <ele>92</ele>
        <time>2011-12-23T12:39:18Z</time>
      </trkpt>
      <trkpt lat="44.7978" lon="-0.37163">
        <ele>93</ele>
        <time>2011-12-23T12:39:23Z</time>
      </trkpt>
      <trkpt lat="44.79771" lon="-0.37167">
        <ele>94</ele>
        <time>2011-12-23T12:39:28Z</time>
      </trkpt>
      <trkpt lat="44.79761" lon="-0.37168">
        <ele>94</ele>
        <time>2011-12-23T12:39:35Z</time>
      </trkpt>
      <trkpt lat="44.79752" lon="-0.37171">
        <ele>95</ele>
        <time>2011-12-23T12:39:42Z</time>
      </trkpt>
      <trkpt lat="44.79742" lon="-0.37174">
        <ele>95</ele>
        <time>2011-12-23T12:39:49Z</time>
      </trkpt>
      <trkpt lat="44.79746" lon="-0.37162">
        <ele>96</ele>
        <time>2011-12-23T12:40:06Z</time>
      </trkpt>
      <trkpt lat="44.79753" lon="-0.3715">
        <ele>96</ele>
        <time>2011-12-23T12:40:21Z</time>
      </trkpt>
      <trkpt lat="44.79755" lon="-0.37136">
        <ele>96</ele>
        <time>2011-12-23T12:40:29Z</time>
      </trkpt>
      <trkpt lat="44.7975" lon="-0.37125">
        <ele>97</ele>
        <time>2011-12-23T12:40:40Z</time>
      </trkpt>
      <trkpt lat="44.79746" lon="-0.37111">
        <ele>98</ele>
        <time>2011-12-23T12:40:48Z</time>
      </trkpt>
      <trkpt lat="44.79742" lon="-0.37099">
        <ele>98</ele>
        <time>2011-12-23T12:40:55Z</time>
      </trkpt>
      <trkpt lat="44.79739" lon="-0.37086">
        <ele>99</ele>
        <time>2011-12-23T12:41:01Z</time>
      </trkpt>
      <trkpt lat="44.79732" lon="-0.37074">
        <ele>99</ele>
        <time>2011-12-23T12:41:08Z</time>
      </trkpt>
      <trkpt lat="44.79726" lon="-0.37061">
        <ele>99</ele>
        <time>2011-12-23T12:41:15Z</time>
      </trkpt>
      <trkpt lat="44.79723" lon="-0.37047">
        <ele>99</ele>
        <time>2011-12-23T12:41:20Z</time>
      </trkpt>
      <trkpt lat="44.7972" lon="-0.37034">
        <ele>99</ele>
        <time>2011-12-23T12:41:25Z</time>
      </trkpt>
      <trkpt lat="44.79718" lon="-0.37021">
        <ele>99</ele>
        <time>2011-12-23T12:41:29Z</time>
      </trkpt>
      <trkpt lat="44.79714" lon="-0.37009">
        <ele>99</ele>
        <time>2011-12-23T12:41:33Z</time>
      </trkpt>
      <trkpt lat="44.79708" lon="-0.36998">
        <ele>99</ele>
        <time>2011-12-23T12:41:37Z</time>
      </trkpt>
      <trkpt lat="44.797" lon="-0.36988">
        <ele>98</ele>
        <time>2011-12-23T12:41:41Z</time>
      </trkpt>
      <trkpt lat="44.79691" lon="-0.36977">
        <ele>97</ele>
        <time>2011-12-23T12:41:45Z</time>
      </trkpt>
      <trkpt lat="44.79685" lon="-0.36967">
        <ele>96</ele>
        <time>2011-12-23T12:41:49Z</time>
      </trkpt>
      <trkpt lat="44.79674" lon="-0.36967">
        <ele>95</ele>
        <time>2011-12-23T12:41:54Z</time>
      </trkpt>
      <trkpt lat="44.79664" lon="-0.36971">
        <ele>95</ele>
        <time>2011-12-23T12:41:59Z</time>
      </trkpt>
      <trkpt lat="44.79653" lon="-0.36972">
        <ele>94</ele>
        <time>2011-12-23T12:42:04Z</time>
      </trkpt>
      <trkpt lat="44.79641" lon="-0.3697">
        <ele>93</ele>
        <time>2011-12-23T12:42:09Z</time>
      </trkpt>
      <trkpt lat="44.79631" lon="-0.36968">
        <ele>92</ele>
        <time>2011-12-23T12:42:14Z</time>
      </trkpt>
      <trkpt lat="44.79621" lon="-0.36967">
        <ele>92</ele>
        <time>2011-12-23T12:42:21Z</time>
      </trkpt>
      <trkpt lat="44.79611" lon="-0.36968">
        <ele>91</ele>
        <time>2011-12-23T12:42:28Z</time>
      </trkpt>
      <trkpt lat="44.79602" lon="-0.36964">
        <ele>90</ele>
        <time>2011-12-23T12:42:36Z</time>
      </trkpt>
      <trkpt lat="44.79594" lon="-0.36955">
        <ele>89</ele>
        <time>2011-12-23T12:42:42Z</time>
      </trkpt>
      <trkpt lat="44.79584" lon="-0.36947">
        <ele>87</ele>
        <time>2011-12-23T12:42:48Z</time>
      </trkpt>
      <trkpt lat="44.79576" lon="-0.36939">
        <ele>86</ele>
        <time>2011-12-23T12:42:55Z</time>
      </trkpt>
      <trkpt lat="44.79569" lon="-0.36928">
        <ele>84</ele>
        <time>2011-12-23T12:43:06Z</time>
      </trkpt>
      <trkpt lat="44.79561" lon="-0.36918">
        <ele>83</ele>
        <time>2011-12-23T12:43:12Z</time>
      </trkpt>
      <trkpt lat="44.79556" lon="-0.36905">
        <ele>82</ele>
        <time>2011-12-23T12:43:18Z</time>
      </trkpt>
      <trkpt lat="44.79553" lon="-0.36892">
        <ele>80</ele>
        <time>2011-12-23T12:43:24Z</time>
      </trkpt>
      <trkpt lat="44.79547" lon="-0.36881">
        <ele>79</ele>
        <time>2011-12-23T12:43:35Z</time>
      </trkpt>
      <trkpt lat="44.79538" lon="-0.36878">
        <ele>79</ele>
        <time>2011-12-23T12:43:44Z</time>
      </trkpt>
      <trkpt lat="44.79529" lon="-0.36871">
        <ele>78</ele>
        <time>2011-12-23T12:43:51Z</time>
      </trkpt>
      <trkpt lat="44.79519" lon="-0.36868">
        <ele>78</ele>
        <time>2011-12-23T12:43:57Z</time>
      </trkpt>
      <trkpt lat="44.79509" lon="-0.36863">
        <ele>77</ele>
        <time>2011-12-23T12:44:05Z</time>
      </trkpt>
      <trkpt lat="44.79499" lon="-0.36863">
        <ele>77</ele>
        <time>2011-12-23T12:44:16Z</time>
      </trkpt>
      <trkpt lat="44.7949" lon="-0.36865">
        <ele>77</ele>
        <time>2011-12-23T12:44:21Z</time>
      </trkpt>
      <trkpt lat="44.79479" lon="-0.36871">
        <ele>77</ele>
        <time>2011-12-23T12:44:25Z</time>
      </trkpt>
      <trkpt lat="44.79469" lon="-0.36873">
        <ele>77</ele>
        <time>2011-12-23T12:44:29Z</time>
      </trkpt>
      <trkpt lat="44.79457" lon="-0.36872">
        <ele>77</ele>
        <time>2011-12-23T12:44:35Z</time>
      </trkpt>
      <trkpt lat="44.79446" lon="-0.36873">
        <ele>77</ele>
        <time>2011-12-23T12:44:38Z</time>
      </trkpt>
      <trkpt lat="44.79437" lon="-0.36869">
        <ele>76</ele>
        <time>2011-12-23T12:44:45Z</time>
      </trkpt>
      <trkpt lat="44.79438" lon="-0.36853">
        <ele>75</ele>
        <time>2011-12-23T12:44:50Z</time>
      </trkpt>
      <trkpt lat="44.79436" lon="-0.3684">
        <ele>74</ele>
        <time>2011-12-23T12:44:54Z</time>
      </trkpt>
      <trkpt lat="44.79433" lon="-0.36827">
        <ele>73</ele>
        <time>2011-12-23T12:45:00Z</time>
      </trkpt>
      <trkpt lat="44.7943" lon="-0.36815">
        <ele>73</ele>
        <time>2011-12-23T12:45:06Z</time>
      </trkpt>
      <trkpt lat="44.7943" lon="-0.368">
        <ele>72</ele>
        <time>2011-12-23T12:45:13Z</time>
      </trkpt>
      <trkpt lat="44.79423" lon="-0.36788">
        <ele>71</ele>
        <time>2011-12-23T12:45:19Z</time>
      </trkpt>
      <trkpt lat="44.79415" lon="-0.36776">
        <ele>71</ele>
        <time>2011-12-23T12:45:26Z</time>
      </trkpt>
      <trkpt lat="44.79405" lon="-0.36778">
        <ele>71</ele>
        <time>2011-12-23T12:45:31Z</time>
      </trkpt>
      <trkpt lat="44.79395" lon="-0.36777">
        <ele>71</ele>
        <time>2011-12-23T12:45:36Z</time>
      </trkpt>
      <trkpt lat="44.79383" lon="-0.3678">
        <ele>71</ele>
        <time>2011-12-23T12:45:41Z</time>
      </trkpt>
      <trkpt lat="44.79373" lon="-0.36781">
        <ele>71</ele>
        <time>2011-12-23T12:45:45Z</time>
      </trkpt>
      <trkpt lat="44.79362" lon="-0.36781">
        <ele>71</ele>
        <time>2011-12-23T12:45:50Z</time>
      </trkpt>
      <trkpt lat="44.79352" lon="-0.36778">
        <ele>71</ele>
        <time>2011-12-23T12:45:57Z</time>
      </trkpt>
      <trkpt lat="44.79341" lon="-0.36775">
        <ele>71</ele>
        <time>2011-12-23T12:46:03Z</time>
      </trkpt>
      <trkpt lat="44.79331" lon="-0.36771">
        <ele>71</ele>
        <time>2011-12-23T12:46:09Z</time>
      </trkpt>
      <trkpt lat="44.7932" lon="-0.36768">
        <ele>70</ele>
        <time>2011-12-23T12:46:16Z</time>
      </trkpt>
      <trkpt lat="44.7932" lon="-0.36753">
        <ele>70</ele>
        <time>2011-12-23T12:46:30Z</time>
      </trkpt>
      <trkpt lat="44.79319" lon="-0.36738">
        <ele>70</ele>
        <time>2011-12-23T12:46:39Z</time>
      </trkpt>
      <trkpt lat="44.79308" lon="-0.36736">
        <ele>70</ele>
        <time>2011-12-23T12:46:46Z</time>
      </trkpt>
      <trkpt lat="44.79297" lon="-0.36736">
        <ele>70</ele>
        <time>2011-12-23T12:46:51Z</time>
      </trkpt>
      <trkpt lat="44.79288" lon="-0.36729">
        <ele>70</ele>
        <time>2011-12-23T12:46:56Z</time>
      </trkpt>
      <trkpt lat="44.79281" lon="-0.36719">
        <ele>70</ele>
        <time>2011-12-23T12:47:02Z</time>
      </trkpt>
      <trkpt lat="44.79271" lon="-0.36709">
        <ele>71</ele>
        <time>2011-12-23T12:47:09Z</time>
      </trkpt>
      <trkpt lat="44.79264" lon="-0.367">
        <ele>71</ele>
        <time>2011-12-23T12:47:15Z</time>
      </trkpt>
      <trkpt lat="44.79256" lon="-0.36691">
        <ele>71</ele>
        <time>2011-12-23T12:47:21Z</time>
      </trkpt>
      <trkpt lat="44.79249" lon="-0.3668">
        <ele>72</ele>
        <time>2011-12-23T12:47:27Z</time>
      </trkpt>
      <trkpt lat="44.79242" lon="-0.36669">
        <ele>73</ele>
        <time>2011-12-23T12:47:31Z</time>
      </trkpt>
      <trkpt lat="44.79236" lon="-0.36659">
        <ele>74</ele>
        <time>2011-12-23T12:47:38Z</time>
      </trkpt>
      <trkpt lat="44.79231" lon="-0.36646">
        <ele>75</ele>
        <time>2011-12-23T12:47:46Z</time>
      </trkpt>
      <trkpt lat="44.79226" lon="-0.36634">
        <ele>76</ele>
        <time>2011-12-23T12:47:54Z</time>
      </trkpt>
      <trkpt lat="44.7922" lon="-0.36623">
        <ele>76</ele>
        <time>2011-12-23T12:48:02Z</time>
      </trkpt>
      <trkpt lat="44.79214" lon="-0.36611">
        <ele>77</ele>
        <time>2011-12-23T12:48:08Z</time>
      </trkpt>
      <trkpt lat="44.79206" lon="-0.36602">
        <ele>79</ele>
        <time>2011-12-23T12:48:14Z</time>
      </trkpt>
      <trkpt lat="44.79198" lon="-0.36593">
        <ele>80</ele>
        <time>2011-12-23T12:48:23Z</time>
      </trkpt>
      <trkpt lat="44.7919" lon="-0.36585">
        <ele>82</ele>
        <time>2011-12-23T12:48:30Z</time>
      </trkpt>
      <trkpt lat="44.79184" lon="-0.36575">
        <ele>83</ele>
        <time>2011-12-23T12:48:36Z</time>
      </trkpt>
      <trkpt lat="44.79176" lon="-0.36567">
        <ele>84</ele>
        <time>2011-12-23T12:48:44Z</time>
      </trkpt>
      <trkpt lat="44.79169" lon="-0.36557">
        <ele>85</ele>
        <time>2011-12-23T12:48:52Z</time>
      </trkpt>
      <trkpt lat="44.79162" lon="-0.36546">
        <ele>85</ele>
        <time>2011-12-23T12:49:02Z</time>
      </trkpt>
      <trkpt lat="44.79157" lon="-0.36535">
        <ele>86</ele>
        <time>2011-12-23T12:49:09Z</time>
      </trkpt>
      <trkpt lat="44.7915" lon="-0.36523">
        <ele>86</ele>
        <time>2011-12-23T12:49:17Z</time>
      </trkpt>
      <trkpt lat="44.79142" lon="-0.36515">
        <ele>88</ele>
        <time>2011-12-23T12:49:27Z</time>
      </trkpt>
      <trkpt lat="44.79134" lon="-0.36508">
        <ele>89</ele>
        <time>2011-12-23T12:49:35Z</time>
      </trkpt>
      <trkpt lat="44.79124" lon="-0.36508">
        <ele>90</ele>
        <time>2011-12-23T12:49:45Z</time>
      </trkpt>
      <trkpt lat="44.79116" lon="-0.36514">
        <ele>92</ele>
        <time>2011-12-23T12:49:53Z</time>
      </trkpt>
      <trkpt lat="44.79107" lon="-0.36521">
        <ele>93</ele>
        <time>2011-12-23T12:50:03Z</time>
      </trkpt>
      <trkpt lat="44.791" lon="-0.36531">
        <ele>94</ele>
        <time>2011-12-23T12:50:11Z</time>
      </trkpt>
      <trkpt lat="44.79092" lon="-0.36542">
        <ele>95</ele>
        <time>2011-12-23T12:50:18Z</time>
      </trkpt>
      <trkpt lat="44.79084" lon="-0.36551">
        <ele>96</ele>
        <time>2011-12-23T12:50:23Z</time>
      </trkpt>
      <trkpt lat="44.79077" lon="-0.36561">
        <ele>97</ele>
        <time>2011-12-23T12:50:28Z</time>
      </trkpt>
      <trkpt lat="44.79071" lon="-0.36573">
        <ele>97</ele>
        <time>2011-12-23T12:50:33Z</time>
      </trkpt>
      <trkpt lat="44.79063" lon="-0.36583">
        <ele>97</ele>
        <time>2011-12-23T12:50:37Z</time>
      </trkpt>
      <trkpt lat="44.79054" lon="-0.36592">
        <ele>96</ele>
        <time>2011-12-23T12:50:41Z</time>
      </trkpt>
      <trkpt lat="44.79045" lon="-0.36601">
        <ele>96</ele>
        <time>2011-12-23T12:50:45Z</time>
      </trkpt>
      <trkpt lat="44.79036" lon="-0.36611">
        <ele>96</ele>
        <time>2011-12-23T12:50:49Z</time>
      </trkpt>
      <trkpt lat="44.79027" lon="-0.36619">
        <ele>95</ele>
        <time>2011-12-23T12:50:53Z</time>
      </trkpt>
      <trkpt lat="44.79018" lon="-0.36629">
        <ele>95</ele>
        <time>2011-12-23T12:50:57Z</time>
      </trkpt>
      <trkpt lat="44.79009" lon="-0.36639">
        <ele>95</ele>
        <time>2011-12-23T12:51:00Z</time>
      </trkpt>
      <trkpt lat="44.78999" lon="-0.36648">
        <ele>95</ele>
        <time>2011-12-23T12:51:04Z</time>
      </trkpt>
      <trkpt lat="44.78991" lon="-0.36656">
        <ele>95</ele>
        <time>2011-12-23T12:51:07Z</time>
      </trkpt>
      <trkpt lat="44.78981" lon="-0.36667">
        <ele>94</ele>
        <time>2011-12-23T12:51:10Z</time>
      </trkpt>
      <trkpt lat="44.78972" lon="-0.36676">
        <ele>94</ele>
        <time>2011-12-23T12:51:13Z</time>
      </trkpt>
      <trkpt lat="44.78965" lon="-0.36685">
        <ele>94</ele>
        <time>2011-12-23T12:51:16Z</time>
      </trkpt>
      <trkpt lat="44.78956" lon="-0.36694">
        <ele>94</ele>
        <time>2011-12-23T12:51:19Z</time>
      </trkpt>
      <trkpt lat="44.78947" lon="-0.36702">
        <ele>94</ele>
        <time>2011-12-23T12:51:22Z</time>
      </trkpt>
      <trkpt lat="44.7894" lon="-0.36712">
        <ele>94</ele>
        <time>2011-12-23T12:51:25Z</time>
      </trkpt>
      <trkpt lat="44.78932" lon="-0.36722">
        <ele>94</ele>
        <time>2011-12-23T12:51:28Z</time>
      </trkpt>
      <trkpt lat="44.78925" lon="-0.36733">
        <ele>94</ele>
        <time>2011-12-23T12:51:31Z</time>
      </trkpt>
      <trkpt lat="44.78917" lon="-0.36745">
        <ele>94</ele>
        <time>2011-12-23T12:51:35Z</time>
      </trkpt>
      <trkpt lat="44.78909" lon="-0.36756">
        <ele>93</ele>
        <time>2011-12-23T12:51:39Z</time>
      </trkpt>
      <trkpt lat="44.78901" lon="-0.36765">
        <ele>93</ele>
        <time>2011-12-23T12:51:43Z</time>
      </trkpt>
      <trkpt lat="44.78896" lon="-0.36777">
        <ele>92</ele>
        <time>2011-12-23T12:51:49Z</time>
      </trkpt>
      <trkpt lat="44.78889" lon="-0.36787">
        <ele>90</ele>
        <time>2011-12-23T12:51:58Z</time>
      </trkpt>
      <trkpt lat="44.7889" lon="-0.36801">
        <ele>89</ele>
        <time>2011-12-23T12:52:02Z</time>
      </trkpt>
      <trkpt lat="44.78897" lon="-0.36813">
        <ele>89</ele>
        <time>2011-12-23T12:52:05Z</time>
      </trkpt>
      <trkpt lat="44.78905" lon="-0.36822">
        <ele>88</ele>
        <time>2011-12-23T12:52:08Z</time>
      </trkpt>
      <trkpt lat="44.78912" lon="-0.36831">
        <ele>87</ele>
        <time>2011-12-23T12:52:12Z</time>
      </trkpt>
      <trkpt lat="44.78921" lon="-0.3684">
        <ele>86</ele>
        <time>2011-12-23T12:52:16Z</time>
      </trkpt>
      <trkpt lat="44.78931" lon="-0.3685">
        <ele>85</ele>
        <time>2011-12-23T12:52:20Z</time>
      </trkpt>
      <trkpt lat="44.7894" lon="-0.36862">
        <ele>83</ele>
        <time>2011-12-23T12:52:24Z</time>
      </trkpt>
      <trkpt lat="44.78939" lon="-0.36876">
        <ele>81</ele>
        <time>2011-12-23T12:52:31Z</time>
      </trkpt>
      <trkpt lat="44.78932" lon="-0.36888">
        <ele>80</ele>
        <time>2011-12-23T12:52:35Z</time>
      </trkpt>
      <trkpt lat="44.78929" lon="-0.36901">
        <ele>79</ele>
        <time>2011-12-23T12:52:42Z</time>
      </trkpt>
      <trkpt lat="44.78925" lon="-0.36915">
        <ele>78</ele>
        <time>2011-12-23T12:52:51Z</time>
      </trkpt>
      <trkpt lat="44.78915" lon="-0.36918">
        <ele>78</ele>
        <time>2011-12-23T12:52:58Z</time>
      </trkpt>
      <trkpt lat="44.78907" lon="-0.36928">
        <ele>77</ele>
        <time>2011-12-23T12:53:19Z</time>
      </trkpt>
      <trkpt lat="44.78903" lon="-0.36941">
        <ele>77</ele>
        <time>2011-12-23T12:54:14Z</time>
      </trkpt>
      <trkpt lat="44.78899" lon="-0.36954">
        <ele>78</ele>
        <time>2011-12-23T12:54:28Z</time>
      </trkpt>
      <trkpt lat="44.78899" lon="-0.36968">
        <ele>79</ele>
        <time>2011-12-23T12:54:46Z</time>
      </trkpt>
      <trkpt lat="44.78895" lon="-0.3698">
        <ele>80</ele>
        <time>2011-12-23T12:55:03Z</time>
      </trkpt>
      <trkpt lat="44.78893" lon="-0.36994">
        <ele>81</ele>
        <time>2011-12-23T12:55:16Z</time>
      </trkpt>
      <trkpt lat="44.78888" lon="-0.37005">
        <ele>82</ele>
        <time>2011-12-23T12:55:28Z</time>
      </trkpt>
      <trkpt lat="44.78883" lon="-0.37018">
        <ele>83</ele>
        <time>2011-12-23T12:55:35Z</time>
      </trkpt>
      <trkpt lat="44.78878" lon="-0.37031">
        <ele>83</ele>
        <time>2011-12-23T12:55:41Z</time>
      </trkpt>
      <trkpt lat="44.78873" lon="-0.37043">
        <ele>84</ele>
        <time>2011-12-23T12:55:45Z</time>
      </trkpt>
      <trkpt lat="44.78867" lon="-0.37056">
        <ele>85</ele>
        <time>2011-12-23T12:55:51Z</time>
      </trkpt>
      <trkpt lat="44.78861" lon="-0.37067">
        <ele>85</ele>
        <time>2011-12-23T12:55:57Z</time>
      </trkpt>
      <trkpt lat="44.78855" lon="-0.37078">
        <ele>86</ele>
        <time>2011-12-23T12:56:04Z</time>
      </trkpt>
      <trkpt lat="44.7885" lon="-0.3709">
        <ele>86</ele>
        <time>2011-12-23T12:56:11Z</time>
      </trkpt>
      <trkpt lat="44.78845" lon="-0.37101">
        <ele>86</ele>
        <time>2011-12-23T12:56:18Z</time>
      </trkpt>
      <trkpt lat="44.78835" lon="-0.37103">
        <ele>87</ele>
        <time>2011-12-23T12:56:24Z</time>
      </trkpt>
      <trkpt lat="44.78827" lon="-0.37111">
        <ele>87</ele>
        <time>2011-12-23T12:56:31Z</time>
      </trkpt>
      <trkpt lat="44.78818" lon="-0.37117">
        <ele>88</ele>
        <time>2011-12-23T12:56:37Z</time>
      </trkpt>
      <trkpt lat="44.78809" lon="-0.37123">
        <ele>88</ele>
        <time>2011-12-23T12:56:43Z</time>
      </trkpt>
      <trkpt lat="44.78801" lon="-0.37132">
        <ele>88</ele>
        <time>2011-12-23T12:56:48Z</time>
      </trkpt>
      <trkpt lat="44.78792" lon="-0.3714">
        <ele>88</ele>
        <time>2011-12-23T12:56:52Z</time>
      </trkpt>
      <trkpt lat="44.78783" lon="-0.37146">
        <ele>88</ele>
        <time>2011-12-23T12:56:55Z</time>
      </trkpt>
      <trkpt lat="44.78774" lon="-0.37153">
        <ele>88</ele>
        <time>2011-12-23T12:56:59Z</time>
      </trkpt>
      <trkpt lat="44.78764" lon="-0.37161">
        <ele>87</ele>
        <time>2011-12-23T12:57:04Z</time>
      </trkpt>
      <trkpt lat="44.78753" lon="-0.37168">
        <ele>87</ele>
        <time>2011-12-23T12:57:08Z</time>
      </trkpt>
      <trkpt lat="44.78743" lon="-0.37178">
        <ele>87</ele>
        <time>2011-12-23T12:57:12Z</time>
      </trkpt>
      <trkpt lat="44.78739" lon="-0.37192">
        <ele>87</ele>
        <time>2011-12-23T12:57:16Z</time>
      </trkpt>
      <trkpt lat="44.78738" lon="-0.37209">
        <ele>87</ele>
        <time>2011-12-23T12:57:19Z</time>
      </trkpt>
      <trkpt lat="44.78739" lon="-0.37223">
        <ele>86</ele>
        <time>2011-12-23T12:57:22Z</time>
      </trkpt>
      <trkpt lat="44.78737" lon="-0.37236">
        <ele>86</ele>
        <time>2011-12-23T12:57:27Z</time>
      </trkpt>
      <trkpt lat="44.78725" lon="-0.37242">
        <ele>87</ele>
        <time>2011-12-23T12:57:31Z</time>
      </trkpt>
      <trkpt lat="44.78716" lon="-0.37247">
        <ele>88</ele>
        <time>2011-12-23T12:57:35Z</time>
      </trkpt>
      <trkpt lat="44.78708" lon="-0.3725">
        <ele>89</ele>
        <time>2011-12-23T12:57:38Z</time>
      </trkpt>
      <trkpt lat="44.78697" lon="-0.37257">
        <ele>90</ele>
        <time>2011-12-23T12:57:43Z</time>
      </trkpt>
      <trkpt lat="44.78687" lon="-0.37262">
        <ele>91</ele>
        <time>2011-12-23T12:57:48Z</time>
      </trkpt>
      <trkpt lat="44.78678" lon="-0.37268">
        <ele>92</ele>
        <time>2011-12-23T12:57:54Z</time>
      </trkpt>
      <trkpt lat="44.78669" lon="-0.37276">
        <ele>92</ele>
        <time>2011-12-23T12:58:00Z</time>
      </trkpt>
      <trkpt lat="44.78669" lon="-0.37291">
        <ele>93</ele>
        <time>2011-12-23T12:58:06Z</time>
      </trkpt>
      <trkpt lat="44.78673" lon="-0.37304">
        <ele>93</ele>
        <time>2011-12-23T12:58:12Z</time>
      </trkpt>
      <trkpt lat="44.78677" lon="-0.37317">
        <ele>94</ele>
        <time>2011-12-23T12:58:17Z</time>
      </trkpt>
      <trkpt lat="44.78681" lon="-0.37331">
        <ele>94</ele>
        <time>2011-12-23T12:58:23Z</time>
      </trkpt>
      <trkpt lat="44.78684" lon="-0.37346">
        <ele>95</ele>
        <time>2011-12-23T12:58:29Z</time>
      </trkpt>
      <trkpt lat="44.78689" lon="-0.37358">
        <ele>95</ele>
        <time>2011-12-23T12:58:36Z</time>
      </trkpt>
      <trkpt lat="44.78693" lon="-0.37372">
        <ele>95</ele>
        <time>2011-12-23T12:58:43Z</time>
      </trkpt>
      <trkpt lat="44.78697" lon="-0.37383">
        <ele>95</ele>
        <time>2011-12-23T12:58:51Z</time>
      </trkpt>
      <trkpt lat="44.78699" lon="-0.37398">
        <ele>96</ele>
        <time>2011-12-23T12:58:59Z</time>
      </trkpt>
      <trkpt lat="44.78705" lon="-0.37409">
        <ele>95</ele>
        <time>2011-12-23T12:59:05Z</time>
      </trkpt>
      <trkpt lat="44.78712" lon="-0.37419">
        <ele>95</ele>
        <time>2011-12-23T12:59:10Z</time>
      </trkpt>
      <trkpt lat="44.78718" lon="-0.37433">
        <ele>95</ele>
        <time>2011-12-23T12:59:16Z</time>
      </trkpt>
      <trkpt lat="44.7872" lon="-0.37448">
        <ele>95</ele>
        <time>2011-12-23T12:59:22Z</time>
      </trkpt>
      <trkpt lat="44.7872" lon="-0.37462">
        <ele>95</ele>
        <time>2011-12-23T12:59:28Z</time>
      </trkpt>
      <trkpt lat="44.78715" lon="-0.37474">
        <ele>95</ele>
        <time>2011-12-23T12:59:35Z</time>
      </trkpt>
      <trkpt lat="44.78709" lon="-0.37487">
        <ele>96</ele>
        <time>2011-12-23T12:59:42Z</time>
      </trkpt>
      <trkpt lat="44.78706" lon="-0.37501">
        <ele>96</ele>
        <time>2011-12-23T12:59:49Z</time>
      </trkpt>
      <trkpt lat="44.787" lon="-0.37513">
        <ele>96</ele>
        <time>2011-12-23T12:59:56Z</time>
      </trkpt>
      <trkpt lat="44.78695" lon="-0.37524">
        <ele>97</ele>
        <time>2011-12-23T13:00:03Z</time>
      </trkpt>
      <trkpt lat="44.78689" lon="-0.37537">
        <ele>98</ele>
        <time>2011-12-23T13:00:09Z</time>
      </trkpt>
      <trkpt lat="44.7868" lon="-0.37544">
        <ele>99</ele>
        <time>2011-12-23T13:00:14Z</time>
      </trkpt>
      <trkpt lat="44.78672" lon="-0.37552">
        <ele>100</ele>
        <time>2011-12-23T13:00:22Z</time>
      </trkpt>
      <trkpt lat="44.78666" lon="-0.37563">
        <ele>100</ele>
        <time>2011-12-23T13:00:29Z</time>
      </trkpt>
      <trkpt lat="44.78661" lon="-0.37575">
        <ele>101</ele>
        <time>2011-12-23T13:00:34Z</time>
      </trkpt>
      <trkpt lat="44.78654" lon="-0.37585">
        <ele>102</ele>
        <time>2011-12-23T13:00:38Z</time>
      </trkpt>
      <trkpt lat="44.78646" lon="-0.37595">
        <ele>102</ele>
        <time>2011-12-23T13:00:42Z</time>
      </trkpt>
      <trkpt lat="44.78638" lon="-0.37606">
        <ele>103</ele>
        <time>2011-12-23T13:00:46Z</time>
      </trkpt>
      <trkpt lat="44.7863" lon="-0.37617">
        <ele>103</ele>
        <time>2011-12-23T13:00:50Z</time>
      </trkpt>
      <trkpt lat="44.78623" lon="-0.37628">
        <ele>104</ele>
        <time>2011-12-23T13:00:55Z</time>
      </trkpt>
      <trkpt lat="44.78615" lon="-0.37639">
        <ele>104</ele>
        <time>2011-12-23T13:00:59Z</time>
      </trkpt>
      <trkpt lat="44.78612" lon="-0.37652">
        <ele>105</ele>
        <time>2011-12-23T13:01:03Z</time>
      </trkpt>
      <trkpt lat="44.78612" lon="-0.37666">
        <ele>105</ele>
        <time>2011-12-23T13:01:07Z</time>
      </trkpt>
      <trkpt lat="44.78609" lon="-0.37679">
        <ele>106</ele>
        <time>2011-12-23T13:01:10Z</time>
      </trkpt>
      <trkpt lat="44.78603" lon="-0.3769">
        <ele>106</ele>
        <time>2011-12-23T13:01:14Z</time>
      </trkpt>
      <trkpt lat="44.78594" lon="-0.37698">
        <ele>106</ele>
        <time>2011-12-23T13:01:18Z</time>
      </trkpt>
      <trkpt lat="44.78583" lon="-0.37704">
        <ele>106</ele>
        <time>2011-12-23T13:01:22Z</time>
      </trkpt>
      <trkpt lat="44.78573" lon="-0.37711">
        <ele>106</ele>
        <time>2011-12-23T13:01:26Z</time>
      </trkpt>
      <trkpt lat="44.78562" lon="-0.37719">
        <ele>107</ele>
        <time>2011-12-23T13:01:30Z</time>
      </trkpt>
      <trkpt lat="44.78553" lon="-0.37725">
        <ele>107</ele>
        <time>2011-12-23T13:01:33Z</time>
      </trkpt>
      <trkpt lat="44.78544" lon="-0.3773">
        <ele>107</ele>
        <time>2011-12-23T13:01:36Z</time>
      </trkpt>
      <trkpt lat="44.78533" lon="-0.37737">
        <ele>107</ele>
        <time>2011-12-23T13:01:40Z</time>
      </trkpt>
      <trkpt lat="44.78525" lon="-0.37744">
        <ele>107</ele>
        <time>2011-12-23T13:01:43Z</time>
      </trkpt>
      <trkpt lat="44.78516" lon="-0.37751">
        <ele>107</ele>
        <time>2011-12-23T13:01:46Z</time>
      </trkpt>
      <trkpt lat="44.78508" lon="-0.3776">
        <ele>107</ele>
        <time>2011-12-23T13:01:49Z</time>
      </trkpt>
      <trkpt lat="44.78499" lon="-0.37768">
        <ele>107</ele>
        <time>2011-12-23T13:01:52Z</time>
      </trkpt>
      <trkpt lat="44.78489" lon="-0.37773">
        <ele>106</ele>
        <time>2011-12-23T13:01:55Z</time>
      </trkpt>
      <trkpt lat="44.78478" lon="-0.3778">
        <ele>106</ele>
        <time>2011-12-23T13:01:58Z</time>
      </trkpt>
      <trkpt lat="44.78468" lon="-0.37787">
        <ele>106</ele>
        <time>2011-12-23T13:02:01Z</time>
      </trkpt>
      <trkpt lat="44.78459" lon="-0.3779">
        <ele>106</ele>
        <time>2011-12-23T13:02:04Z</time>
      </trkpt>
      <trkpt lat="44.78449" lon="-0.37795">
        <ele>106</ele>
        <time>2011-12-23T13:02:07Z</time>
      </trkpt>
      <trkpt lat="44.78437" lon="-0.37801">
        <ele>105</ele>
        <time>2011-12-23T13:02:10Z</time>
      </trkpt>
      <trkpt lat="44.78424" lon="-0.37808">
        <ele>105</ele>
        <time>2011-12-23T13:02:13Z</time>
      </trkpt>
      <trkpt lat="44.78415" lon="-0.37805">
        <ele>105</ele>
        <time>2011-12-23T13:02:16Z</time>
      </trkpt>
      <trkpt lat="44.78407" lon="-0.37792">
        <ele>105</ele>
        <time>2011-12-23T13:02:20Z</time>
      </trkpt>
      <trkpt lat="44.78402" lon="-0.37779">
        <ele>105</ele>
        <time>2011-12-23T13:02:24Z</time>
      </trkpt>
      <trkpt lat="44.78397" lon="-0.37765">
        <ele>104</ele>
        <time>2011-12-23T13:02:28Z</time>
      </trkpt>
      <trkpt lat="44.78392" lon="-0.37751">
        <ele>104</ele>
        <time>2011-12-23T13:02:32Z</time>
      </trkpt>
      <trkpt lat="44.78388" lon="-0.37738">
        <ele>104</ele>
        <time>2011-12-23T13:02:36Z</time>
      </trkpt>
      <trkpt lat="44.78384" lon="-0.37725">
        <ele>104</ele>
        <time>2011-12-23T13:02:40Z</time>
      </trkpt>
      <trkpt lat="44.78379" lon="-0.3771">
        <ele>104</ele>
        <time>2011-12-23T13:02:44Z</time>
      </trkpt>
      <trkpt lat="44.78374" lon="-0.37696">
        <ele>104</ele>
        <time>2011-12-23T13:02:48Z</time>
      </trkpt>
      <trkpt lat="44.78368" lon="-0.37683">
        <ele>104</ele>
        <time>2011-12-23T13:02:52Z</time>
      </trkpt>
      <trkpt lat="44.78363" lon="-0.37671">
        <ele>104</ele>
        <time>2011-12-23T13:02:56Z</time>
      </trkpt>
      <trkpt lat="44.78359" lon="-0.37657">
        <ele>104</ele>
        <time>2011-12-23T13:03:01Z</time>
      </trkpt>
      <trkpt lat="44.78352" lon="-0.37643">
        <ele>103</ele>
        <time>2011-12-23T13:03:06Z</time>
      </trkpt>
      <trkpt lat="44.78348" lon="-0.3763">
        <ele>103</ele>
        <time>2011-12-23T13:03:10Z</time>
      </trkpt>
      <trkpt lat="44.78341" lon="-0.37617">
        <ele>103</ele>
        <time>2011-12-23T13:03:15Z</time>
      </trkpt>
      <trkpt lat="44.7833" lon="-0.3761">
        <ele>103</ele>
        <time>2011-12-23T13:03:20Z</time>
      </trkpt>
      <trkpt lat="44.78319" lon="-0.37613">
        <ele>102</ele>
        <time>2011-12-23T13:03:24Z</time>
      </trkpt>
      <trkpt lat="44.7831" lon="-0.37616">
        <ele>102</ele>
        <time>2011-12-23T13:03:27Z</time>
      </trkpt>
      <trkpt lat="44.78299" lon="-0.37621">
        <ele>101</ele>
        <time>2011-12-23T13:03:30Z</time>
      </trkpt>
      <trkpt lat="44.78287" lon="-0.37626">
        <ele>100</ele>
        <time>2011-12-23T13:03:33Z</time>
      </trkpt>
      <trkpt lat="44.78278" lon="-0.3763">
        <ele>100</ele>
        <time>2011-12-23T13:03:35Z</time>
      </trkpt>
      <trkpt lat="44.78268" lon="-0.37634">
        <ele>99</ele>
        <time>2011-12-23T13:03:38Z</time>
      </trkpt>
      <trkpt lat="44.78258" lon="-0.37638">
        <ele>98</ele>
        <time>2011-12-23T13:03:41Z</time>
      </trkpt>
      <trkpt lat="44.78249" lon="-0.37642">
        <ele>97</ele>
        <time>2011-12-23T13:03:44Z</time>
      </trkpt>
      <trkpt lat="44.78239" lon="-0.37648">
        <ele>97</ele>
        <time>2011-12-23T13:03:48Z</time>
      </trkpt>
      <trkpt lat="44.78229" lon="-0.37652">
        <ele>96</ele>
        <time>2011-12-23T13:03:52Z</time>
      </trkpt>
      <trkpt lat="44.7822" lon="-0.37659">
        <ele>96</ele>
        <time>2011-12-23T13:03:57Z</time>
      </trkpt>
      <trkpt lat="44.7821" lon="-0.37663">
        <ele>95</ele>
        <time>2011-12-23T13:04:01Z</time>
      </trkpt>
      <trkpt lat="44.782" lon="-0.37667">
        <ele>95</ele>
        <time>2011-12-23T13:04:06Z</time>
      </trkpt>
      <trkpt lat="44.7819" lon="-0.37671">
        <ele>95</ele>
        <time>2011-12-23T13:04:10Z</time>
      </trkpt>
      <trkpt lat="44.78179" lon="-0.37674">
        <ele>95</ele>
        <time>2011-12-23T13:04:14Z</time>
      </trkpt>
      <trkpt lat="44.78169" lon="-0.37677">
        <ele>95</ele>
        <time>2011-12-23T13:04:18Z</time>
      </trkpt>
      <trkpt lat="44.78159" lon="-0.3768">
        <ele>95</ele>
        <time>2011-12-23T13:04:22Z</time>
      </trkpt>
      <trkpt lat="44.78151" lon="-0.37687">
        <ele>95</ele>
        <time>2011-12-23T13:05:36Z</time>
      </trkpt>
      <trkpt lat="44.78146" lon="-0.37702">
        <ele>94</ele>
        <time>2011-12-23T13:06:00Z</time>
      </trkpt>
      <trkpt lat="44.78147" lon="-0.37718">
        <ele>94</ele>
        <time>2011-12-23T13:06:04Z</time>
      </trkpt>
      <trkpt lat="44.78148" lon="-0.37731">
        <ele>93</ele>
        <time>2011-12-23T13:06:07Z</time>
      </trkpt>
      <trkpt lat="44.78148" lon="-0.37745">
        <ele>93</ele>
        <time>2011-12-23T13:06:10Z</time>
      </trkpt>
      <trkpt lat="44.78148" lon="-0.37762">
        <ele>92</ele>
        <time>2011-12-23T13:06:14Z</time>
      </trkpt>
      <trkpt lat="44.78147" lon="-0.37778">
        <ele>92</ele>
        <time>2011-12-23T13:06:18Z</time>
      </trkpt>
      <trkpt lat="44.78147" lon="-0.37792">
        <ele>92</ele>
        <time>2011-12-23T13:06:22Z</time>
      </trkpt>
      <trkpt lat="44.78146" lon="-0.37808">
        <ele>93</ele>
        <time>2011-12-23T13:06:27Z</time>
      </trkpt>
      <trkpt lat="44.78145" lon="-0.37824">
        <ele>94</ele>
        <time>2011-12-23T13:06:31Z</time>
      </trkpt>
      <trkpt lat="44.78143" lon="-0.37837">
        <ele>95</ele>
        <time>2011-12-23T13:06:34Z</time>
      </trkpt>
      <trkpt lat="44.78143" lon="-0.37854">
        <ele>96</ele>
        <time>2011-12-23T13:06:38Z</time>
      </trkpt>
      <trkpt lat="44.78143" lon="-0.37869">
        <ele>96</ele>
        <time>2011-12-23T13:06:42Z</time>
      </trkpt>
      <trkpt lat="44.78141" lon="-0.37882">
        <ele>97</ele>
        <time>2011-12-23T13:06:46Z</time>
      </trkpt>
      <trkpt lat="44.78139" lon="-0.37897">
        <ele>97</ele>
        <time>2011-12-23T13:06:50Z</time>
      </trkpt>
      <trkpt lat="44.78139" lon="-0.37912">
        <ele>98</ele>
        <time>2011-12-23T13:06:54Z</time>
      </trkpt>
      <trkpt lat="44.78139" lon="-0.37925">
        <ele>98</ele>
        <time>2011-12-23T13:06:58Z</time>
      </trkpt>
      <trkpt lat="44.78138" lon="-0.37939">
        <ele>98</ele>
        <time>2011-12-23T13:07:02Z</time>
      </trkpt>
      <trkpt lat="44.78138" lon="-0.37955">
        <ele>98</ele>
        <time>2011-12-23T13:07:07Z</time>
      </trkpt>
      <trkpt lat="44.78137" lon="-0.37968">
        <ele>98</ele>
        <time>2011-12-23T13:07:10Z</time>
      </trkpt>
      <trkpt lat="44.78137" lon="-0.37983">
        <ele>98</ele>
        <time>2011-12-23T13:07:13Z</time>
      </trkpt>
      <trkpt lat="44.78135" lon="-0.37999">
        <ele>98</ele>
        <time>2011-12-23T13:07:16Z</time>
      </trkpt>
      <trkpt lat="44.78134" lon="-0.38015">
        <ele>98</ele>
        <time>2011-12-23T13:07:19Z</time>
      </trkpt>
      <trkpt lat="44.78134" lon="-0.38029">
        <ele>98</ele>
        <time>2011-12-23T13:07:22Z</time>
      </trkpt>
      <trkpt lat="44.78137" lon="-0.38047">
        <ele>98</ele>
        <time>2011-12-23T13:07:26Z</time>
      </trkpt>
      <trkpt lat="44.78139" lon="-0.38063">
        <ele>98</ele>
        <time>2011-12-23T13:07:30Z</time>
      </trkpt>
      <trkpt lat="44.78135" lon="-0.38075">
        <ele>98</ele>
        <time>2011-12-23T13:07:34Z</time>
      </trkpt>
      <trkpt lat="44.78124" lon="-0.38084">
        <ele>98</ele>
        <time>2011-12-23T13:07:37Z</time>
      </trkpt>
      <trkpt lat="44.78113" lon="-0.38095">
        <ele>97</ele>
        <time>2011-12-23T13:07:40Z</time>
      </trkpt>
      <trkpt lat="44.78104" lon="-0.38102">
        <ele>97</ele>
        <time>2011-12-23T13:07:42Z</time>
      </trkpt>
      <trkpt lat="44.78095" lon="-0.3811">
        <ele>97</ele>
        <time>2011-12-23T13:07:44Z</time>
      </trkpt>
      <trkpt lat="44.78084" lon="-0.38121">
        <ele>96</ele>
        <time>2011-12-23T13:07:47Z</time>
      </trkpt>
      <trkpt lat="44.78073" lon="-0.38131">
        <ele>96</ele>
        <time>2011-12-23T13:07:50Z</time>
      </trkpt>
      <trkpt lat="44.78063" lon="-0.38142">
        <ele>95</ele>
        <time>2011-12-23T13:07:53Z</time>
      </trkpt>
      <trkpt lat="44.78053" lon="-0.38152">
        <ele>95</ele>
        <time>2011-12-23T13:07:56Z</time>
      </trkpt>
      <trkpt lat="44.78045" lon="-0.3816">
        <ele>95</ele>
        <time>2011-12-23T13:07:59Z</time>
      </trkpt>
      <trkpt lat="44.78036" lon="-0.38169">
        <ele>95</ele>
        <time>2011-12-23T13:08:03Z</time>
      </trkpt>
      <trkpt lat="44.78028" lon="-0.3818">
        <ele>95</ele>
        <time>2011-12-23T13:08:08Z</time>
      </trkpt>
      <trkpt lat="44.7802" lon="-0.3819">
        <ele>96</ele>
        <time>2011-12-23T13:08:12Z</time>
      </trkpt>
      <trkpt lat="44.78011" lon="-0.38198">
        <ele>96</ele>
        <time>2011-12-23T13:08:16Z</time>
      </trkpt>
      <trkpt lat="44.78002" lon="-0.38205">
        <ele>96</ele>
        <time>2011-12-23T13:08:20Z</time>
      </trkpt>
      <trkpt lat="44.77994" lon="-0.38213">
        <ele>97</ele>
        <time>2011-12-23T13:08:24Z</time>
      </trkpt>
      <trkpt lat="44.77985" lon="-0.38222">
        <ele>97</ele>
        <time>2011-12-23T13:08:28Z</time>
      </trkpt>
      <trkpt lat="44.77975" lon="-0.38231">
        <ele>97</ele>
        <time>2011-12-23T13:08:33Z</time>
      </trkpt>
      <trkpt lat="44.77967" lon="-0.3824">
        <ele>97</ele>
        <time>2011-12-23T13:08:37Z</time>
      </trkpt>
      <trkpt lat="44.7796" lon="-0.38249">
        <ele>97</ele>
        <time>2011-12-23T13:08:41Z</time>
      </trkpt>
      <trkpt lat="44.77951" lon="-0.38258">
        <ele>97</ele>
        <time>2011-12-23T13:08:45Z</time>
      </trkpt>
      <trkpt lat="44.77943" lon="-0.38267">
        <ele>97</ele>
        <time>2011-12-23T13:08:49Z</time>
      </trkpt>
      <trkpt lat="44.77934" lon="-0.38278">
        <ele>97</ele>
        <time>2011-12-23T13:08:53Z</time>
      </trkpt>
      <trkpt lat="44.77926" lon="-0.3829">
        <ele>97</ele>
        <time>2011-12-23T13:08:57Z</time>
      </trkpt>
      <trkpt lat="44.77917" lon="-0.38301">
        <ele>97</ele>
        <time>2011-12-23T13:09:01Z</time>
      </trkpt>
      <trkpt lat="44.7791" lon="-0.38311">
        <ele>96</ele>
        <time>2011-12-23T13:09:06Z</time>
      </trkpt>
      <trkpt lat="44.77903" lon="-0.38319">
        <ele>96</ele>
        <time>2011-12-23T13:09:11Z</time>
      </trkpt>
      <trkpt lat="44.77893" lon="-0.38318">
        <ele>95</ele>
        <time>2011-12-23T13:09:16Z</time>
      </trkpt>
      <trkpt lat="44.77885" lon="-0.38308">
        <ele>95</ele>
        <time>2011-12-23T13:09:20Z</time>
      </trkpt>
      <trkpt lat="44.77877" lon="-0.38299">
        <ele>95</ele>
        <time>2011-12-23T13:09:23Z</time>
      </trkpt>
      <trkpt lat="44.77868" lon="-0.38293">
        <ele>95</ele>
        <time>2011-12-23T13:09:26Z</time>
      </trkpt>
      <trkpt lat="44.77858" lon="-0.38286">
        <ele>95</ele>
        <time>2011-12-23T13:09:30Z</time>
      </trkpt>
      <trkpt lat="44.77848" lon="-0.3828">
        <ele>95</ele>
        <time>2011-12-23T13:09:34Z</time>
      </trkpt>
      <trkpt lat="44.77837" lon="-0.38273">
        <ele>95</ele>
        <time>2011-12-23T13:09:38Z</time>
      </trkpt>
      <trkpt lat="44.77832" lon="-0.3826">
        <ele>95</ele>
        <time>2011-12-23T13:09:41Z</time>
      </trkpt>
      <trkpt lat="44.77828" lon="-0.38248">
        <ele>96</ele>
        <time>2011-12-23T13:09:44Z</time>
      </trkpt>
      <trkpt lat="44.77825" lon="-0.38235">
        <ele>96</ele>
        <time>2011-12-23T13:09:47Z</time>
      </trkpt>
      <trkpt lat="44.77823" lon="-0.38222">
        <ele>96</ele>
        <time>2011-12-23T13:09:51Z</time>
      </trkpt>
      <trkpt lat="44.77821" lon="-0.38205">
        <ele>96</ele>
        <time>2011-12-23T13:09:55Z</time>
      </trkpt>
      <trkpt lat="44.77818" lon="-0.38192">
        <ele>96</ele>
        <time>2011-12-23T13:09:58Z</time>
      </trkpt>
      <trkpt lat="44.77815" lon="-0.38178">
        <ele>96</ele>
        <time>2011-12-23T13:10:02Z</time>
      </trkpt>
      <trkpt lat="44.77812" lon="-0.38166">
        <ele>96</ele>
        <time>2011-12-23T13:10:06Z</time>
      </trkpt>
      <trkpt lat="44.77809" lon="-0.38153">
        <ele>96</ele>
        <time>2011-12-23T13:10:10Z</time>
      </trkpt>
      <trkpt lat="44.77805" lon="-0.38139">
        <ele>96</ele>
        <time>2011-12-23T13:10:15Z</time>
      </trkpt>
      <trkpt lat="44.778" lon="-0.38128">
        <ele>96</ele>
        <time>2011-12-23T13:10:19Z</time>
      </trkpt>
      <trkpt lat="44.77796" lon="-0.38115">
        <ele>96</ele>
        <time>2011-12-23T13:10:23Z</time>
      </trkpt>
      <trkpt lat="44.77791" lon="-0.38101">
        <ele>96</ele>
        <time>2011-12-23T13:10:27Z</time>
      </trkpt>
      <trkpt lat="44.77786" lon="-0.38089">
        <ele>96</ele>
        <time>2011-12-23T13:10:31Z</time>
      </trkpt>
      <trkpt lat="44.77779" lon="-0.38076">
        <ele>96</ele>
        <time>2011-12-23T13:10:35Z</time>
      </trkpt>
      <trkpt lat="44.77775" lon="-0.38063">
        <ele>96</ele>
        <time>2011-12-23T13:10:39Z</time>
      </trkpt>
      <trkpt lat="44.7777" lon="-0.38051">
        <ele>95</ele>
        <time>2011-12-23T13:10:43Z</time>
      </trkpt>
      <trkpt lat="44.77761" lon="-0.38038">
        <ele>95</ele>
        <time>2011-12-23T13:10:47Z</time>
      </trkpt>
      <trkpt lat="44.77754" lon="-0.38027">
        <ele>95</ele>
        <time>2011-12-23T13:10:51Z</time>
      </trkpt>
      <trkpt lat="44.77746" lon="-0.38013">
        <ele>95</ele>
        <time>2011-12-23T13:10:55Z</time>
      </trkpt>
      <trkpt lat="44.77738" lon="-0.38001">
        <ele>94</ele>
        <time>2011-12-23T13:10:59Z</time>
      </trkpt>
      <trkpt lat="44.77732" lon="-0.3799">
        <ele>94</ele>
        <time>2011-12-23T13:11:02Z</time>
      </trkpt>
      <trkpt lat="44.77726" lon="-0.37978">
        <ele>93</ele>
        <time>2011-12-23T13:11:05Z</time>
      </trkpt>
      <trkpt lat="44.7772" lon="-0.37966">
        <ele>93</ele>
        <time>2011-12-23T13:11:08Z</time>
      </trkpt>
      <trkpt lat="44.77713" lon="-0.37952">
        <ele>93</ele>
        <time>2011-12-23T13:11:11Z</time>
      </trkpt>
      <trkpt lat="44.77706" lon="-0.37938">
        <ele>93</ele>
        <time>2011-12-23T13:11:14Z</time>
      </trkpt>
      <trkpt lat="44.77698" lon="-0.37923">
        <ele>92</ele>
        <time>2011-12-23T13:11:17Z</time>
      </trkpt>
      <trkpt lat="44.77692" lon="-0.37909">
        <ele>92</ele>
        <time>2011-12-23T13:11:20Z</time>
      </trkpt>
      <trkpt lat="44.77685" lon="-0.37894">
        <ele>91</ele>
        <time>2011-12-23T13:11:23Z</time>
      </trkpt>
      <trkpt lat="44.7768" lon="-0.3788">
        <ele>91</ele>
        <time>2011-12-23T13:11:26Z</time>
      </trkpt>
      <trkpt lat="44.77675" lon="-0.37869">
        <ele>90</ele>
        <time>2011-12-23T13:11:29Z</time>
      </trkpt>
      <trkpt lat="44.77671" lon="-0.37855">
        <ele>90</ele>
        <time>2011-12-23T13:11:33Z</time>
      </trkpt>
      <trkpt lat="44.77666" lon="-0.37842">
        <ele>90</ele>
        <time>2011-12-23T13:11:37Z</time>
      </trkpt>
      <trkpt lat="44.7766" lon="-0.37828">
        <ele>90</ele>
        <time>2011-12-23T13:11:41Z</time>
      </trkpt>
      <trkpt lat="44.77653" lon="-0.37816">
        <ele>90</ele>
        <time>2011-12-23T13:11:44Z</time>
      </trkpt>
      <trkpt lat="44.77644" lon="-0.37803">
        <ele>89</ele>
        <time>2011-12-23T13:11:48Z</time>
      </trkpt>
      <trkpt lat="44.77638" lon="-0.37793">
        <ele>89</ele>
        <time>2011-12-23T13:11:51Z</time>
      </trkpt>
      <trkpt lat="44.77631" lon="-0.37781">
        <ele>89</ele>
        <time>2011-12-23T13:11:54Z</time>
      </trkpt>
      <trkpt lat="44.77624" lon="-0.37769">
        <ele>89</ele>
        <time>2011-12-23T13:11:58Z</time>
      </trkpt>
      <trkpt lat="44.77616" lon="-0.3776">
        <ele>90</ele>
        <time>2011-12-23T13:12:02Z</time>
      </trkpt>
      <trkpt lat="44.7761" lon="-0.3775">
        <ele>90</ele>
        <time>2011-12-23T13:12:06Z</time>
      </trkpt>
      <trkpt lat="44.77605" lon="-0.37738">
        <ele>90</ele>
        <time>2011-12-23T13:12:10Z</time>
      </trkpt>
      <trkpt lat="44.77599" lon="-0.37727">
        <ele>90</ele>
        <time>2011-12-23T13:12:13Z</time>
      </trkpt>
      <trkpt lat="44.77594" lon="-0.37713">
        <ele>90</ele>
        <time>2011-12-23T13:12:17Z</time>
      </trkpt>
      <trkpt lat="44.77592" lon="-0.37701">
        <ele>90</ele>
        <time>2011-12-23T13:12:20Z</time>
      </trkpt>
      <trkpt lat="44.77589" lon="-0.37683">
        <ele>89</ele>
        <time>2011-12-23T13:12:24Z</time>
      </trkpt>
      <trkpt lat="44.77586" lon="-0.37667">
        <ele>89</ele>
        <time>2011-12-23T13:12:28Z</time>
      </trkpt>
      <trkpt lat="44.77582" lon="-0.37653">
        <ele>88</ele>
        <time>2011-12-23T13:12:33Z</time>
      </trkpt>
      <trkpt lat="44.77575" lon="-0.37641">
        <ele>88</ele>
        <time>2011-12-23T13:12:38Z</time>
      </trkpt>
      <trkpt lat="44.77571" lon="-0.37629">
        <ele>88</ele>
        <time>2011-12-23T13:12:42Z</time>
      </trkpt>
      <trkpt lat="44.77565" lon="-0.37617">
        <ele>87</ele>
        <time>2011-12-23T13:12:46Z</time>
      </trkpt>
      <trkpt lat="44.77561" lon="-0.37604">
        <ele>86</ele>
        <time>2011-12-23T13:12:53Z</time>
      </trkpt>
      <trkpt lat="44.77554" lon="-0.37595">
        <ele>86</ele>
        <time>2011-12-23T13:13:00Z</time>
      </trkpt>
      <trkpt lat="44.77551" lon="-0.37579">
        <ele>85</ele>
        <time>2011-12-23T13:13:04Z</time>
      </trkpt>
      <trkpt lat="44.77548" lon="-0.37567">
        <ele>84</ele>
        <time>2011-12-23T13:13:08Z</time>
      </trkpt>
      <trkpt lat="44.77544" lon="-0.37553">
        <ele>84</ele>
        <time>2011-12-23T13:13:13Z</time>
      </trkpt>
      <trkpt lat="44.77542" lon="-0.37538">
        <ele>83</ele>
        <time>2011-12-23T13:13:20Z</time>
      </trkpt>
      <trkpt lat="44.77544" lon="-0.37524">
        <ele>81</ele>
        <time>2011-12-23T13:13:24Z</time>
      </trkpt>
      <trkpt lat="44.77544" lon="-0.3751">
        <ele>80</ele>
        <time>2011-12-23T13:13:28Z</time>
      </trkpt>
      <trkpt lat="44.77537" lon="-0.37498">
        <ele>80</ele>
        <time>2011-12-23T13:13:35Z</time>
      </trkpt>
      <trkpt lat="44.7753" lon="-0.37486">
        <ele>79</ele>
        <time>2011-12-23T13:13:41Z</time>
      </trkpt>
      <trkpt lat="44.77523" lon="-0.37473">
        <ele>78</ele>
        <time>2011-12-23T13:13:45Z</time>
      </trkpt>
      <trkpt lat="44.77519" lon="-0.37461">
        <ele>77</ele>
        <time>2011-12-23T13:13:48Z</time>
      </trkpt>
      <trkpt lat="44.77514" lon="-0.37447">
        <ele>76</ele>
        <time>2011-12-23T13:13:51Z</time>
      </trkpt>
      <trkpt lat="44.7751" lon="-0.37434">
        <ele>75</ele>
        <time>2011-12-23T13:13:55Z</time>
      </trkpt>
      <trkpt lat="44.77504" lon="-0.37422">
        <ele>75</ele>
        <time>2011-12-23T13:14:01Z</time>
      </trkpt>
      <trkpt lat="44.77498" lon="-0.37412">
        <ele>74</ele>
        <time>2011-12-23T13:14:09Z</time>
      </trkpt>
      <trkpt lat="44.7749" lon="-0.37401">
        <ele>73</ele>
        <time>2011-12-23T13:14:15Z</time>
      </trkpt>
      <trkpt lat="44.77485" lon="-0.37389">
        <ele>72</ele>
        <time>2011-12-23T13:14:21Z</time>
      </trkpt>
      <trkpt lat="44.7748" lon="-0.37375">
        <ele>71</ele>
        <time>2011-12-23T13:14:26Z</time>
      </trkpt>
      <trkpt lat="44.77476" lon="-0.37363">
        <ele>71</ele>
        <time>2011-12-23T13:14:30Z</time>
      </trkpt>
      <trkpt lat="44.77466" lon="-0.37356">
        <ele>71</ele>
        <time>2011-12-23T13:14:33Z</time>
      </trkpt>
      <trkpt lat="44.77458" lon="-0.37343">
        <ele>70</ele>
        <time>2011-12-23T13:14:37Z</time>
      </trkpt>
      <trkpt lat="44.77451" lon="-0.37332">
        <ele>70</ele>
        <time>2011-12-23T13:14:41Z</time>
      </trkpt>
      <trkpt lat="44.77446" lon="-0.3732">
        <ele>69</ele>
        <time>2011-12-23T13:14:59Z</time>
      </trkpt>
      <trkpt lat="44.77439" lon="-0.37309">
        <ele>69</ele>
        <time>2011-12-23T13:15:13Z</time>
      </trkpt>
      <trkpt lat="44.7743" lon="-0.37302">
        <ele>69</ele>
        <time>2011-12-23T13:15:19Z</time>
      </trkpt>
      <trkpt lat="44.7742" lon="-0.37296">
        <ele>69</ele>
        <time>2011-12-23T13:15:25Z</time>
      </trkpt>
      <trkpt lat="44.77411" lon="-0.37289">
        <ele>68</ele>
        <time>2011-12-23T13:15:33Z</time>
      </trkpt>
      <trkpt lat="44.77402" lon="-0.37286">
        <ele>68</ele>
        <time>2011-12-23T13:15:38Z</time>
      </trkpt>
      <trkpt lat="44.77391" lon="-0.37283">
        <ele>68</ele>
        <time>2011-12-23T13:15:43Z</time>
      </trkpt>
      <trkpt lat="44.77382" lon="-0.37284">
        <ele>68</ele>
        <time>2011-12-23T13:15:51Z</time>
      </trkpt>
      <trkpt lat="44.77372" lon="-0.37286">
        <ele>68</ele>
        <time>2011-12-23T13:16:00Z</time>
      </trkpt>
      <trkpt lat="44.7737" lon="-0.373">
        <ele>68</ele>
        <time>2011-12-23T13:16:05Z</time>
      </trkpt>
      <trkpt lat="44.77366" lon="-0.37312">
        <ele>68</ele>
        <time>2011-12-23T13:16:08Z</time>
      </trkpt>
      <trkpt lat="44.77366" lon="-0.37329">
        <ele>68</ele>
        <time>2011-12-23T13:16:11Z</time>
      </trkpt>
      <trkpt lat="44.7736" lon="-0.37341">
        <ele>68</ele>
        <time>2011-12-23T13:16:14Z</time>
      </trkpt>
      <trkpt lat="44.77355" lon="-0.37356">
        <ele>68</ele>
        <time>2011-12-23T13:16:17Z</time>
      </trkpt>
      <trkpt lat="44.7735" lon="-0.37373">
        <ele>68</ele>
        <time>2011-12-23T13:16:20Z</time>
      </trkpt>
      <trkpt lat="44.77344" lon="-0.37388">
        <ele>68</ele>
        <time>2011-12-23T13:16:23Z</time>
      </trkpt>
      <trkpt lat="44.77342" lon="-0.37402">
        <ele>68</ele>
        <time>2011-12-23T13:16:26Z</time>
      </trkpt>
      <trkpt lat="44.77336" lon="-0.37417">
        <ele>68</ele>
        <time>2011-12-23T13:16:29Z</time>
      </trkpt>
      <trkpt lat="44.77333" lon="-0.3743">
        <ele>68</ele>
        <time>2011-12-23T13:16:32Z</time>
      </trkpt>
      <trkpt lat="44.77329" lon="-0.37447">
        <ele>68</ele>
        <time>2011-12-23T13:16:36Z</time>
      </trkpt>
      <trkpt lat="44.77326" lon="-0.37462">
        <ele>68</ele>
        <time>2011-12-23T13:16:39Z</time>
      </trkpt>
      <trkpt lat="44.77323" lon="-0.37477">
        <ele>68</ele>
        <time>2011-12-23T13:16:42Z</time>
      </trkpt>
      <trkpt lat="44.7732" lon="-0.37493">
        <ele>68</ele>
        <time>2011-12-23T13:16:45Z</time>
      </trkpt>
      <trkpt lat="44.77318" lon="-0.37508">
        <ele>68</ele>
        <time>2011-12-23T13:16:48Z</time>
      </trkpt>
      <trkpt lat="44.77315" lon="-0.37523">
        <ele>68</ele>
        <time>2011-12-23T13:16:51Z</time>
      </trkpt>
      <trkpt lat="44.77313" lon="-0.37538">
        <ele>68</ele>
        <time>2011-12-23T13:16:54Z</time>
      </trkpt>
      <trkpt lat="44.77314" lon="-0.37555">
        <ele>68</ele>
        <time>2011-12-23T13:16:58Z</time>
      </trkpt>
      <trkpt lat="44.77315" lon="-0.37569">
        <ele>68</ele>
        <time>2011-12-23T13:17:01Z</time>
      </trkpt>
      <trkpt lat="44.77315" lon="-0.37585">
        <ele>68</ele>
        <time>2011-12-23T13:17:04Z</time>
      </trkpt>
      <trkpt lat="44.77312" lon="-0.37601">
        <ele>67</ele>
        <time>2011-12-23T13:17:07Z</time>
      </trkpt>
      <trkpt lat="44.77311" lon="-0.37616">
        <ele>67</ele>
        <time>2011-12-23T13:17:10Z</time>
      </trkpt>
      <trkpt lat="44.77308" lon="-0.37629">
        <ele>67</ele>
        <time>2011-12-23T13:17:13Z</time>
      </trkpt>
      <trkpt lat="44.77306" lon="-0.37645">
        <ele>67</ele>
        <time>2011-12-23T13:17:16Z</time>
      </trkpt>
      <trkpt lat="44.77302" lon="-0.3766">
        <ele>66</ele>
        <time>2011-12-23T13:17:20Z</time>
      </trkpt>
      <trkpt lat="44.77299" lon="-0.37673">
        <ele>66</ele>
        <time>2011-12-23T13:17:23Z</time>
      </trkpt>
      <trkpt lat="44.77298" lon="-0.37688">
        <ele>66</ele>
        <time>2011-12-23T13:17:27Z</time>
      </trkpt>
      <trkpt lat="44.77297" lon="-0.37703">
        <ele>66</ele>
        <time>2011-12-23T13:17:31Z</time>
      </trkpt>
      <trkpt lat="44.77295" lon="-0.37718">
        <ele>66</ele>
        <time>2011-12-23T13:17:34Z</time>
      </trkpt>
      <trkpt lat="44.77294" lon="-0.37732">
        <ele>66</ele>
        <time>2011-12-23T13:17:39Z</time>
      </trkpt>
      <trkpt lat="44.77292" lon="-0.37747">
        <ele>66</ele>
        <time>2011-12-23T13:17:43Z</time>
      </trkpt>
      <trkpt lat="44.77292" lon="-0.37763">
        <ele>66</ele>
        <time>2011-12-23T13:17:48Z</time>
      </trkpt>
      <trkpt lat="44.77289" lon="-0.37775">
        <ele>67</ele>
        <time>2011-12-23T13:17:51Z</time>
      </trkpt>
      <trkpt lat="44.77286" lon="-0.37788">
        <ele>67</ele>
        <time>2011-12-23T13:17:54Z</time>
      </trkpt>
      <trkpt lat="44.77284" lon="-0.37803">
        <ele>67</ele>
        <time>2011-12-23T13:17:58Z</time>
      </trkpt>
      <trkpt lat="44.77281" lon="-0.37819">
        <ele>67</ele>
        <time>2011-12-23T13:18:02Z</time>
      </trkpt>
      <trkpt lat="44.77281" lon="-0.37833">
        <ele>67</ele>
        <time>2011-12-23T13:18:05Z</time>
      </trkpt>
      <trkpt lat="44.77279" lon="-0.3785">
        <ele>66</ele>
        <time>2011-12-23T13:18:09Z</time>
      </trkpt>
      <trkpt lat="44.77276" lon="-0.37863">
        <ele>66</ele>
        <time>2011-12-23T13:18:12Z</time>
      </trkpt>
      <trkpt lat="44.77276" lon="-0.37877">
        <ele>66</ele>
        <time>2011-12-23T13:18:15Z</time>
      </trkpt>
      <trkpt lat="44.77274" lon="-0.37891">
        <ele>66</ele>
        <time>2011-12-23T13:18:18Z</time>
      </trkpt>
      <trkpt lat="44.77272" lon="-0.37907">
        <ele>66</ele>
        <time>2011-12-23T13:18:22Z</time>
      </trkpt>
      <trkpt lat="44.77272" lon="-0.37922">
        <ele>66</ele>
        <time>2011-12-23T13:18:25Z</time>
      </trkpt>
      <trkpt lat="44.77272" lon="-0.37938">
        <ele>65</ele>
        <time>2011-12-23T13:18:27Z</time>
      </trkpt>
      <trkpt lat="44.77273" lon="-0.37952">
        <ele>65</ele>
        <time>2011-12-23T13:18:29Z</time>
      </trkpt>
      <trkpt lat="44.77274" lon="-0.37966">
        <ele>65</ele>
        <time>2011-12-23T13:18:31Z</time>
      </trkpt>
      <trkpt lat="44.77274" lon="-0.37984">
        <ele>65</ele>
        <time>2011-12-23T13:18:34Z</time>
      </trkpt>
      <trkpt lat="44.77275" lon="-0.37999">
        <ele>65</ele>
        <time>2011-12-23T13:18:37Z</time>
      </trkpt>
      <trkpt lat="44.77273" lon="-0.38013">
        <ele>64</ele>
        <time>2011-12-23T13:18:40Z</time>
      </trkpt>
      <trkpt lat="44.77273" lon="-0.38029">
        <ele>64</ele>
        <time>2011-12-23T13:18:44Z</time>
      </trkpt>
      <trkpt lat="44.77274" lon="-0.38045">
        <ele>63</ele>
        <time>2011-12-23T13:18:48Z</time>
      </trkpt>
      <trkpt lat="44.77274" lon="-0.3806">
        <ele>63</ele>
        <time>2011-12-23T13:18:52Z</time>
      </trkpt>
      <trkpt lat="44.77274" lon="-0.38075">
        <ele>63</ele>
        <time>2011-12-23T13:18:56Z</time>
      </trkpt>
      <trkpt lat="44.77273" lon="-0.38089">
        <ele>63</ele>
        <time>2011-12-23T13:18:59Z</time>
      </trkpt>
      <trkpt lat="44.77275" lon="-0.38103">
        <ele>63</ele>
        <time>2011-12-23T13:19:02Z</time>
      </trkpt>
      <trkpt lat="44.77274" lon="-0.38116">
        <ele>62</ele>
        <time>2011-12-23T13:19:05Z</time>
      </trkpt>
      <trkpt lat="44.77272" lon="-0.38132">
        <ele>62</ele>
        <time>2011-12-23T13:19:09Z</time>
      </trkpt>
      <trkpt lat="44.77274" lon="-0.38146">
        <ele>62</ele>
        <time>2011-12-23T13:19:14Z</time>
      </trkpt>
      <trkpt lat="44.77282" lon="-0.38155">
        <ele>62</ele>
        <time>2011-12-23T13:19:21Z</time>
      </trkpt>
      <trkpt lat="44.77291" lon="-0.3816">
        <ele>62</ele>
        <time>2011-12-23T13:19:27Z</time>
      </trkpt>
      <trkpt lat="44.773" lon="-0.38156">
        <ele>62</ele>
        <time>2011-12-23T13:19:35Z</time>
      </trkpt>
      <trkpt lat="44.77306" lon="-0.38166">
        <ele>63</ele>
        <time>2011-12-23T13:19:57Z</time>
      </trkpt>
      <trkpt lat="44.7731" lon="-0.38178">
        <ele>63</ele>
        <time>2011-12-23T13:20:03Z</time>
      </trkpt>
      <trkpt lat="44.77311" lon="-0.38193">
        <ele>63</ele>
        <time>2011-12-23T13:20:09Z</time>
      </trkpt>
      <trkpt lat="44.77312" lon="-0.38207">
        <ele>63</ele>
        <time>2011-12-23T13:20:16Z</time>
      </trkpt>
      <trkpt lat="44.77312" lon="-0.38221">
        <ele>63</ele>
        <time>2011-12-23T13:20:21Z</time>
      </trkpt>
      <trkpt lat="44.77314" lon="-0.38234">
        <ele>63</ele>
        <time>2011-12-23T13:20:25Z</time>
      </trkpt>
      <trkpt lat="44.77315" lon="-0.3825">
        <ele>63</ele>
        <time>2011-12-23T13:20:29Z</time>
      </trkpt>
      <trkpt lat="44.77315" lon="-0.38264">
        <ele>63</ele>
        <time>2011-12-23T13:20:32Z</time>
      </trkpt>
      <trkpt lat="44.77317" lon="-0.38278">
        <ele>63</ele>
        <time>2011-12-23T13:20:35Z</time>
      </trkpt>
      <trkpt lat="44.77317" lon="-0.38293">
        <ele>63</ele>
        <time>2011-12-23T13:20:38Z</time>
      </trkpt>
      <trkpt lat="44.77318" lon="-0.38307">
        <ele>63</ele>
        <time>2011-12-23T13:20:41Z</time>
      </trkpt>
      <trkpt lat="44.77319" lon="-0.3832">
        <ele>63</ele>
        <time>2011-12-23T13:20:44Z</time>
      </trkpt>
      <trkpt lat="44.7732" lon="-0.38335">
        <ele>63</ele>
        <time>2011-12-23T13:20:47Z</time>
      </trkpt>
      <trkpt lat="44.77321" lon="-0.38349">
        <ele>63</ele>
        <time>2011-12-23T13:20:50Z</time>
      </trkpt>
      <trkpt lat="44.77322" lon="-0.38364">
        <ele>63</ele>
        <time>2011-12-23T13:20:53Z</time>
      </trkpt>
      <trkpt lat="44.77322" lon="-0.38378">
        <ele>63</ele>
        <time>2011-12-23T13:20:56Z</time>
      </trkpt>
      <trkpt lat="44.77323" lon="-0.38392">
        <ele>63</ele>
        <time>2011-12-23T13:20:59Z</time>
      </trkpt>
      <trkpt lat="44.77324" lon="-0.38406">
        <ele>62</ele>
        <time>2011-12-23T13:21:02Z</time>
      </trkpt>
      <trkpt lat="44.77326" lon="-0.38422">
        <ele>62</ele>
        <time>2011-12-23T13:21:06Z</time>
      </trkpt>
      <trkpt lat="44.7732" lon="-0.38433">
        <ele>62</ele>
        <time>2011-12-23T13:21:14Z</time>
      </trkpt>
      <trkpt lat="44.7731" lon="-0.38435">
        <ele>62</ele>
        <time>2011-12-23T13:21:18Z</time>
      </trkpt>
      <trkpt lat="44.77299" lon="-0.38438">
        <ele>61</ele>
        <time>2011-12-23T13:21:21Z</time>
      </trkpt>
      <trkpt lat="44.77289" lon="-0.38442">
        <ele>61</ele>
        <time>2011-12-23T13:21:24Z</time>
      </trkpt>
      <trkpt lat="44.77278" lon="-0.38443">
        <ele>61</ele>
        <time>2011-12-23T13:21:28Z</time>
      </trkpt>
      <trkpt lat="44.77267" lon="-0.38444">
        <ele>61</ele>
        <time>2011-12-23T13:21:33Z</time>
      </trkpt>
      <trkpt lat="44.77257" lon="-0.38444">
        <ele>60</ele>
        <time>2011-12-23T13:21:38Z</time>
      </trkpt>
      <trkpt lat="44.77247" lon="-0.38449">
        <ele>60</ele>
        <time>2011-12-23T13:21:44Z</time>
      </trkpt>
      <trkpt lat="44.77238" lon="-0.38452">
        <ele>60</ele>
        <time>2011-12-23T13:22:04Z</time>
      </trkpt>
      <trkpt lat="44.77228" lon="-0.38454">
        <ele>60</ele>
        <time>2011-12-23T13:22:15Z</time>
      </trkpt>
      <trkpt lat="44.77219" lon="-0.38454">
        <ele>61</ele>
        <time>2011-12-23T13:22:27Z</time>
      </trkpt>
      <trkpt lat="44.77209" lon="-0.38455">
        <ele>61</ele>
        <time>2011-12-23T13:23:09Z</time>
      </trkpt>
      <trkpt lat="44.77199" lon="-0.38457">
        <ele>62</ele>
        <time>2011-12-23T13:23:23Z</time>
      </trkpt>
      <trkpt lat="44.77191" lon="-0.38463">
        <ele>62</ele>
        <time>2011-12-23T13:23:41Z</time>
      </trkpt>
      <trkpt lat="44.77181" lon="-0.38463">
        <ele>63</ele>
        <time>2011-12-23T13:23:58Z</time>
      </trkpt>
      <trkpt lat="44.77171" lon="-0.38467">
        <ele>63</ele>
        <time>2011-12-23T13:24:07Z</time>
      </trkpt>
      <trkpt lat="44.77162" lon="-0.38466">
        <ele>64</ele>
        <time>2011-12-23T13:24:18Z</time>
      </trkpt>
      <trkpt lat="44.77152" lon="-0.38469">
        <ele>65</ele>
        <time>2011-12-23T13:24:41Z</time>
      </trkpt>
      <trkpt lat="44.77143" lon="-0.3847">
        <ele>66</ele>
        <time>2011-12-23T13:25:00Z</time>
      </trkpt>
      <trkpt lat="44.77133" lon="-0.3847">
        <ele>66</ele>
        <time>2011-12-23T13:25:10Z</time>
      </trkpt>
      <trkpt lat="44.77124" lon="-0.38473">
        <ele>67</ele>
        <time>2011-12-23T13:25:18Z</time>
      </trkpt>
      <trkpt lat="44.77118" lon="-0.38481">
        <ele>68</ele>
        <time>2011-12-23T13:32:50Z</time>
      </trkpt>
      <trkpt lat="44.77127" lon="-0.38485">
        <ele>67</ele>
        <time>2011-12-23T13:33:05Z</time>
      </trkpt>
      <trkpt lat="44.77134" lon="-0.38495">
        <ele>67</ele>
        <time>2011-12-23T13:34:15Z</time>
      </trkpt>
      <trkpt lat="44.77143" lon="-0.38503">
        <ele>66</ele>
        <time>2011-12-23T13:34:22Z</time>
      </trkpt>
      <trkpt lat="44.7715" lon="-0.38511">
        <ele>66</ele>
        <time>2011-12-23T13:34:30Z</time>
      </trkpt>
      <trkpt lat="44.77157" lon="-0.38521">
        <ele>66</ele>
        <time>2011-12-23T13:34:38Z</time>
      </trkpt>
      <trkpt lat="44.77164" lon="-0.38531">
        <ele>66</ele>
        <time>2011-12-23T13:34:54Z</time>
      </trkpt>
      <trkpt lat="44.77171" lon="-0.3854">
        <ele>66</ele>
        <time>2011-12-23T13:35:15Z</time>
      </trkpt>
      <trkpt lat="44.77173" lon="-0.38555">
        <ele>66</ele>
        <time>2011-12-23T13:35:23Z</time>
      </trkpt>
      <trkpt lat="44.77175" lon="-0.38567">
        <ele>66</ele>
        <time>2011-12-23T13:35:29Z</time>
      </trkpt>
      <trkpt lat="44.77178" lon="-0.3858">
        <ele>66</ele>
        <time>2011-12-23T13:35:35Z</time>
      </trkpt>
      <trkpt lat="44.77181" lon="-0.38593">
        <ele>67</ele>
        <time>2011-12-23T13:35:42Z</time>
      </trkpt>
      <trkpt lat="44.77182" lon="-0.38607">
        <ele>67</ele>
        <time>2011-12-23T13:35:53Z</time>
      </trkpt>
      <trkpt lat="44.77183" lon="-0.38621">
        <ele>67</ele>
        <time>2011-12-23T13:36:05Z</time>
      </trkpt>
      <trkpt lat="44.77185" lon="-0.38634">
        <ele>67</ele>
        <time>2011-12-23T13:36:22Z</time>
      </trkpt>
      <trkpt lat="44.77188" lon="-0.38646">
        <ele>68</ele>
        <time>2011-12-23T13:36:33Z</time>
      </trkpt>
      <trkpt lat="44.77189" lon="-0.3866">
        <ele>68</ele>
        <time>2011-12-23T13:36:45Z</time>
      </trkpt>
      <trkpt lat="44.77189" lon="-0.38674">
        <ele>69</ele>
        <time>2011-12-23T13:36:52Z</time>
      </trkpt>
      <trkpt lat="44.77193" lon="-0.38689">
        <ele>69</ele>
        <time>2011-12-23T13:36:59Z</time>
      </trkpt>
      <trkpt lat="44.77194" lon="-0.38703">
        <ele>69</ele>
        <time>2011-12-23T13:37:05Z</time>
      </trkpt>
      <trkpt lat="44.77192" lon="-0.38717">
        <ele>70</ele>
        <time>2011-12-23T13:37:13Z</time>
      </trkpt>
      <trkpt lat="44.77192" lon="-0.3873">
        <ele>70</ele>
        <time>2011-12-23T13:37:21Z</time>
      </trkpt>
      <trkpt lat="44.77195" lon="-0.38743">
        <ele>70</ele>
        <time>2011-12-23T13:37:27Z</time>
      </trkpt>
      <trkpt lat="44.77201" lon="-0.38754">
        <ele>70</ele>
        <time>2011-12-23T13:37:34Z</time>
      </trkpt>
      <trkpt lat="44.7721" lon="-0.38762">
        <ele>68</ele>
        <time>2011-12-23T13:37:40Z</time>
      </trkpt>
      <trkpt lat="44.77219" lon="-0.3877">
        <ele>67</ele>
        <time>2011-12-23T13:37:46Z</time>
      </trkpt>
      <trkpt lat="44.77225" lon="-0.38782">
        <ele>66</ele>
        <time>2011-12-23T13:37:52Z</time>
      </trkpt>
      <trkpt lat="44.77232" lon="-0.38795">
        <ele>65</ele>
        <time>2011-12-23T13:37:56Z</time>
      </trkpt>
      <trkpt lat="44.77237" lon="-0.38807">
        <ele>64</ele>
        <time>2011-12-23T13:38:02Z</time>
      </trkpt>
      <trkpt lat="44.77241" lon="-0.3882">
        <ele>63</ele>
        <time>2011-12-23T13:38:09Z</time>
      </trkpt>
      <trkpt lat="44.77246" lon="-0.38832">
        <ele>63</ele>
        <time>2011-12-23T13:38:16Z</time>
      </trkpt>
      <trkpt lat="44.77254" lon="-0.3884">
        <ele>62</ele>
        <time>2011-12-23T13:38:24Z</time>
      </trkpt>
      <trkpt lat="44.77259" lon="-0.38851">
        <ele>61</ele>
        <time>2011-12-23T13:38:30Z</time>
      </trkpt>
      <trkpt lat="44.77263" lon="-0.38865">
        <ele>61</ele>
        <time>2011-12-23T13:38:37Z</time>
      </trkpt>
      <trkpt lat="44.77264" lon="-0.38879">
        <ele>61</ele>
        <time>2011-12-23T13:38:45Z</time>
      </trkpt>
      <trkpt lat="44.77267" lon="-0.38893">
        <ele>60</ele>
        <time>2011-12-23T13:38:52Z</time>
      </trkpt>
      <trkpt lat="44.77269" lon="-0.38907">
        <ele>60</ele>
        <time>2011-12-23T13:38:57Z</time>
      </trkpt>
      <trkpt lat="44.77272" lon="-0.3892">
        <ele>59</ele>
        <time>2011-12-23T13:39:03Z</time>
      </trkpt>
      <trkpt lat="44.77277" lon="-0.38931">
        <ele>59</ele>
        <time>2011-12-23T13:39:09Z</time>
      </trkpt>
      <trkpt lat="44.77279" lon="-0.38944">
        <ele>59</ele>
        <time>2011-12-23T13:39:22Z</time>
      </trkpt>
      <trkpt lat="44.77279" lon="-0.38957">
        <ele>59</ele>
        <time>2011-12-23T13:39:41Z</time>
      </trkpt>
      <trkpt lat="44.77285" lon="-0.38969">
        <ele>59</ele>
        <time>2011-12-23T13:39:57Z</time>
      </trkpt>
      <trkpt lat="44.77292" lon="-0.38979">
        <ele>59</ele>
        <time>2011-12-23T13:40:08Z</time>
      </trkpt>
      <trkpt lat="44.77297" lon="-0.38992">
        <ele>58</ele>
        <time>2011-12-23T13:40:15Z</time>
      </trkpt>
      <trkpt lat="44.77301" lon="-0.39006">
        <ele>58</ele>
        <time>2011-12-23T13:40:21Z</time>
      </trkpt>
      <trkpt lat="44.77307" lon="-0.39017">
        <ele>58</ele>
        <time>2011-12-23T13:40:27Z</time>
      </trkpt>
      <trkpt lat="44.77313" lon="-0.39029">
        <ele>57</ele>
        <time>2011-12-23T13:40:33Z</time>
      </trkpt>
      <trkpt lat="44.7732" lon="-0.39042">
        <ele>57</ele>
        <time>2011-12-23T13:40:39Z</time>
      </trkpt>
      <trkpt lat="44.77326" lon="-0.39052">
        <ele>57</ele>
        <time>2011-12-23T13:40:43Z</time>
      </trkpt>
      <trkpt lat="44.77333" lon="-0.39063">
        <ele>57</ele>
        <time>2011-12-23T13:40:50Z</time>
      </trkpt>
      <trkpt lat="44.77338" lon="-0.39075">
        <ele>56</ele>
        <time>2011-12-23T13:40:55Z</time>
      </trkpt>
      <trkpt lat="44.77342" lon="-0.39088">
        <ele>56</ele>
        <time>2011-12-23T13:41:00Z</time>
      </trkpt>
      <trkpt lat="44.77342" lon="-0.39103">
        <ele>56</ele>
        <time>2011-12-23T13:41:09Z</time>
      </trkpt>
      <trkpt lat="44.77341" lon="-0.39116">
        <ele>56</ele>
        <time>2011-12-23T13:41:22Z</time>
      </trkpt>
      <trkpt lat="44.77336" lon="-0.39128">
        <ele>56</ele>
        <time>2011-12-23T13:41:35Z</time>
      </trkpt>
      <trkpt lat="44.77333" lon="-0.39141">
        <ele>57</ele>
        <time>2011-12-23T13:41:47Z</time>
      </trkpt>
      <trkpt lat="44.77334" lon="-0.39154">
        <ele>57</ele>
        <time>2011-12-23T13:41:54Z</time>
      </trkpt>
      <trkpt lat="44.77339" lon="-0.39166">
        <ele>56</ele>
        <time>2011-12-23T13:42:00Z</time>
      </trkpt>
      <trkpt lat="44.77347" lon="-0.39175">
        <ele>55</ele>
        <time>2011-12-23T13:42:03Z</time>
      </trkpt>
      <trkpt lat="44.77356" lon="-0.39186">
        <ele>55</ele>
        <time>2011-12-23T13:42:07Z</time>
      </trkpt>
      <trkpt lat="44.77359" lon="-0.39201">
        <ele>55</ele>
        <time>2011-12-23T13:42:13Z</time>
      </trkpt>
      <trkpt lat="44.77365" lon="-0.39214">
        <ele>55</ele>
        <time>2011-12-23T13:42:18Z</time>
      </trkpt>
      <trkpt lat="44.77368" lon="-0.39228">
        <ele>55</ele>
        <time>2011-12-23T13:42:23Z</time>
      </trkpt>
      <trkpt lat="44.7737" lon="-0.39241">
        <ele>55</ele>
        <time>2011-12-23T13:42:28Z</time>
      </trkpt>
      <trkpt lat="44.77372" lon="-0.39256">
        <ele>55</ele>
        <time>2011-12-23T13:42:33Z</time>
      </trkpt>
      <trkpt lat="44.77376" lon="-0.39268">
        <ele>54</ele>
        <time>2011-12-23T13:42:40Z</time>
      </trkpt>
      <trkpt lat="44.7738" lon="-0.39282">
        <ele>54</ele>
        <time>2011-12-23T13:42:51Z</time>
      </trkpt>
      <trkpt lat="44.77384" lon="-0.39295">
        <ele>54</ele>
        <time>2011-12-23T13:42:59Z</time>
      </trkpt>
      <trkpt lat="44.7739" lon="-0.39306">
        <ele>54</ele>
        <time>2011-12-23T13:43:06Z</time>
      </trkpt>
      <trkpt lat="44.77395" lon="-0.39318">
        <ele>54</ele>
        <time>2011-12-23T13:43:18Z</time>
      </trkpt>
      <trkpt lat="44.77398" lon="-0.39331">
        <ele>54</ele>
        <time>2011-12-23T13:43:30Z</time>
      </trkpt>
      <trkpt lat="44.77404" lon="-0.39344">
        <ele>54</ele>
        <time>2011-12-23T13:43:42Z</time>
      </trkpt>
      <trkpt lat="44.77406" lon="-0.39358">
        <ele>54</ele>
        <time>2011-12-23T13:43:55Z</time>
      </trkpt>
      <trkpt lat="44.77408" lon="-0.39371">
        <ele>54</ele>
        <time>2011-12-23T13:44:19Z</time>
      </trkpt>
      <trkpt lat="44.77409" lon="-0.39386">
        <ele>54</ele>
        <time>2011-12-23T13:44:28Z</time>
      </trkpt>
      <trkpt lat="44.77411" lon="-0.39399">
        <ele>54</ele>
        <time>2011-12-23T13:44:37Z</time>
      </trkpt>
      <trkpt lat="44.77415" lon="-0.39412">
        <ele>54</ele>
        <time>2011-12-23T13:44:50Z</time>
      </trkpt>
      <trkpt lat="44.77411" lon="-0.39425">
        <ele>54</ele>
        <time>2011-12-23T13:44:58Z</time>
      </trkpt>
      <trkpt lat="44.77412" lon="-0.3944">
        <ele>54</ele>
        <time>2011-12-23T13:45:05Z</time>
      </trkpt>
      <trkpt lat="44.77409" lon="-0.39452">
        <ele>55</ele>
        <time>2011-12-23T13:45:12Z</time>
      </trkpt>
      <trkpt lat="44.77407" lon="-0.39467">
        <ele>55</ele>
        <time>2011-12-23T13:45:18Z</time>
      </trkpt>
      <trkpt lat="44.77402" lon="-0.39478">
        <ele>55</ele>
        <time>2011-12-23T13:45:28Z</time>
      </trkpt>
      <trkpt lat="44.77409" lon="-0.39488">
        <ele>55</ele>
        <time>2011-12-23T13:45:34Z</time>
      </trkpt>
      <trkpt lat="44.77408" lon="-0.39502">
        <ele>54</ele>
        <time>2011-12-23T13:45:43Z</time>
      </trkpt>
      <trkpt lat="44.77408" lon="-0.39516">
        <ele>54</ele>
        <time>2011-12-23T13:45:50Z</time>
      </trkpt>
      <trkpt lat="44.77411" lon="-0.39529">
        <ele>54</ele>
        <time>2011-12-23T13:45:57Z</time>
      </trkpt>
      <trkpt lat="44.77409" lon="-0.39543">
        <ele>54</ele>
        <time>2011-12-23T13:46:12Z</time>
      </trkpt>
      <trkpt lat="44.77411" lon="-0.39556">
        <ele>54</ele>
        <time>2011-12-23T13:46:22Z</time>
      </trkpt>
      <trkpt lat="44.77414" lon="-0.39569">
        <ele>54</ele>
        <time>2011-12-23T13:46:28Z</time>
      </trkpt>
      <trkpt lat="44.77418" lon="-0.39583">
        <ele>53</ele>
        <time>2011-12-23T13:46:34Z</time>
      </trkpt>
      <trkpt lat="44.77421" lon="-0.39596">
        <ele>53</ele>
        <time>2011-12-23T13:46:38Z</time>
      </trkpt>
      <trkpt lat="44.77423" lon="-0.39611">
        <ele>53</ele>
        <time>2011-12-23T13:46:47Z</time>
      </trkpt>
      <trkpt lat="44.77427" lon="-0.39625">
        <ele>53</ele>
        <time>2011-12-23T13:46:54Z</time>
      </trkpt>
      <trkpt lat="44.7743" lon="-0.39639">
        <ele>53</ele>
        <time>2011-12-23T13:47:00Z</time>
      </trkpt>
      <trkpt lat="44.77438" lon="-0.3965">
        <ele>53</ele>
        <time>2011-12-23T13:47:04Z</time>
      </trkpt>
      <trkpt lat="44.77444" lon="-0.39664">
        <ele>52</ele>
        <time>2011-12-23T13:47:09Z</time>
      </trkpt>
      <trkpt lat="44.77448" lon="-0.39679">
        <ele>52</ele>
        <time>2011-12-23T13:47:16Z</time>
      </trkpt>
      <trkpt lat="44.77452" lon="-0.3969">
        <ele>52</ele>
        <time>2011-12-23T13:47:20Z</time>
      </trkpt>
      <trkpt lat="44.77459" lon="-0.39701">
        <ele>51</ele>
        <time>2011-12-23T13:47:25Z</time>
      </trkpt>
      <trkpt lat="44.77459" lon="-0.39715">
        <ele>51</ele>
        <time>2011-12-23T13:47:31Z</time>
      </trkpt>
      <trkpt lat="44.7746" lon="-0.39729">
        <ele>51</ele>
        <time>2011-12-23T13:47:38Z</time>
      </trkpt>
      <trkpt lat="44.7746" lon="-0.39742">
        <ele>51</ele>
        <time>2011-12-23T13:47:59Z</time>
      </trkpt>
      <trkpt lat="44.77466" lon="-0.39753">
        <ele>50</ele>
        <time>2011-12-23T13:49:02Z</time>
      </trkpt>
      <trkpt lat="44.77466" lon="-0.39767">
        <ele>50</ele>
        <time>2011-12-23T13:49:18Z</time>
      </trkpt>
      <trkpt lat="44.77475" lon="-0.39777">
        <ele>50</ele>
        <time>2011-12-23T13:49:29Z</time>
      </trkpt>
      <trkpt lat="44.77478" lon="-0.39791">
        <ele>50</ele>
        <time>2011-12-23T13:49:34Z</time>
      </trkpt>
      <trkpt lat="44.77484" lon="-0.39805">
        <ele>51</ele>
        <time>2011-12-23T13:49:41Z</time>
      </trkpt>
      <trkpt lat="44.77485" lon="-0.3982">
        <ele>51</ele>
        <time>2011-12-23T13:49:49Z</time>
      </trkpt>
      <trkpt lat="44.77493" lon="-0.39829">
        <ele>51</ele>
        <time>2011-12-23T13:49:55Z</time>
      </trkpt>
      <trkpt lat="44.77489" lon="-0.39842">
        <ele>51</ele>
        <time>2011-12-23T13:50:03Z</time>
      </trkpt>
      <trkpt lat="44.77496" lon="-0.39852">
        <ele>51</ele>
        <time>2011-12-23T13:50:11Z</time>
      </trkpt>
      <trkpt lat="44.77487" lon="-0.39857">
        <ele>52</ele>
        <time>2011-12-23T13:50:35Z</time>
      </trkpt>
      <trkpt lat="44.77486" lon="-0.39871">
        <ele>52</ele>
        <time>2011-12-23T13:51:40Z</time>
      </trkpt>
      <trkpt lat="44.77493" lon="-0.39882">
        <ele>52</ele>
        <time>2011-12-23T13:53:01Z</time>
      </trkpt>
      <trkpt lat="44.77498" lon="-0.39892">
        <ele>52</ele>
        <time>2011-12-23T13:53:17Z</time>
      </trkpt>
      <trkpt lat="44.77505" lon="-0.39907">
        <ele>52</ele>
        <time>2011-12-23T13:53:35Z</time>
      </trkpt>
      <trkpt lat="44.77509" lon="-0.39918">
        <ele>52</ele>
        <time>2011-12-23T13:53:42Z</time>
      </trkpt>
      <trkpt lat="44.77512" lon="-0.39931">
        <ele>52</ele>
        <time>2011-12-23T13:53:52Z</time>
      </trkpt>
      <trkpt lat="44.77517" lon="-0.39943">
        <ele>52</ele>
        <time>2011-12-23T13:54:03Z</time>
      </trkpt>
      <trkpt lat="44.77521" lon="-0.39954">
        <ele>52</ele>
        <time>2011-12-23T13:54:10Z</time>
      </trkpt>
      <trkpt lat="44.77528" lon="-0.39968">
        <ele>52</ele>
        <time>2011-12-23T13:54:17Z</time>
      </trkpt>
      <trkpt lat="44.77537" lon="-0.39978">
        <ele>52</ele>
        <time>2011-12-23T13:54:24Z</time>
      </trkpt>
      <trkpt lat="44.77541" lon="-0.39992">
        <ele>52</ele>
        <time>2011-12-23T13:54:34Z</time>
      </trkpt>
      <trkpt lat="44.77546" lon="-0.40003">
        <ele>52</ele>
        <time>2011-12-23T13:54:42Z</time>
      </trkpt>
      <trkpt lat="44.77555" lon="-0.4001">
        <ele>51</ele>
        <time>2011-12-23T13:55:06Z</time>
      </trkpt>
      <trkpt lat="44.77557" lon="-0.40024">
        <ele>52</ele>
        <time>2011-12-23T13:55:13Z</time>
      </trkpt>
      <trkpt lat="44.77562" lon="-0.40034">
        <ele>52</ele>
        <time>2011-12-23T13:55:20Z</time>
      </trkpt>
      <trkpt lat="44.77569" lon="-0.40044">
        <ele>52</ele>
        <time>2011-12-23T13:55:24Z</time>
      </trkpt>
      <trkpt lat="44.77573" lon="-0.40058">
        <ele>52</ele>
        <time>2011-12-23T13:55:29Z</time>
      </trkpt>
      <trkpt lat="44.77577" lon="-0.4007">
        <ele>52</ele>
        <time>2011-12-23T13:55:37Z</time>
      </trkpt>
      <trkpt lat="44.77586" lon="-0.40078">
        <ele>52</ele>
        <time>2011-12-23T13:55:59Z</time>
      </trkpt>
      <trkpt lat="44.77594" lon="-0.40087">
        <ele>51</ele>
        <time>2011-12-23T13:56:04Z</time>
      </trkpt>
      <trkpt lat="44.77601" lon="-0.401">
        <ele>51</ele>
        <time>2011-12-23T13:56:09Z</time>
      </trkpt>
      <trkpt lat="44.77604" lon="-0.40115">
        <ele>52</ele>
        <time>2011-12-23T13:56:15Z</time>
      </trkpt>
      <trkpt lat="44.77607" lon="-0.40129">
        <ele>52</ele>
        <time>2011-12-23T13:56:21Z</time>
      </trkpt>
      <trkpt lat="44.77606" lon="-0.40144">
        <ele>53</ele>
        <time>2011-12-23T13:56:26Z</time>
      </trkpt>
      <trkpt lat="44.77609" lon="-0.40157">
        <ele>54</ele>
        <time>2011-12-23T13:56:30Z</time>
      </trkpt>
      <trkpt lat="44.77613" lon="-0.40169">
        <ele>54</ele>
        <time>2011-12-23T13:56:34Z</time>
      </trkpt>
      <trkpt lat="44.77621" lon="-0.40179">
        <ele>54</ele>
        <time>2011-12-23T13:56:46Z</time>
      </trkpt>
      <trkpt lat="44.77626" lon="-0.4019">
        <ele>54</ele>
        <time>2011-12-23T13:57:10Z</time>
      </trkpt>
      <trkpt lat="44.77633" lon="-0.402">
        <ele>54</ele>
        <time>2011-12-23T13:57:22Z</time>
      </trkpt>
      <trkpt lat="44.7764" lon="-0.40209">
        <ele>54</ele>
        <time>2011-12-23T13:57:34Z</time>
      </trkpt>
      <trkpt lat="44.77647" lon="-0.40218">
        <ele>54</ele>
        <time>2011-12-23T13:57:41Z</time>
      </trkpt>
      <trkpt lat="44.77658" lon="-0.40224">
        <ele>53</ele>
        <time>2011-12-23T13:57:47Z</time>
      </trkpt>
      <trkpt lat="44.77666" lon="-0.40234">
        <ele>53</ele>
        <time>2011-12-23T13:57:51Z</time>
      </trkpt>
      <trkpt lat="44.77672" lon="-0.40245">
        <ele>53</ele>
        <time>2011-12-23T13:57:55Z</time>
      </trkpt>
      <trkpt lat="44.77679" lon="-0.40255">
        <ele>53</ele>
        <time>2011-12-23T13:57:58Z</time>
      </trkpt>
      <trkpt lat="44.77686" lon="-0.40267">
        <ele>53</ele>
        <time>2011-12-23T13:58:02Z</time>
      </trkpt>
      <trkpt lat="44.77695" lon="-0.40273">
        <ele>53</ele>
        <time>2011-12-23T13:58:05Z</time>
      </trkpt>
      <trkpt lat="44.77706" lon="-0.40281">
        <ele>53</ele>
        <time>2011-12-23T13:58:08Z</time>
      </trkpt>
      <trkpt lat="44.77715" lon="-0.40288">
        <ele>53</ele>
        <time>2011-12-23T13:58:11Z</time>
      </trkpt>
      <trkpt lat="44.77725" lon="-0.40295">
        <ele>52</ele>
        <time>2011-12-23T13:58:14Z</time>
      </trkpt>
      <trkpt lat="44.77736" lon="-0.40301">
        <ele>52</ele>
        <time>2011-12-23T13:58:18Z</time>
      </trkpt>
      <trkpt lat="44.77747" lon="-0.4031">
        <ele>51</ele>
        <time>2011-12-23T13:58:22Z</time>
      </trkpt>
      <trkpt lat="44.77757" lon="-0.4032">
        <ele>51</ele>
        <time>2011-12-23T13:58:26Z</time>
      </trkpt>
      <trkpt lat="44.77767" lon="-0.40328">
        <ele>51</ele>
        <time>2011-12-23T13:58:30Z</time>
      </trkpt>
      <trkpt lat="44.77777" lon="-0.40338">
        <ele>51</ele>
        <time>2011-12-23T13:58:34Z</time>
      </trkpt>
      <trkpt lat="44.77785" lon="-0.40344">
        <ele>51</ele>
        <time>2011-12-23T13:58:37Z</time>
      </trkpt>
      <trkpt lat="44.77795" lon="-0.40356">
        <ele>51</ele>
        <time>2011-12-23T13:58:41Z</time>
      </trkpt>
      <trkpt lat="44.77803" lon="-0.40365">
        <ele>50</ele>
        <time>2011-12-23T13:58:44Z</time>
      </trkpt>
      <trkpt lat="44.77811" lon="-0.40374">
        <ele>50</ele>
        <time>2011-12-23T13:58:47Z</time>
      </trkpt>
      <trkpt lat="44.77819" lon="-0.40383">
        <ele>49</ele>
        <time>2011-12-23T13:58:51Z</time>
      </trkpt>
      <trkpt lat="44.77829" lon="-0.40378">
        <ele>48</ele>
        <time>2011-12-23T13:59:09Z</time>
      </trkpt>
      <trkpt lat="44.77838" lon="-0.40374">
        <ele>47</ele>
        <time>2011-12-23T13:59:27Z</time>
      </trkpt>
      <trkpt lat="44.77837" lon="-0.4036">
        <ele>47</ele>
        <time>2011-12-23T13:59:44Z</time>
      </trkpt>
      <trkpt lat="44.77847" lon="-0.40359">
        <ele>46</ele>
        <time>2011-12-23T14:00:05Z</time>
      </trkpt>
      <trkpt lat="44.77856" lon="-0.40365">
        <ele>46</ele>
        <time>2011-12-23T14:00:21Z</time>
      </trkpt>
      <trkpt lat="44.77866" lon="-0.40368">
        <ele>45</ele>
        <time>2011-12-23T14:00:28Z</time>
      </trkpt>
      <trkpt lat="44.77874" lon="-0.40376">
        <ele>45</ele>
        <time>2011-12-23T14:00:36Z</time>
      </trkpt>
      <trkpt lat="44.7788" lon="-0.40387">
        <ele>45</ele>
        <time>2011-12-23T14:00:43Z</time>
      </trkpt>
      <trkpt lat="44.77887" lon="-0.40395">
        <ele>45</ele>
        <time>2011-12-23T14:00:50Z</time>
      </trkpt>
      <trkpt lat="44.77895" lon="-0.40403">
        <ele>45</ele>
        <time>2011-12-23T14:01:02Z</time>
      </trkpt>
      <trkpt lat="44.77898" lon="-0.40418">
        <ele>44</ele>
        <time>2011-12-23T14:01:17Z</time>
      </trkpt>
      <trkpt lat="44.77898" lon="-0.40431">
        <ele>44</ele>
        <time>2011-12-23T14:01:25Z</time>
      </trkpt>
      <trkpt lat="44.77891" lon="-0.40443">
        <ele>45</ele>
        <time>2011-12-23T14:01:36Z</time>
      </trkpt>
      <trkpt lat="44.77883" lon="-0.40452">
        <ele>45</ele>
        <time>2011-12-23T14:01:42Z</time>
      </trkpt>
      <trkpt lat="44.77889" lon="-0.40466">
        <ele>45</ele>
        <time>2011-12-23T14:01:47Z</time>
      </trkpt>
      <trkpt lat="44.77897" lon="-0.40475">
        <ele>45</ele>
        <time>2011-12-23T14:01:52Z</time>
      </trkpt>
      <trkpt lat="44.77905" lon="-0.40482">
        <ele>45</ele>
        <time>2011-12-23T14:01:54Z</time>
      </trkpt>
      <trkpt lat="44.77915" lon="-0.40487">
        <ele>45</ele>
        <time>2011-12-23T14:01:58Z</time>
      </trkpt>
      <trkpt lat="44.77924" lon="-0.40498">
        <ele>45</ele>
        <time>2011-12-23T14:02:02Z</time>
      </trkpt>
      <trkpt lat="44.77932" lon="-0.40507">
        <ele>45</ele>
        <time>2011-12-23T14:02:07Z</time>
      </trkpt>
      <trkpt lat="44.77942" lon="-0.40512">
        <ele>45</ele>
        <time>2011-12-23T14:02:13Z</time>
      </trkpt>
      <trkpt lat="44.77951" lon="-0.4052">
        <ele>44</ele>
        <time>2011-12-23T14:02:21Z</time>
      </trkpt>
      <trkpt lat="44.77954" lon="-0.40534">
        <ele>44</ele>
        <time>2011-12-23T14:02:25Z</time>
      </trkpt>
      <trkpt lat="44.7796" lon="-0.40546">
        <ele>44</ele>
        <time>2011-12-23T14:02:29Z</time>
      </trkpt>
      <trkpt lat="44.77963" lon="-0.40558">
        <ele>44</ele>
        <time>2011-12-23T14:02:34Z</time>
      </trkpt>
      <trkpt lat="44.77965" lon="-0.40575">
        <ele>45</ele>
        <time>2011-12-23T14:02:39Z</time>
      </trkpt>
      <trkpt lat="44.77967" lon="-0.40589">
        <ele>45</ele>
        <time>2011-12-23T14:02:43Z</time>
      </trkpt>
      <trkpt lat="44.77969" lon="-0.40602">
        <ele>45</ele>
        <time>2011-12-23T14:02:47Z</time>
      </trkpt>
      <trkpt lat="44.77969" lon="-0.40617">
        <ele>45</ele>
        <time>2011-12-23T14:02:51Z</time>
      </trkpt>
      <trkpt lat="44.7797" lon="-0.40634">
        <ele>45</ele>
        <time>2011-12-23T14:02:56Z</time>
      </trkpt>
      <trkpt lat="44.77972" lon="-0.40648">
        <ele>45</ele>
        <time>2011-12-23T14:03:01Z</time>
      </trkpt>
      <trkpt lat="44.77975" lon="-0.40662">
        <ele>44</ele>
        <time>2011-12-23T14:03:07Z</time>
      </trkpt>
      <trkpt lat="44.77974" lon="-0.40678">
        <ele>44</ele>
        <time>2011-12-23T14:03:13Z</time>
      </trkpt>
      <trkpt lat="44.77973" lon="-0.40693">
        <ele>45</ele>
        <time>2011-12-23T14:03:18Z</time>
      </trkpt>
      <trkpt lat="44.77978" lon="-0.40712">
        <ele>45</ele>
        <time>2011-12-23T14:03:25Z</time>
      </trkpt>
      <trkpt lat="44.77981" lon="-0.40726">
        <ele>45</ele>
        <time>2011-12-23T14:03:28Z</time>
      </trkpt>
      <trkpt lat="44.77984" lon="-0.4074">
        <ele>45</ele>
        <time>2011-12-23T14:03:33Z</time>
      </trkpt>
      <trkpt lat="44.77988" lon="-0.40752">
        <ele>45</ele>
        <time>2011-12-23T14:03:42Z</time>
      </trkpt>
      <trkpt lat="44.77995" lon="-0.40761">
        <ele>45</ele>
        <time>2011-12-23T14:03:50Z</time>
      </trkpt>
      <trkpt lat="44.78004" lon="-0.40769">
        <ele>45</ele>
        <time>2011-12-23T14:03:55Z</time>
      </trkpt>
      <trkpt lat="44.78008" lon="-0.40781">
        <ele>45</ele>
        <time>2011-12-23T14:04:01Z</time>
      </trkpt>
      <trkpt lat="44.78016" lon="-0.40789">
        <ele>45</ele>
        <time>2011-12-23T14:04:05Z</time>
      </trkpt>
      <trkpt lat="44.78026" lon="-0.40794">
        <ele>45</ele>
        <time>2011-12-23T14:04:09Z</time>
      </trkpt>
      <trkpt lat="44.78031" lon="-0.40806">
        <ele>45</ele>
        <time>2011-12-23T14:04:14Z</time>
      </trkpt>
      <trkpt lat="44.78038" lon="-0.40816">
        <ele>45</ele>
        <time>2011-12-23T14:04:19Z</time>
      </trkpt>
      <trkpt lat="44.78047" lon="-0.4082">
        <ele>45</ele>
        <time>2011-12-23T14:04:23Z</time>
      </trkpt>
      <trkpt lat="44.78054" lon="-0.4083">
        <ele>45</ele>
        <time>2011-12-23T14:04:29Z</time>
      </trkpt>
      <trkpt lat="44.78064" lon="-0.40838">
        <ele>45</ele>
        <time>2011-12-23T14:04:37Z</time>
      </trkpt>
      <trkpt lat="44.78074" lon="-0.40845">
        <ele>45</ele>
        <time>2011-12-23T14:04:42Z</time>
      </trkpt>
      <trkpt lat="44.78083" lon="-0.4085">
        <ele>45</ele>
        <time>2011-12-23T14:04:47Z</time>
      </trkpt>
      <trkpt lat="44.78092" lon="-0.40855">
        <ele>45</ele>
        <time>2011-12-23T14:04:54Z</time>
      </trkpt>
      <trkpt lat="44.78102" lon="-0.40861">
        <ele>45</ele>
        <time>2011-12-23T14:04:59Z</time>
      </trkpt>
      <trkpt lat="44.78113" lon="-0.40859">
        <ele>45</ele>
        <time>2011-12-23T14:05:24Z</time>
      </trkpt>
      <trkpt lat="44.78119" lon="-0.40849">
        <ele>44</ele>
        <time>2011-12-23T14:05:55Z</time>
      </trkpt>
      <trkpt lat="44.78111" lon="-0.40855">
        <ele>45</ele>
        <time>2011-12-23T14:06:10Z</time>
      </trkpt>
      <trkpt lat="44.78103" lon="-0.40864">
        <ele>45</ele>
        <time>2011-12-23T14:06:57Z</time>
      </trkpt>
      <trkpt lat="44.78113" lon="-0.4086">
        <ele>45</ele>
        <time>2011-12-23T14:09:13Z</time>
      </trkpt>
      <trkpt lat="44.78122" lon="-0.40858">
        <ele>45</ele>
        <time>2011-12-23T14:09:23Z</time>
      </trkpt>
      <trkpt lat="44.78117" lon="-0.40846">
        <ele>44</ele>
        <time>2011-12-23T14:10:19Z</time>
      </trkpt>
      <trkpt lat="44.78123" lon="-0.40834">
        <ele>44</ele>
        <time>2011-12-23T14:10:30Z</time>
      </trkpt>
      <trkpt lat="44.78129" lon="-0.40823">
        <ele>43</ele>
        <time>2011-12-23T14:10:34Z</time>
      </trkpt>
      <trkpt lat="44.78138" lon="-0.40817">
        <ele>43</ele>
        <time>2011-12-23T14:10:43Z</time>
      </trkpt>
      <trkpt lat="44.78149" lon="-0.40817">
        <ele>43</ele>
        <time>2011-12-23T14:10:46Z</time>
      </trkpt>
      <trkpt lat="44.78161" lon="-0.40816">
        <ele>43</ele>
        <time>2011-12-23T14:10:50Z</time>
      </trkpt>
      <trkpt lat="44.78171" lon="-0.40819">
        <ele>43</ele>
        <time>2011-12-23T14:10:55Z</time>
      </trkpt>
      <trkpt lat="44.78181" lon="-0.40824">
        <ele>43</ele>
        <time>2011-12-23T14:11:00Z</time>
      </trkpt>
      <trkpt lat="44.78191" lon="-0.4083">
        <ele>43</ele>
        <time>2011-12-23T14:11:06Z</time>
      </trkpt>
      <trkpt lat="44.782" lon="-0.40837">
        <ele>44</ele>
        <time>2011-12-23T14:11:12Z</time>
      </trkpt>
      <trkpt lat="44.78211" lon="-0.40839">
        <ele>44</ele>
        <time>2011-12-23T14:11:17Z</time>
      </trkpt>
      <trkpt lat="44.7822" lon="-0.40843">
        <ele>43</ele>
        <time>2011-12-23T14:11:22Z</time>
      </trkpt>
      <trkpt lat="44.78228" lon="-0.40851">
        <ele>43</ele>
        <time>2011-12-23T14:11:27Z</time>
      </trkpt>
      <trkpt lat="44.78235" lon="-0.40859">
        <ele>43</ele>
        <time>2011-12-23T14:11:31Z</time>
      </trkpt>
      <trkpt lat="44.78244" lon="-0.40869">
        <ele>43</ele>
        <time>2011-12-23T14:11:37Z</time>
      </trkpt>
      <trkpt lat="44.78251" lon="-0.40877">
        <ele>43</ele>
        <time>2011-12-23T14:11:43Z</time>
      </trkpt>
      <trkpt lat="44.7826" lon="-0.40885">
        <ele>43</ele>
        <time>2011-12-23T14:11:48Z</time>
      </trkpt>
      <trkpt lat="44.78268" lon="-0.40891">
        <ele>43</ele>
        <time>2011-12-23T14:11:52Z</time>
      </trkpt>
      <trkpt lat="44.78277" lon="-0.40898">
        <ele>42</ele>
        <time>2011-12-23T14:11:57Z</time>
      </trkpt>
      <trkpt lat="44.78288" lon="-0.40905">
        <ele>42</ele>
        <time>2011-12-23T14:12:01Z</time>
      </trkpt>
      <trkpt lat="44.78301" lon="-0.40908">
        <ele>42</ele>
        <time>2011-12-23T14:12:05Z</time>
      </trkpt>
      <trkpt lat="44.78317" lon="-0.40914">
        <ele>42</ele>
        <time>2011-12-23T14:12:11Z</time>
      </trkpt>
      <trkpt lat="44.78329" lon="-0.4092">
        <ele>41</ele>
        <time>2011-12-23T14:12:14Z</time>
      </trkpt>
      <trkpt lat="44.78338" lon="-0.40926">
        <ele>41</ele>
        <time>2011-12-23T14:12:19Z</time>
      </trkpt>
      <trkpt lat="44.78349" lon="-0.40929">
        <ele>41</ele>
        <time>2011-12-23T14:12:22Z</time>
      </trkpt>
      <trkpt lat="44.78358" lon="-0.40934">
        <ele>41</ele>
        <time>2011-12-23T14:12:26Z</time>
      </trkpt>
      <trkpt lat="44.78368" lon="-0.40939">
        <ele>41</ele>
        <time>2011-12-23T14:12:29Z</time>
      </trkpt>
      <trkpt lat="44.78378" lon="-0.40946">
        <ele>41</ele>
        <time>2011-12-23T14:12:33Z</time>
      </trkpt>
      <trkpt lat="44.78386" lon="-0.40956">
        <ele>41</ele>
        <time>2011-12-23T14:12:38Z</time>
      </trkpt>
      <trkpt lat="44.78394" lon="-0.40967">
        <ele>41</ele>
        <time>2011-12-23T14:12:42Z</time>
      </trkpt>
      <trkpt lat="44.78401" lon="-0.40978">
        <ele>41</ele>
        <time>2011-12-23T14:12:46Z</time>
      </trkpt>
      <trkpt lat="44.78404" lon="-0.4099">
        <ele>41</ele>
        <time>2011-12-23T14:12:50Z</time>
      </trkpt>
      <trkpt lat="44.78411" lon="-0.41001">
        <ele>41</ele>
        <time>2011-12-23T14:12:57Z</time>
      </trkpt>
      <trkpt lat="44.78416" lon="-0.41014">
        <ele>41</ele>
        <time>2011-12-23T14:13:03Z</time>
      </trkpt>
      <trkpt lat="44.78424" lon="-0.41022">
        <ele>41</ele>
        <time>2011-12-23T14:13:08Z</time>
      </trkpt>
      <trkpt lat="44.78434" lon="-0.41029">
        <ele>41</ele>
        <time>2011-12-23T14:13:13Z</time>
      </trkpt>
      <trkpt lat="44.78441" lon="-0.41038">
        <ele>41</ele>
        <time>2011-12-23T14:13:18Z</time>
      </trkpt>
      <trkpt lat="44.78447" lon="-0.41048">
        <ele>41</ele>
        <time>2011-12-23T14:13:25Z</time>
      </trkpt>
      <trkpt lat="44.78468" lon="-0.41058">
        <ele>41</ele>
        <time>2011-12-23T14:17:47Z</time>
      </trkpt>
      <trkpt lat="44.78482" lon="-0.41055">
        <ele>40</ele>
        <time>2011-12-23T14:17:50Z</time>
      </trkpt>
      <trkpt lat="44.78494" lon="-0.4105">
        <ele>40</ele>
        <time>2011-12-23T14:17:53Z</time>
      </trkpt>
      <trkpt lat="44.78505" lon="-0.41045">
        <ele>40</ele>
        <time>2011-12-23T14:17:56Z</time>
      </trkpt>
      <trkpt lat="44.78516" lon="-0.41039">
        <ele>40</ele>
        <time>2011-12-23T14:17:59Z</time>
      </trkpt>
      <trkpt lat="44.78524" lon="-0.4103">
        <ele>40</ele>
        <time>2011-12-23T14:18:05Z</time>
      </trkpt>
      <trkpt lat="44.78532" lon="-0.41036">
        <ele>40</ele>
        <time>2011-12-23T14:18:13Z</time>
      </trkpt>
      <trkpt lat="44.78537" lon="-0.41048">
        <ele>40</ele>
        <time>2011-12-23T14:18:17Z</time>
      </trkpt>
      <trkpt lat="44.78543" lon="-0.41058">
        <ele>40</ele>
        <time>2011-12-23T14:18:21Z</time>
      </trkpt>
      <trkpt lat="44.78549" lon="-0.41069">
        <ele>40</ele>
        <time>2011-12-23T14:18:25Z</time>
      </trkpt>
      <trkpt lat="44.78555" lon="-0.41081">
        <ele>40</ele>
        <time>2011-12-23T14:18:28Z</time>
      </trkpt>
      <trkpt lat="44.78561" lon="-0.41095">
        <ele>40</ele>
        <time>2011-12-23T14:18:32Z</time>
      </trkpt>
      <trkpt lat="44.78567" lon="-0.41106">
        <ele>40</ele>
        <time>2011-12-23T14:18:35Z</time>
      </trkpt>
      <trkpt lat="44.78573" lon="-0.41118">
        <ele>41</ele>
        <time>2011-12-23T14:18:38Z</time>
      </trkpt>
      <trkpt lat="44.78578" lon="-0.41129">
        <ele>41</ele>
        <time>2011-12-23T14:18:41Z</time>
      </trkpt>
      <trkpt lat="44.78584" lon="-0.41139">
        <ele>41</ele>
        <time>2011-12-23T14:18:44Z</time>
      </trkpt>
      <trkpt lat="44.7859" lon="-0.41152">
        <ele>41</ele>
        <time>2011-12-23T14:18:48Z</time>
      </trkpt>
      <trkpt lat="44.78595" lon="-0.41167">
        <ele>41</ele>
        <time>2011-12-23T14:18:52Z</time>
      </trkpt>
      <trkpt lat="44.78602" lon="-0.41178">
        <ele>41</ele>
        <time>2011-12-23T14:18:56Z</time>
      </trkpt>
      <trkpt lat="44.78609" lon="-0.41188">
        <ele>41</ele>
        <time>2011-12-23T14:19:00Z</time>
      </trkpt>
      <trkpt lat="44.78612" lon="-0.41201">
        <ele>41</ele>
        <time>2011-12-23T14:19:04Z</time>
      </trkpt>
      <trkpt lat="44.78619" lon="-0.41213">
        <ele>40</ele>
        <time>2011-12-23T14:19:08Z</time>
      </trkpt>
      <trkpt lat="44.78625" lon="-0.41227">
        <ele>40</ele>
        <time>2011-12-23T14:19:12Z</time>
      </trkpt>
      <trkpt lat="44.78631" lon="-0.41238">
        <ele>40</ele>
        <time>2011-12-23T14:19:16Z</time>
      </trkpt>
      <trkpt lat="44.78636" lon="-0.41251">
        <ele>39</ele>
        <time>2011-12-23T14:19:20Z</time>
      </trkpt>
      <trkpt lat="44.78644" lon="-0.41261">
        <ele>39</ele>
        <time>2011-12-23T14:20:06Z</time>
      </trkpt>
      <trkpt lat="44.78651" lon="-0.41272">
        <ele>38</ele>
        <time>2011-12-23T14:20:11Z</time>
      </trkpt>
      <trkpt lat="44.78658" lon="-0.41284">
        <ele>38</ele>
        <time>2011-12-23T14:20:15Z</time>
      </trkpt>
      <trkpt lat="44.78664" lon="-0.41297">
        <ele>38</ele>
        <time>2011-12-23T14:20:19Z</time>
      </trkpt>
      <trkpt lat="44.78671" lon="-0.41308">
        <ele>38</ele>
        <time>2011-12-23T14:20:23Z</time>
      </trkpt>
      <trkpt lat="44.78678" lon="-0.41321">
        <ele>38</ele>
        <time>2011-12-23T14:20:27Z</time>
      </trkpt>
      <trkpt lat="44.78683" lon="-0.41332">
        <ele>38</ele>
        <time>2011-12-23T14:20:30Z</time>
      </trkpt>
      <trkpt lat="44.78689" lon="-0.41344">
        <ele>38</ele>
        <time>2011-12-23T14:20:33Z</time>
      </trkpt>
      <trkpt lat="44.78696" lon="-0.41358">
        <ele>38</ele>
        <time>2011-12-23T14:20:37Z</time>
      </trkpt>
      <trkpt lat="44.78703" lon="-0.41371">
        <ele>38</ele>
        <time>2011-12-23T14:20:41Z</time>
      </trkpt>
      <trkpt lat="44.78709" lon="-0.41384">
        <ele>38</ele>
        <time>2011-12-23T14:20:44Z</time>
      </trkpt>
      <trkpt lat="44.78716" lon="-0.41396">
        <ele>38</ele>
        <time>2011-12-23T14:20:47Z</time>
      </trkpt>
      <trkpt lat="44.78722" lon="-0.41406">
        <ele>38</ele>
        <time>2011-12-23T14:20:49Z</time>
      </trkpt>
      <trkpt lat="44.78729" lon="-0.4142">
        <ele>38</ele>
        <time>2011-12-23T14:20:52Z</time>
      </trkpt>
      <trkpt lat="44.78736" lon="-0.41435">
        <ele>38</ele>
        <time>2011-12-23T14:20:55Z</time>
      </trkpt>
      <trkpt lat="44.78744" lon="-0.4145">
        <ele>39</ele>
        <time>2011-12-23T14:20:58Z</time>
      </trkpt>
      <trkpt lat="44.78752" lon="-0.41465">
        <ele>39</ele>
        <time>2011-12-23T14:21:01Z</time>
      </trkpt>
      <trkpt lat="44.78759" lon="-0.41481">
        <ele>39</ele>
        <time>2011-12-23T14:21:04Z</time>
      </trkpt>
      <trkpt lat="44.78767" lon="-0.41495">
        <ele>39</ele>
        <time>2011-12-23T14:21:07Z</time>
      </trkpt>
      <trkpt lat="44.78773" lon="-0.41509">
        <ele>39</ele>
        <time>2011-12-23T14:21:10Z</time>
      </trkpt>
      <trkpt lat="44.7878" lon="-0.41521">
        <ele>39</ele>
        <time>2011-12-23T14:21:13Z</time>
      </trkpt>
      <trkpt lat="44.78787" lon="-0.41533">
        <ele>39</ele>
        <time>2011-12-23T14:21:16Z</time>
      </trkpt>
      <trkpt lat="44.78793" lon="-0.41544">
        <ele>39</ele>
        <time>2011-12-23T14:21:19Z</time>
      </trkpt>
      <trkpt lat="44.78798" lon="-0.41556">
        <ele>39</ele>
        <time>2011-12-23T14:21:22Z</time>
      </trkpt>
      <trkpt lat="44.78805" lon="-0.41571">
        <ele>39</ele>
        <time>2011-12-23T14:21:25Z</time>
      </trkpt>
      <trkpt lat="44.78813" lon="-0.41585">
        <ele>39</ele>
        <time>2011-12-23T14:21:28Z</time>
      </trkpt>
      <trkpt lat="44.78819" lon="-0.41596">
        <ele>39</ele>
        <time>2011-12-23T14:21:30Z</time>
      </trkpt>
      <trkpt lat="44.78827" lon="-0.41609">
        <ele>39</ele>
        <time>2011-12-23T14:21:33Z</time>
      </trkpt>
      <trkpt lat="44.78835" lon="-0.41624">
        <ele>40</ele>
        <time>2011-12-23T14:21:36Z</time>
      </trkpt>
      <trkpt lat="44.78842" lon="-0.4164">
        <ele>40</ele>
        <time>2011-12-23T14:21:39Z</time>
      </trkpt>
      <trkpt lat="44.7885" lon="-0.41654">
        <ele>41</ele>
        <time>2011-12-23T14:21:42Z</time>
      </trkpt>
      <trkpt lat="44.78858" lon="-0.41669">
        <ele>41</ele>
        <time>2011-12-23T14:21:45Z</time>
      </trkpt>
      <trkpt lat="44.78866" lon="-0.41685">
        <ele>41</ele>
        <time>2011-12-23T14:21:48Z</time>
      </trkpt>
      <trkpt lat="44.78873" lon="-0.417">
        <ele>41</ele>
        <time>2011-12-23T14:21:51Z</time>
      </trkpt>
      <trkpt lat="44.7888" lon="-0.41715">
        <ele>41</ele>
        <time>2011-12-23T14:21:54Z</time>
      </trkpt>
      <trkpt lat="44.78887" lon="-0.41729">
        <ele>41</ele>
        <time>2011-12-23T14:21:57Z</time>
      </trkpt>
      <trkpt lat="44.78894" lon="-0.41745">
        <ele>41</ele>
        <time>2011-12-23T14:22:00Z</time>
      </trkpt>
      <trkpt lat="44.78902" lon="-0.41759">
        <ele>40</ele>
        <time>2011-12-23T14:22:03Z</time>
      </trkpt>
      <trkpt lat="44.7891" lon="-0.41774">
        <ele>40</ele>
        <time>2011-12-23T14:22:06Z</time>
      </trkpt>
      <trkpt lat="44.78917" lon="-0.4179">
        <ele>40</ele>
        <time>2011-12-23T14:22:09Z</time>
      </trkpt>
      <trkpt lat="44.78924" lon="-0.41804">
        <ele>40</ele>
        <time>2011-12-23T14:22:12Z</time>
      </trkpt>
      <trkpt lat="44.78931" lon="-0.41818">
        <ele>40</ele>
        <time>2011-12-23T14:22:15Z</time>
      </trkpt>
      <trkpt lat="44.78938" lon="-0.41832">
        <ele>40</ele>
        <time>2011-12-23T14:22:18Z</time>
      </trkpt>
      <trkpt lat="44.78945" lon="-0.41845">
        <ele>40</ele>
        <time>2011-12-23T14:22:21Z</time>
      </trkpt>
      <trkpt lat="44.78951" lon="-0.41855">
        <ele>39</ele>
        <time>2011-12-23T14:22:23Z</time>
      </trkpt>
      <trkpt lat="44.78959" lon="-0.41871">
        <ele>39</ele>
        <time>2011-12-23T14:22:26Z</time>
      </trkpt>
      <trkpt lat="44.78967" lon="-0.41884">
        <ele>39</ele>
        <time>2011-12-23T14:22:29Z</time>
      </trkpt>
      <trkpt lat="44.78974" lon="-0.41899">
        <ele>39</ele>
        <time>2011-12-23T14:22:32Z</time>
      </trkpt>
      <trkpt lat="44.78981" lon="-0.41915">
        <ele>39</ele>
        <time>2011-12-23T14:22:35Z</time>
      </trkpt>
      <trkpt lat="44.78988" lon="-0.41928">
        <ele>39</ele>
        <time>2011-12-23T14:22:38Z</time>
      </trkpt>
      <trkpt lat="44.78993" lon="-0.41943">
        <ele>39</ele>
        <time>2011-12-23T14:22:41Z</time>
      </trkpt>
      <trkpt lat="44.79002" lon="-0.41957">
        <ele>38</ele>
        <time>2011-12-23T14:22:44Z</time>
      </trkpt>
      <trkpt lat="44.79007" lon="-0.41968">
        <ele>38</ele>
        <time>2011-12-23T14:22:46Z</time>
      </trkpt>
      <trkpt lat="44.79013" lon="-0.41979">
        <ele>37</ele>
        <time>2011-12-23T14:22:48Z</time>
      </trkpt>
      <trkpt lat="44.7902" lon="-0.41993">
        <ele>37</ele>
        <time>2011-12-23T14:22:51Z</time>
      </trkpt>
      <trkpt lat="44.79027" lon="-0.42006">
        <ele>37</ele>
        <time>2011-12-23T14:22:54Z</time>
      </trkpt>
      <trkpt lat="44.79032" lon="-0.42018">
        <ele>37</ele>
        <time>2011-12-23T14:22:56Z</time>
      </trkpt>
      <trkpt lat="44.79038" lon="-0.4203">
        <ele>37</ele>
        <time>2011-12-23T14:22:58Z</time>
      </trkpt>
      <trkpt lat="44.79045" lon="-0.42041">
        <ele>37</ele>
        <time>2011-12-23T14:23:00Z</time>
      </trkpt>
      <trkpt lat="44.79051" lon="-0.42053">
        <ele>38</ele>
        <time>2011-12-23T14:23:02Z</time>
      </trkpt>
      <trkpt lat="44.79057" lon="-0.42065">
        <ele>38</ele>
        <time>2011-12-23T14:23:04Z</time>
      </trkpt>
      <trkpt lat="44.79066" lon="-0.42081">
        <ele>38</ele>
        <time>2011-12-23T14:23:07Z</time>
      </trkpt>
      <trkpt lat="44.79072" lon="-0.42097">
        <ele>38</ele>
        <time>2011-12-23T14:23:10Z</time>
      </trkpt>
      <trkpt lat="44.79079" lon="-0.42114">
        <ele>38</ele>
        <time>2011-12-23T14:23:13Z</time>
      </trkpt>
      <trkpt lat="44.79087" lon="-0.42131">
        <ele>39</ele>
        <time>2011-12-23T14:23:16Z</time>
      </trkpt>
      <trkpt lat="44.79092" lon="-0.42143">
        <ele>39</ele>
        <time>2011-12-23T14:23:18Z</time>
      </trkpt>
      <trkpt lat="44.79098" lon="-0.42161">
        <ele>40</ele>
        <time>2011-12-23T14:23:21Z</time>
      </trkpt>
      <trkpt lat="44.79103" lon="-0.42177">
        <ele>40</ele>
        <time>2011-12-23T14:23:24Z</time>
      </trkpt>
      <trkpt lat="44.79109" lon="-0.42194">
        <ele>40</ele>
        <time>2011-12-23T14:23:27Z</time>
      </trkpt>
      <trkpt lat="44.79115" lon="-0.42206">
        <ele>40</ele>
        <time>2011-12-23T14:23:29Z</time>
      </trkpt>
      <trkpt lat="44.79119" lon="-0.42218">
        <ele>39</ele>
        <time>2011-12-23T14:23:31Z</time>
      </trkpt>
      <trkpt lat="44.79125" lon="-0.42229">
        <ele>39</ele>
        <time>2011-12-23T14:23:33Z</time>
      </trkpt>
      <trkpt lat="44.7913" lon="-0.42241">
        <ele>39</ele>
        <time>2011-12-23T14:23:35Z</time>
      </trkpt>
      <trkpt lat="44.79136" lon="-0.42251">
        <ele>39</ele>
        <time>2011-12-23T14:23:37Z</time>
      </trkpt>
      <trkpt lat="44.79142" lon="-0.42261">
        <ele>39</ele>
        <time>2011-12-23T14:23:39Z</time>
      </trkpt>
      <trkpt lat="44.7915" lon="-0.42272">
        <ele>39</ele>
        <time>2011-12-23T14:23:41Z</time>
      </trkpt>
      <trkpt lat="44.79159" lon="-0.42286">
        <ele>40</ele>
        <time>2011-12-23T14:23:44Z</time>
      </trkpt>
      <trkpt lat="44.79166" lon="-0.42296">
        <ele>40</ele>
        <time>2011-12-23T14:23:46Z</time>
      </trkpt>
      <trkpt lat="44.79174" lon="-0.42306">
        <ele>39</ele>
        <time>2011-12-23T14:23:48Z</time>
      </trkpt>
      <trkpt lat="44.79182" lon="-0.42315">
        <ele>38</ele>
        <time>2011-12-23T14:23:50Z</time>
      </trkpt>
      <trkpt lat="44.79193" lon="-0.42327">
        <ele>37</ele>
        <time>2011-12-23T14:23:53Z</time>
      </trkpt>
      <trkpt lat="44.79202" lon="-0.42337">
        <ele>36</ele>
        <time>2011-12-23T14:23:55Z</time>
      </trkpt>
      <trkpt lat="44.79212" lon="-0.42344">
        <ele>35</ele>
        <time>2011-12-23T14:23:57Z</time>
      </trkpt>
      <trkpt lat="44.7922" lon="-0.42351">
        <ele>35</ele>
        <time>2011-12-23T14:23:59Z</time>
      </trkpt>
      <trkpt lat="44.79229" lon="-0.42357">
        <ele>34</ele>
        <time>2011-12-23T14:24:01Z</time>
      </trkpt>
      <trkpt lat="44.7924" lon="-0.42362">
        <ele>33</ele>
        <time>2011-12-23T14:24:03Z</time>
      </trkpt>
      <trkpt lat="44.7925" lon="-0.42368">
        <ele>32</ele>
        <time>2011-12-23T14:24:05Z</time>
      </trkpt>
      <trkpt lat="44.7926" lon="-0.42374">
        <ele>31</ele>
        <time>2011-12-23T14:24:07Z</time>
      </trkpt>
      <trkpt lat="44.79271" lon="-0.4238">
        <ele>31</ele>
        <time>2011-12-23T14:24:09Z</time>
      </trkpt>
      <trkpt lat="44.7928" lon="-0.42385">
        <ele>30</ele>
        <time>2011-12-23T14:24:11Z</time>
      </trkpt>
      <trkpt lat="44.7929" lon="-0.42391">
        <ele>30</ele>
        <time>2011-12-23T14:24:13Z</time>
      </trkpt>
      <trkpt lat="44.793" lon="-0.42396">
        <ele>30</ele>
        <time>2011-12-23T14:24:15Z</time>
      </trkpt>
      <trkpt lat="44.79311" lon="-0.42401">
        <ele>30</ele>
        <time>2011-12-23T14:24:17Z</time>
      </trkpt>
      <trkpt lat="44.7932" lon="-0.42406">
        <ele>30</ele>
        <time>2011-12-23T14:24:19Z</time>
      </trkpt>
      <trkpt lat="44.7933" lon="-0.42412">
        <ele>29</ele>
        <time>2011-12-23T14:24:21Z</time>
      </trkpt>
      <trkpt lat="44.7934" lon="-0.42418">
        <ele>29</ele>
        <time>2011-12-23T14:24:23Z</time>
      </trkpt>
      <trkpt lat="44.7935" lon="-0.42423">
        <ele>29</ele>
        <time>2011-12-23T14:24:25Z</time>
      </trkpt>
      <trkpt lat="44.79359" lon="-0.42427">
        <ele>29</ele>
        <time>2011-12-23T14:24:27Z</time>
      </trkpt>
      <trkpt lat="44.7937" lon="-0.42434">
        <ele>29</ele>
        <time>2011-12-23T14:24:29Z</time>
      </trkpt>
      <trkpt lat="44.7938" lon="-0.42439">
        <ele>29</ele>
        <time>2011-12-23T14:24:31Z</time>
      </trkpt>
      <trkpt lat="44.79389" lon="-0.42445">
        <ele>29</ele>
        <time>2011-12-23T14:24:33Z</time>
      </trkpt>
      <trkpt lat="44.79401" lon="-0.42451">
        <ele>29</ele>
        <time>2011-12-23T14:24:36Z</time>
      </trkpt>
      <trkpt lat="44.79412" lon="-0.42457">
        <ele>29</ele>
        <time>2011-12-23T14:24:38Z</time>
      </trkpt>
      <trkpt lat="44.79422" lon="-0.42463">
        <ele>29</ele>
        <time>2011-12-23T14:24:40Z</time>
      </trkpt>
      <trkpt lat="44.79432" lon="-0.42469">
        <ele>29</ele>
        <time>2011-12-23T14:24:42Z</time>
      </trkpt>
      <trkpt lat="44.79444" lon="-0.42475">
        <ele>29</ele>
        <time>2011-12-23T14:24:44Z</time>
      </trkpt>
      <trkpt lat="44.79453" lon="-0.4248">
        <ele>29</ele>
        <time>2011-12-23T14:24:46Z</time>
      </trkpt>
      <trkpt lat="44.79464" lon="-0.42485">
        <ele>29</ele>
        <time>2011-12-23T14:24:48Z</time>
      </trkpt>
      <trkpt lat="44.79474" lon="-0.4249">
        <ele>29</ele>
        <time>2011-12-23T14:24:50Z</time>
      </trkpt>
      <trkpt lat="44.79484" lon="-0.42496">
        <ele>29</ele>
        <time>2011-12-23T14:24:52Z</time>
      </trkpt>
      <trkpt lat="44.79494" lon="-0.42501">
        <ele>29</ele>
        <time>2011-12-23T14:24:54Z</time>
      </trkpt>
      <trkpt lat="44.79504" lon="-0.42506">
        <ele>30</ele>
        <time>2011-12-23T14:24:56Z</time>
      </trkpt>
      <trkpt lat="44.79513" lon="-0.42512">
        <ele>29</ele>
        <time>2011-12-23T14:24:58Z</time>
      </trkpt>
      <trkpt lat="44.79524" lon="-0.42518">
        <ele>30</ele>
        <time>2011-12-23T14:25:01Z</time>
      </trkpt>
      <trkpt lat="44.79534" lon="-0.42524">
        <ele>29</ele>
        <time>2011-12-23T14:25:03Z</time>
      </trkpt>
      <trkpt lat="44.79545" lon="-0.42533">
        <ele>29</ele>
        <time>2011-12-23T14:25:06Z</time>
      </trkpt>
      <trkpt lat="44.79557" lon="-0.42539">
        <ele>29</ele>
        <time>2011-12-23T14:25:08Z</time>
      </trkpt>
      <trkpt lat="44.79566" lon="-0.42545">
        <ele>29</ele>
        <time>2011-12-23T14:25:10Z</time>
      </trkpt>
      <trkpt lat="44.79576" lon="-0.42551">
        <ele>29</ele>
        <time>2011-12-23T14:25:12Z</time>
      </trkpt>
      <trkpt lat="44.79585" lon="-0.42561">
        <ele>29</ele>
        <time>2011-12-23T14:25:15Z</time>
      </trkpt>
      <trkpt lat="44.79595" lon="-0.42573">
        <ele>29</ele>
        <time>2011-12-23T14:25:18Z</time>
      </trkpt>
      <trkpt lat="44.79606" lon="-0.42584">
        <ele>29</ele>
        <time>2011-12-23T14:25:21Z</time>
      </trkpt>
      <trkpt lat="44.79616" lon="-0.42594">
        <ele>28</ele>
        <time>2011-12-23T14:25:24Z</time>
      </trkpt>
      <trkpt lat="44.79625" lon="-0.42604">
        <ele>28</ele>
        <time>2011-12-23T14:25:27Z</time>
      </trkpt>
      <trkpt lat="44.79636" lon="-0.42616">
        <ele>28</ele>
        <time>2011-12-23T14:25:30Z</time>
      </trkpt>
      <trkpt lat="44.79643" lon="-0.42628">
        <ele>28</ele>
        <time>2011-12-23T14:25:33Z</time>
      </trkpt>
      <trkpt lat="44.79651" lon="-0.42641">
        <ele>28</ele>
        <time>2011-12-23T14:25:36Z</time>
      </trkpt>
      <trkpt lat="44.79659" lon="-0.42656">
        <ele>28</ele>
        <time>2011-12-23T14:25:39Z</time>
      </trkpt>
      <trkpt lat="44.79668" lon="-0.4267">
        <ele>28</ele>
        <time>2011-12-23T14:25:42Z</time>
      </trkpt>
      <trkpt lat="44.79673" lon="-0.42681">
        <ele>28</ele>
        <time>2011-12-23T14:25:44Z</time>
      </trkpt>
      <trkpt lat="44.7968" lon="-0.42691">
        <ele>28</ele>
        <time>2011-12-23T14:25:46Z</time>
      </trkpt>
      <trkpt lat="44.79686" lon="-0.42705">
        <ele>29</ele>
        <time>2011-12-23T14:25:49Z</time>
      </trkpt>
      <trkpt lat="44.79692" lon="-0.42718">
        <ele>29</ele>
        <time>2011-12-23T14:25:52Z</time>
      </trkpt>
      <trkpt lat="44.797" lon="-0.42731">
        <ele>29</ele>
        <time>2011-12-23T14:25:56Z</time>
      </trkpt>
      <trkpt lat="44.79705" lon="-0.42745">
        <ele>29</ele>
        <time>2011-12-23T14:26:00Z</time>
      </trkpt>
      <trkpt lat="44.79709" lon="-0.42759">
        <ele>30</ele>
        <time>2011-12-23T14:26:04Z</time>
      </trkpt>
      <trkpt lat="44.79711" lon="-0.42772">
        <ele>30</ele>
        <time>2011-12-23T14:26:42Z</time>
      </trkpt>
      <trkpt lat="44.79701" lon="-0.42778">
        <ele>30</ele>
        <time>2011-12-23T14:26:55Z</time>
      </trkpt>
      <trkpt lat="44.79689" lon="-0.42778">
        <ele>31</ele>
        <time>2011-12-23T14:27:00Z</time>
      </trkpt>
      <trkpt lat="44.79679" lon="-0.42777">
        <ele>31</ele>
        <time>2011-12-23T14:27:04Z</time>
      </trkpt>
      <trkpt lat="44.79668" lon="-0.42776">
        <ele>31</ele>
        <time>2011-12-23T14:27:08Z</time>
      </trkpt>
      <trkpt lat="44.79656" lon="-0.42775">
        <ele>31</ele>
        <time>2011-12-23T14:27:12Z</time>
      </trkpt>
      <trkpt lat="44.79645" lon="-0.42773">
        <ele>31</ele>
        <time>2011-12-23T14:27:16Z</time>
      </trkpt>
      <trkpt lat="44.79633" lon="-0.42775">
        <ele>32</ele>
        <time>2011-12-23T14:27:20Z</time>
      </trkpt>
      <trkpt lat="44.79625" lon="-0.42784">
        <ele>32</ele>
        <time>2011-12-23T14:27:24Z</time>
      </trkpt>
      <trkpt lat="44.7962" lon="-0.42796">
        <ele>33</ele>
        <time>2011-12-23T14:27:29Z</time>
      </trkpt>
      <trkpt lat="44.79614" lon="-0.42808">
        <ele>34</ele>
        <time>2011-12-23T14:27:35Z</time>
      </trkpt>
      <trkpt lat="44.79608" lon="-0.42822">
        <ele>34</ele>
        <time>2011-12-23T14:27:41Z</time>
      </trkpt>
      <trkpt lat="44.79604" lon="-0.42835">
        <ele>35</ele>
        <time>2011-12-23T14:27:46Z</time>
      </trkpt>
      <trkpt lat="44.79609" lon="-0.42846">
        <ele>35</ele>
        <time>2011-12-23T14:27:50Z</time>
      </trkpt>
      <trkpt lat="44.7962" lon="-0.42851">
        <ele>35</ele>
        <time>2011-12-23T14:27:55Z</time>
      </trkpt>
      <trkpt lat="44.79629" lon="-0.42858">
        <ele>35</ele>
        <time>2011-12-23T14:27:59Z</time>
      </trkpt>
      <trkpt lat="44.7964" lon="-0.42864">
        <ele>35</ele>
        <time>2011-12-23T14:28:03Z</time>
      </trkpt>
      <trkpt lat="44.79647" lon="-0.42877">
        <ele>35</ele>
        <time>2011-12-23T14:28:07Z</time>
      </trkpt>
      <trkpt lat="44.79648" lon="-0.42893">
        <ele>35</ele>
        <time>2011-12-23T14:28:12Z</time>
      </trkpt>
      <trkpt lat="44.7965" lon="-0.42909">
        <ele>35</ele>
        <time>2011-12-23T14:28:18Z</time>
      </trkpt>
      <trkpt lat="44.79651" lon="-0.42924">
        <ele>36</ele>
        <time>2011-12-23T14:28:23Z</time>
      </trkpt>
      <trkpt lat="44.79652" lon="-0.4294">
        <ele>36</ele>
        <time>2011-12-23T14:28:27Z</time>
      </trkpt>
      <trkpt lat="44.79654" lon="-0.42954">
        <ele>37</ele>
        <time>2011-12-23T14:28:31Z</time>
      </trkpt>
      <trkpt lat="44.79654" lon="-0.42968">
        <ele>37</ele>
        <time>2011-12-23T14:28:35Z</time>
      </trkpt>
      <trkpt lat="44.79656" lon="-0.42982">
        <ele>37</ele>
        <time>2011-12-23T14:28:39Z</time>
      </trkpt>
      <trkpt lat="44.79655" lon="-0.42998">
        <ele>37</ele>
        <time>2011-12-23T14:28:43Z</time>
      </trkpt>
      <trkpt lat="44.79657" lon="-0.43013">
        <ele>37</ele>
        <time>2011-12-23T14:28:47Z</time>
      </trkpt>
      <trkpt lat="44.79659" lon="-0.43029">
        <ele>37</ele>
        <time>2011-12-23T14:28:51Z</time>
      </trkpt>
      <trkpt lat="44.79659" lon="-0.43044">
        <ele>37</ele>
        <time>2011-12-23T14:28:55Z</time>
      </trkpt>
      <trkpt lat="44.79662" lon="-0.43057">
        <ele>37</ele>
        <time>2011-12-23T14:28:59Z</time>
      </trkpt>
      <trkpt lat="44.79663" lon="-0.43072">
        <ele>37</ele>
        <time>2011-12-23T14:29:03Z</time>
      </trkpt>
      <trkpt lat="44.79663" lon="-0.43089">
        <ele>38</ele>
        <time>2011-12-23T14:29:08Z</time>
      </trkpt>
      <trkpt lat="44.79663" lon="-0.43103">
        <ele>38</ele>
        <time>2011-12-23T14:29:12Z</time>
      </trkpt>
      <trkpt lat="44.79664" lon="-0.43116">
        <ele>39</ele>
        <time>2011-12-23T14:29:16Z</time>
      </trkpt>
      <trkpt lat="44.79666" lon="-0.43131">
        <ele>39</ele>
        <time>2011-12-23T14:29:20Z</time>
      </trkpt>
      <trkpt lat="44.79666" lon="-0.43146">
        <ele>39</ele>
        <time>2011-12-23T14:29:25Z</time>
      </trkpt>
      <trkpt lat="44.79665" lon="-0.43161">
        <ele>40</ele>
        <time>2011-12-23T14:29:30Z</time>
      </trkpt>
      <trkpt lat="44.79657" lon="-0.43167">
        <ele>41</ele>
        <time>2011-12-23T14:29:37Z</time>
      </trkpt>
      <trkpt lat="44.79648" lon="-0.43174">
        <ele>43</ele>
        <time>2011-12-23T14:29:44Z</time>
      </trkpt>
      <trkpt lat="44.7964" lon="-0.4318">
        <ele>44</ele>
        <time>2011-12-23T14:29:50Z</time>
      </trkpt>
      <trkpt lat="44.7963" lon="-0.43187">
        <ele>45</ele>
        <time>2011-12-23T14:29:57Z</time>
      </trkpt>
      <trkpt lat="44.79622" lon="-0.43194">
        <ele>46</ele>
        <time>2011-12-23T14:30:04Z</time>
      </trkpt>
      <trkpt lat="44.79613" lon="-0.432">
        <ele>47</ele>
        <time>2011-12-23T14:30:14Z</time>
      </trkpt>
      <trkpt lat="44.79604" lon="-0.43207">
        <ele>48</ele>
        <time>2011-12-23T14:30:30Z</time>
      </trkpt>
      <trkpt lat="44.79596" lon="-0.43214">
        <ele>49</ele>
        <time>2011-12-23T14:31:02Z</time>
      </trkpt>
      <trkpt lat="44.79588" lon="-0.4322">
        <ele>50</ele>
        <time>2011-12-23T14:31:18Z</time>
      </trkpt>
      <trkpt lat="44.79579" lon="-0.43225">
        <ele>51</ele>
        <time>2011-12-23T14:31:38Z</time>
      </trkpt>
      <trkpt lat="44.7957" lon="-0.43231">
        <ele>51</ele>
        <time>2011-12-23T14:31:50Z</time>
      </trkpt>
      <trkpt lat="44.79561" lon="-0.43237">
        <ele>51</ele>
        <time>2011-12-23T14:31:59Z</time>
      </trkpt>
      <trkpt lat="44.79551" lon="-0.4324">
        <ele>52</ele>
        <time>2011-12-23T14:32:08Z</time>
      </trkpt>
      <trkpt lat="44.79542" lon="-0.43246">
        <ele>53</ele>
        <time>2011-12-23T14:32:16Z</time>
      </trkpt>
      <trkpt lat="44.79533" lon="-0.43252">
        <ele>54</ele>
        <time>2011-12-23T14:32:24Z</time>
      </trkpt>
      <trkpt lat="44.79524" lon="-0.43258">
        <ele>56</ele>
        <time>2011-12-23T14:32:32Z</time>
      </trkpt>
      <trkpt lat="44.79515" lon="-0.43264">
        <ele>58</ele>
        <time>2011-12-23T14:32:40Z</time>
      </trkpt>
      <trkpt lat="44.79507" lon="-0.43271">
        <ele>59</ele>
        <time>2011-12-23T14:32:49Z</time>
      </trkpt>
      <trkpt lat="44.79498" lon="-0.43277">
        <ele>61</ele>
        <time>2011-12-23T14:32:58Z</time>
      </trkpt>
      <trkpt lat="44.79488" lon="-0.43284">
        <ele>62</ele>
        <time>2011-12-23T14:33:06Z</time>
      </trkpt>
      <trkpt lat="44.79478" lon="-0.4329">
        <ele>62</ele>
        <time>2011-12-23T14:33:12Z</time>
      </trkpt>
      <trkpt lat="44.79469" lon="-0.43296">
        <ele>63</ele>
        <time>2011-12-23T14:33:19Z</time>
      </trkpt>
      <trkpt lat="44.7946" lon="-0.43301">
        <ele>64</ele>
        <time>2011-12-23T14:33:25Z</time>
      </trkpt>
      <trkpt lat="44.7945" lon="-0.43307">
        <ele>64</ele>
        <time>2011-12-23T14:33:31Z</time>
      </trkpt>
      <trkpt lat="44.79441" lon="-0.43312">
        <ele>64</ele>
        <time>2011-12-23T14:33:37Z</time>
      </trkpt>
      <trkpt lat="44.79431" lon="-0.43317">
        <ele>65</ele>
        <time>2011-12-23T14:33:44Z</time>
      </trkpt>
      <trkpt lat="44.79421" lon="-0.43323">
        <ele>65</ele>
        <time>2011-12-23T14:33:50Z</time>
      </trkpt>
      <trkpt lat="44.79412" lon="-0.43328">
        <ele>65</ele>
        <time>2011-12-23T14:33:55Z</time>
      </trkpt>
      <trkpt lat="44.79403" lon="-0.43336">
        <ele>65</ele>
        <time>2011-12-23T14:34:02Z</time>
      </trkpt>
      <trkpt lat="44.79394" lon="-0.43341">
        <ele>65</ele>
        <time>2011-12-23T14:34:07Z</time>
      </trkpt>
      <trkpt lat="44.79386" lon="-0.43348">
        <ele>66</ele>
        <time>2011-12-23T14:34:12Z</time>
      </trkpt>
      <trkpt lat="44.79377" lon="-0.43355">
        <ele>66</ele>
        <time>2011-12-23T14:34:17Z</time>
      </trkpt>
      <trkpt lat="44.79368" lon="-0.43362">
        <ele>66</ele>
        <time>2011-12-23T14:34:21Z</time>
      </trkpt>
      <trkpt lat="44.7936" lon="-0.43372">
        <ele>66</ele>
        <time>2011-12-23T14:34:26Z</time>
      </trkpt>
      <trkpt lat="44.79351" lon="-0.43381">
        <ele>66</ele>
        <time>2011-12-23T14:34:31Z</time>
      </trkpt>
      <trkpt lat="44.79343" lon="-0.4339">
        <ele>67</ele>
        <time>2011-12-23T14:34:36Z</time>
      </trkpt>
      <trkpt lat="44.79334" lon="-0.43399">
        <ele>67</ele>
        <time>2011-12-23T14:34:41Z</time>
      </trkpt>
      <trkpt lat="44.79324" lon="-0.43407">
        <ele>67</ele>
        <time>2011-12-23T14:34:45Z</time>
      </trkpt>
      <trkpt lat="44.79315" lon="-0.43411">
        <ele>67</ele>
        <time>2011-12-23T14:34:48Z</time>
      </trkpt>
      <trkpt lat="44.79302" lon="-0.43414">
        <ele>67</ele>
        <time>2011-12-23T14:34:52Z</time>
      </trkpt>
      <trkpt lat="44.79292" lon="-0.43414">
        <ele>66</ele>
        <time>2011-12-23T14:34:59Z</time>
      </trkpt>
      <trkpt lat="44.79288" lon="-0.43428">
        <ele>67</ele>
        <time>2011-12-23T14:35:06Z</time>
      </trkpt>
      <trkpt lat="44.79288" lon="-0.43443">
        <ele>68</ele>
        <time>2011-12-23T14:35:12Z</time>
      </trkpt>
      <trkpt lat="44.79287" lon="-0.43457">
        <ele>69</ele>
        <time>2011-12-23T14:35:17Z</time>
      </trkpt>
      <trkpt lat="44.79287" lon="-0.4347">
        <ele>70</ele>
        <time>2011-12-23T14:35:22Z</time>
      </trkpt>
      <trkpt lat="44.79286" lon="-0.43484">
        <ele>70</ele>
        <time>2011-12-23T14:35:28Z</time>
      </trkpt>
      <trkpt lat="44.79286" lon="-0.43498">
        <ele>71</ele>
        <time>2011-12-23T14:35:35Z</time>
      </trkpt>
      <trkpt lat="44.79288" lon="-0.43512">
        <ele>71</ele>
        <time>2011-12-23T14:35:41Z</time>
      </trkpt>
      <trkpt lat="44.79288" lon="-0.43525">
        <ele>72</ele>
        <time>2011-12-23T14:35:47Z</time>
      </trkpt>
      <trkpt lat="44.79286" lon="-0.43539">
        <ele>72</ele>
        <time>2011-12-23T14:35:54Z</time>
      </trkpt>
      <trkpt lat="44.79284" lon="-0.43552">
        <ele>72</ele>
        <time>2011-12-23T14:36:01Z</time>
      </trkpt>
      <trkpt lat="44.79282" lon="-0.43567">
        <ele>73</ele>
        <time>2011-12-23T14:36:07Z</time>
      </trkpt>
      <trkpt lat="44.79285" lon="-0.43581">
        <ele>72</ele>
        <time>2011-12-23T14:36:13Z</time>
      </trkpt>
      <trkpt lat="44.79286" lon="-0.43597">
        <ele>72</ele>
        <time>2011-12-23T14:36:19Z</time>
      </trkpt>
      <trkpt lat="44.79285" lon="-0.43611">
        <ele>72</ele>
        <time>2011-12-23T14:36:24Z</time>
      </trkpt>
      <trkpt lat="44.79286" lon="-0.43624">
        <ele>72</ele>
        <time>2011-12-23T14:36:29Z</time>
      </trkpt>
      <trkpt lat="44.79287" lon="-0.4364">
        <ele>72</ele>
        <time>2011-12-23T14:36:35Z</time>
      </trkpt>
      <trkpt lat="44.79285" lon="-0.43655">
        <ele>72</ele>
        <time>2011-12-23T14:36:41Z</time>
      </trkpt>
      <trkpt lat="44.79283" lon="-0.4367">
        <ele>72</ele>
        <time>2011-12-23T14:36:47Z</time>
      </trkpt>
      <trkpt lat="44.79282" lon="-0.43685">
        <ele>72</ele>
        <time>2011-12-23T14:36:52Z</time>
      </trkpt>
      <trkpt lat="44.79276" lon="-0.437">
        <ele>72</ele>
        <time>2011-12-23T14:36:57Z</time>
      </trkpt>
      <trkpt lat="44.79276" lon="-0.43715">
        <ele>72</ele>
        <time>2011-12-23T14:37:01Z</time>
      </trkpt>
      <trkpt lat="44.79275" lon="-0.43728">
        <ele>71</ele>
        <time>2011-12-23T14:37:06Z</time>
      </trkpt>
      <trkpt lat="44.79274" lon="-0.43744">
        <ele>70</ele>
        <time>2011-12-23T14:37:11Z</time>
      </trkpt>
      <trkpt lat="44.79275" lon="-0.43757">
        <ele>70</ele>
        <time>2011-12-23T14:37:15Z</time>
      </trkpt>
      <trkpt lat="44.79277" lon="-0.43772">
        <ele>69</ele>
        <time>2011-12-23T14:37:19Z</time>
      </trkpt>
      <trkpt lat="44.79277" lon="-0.43788">
        <ele>68</ele>
        <time>2011-12-23T14:37:22Z</time>
      </trkpt>
      <trkpt lat="44.79277" lon="-0.43803">
        <ele>67</ele>
        <time>2011-12-23T14:37:25Z</time>
      </trkpt>
      <trkpt lat="44.79277" lon="-0.43816">
        <ele>66</ele>
        <time>2011-12-23T14:37:28Z</time>
      </trkpt>
      <trkpt lat="44.79274" lon="-0.43829">
        <ele>66</ele>
        <time>2011-12-23T14:37:30Z</time>
      </trkpt>
      <trkpt lat="44.79271" lon="-0.43846">
        <ele>65</ele>
        <time>2011-12-23T14:37:33Z</time>
      </trkpt>
      <trkpt lat="44.7927" lon="-0.43862">
        <ele>65</ele>
        <time>2011-12-23T14:37:36Z</time>
      </trkpt>
      <trkpt lat="44.79269" lon="-0.43876">
        <ele>64</ele>
        <time>2011-12-23T14:37:39Z</time>
      </trkpt>
      <trkpt lat="44.7927" lon="-0.4389">
        <ele>64</ele>
        <time>2011-12-23T14:37:43Z</time>
      </trkpt>
      <trkpt lat="44.79269" lon="-0.43905">
        <ele>63</ele>
        <time>2011-12-23T14:37:47Z</time>
      </trkpt>
      <trkpt lat="44.79261" lon="-0.43914">
        <ele>64</ele>
        <time>2011-12-23T14:37:51Z</time>
      </trkpt>
      <trkpt lat="44.79252" lon="-0.4392">
        <ele>64</ele>
        <time>2011-12-23T14:37:56Z</time>
      </trkpt>
      <trkpt lat="44.79242" lon="-0.43923">
        <ele>64</ele>
        <time>2011-12-23T14:38:02Z</time>
      </trkpt>
      <trkpt lat="44.79231" lon="-0.43928">
        <ele>64</ele>
        <time>2011-12-23T14:38:09Z</time>
      </trkpt>
      <trkpt lat="44.79222" lon="-0.43931">
        <ele>64</ele>
        <time>2011-12-23T14:38:16Z</time>
      </trkpt>
      <trkpt lat="44.79212" lon="-0.43935">
        <ele>65</ele>
        <time>2011-12-23T14:38:21Z</time>
      </trkpt>
      <trkpt lat="44.79201" lon="-0.43938">
        <ele>65</ele>
        <time>2011-12-23T14:38:25Z</time>
      </trkpt>
      <trkpt lat="44.79191" lon="-0.43941">
        <ele>65</ele>
        <time>2011-12-23T14:38:29Z</time>
      </trkpt>
      <trkpt lat="44.7918" lon="-0.43942">
        <ele>66</ele>
        <time>2011-12-23T14:38:33Z</time>
      </trkpt>
      <trkpt lat="44.79169" lon="-0.43943">
        <ele>66</ele>
        <time>2011-12-23T14:38:37Z</time>
      </trkpt>
      <trkpt lat="44.79158" lon="-0.43942">
        <ele>67</ele>
        <time>2011-12-23T14:38:41Z</time>
      </trkpt>
      <trkpt lat="44.79149" lon="-0.43941">
        <ele>68</ele>
        <time>2011-12-23T14:38:45Z</time>
      </trkpt>
      <trkpt lat="44.7914" lon="-0.43938">
        <ele>68</ele>
        <time>2011-12-23T14:38:50Z</time>
      </trkpt>
      <trkpt lat="44.7913" lon="-0.43935">
        <ele>69</ele>
        <time>2011-12-23T14:38:56Z</time>
      </trkpt>
      <trkpt lat="44.7912" lon="-0.43931">
        <ele>70</ele>
        <time>2011-12-23T14:39:03Z</time>
      </trkpt>
      <trkpt lat="44.7911" lon="-0.43927">
        <ele>71</ele>
        <time>2011-12-23T14:39:10Z</time>
      </trkpt>
      <trkpt lat="44.79101" lon="-0.43923">
        <ele>71</ele>
        <time>2011-12-23T14:39:16Z</time>
      </trkpt>
      <trkpt lat="44.79091" lon="-0.4392">
        <ele>72</ele>
        <time>2011-12-23T14:39:23Z</time>
      </trkpt>
      <trkpt lat="44.79082" lon="-0.43916">
        <ele>72</ele>
        <time>2011-12-23T14:39:29Z</time>
      </trkpt>
      <trkpt lat="44.79071" lon="-0.43912">
        <ele>73</ele>
        <time>2011-12-23T14:39:36Z</time>
      </trkpt>
      <trkpt lat="44.79061" lon="-0.43909">
        <ele>73</ele>
        <time>2011-12-23T14:39:42Z</time>
      </trkpt>
      <trkpt lat="44.79052" lon="-0.43905">
        <ele>73</ele>
        <time>2011-12-23T14:39:48Z</time>
      </trkpt>
      <trkpt lat="44.79042" lon="-0.43901">
        <ele>73</ele>
        <time>2011-12-23T14:39:54Z</time>
      </trkpt>
      <trkpt lat="44.79032" lon="-0.43897">
        <ele>73</ele>
        <time>2011-12-23T14:40:00Z</time>
      </trkpt>
      <trkpt lat="44.79022" lon="-0.43893">
        <ele>73</ele>
        <time>2011-12-23T14:40:06Z</time>
      </trkpt>
      <trkpt lat="44.79012" lon="-0.43888">
        <ele>74</ele>
        <time>2011-12-23T14:40:12Z</time>
      </trkpt>
      <trkpt lat="44.79004" lon="-0.43882">
        <ele>74</ele>
        <time>2011-12-23T14:40:17Z</time>
      </trkpt>
      <trkpt lat="44.78994" lon="-0.43881">
        <ele>74</ele>
        <time>2011-12-23T14:40:22Z</time>
      </trkpt>
      <trkpt lat="44.7899" lon="-0.43896">
        <ele>74</ele>
        <time>2011-12-23T14:40:26Z</time>
      </trkpt>
      <trkpt lat="44.7899" lon="-0.43912">
        <ele>73</ele>
        <time>2011-12-23T14:40:30Z</time>
      </trkpt>
      <trkpt lat="44.7899" lon="-0.43927">
        <ele>73</ele>
        <time>2011-12-23T14:40:35Z</time>
      </trkpt>
      <trkpt lat="44.7899" lon="-0.43942">
        <ele>72</ele>
        <time>2011-12-23T14:40:40Z</time>
      </trkpt>
      <trkpt lat="44.78989" lon="-0.43956">
        <ele>72</ele>
        <time>2011-12-23T14:40:44Z</time>
      </trkpt>
      <trkpt lat="44.78988" lon="-0.4397">
        <ele>72</ele>
        <time>2011-12-23T14:40:48Z</time>
      </trkpt>
      <trkpt lat="44.78988" lon="-0.43985">
        <ele>72</ele>
        <time>2011-12-23T14:40:53Z</time>
      </trkpt>
      <trkpt lat="44.78988" lon="-0.43999">
        <ele>72</ele>
        <time>2011-12-23T14:40:57Z</time>
      </trkpt>
      <trkpt lat="44.78988" lon="-0.44012">
        <ele>72</ele>
        <time>2011-12-23T14:41:02Z</time>
      </trkpt>
      <trkpt lat="44.78988" lon="-0.44026">
        <ele>72</ele>
        <time>2011-12-23T14:41:07Z</time>
      </trkpt>
      <trkpt lat="44.7899" lon="-0.44043">
        <ele>72</ele>
        <time>2011-12-23T14:41:12Z</time>
      </trkpt>
      <trkpt lat="44.78995" lon="-0.44055">
        <ele>72</ele>
        <time>2011-12-23T14:41:16Z</time>
      </trkpt>
      <trkpt lat="44.79" lon="-0.44068">
        <ele>72</ele>
        <time>2011-12-23T14:41:20Z</time>
      </trkpt>
      <trkpt lat="44.79002" lon="-0.44082">
        <ele>72</ele>
        <time>2011-12-23T14:41:25Z</time>
      </trkpt>
      <trkpt lat="44.79008" lon="-0.44097">
        <ele>72</ele>
        <time>2011-12-23T14:41:30Z</time>
      </trkpt>
      <trkpt lat="44.79013" lon="-0.4411">
        <ele>72</ele>
        <time>2011-12-23T14:41:34Z</time>
      </trkpt>
      <trkpt lat="44.79016" lon="-0.44124">
        <ele>72</ele>
        <time>2011-12-23T14:41:38Z</time>
      </trkpt>
      <trkpt lat="44.7902" lon="-0.44137">
        <ele>72</ele>
        <time>2011-12-23T14:41:42Z</time>
      </trkpt>
      <trkpt lat="44.79023" lon="-0.44151">
        <ele>72</ele>
        <time>2011-12-23T14:41:46Z</time>
      </trkpt>
      <trkpt lat="44.79027" lon="-0.44164">
        <ele>72</ele>
        <time>2011-12-23T14:41:50Z</time>
      </trkpt>
      <trkpt lat="44.79031" lon="-0.44177">
        <ele>73</ele>
        <time>2011-12-23T14:41:54Z</time>
      </trkpt>
      <trkpt lat="44.79037" lon="-0.44191">
        <ele>73</ele>
        <time>2011-12-23T14:41:59Z</time>
      </trkpt>
      <trkpt lat="44.79042" lon="-0.44203">
        <ele>73</ele>
        <time>2011-12-23T14:42:04Z</time>
      </trkpt>
      <trkpt lat="44.79047" lon="-0.44218">
        <ele>74</ele>
        <time>2011-12-23T14:42:10Z</time>
      </trkpt>
      <trkpt lat="44.79051" lon="-0.4423">
        <ele>74</ele>
        <time>2011-12-23T14:42:15Z</time>
      </trkpt>
      <trkpt lat="44.79055" lon="-0.44243">
        <ele>74</ele>
        <time>2011-12-23T14:42:20Z</time>
      </trkpt>
      <trkpt lat="44.79058" lon="-0.44256">
        <ele>74</ele>
        <time>2011-12-23T14:42:26Z</time>
      </trkpt>
      <trkpt lat="44.7906" lon="-0.4427">
        <ele>74</ele>
        <time>2011-12-23T14:42:33Z</time>
      </trkpt>
      <trkpt lat="44.79063" lon="-0.44283">
        <ele>74</ele>
        <time>2011-12-23T14:42:41Z</time>
      </trkpt>
      <trkpt lat="44.79066" lon="-0.44296">
        <ele>75</ele>
        <time>2011-12-23T14:42:48Z</time>
      </trkpt>
      <trkpt lat="44.7907" lon="-0.44308">
        <ele>75</ele>
        <time>2011-12-23T14:42:54Z</time>
      </trkpt>
      <trkpt lat="44.79073" lon="-0.4432">
        <ele>75</ele>
        <time>2011-12-23T14:43:00Z</time>
      </trkpt>
      <trkpt lat="44.79077" lon="-0.44334">
        <ele>75</ele>
        <time>2011-12-23T14:43:07Z</time>
      </trkpt>
      <trkpt lat="44.7908" lon="-0.44347">
        <ele>76</ele>
        <time>2011-12-23T14:43:13Z</time>
      </trkpt>
      <trkpt lat="44.79084" lon="-0.4436">
        <ele>76</ele>
        <time>2011-12-23T14:43:18Z</time>
      </trkpt>
      <trkpt lat="44.79086" lon="-0.44373">
        <ele>76</ele>
        <time>2011-12-23T14:43:24Z</time>
      </trkpt>
      <trkpt lat="44.79089" lon="-0.44388">
        <ele>76</ele>
        <time>2011-12-23T14:43:30Z</time>
      </trkpt>
      <trkpt lat="44.79093" lon="-0.44401">
        <ele>76</ele>
        <time>2011-12-23T14:43:36Z</time>
      </trkpt>
      <trkpt lat="44.79096" lon="-0.44415">
        <ele>76</ele>
        <time>2011-12-23T14:43:42Z</time>
      </trkpt>
      <trkpt lat="44.791" lon="-0.44427">
        <ele>76</ele>
        <time>2011-12-23T14:43:46Z</time>
      </trkpt>
      <trkpt lat="44.79104" lon="-0.44441">
        <ele>76</ele>
        <time>2011-12-23T14:43:51Z</time>
      </trkpt>
      <trkpt lat="44.79109" lon="-0.44452">
        <ele>76</ele>
        <time>2011-12-23T14:43:55Z</time>
      </trkpt>
      <trkpt lat="44.79114" lon="-0.44465">
        <ele>76</ele>
        <time>2011-12-23T14:44:00Z</time>
      </trkpt>
      <trkpt lat="44.79121" lon="-0.44478">
        <ele>76</ele>
        <time>2011-12-23T14:44:05Z</time>
      </trkpt>
      <trkpt lat="44.79128" lon="-0.44491">
        <ele>76</ele>
        <time>2011-12-23T14:44:10Z</time>
      </trkpt>
      <trkpt lat="44.79135" lon="-0.44503">
        <ele>76</ele>
        <time>2011-12-23T14:44:15Z</time>
      </trkpt>
      <trkpt lat="44.79142" lon="-0.44515">
        <ele>76</ele>
        <time>2011-12-23T14:44:20Z</time>
      </trkpt>
      <trkpt lat="44.7915" lon="-0.44525">
        <ele>76</ele>
        <time>2011-12-23T14:44:24Z</time>
      </trkpt>
      <trkpt lat="44.79157" lon="-0.44538">
        <ele>76</ele>
        <time>2011-12-23T14:44:29Z</time>
      </trkpt>
      <trkpt lat="44.79163" lon="-0.44548">
        <ele>76</ele>
        <time>2011-12-23T14:44:33Z</time>
      </trkpt>
      <trkpt lat="44.79169" lon="-0.44558">
        <ele>77</ele>
        <time>2011-12-23T14:44:38Z</time>
      </trkpt>
      <trkpt lat="44.79174" lon="-0.44571">
        <ele>77</ele>
        <time>2011-12-23T14:44:43Z</time>
      </trkpt>
      <trkpt lat="44.79179" lon="-0.44583">
        <ele>77</ele>
        <time>2011-12-23T14:44:48Z</time>
      </trkpt>
      <trkpt lat="44.79184" lon="-0.44598">
        <ele>77</ele>
        <time>2011-12-23T14:44:53Z</time>
      </trkpt>
      <trkpt lat="44.79189" lon="-0.4461">
        <ele>77</ele>
        <time>2011-12-23T14:44:57Z</time>
      </trkpt>
      <trkpt lat="44.79194" lon="-0.44623">
        <ele>77</ele>
        <time>2011-12-23T14:45:02Z</time>
      </trkpt>
      <trkpt lat="44.79199" lon="-0.44636">
        <ele>78</ele>
        <time>2011-12-23T14:45:07Z</time>
      </trkpt>
      <trkpt lat="44.79206" lon="-0.44645">
        <ele>78</ele>
        <time>2011-12-23T14:45:12Z</time>
      </trkpt>
      <trkpt lat="44.79202" lon="-0.44658">
        <ele>78</ele>
        <time>2011-12-23T14:45:20Z</time>
      </trkpt>
      <trkpt lat="44.79194" lon="-0.44668">
        <ele>77</ele>
        <time>2011-12-23T14:45:23Z</time>
      </trkpt>
      <trkpt lat="44.79185" lon="-0.44675">
        <ele>76</ele>
        <time>2011-12-23T14:45:25Z</time>
      </trkpt>
      <trkpt lat="44.79174" lon="-0.4468">
        <ele>74</ele>
        <time>2011-12-23T14:45:27Z</time>
      </trkpt>
      <trkpt lat="44.79163" lon="-0.44685">
        <ele>73</ele>
        <time>2011-12-23T14:45:29Z</time>
      </trkpt>
      <trkpt lat="44.79152" lon="-0.44689">
        <ele>72</ele>
        <time>2011-12-23T14:45:31Z</time>
      </trkpt>
      <trkpt lat="44.79142" lon="-0.44693">
        <ele>72</ele>
        <time>2011-12-23T14:45:33Z</time>
      </trkpt>
      <trkpt lat="44.79133" lon="-0.44698">
        <ele>71</ele>
        <time>2011-12-23T14:45:35Z</time>
      </trkpt>
      <trkpt lat="44.79124" lon="-0.44701">
        <ele>71</ele>
        <time>2011-12-23T14:45:37Z</time>
      </trkpt>
      <trkpt lat="44.79114" lon="-0.44707">
        <ele>70</ele>
        <time>2011-12-23T14:45:39Z</time>
      </trkpt>
      <trkpt lat="44.79105" lon="-0.44715">
        <ele>69</ele>
        <time>2011-12-23T14:45:41Z</time>
      </trkpt>
      <trkpt lat="44.79094" lon="-0.44724">
        <ele>69</ele>
        <time>2011-12-23T14:45:44Z</time>
      </trkpt>
      <trkpt lat="44.79086" lon="-0.44734">
        <ele>69</ele>
        <time>2011-12-23T14:45:47Z</time>
      </trkpt>
      <trkpt lat="44.79079" lon="-0.44744">
        <ele>69</ele>
        <time>2011-12-23T14:45:50Z</time>
      </trkpt>
      <trkpt lat="44.79071" lon="-0.44754">
        <ele>69</ele>
        <time>2011-12-23T14:45:55Z</time>
      </trkpt>
      <trkpt lat="44.79065" lon="-0.44764">
        <ele>69</ele>
        <time>2011-12-23T14:46:50Z</time>
      </trkpt>
      <trkpt lat="44.79059" lon="-0.44776">
        <ele>69</ele>
        <time>2011-12-23T14:48:37Z</time>
      </trkpt>
      <trkpt lat="44.7905" lon="-0.44785">
        <ele>69</ele>
        <time>2011-12-23T14:48:42Z</time>
      </trkpt>
      <trkpt lat="44.79041" lon="-0.44793">
        <ele>70</ele>
        <time>2011-12-23T14:48:46Z</time>
      </trkpt>
      <trkpt lat="44.79033" lon="-0.44802">
        <ele>70</ele>
        <time>2011-12-23T14:48:50Z</time>
      </trkpt>
      <trkpt lat="44.79025" lon="-0.44812">
        <ele>70</ele>
        <time>2011-12-23T14:48:54Z</time>
      </trkpt>
      <trkpt lat="44.79021" lon="-0.44824">
        <ele>70</ele>
        <time>2011-12-23T14:48:58Z</time>
      </trkpt>
      <trkpt lat="44.79018" lon="-0.44837">
        <ele>71</ele>
        <time>2011-12-23T14:49:02Z</time>
      </trkpt>
      <trkpt lat="44.79013" lon="-0.44851">
        <ele>71</ele>
        <time>2011-12-23T14:49:06Z</time>
      </trkpt>
      <trkpt lat="44.79006" lon="-0.4486">
        <ele>71</ele>
        <time>2011-12-23T14:49:10Z</time>
      </trkpt>
      <trkpt lat="44.78996" lon="-0.44864">
        <ele>71</ele>
        <time>2011-12-23T14:49:14Z</time>
      </trkpt>
      <trkpt lat="44.78986" lon="-0.44869">
        <ele>72</ele>
        <time>2011-12-23T14:49:18Z</time>
      </trkpt>
      <trkpt lat="44.78976" lon="-0.44875">
        <ele>72</ele>
        <time>2011-12-23T14:49:22Z</time>
      </trkpt>
      <trkpt lat="44.78967" lon="-0.44883">
        <ele>72</ele>
        <time>2011-12-23T14:49:26Z</time>
      </trkpt>
      <trkpt lat="44.78956" lon="-0.44889">
        <ele>72</ele>
        <time>2011-12-23T14:49:30Z</time>
      </trkpt>
      <trkpt lat="44.78945" lon="-0.44894">
        <ele>73</ele>
        <time>2011-12-23T14:49:34Z</time>
      </trkpt>
      <trkpt lat="44.78935" lon="-0.44901">
        <ele>73</ele>
        <time>2011-12-23T14:49:38Z</time>
      </trkpt>
      <trkpt lat="44.78925" lon="-0.44907">
        <ele>73</ele>
        <time>2011-12-23T14:49:42Z</time>
      </trkpt>
      <trkpt lat="44.78916" lon="-0.44915">
        <ele>73</ele>
        <time>2011-12-23T14:49:46Z</time>
      </trkpt>
      <trkpt lat="44.78907" lon="-0.44923">
        <ele>73</ele>
        <time>2011-12-23T14:49:50Z</time>
      </trkpt>
      <trkpt lat="44.78908" lon="-0.44938">
        <ele>73</ele>
        <time>2011-12-23T14:49:55Z</time>
      </trkpt>
      <trkpt lat="44.78914" lon="-0.44949">
        <ele>73</ele>
        <time>2011-12-23T14:50:00Z</time>
      </trkpt>
      <trkpt lat="44.78913" lon="-0.44963">
        <ele>73</ele>
        <time>2011-12-23T14:50:10Z</time>
      </trkpt>
      <trkpt lat="44.78905" lon="-0.44971">
        <ele>73</ele>
        <time>2011-12-23T14:50:14Z</time>
      </trkpt>
      <trkpt lat="44.78897" lon="-0.4498">
        <ele>73</ele>
        <time>2011-12-23T14:50:18Z</time>
      </trkpt>
      <trkpt lat="44.78888" lon="-0.44989">
        <ele>73</ele>
        <time>2011-12-23T14:50:22Z</time>
      </trkpt>
      <trkpt lat="44.78879" lon="-0.44999">
        <ele>73</ele>
        <time>2011-12-23T14:50:26Z</time>
      </trkpt>
      <trkpt lat="44.78871" lon="-0.45007">
        <ele>73</ele>
        <time>2011-12-23T14:50:29Z</time>
      </trkpt>
      <trkpt lat="44.78864" lon="-0.45016">
        <ele>73</ele>
        <time>2011-12-23T14:50:32Z</time>
      </trkpt>
      <trkpt lat="44.78856" lon="-0.45025">
        <ele>73</ele>
        <time>2011-12-23T14:50:35Z</time>
      </trkpt>
      <trkpt lat="44.78846" lon="-0.45036">
        <ele>73</ele>
        <time>2011-12-23T14:50:39Z</time>
      </trkpt>
      <trkpt lat="44.78839" lon="-0.45045">
        <ele>73</ele>
        <time>2011-12-23T14:50:42Z</time>
      </trkpt>
      <trkpt lat="44.7883" lon="-0.45055">
        <ele>73</ele>
        <time>2011-12-23T14:50:45Z</time>
      </trkpt>
      <trkpt lat="44.78822" lon="-0.45065">
        <ele>72</ele>
        <time>2011-12-23T14:50:48Z</time>
      </trkpt>
      <trkpt lat="44.78815" lon="-0.45078">
        <ele>72</ele>
        <time>2011-12-23T14:50:51Z</time>
      </trkpt>
      <trkpt lat="44.78809" lon="-0.45093">
        <ele>71</ele>
        <time>2011-12-23T14:50:54Z</time>
      </trkpt>
      <trkpt lat="44.78802" lon="-0.45105">
        <ele>71</ele>
        <time>2011-12-23T14:50:57Z</time>
      </trkpt>
      <trkpt lat="44.78796" lon="-0.45117">
        <ele>70</ele>
        <time>2011-12-23T14:51:00Z</time>
      </trkpt>
      <trkpt lat="44.78791" lon="-0.45129">
        <ele>69</ele>
        <time>2011-12-23T14:51:04Z</time>
      </trkpt>
      <trkpt lat="44.78784" lon="-0.45142">
        <ele>68</ele>
        <time>2011-12-23T14:51:09Z</time>
      </trkpt>
      <trkpt lat="44.78778" lon="-0.45156">
        <ele>67</ele>
        <time>2011-12-23T14:51:13Z</time>
      </trkpt>
      <trkpt lat="44.78771" lon="-0.45165">
        <ele>66</ele>
        <time>2011-12-23T14:51:16Z</time>
      </trkpt>
      <trkpt lat="44.78761" lon="-0.45172">
        <ele>64</ele>
        <time>2011-12-23T14:51:21Z</time>
      </trkpt>
      <trkpt lat="44.78752" lon="-0.45178">
        <ele>63</ele>
        <time>2011-12-23T14:51:25Z</time>
      </trkpt>
      <trkpt lat="44.78741" lon="-0.45184">
        <ele>62</ele>
        <time>2011-12-23T14:51:30Z</time>
      </trkpt>
      <trkpt lat="44.78731" lon="-0.45177">
        <ele>60</ele>
        <time>2011-12-23T14:51:35Z</time>
      </trkpt>
      <trkpt lat="44.78722" lon="-0.45171">
        <ele>59</ele>
        <time>2011-12-23T14:51:40Z</time>
      </trkpt>
      <trkpt lat="44.78711" lon="-0.45165">
        <ele>57</ele>
        <time>2011-12-23T14:51:44Z</time>
      </trkpt>
      <trkpt lat="44.78701" lon="-0.45157">
        <ele>55</ele>
        <time>2011-12-23T14:51:47Z</time>
      </trkpt>
      <trkpt lat="44.78692" lon="-0.45148">
        <ele>53</ele>
        <time>2011-12-23T14:51:50Z</time>
      </trkpt>
      <trkpt lat="44.78681" lon="-0.45142">
        <ele>52</ele>
        <time>2011-12-23T14:51:54Z</time>
      </trkpt>
      <trkpt lat="44.78672" lon="-0.45139">
        <ele>52</ele>
        <time>2011-12-23T14:51:57Z</time>
      </trkpt>
      <trkpt lat="44.78661" lon="-0.45139">
        <ele>51</ele>
        <time>2011-12-23T14:52:00Z</time>
      </trkpt>
      <trkpt lat="44.78649" lon="-0.45139">
        <ele>51</ele>
        <time>2011-12-23T14:52:04Z</time>
      </trkpt>
      <trkpt lat="44.7864" lon="-0.45139">
        <ele>50</ele>
        <time>2011-12-23T14:52:07Z</time>
      </trkpt>
      <trkpt lat="44.78629" lon="-0.45136">
        <ele>49</ele>
        <time>2011-12-23T14:52:11Z</time>
      </trkpt>
      <trkpt lat="44.78621" lon="-0.4513">
        <ele>48</ele>
        <time>2011-12-23T14:52:14Z</time>
      </trkpt>
      <trkpt lat="44.78612" lon="-0.45125">
        <ele>47</ele>
        <time>2011-12-23T14:52:19Z</time>
      </trkpt>
      <trkpt lat="44.78603" lon="-0.45122">
        <ele>46</ele>
        <time>2011-12-23T14:52:22Z</time>
      </trkpt>
      <trkpt lat="44.78592" lon="-0.45121">
        <ele>45</ele>
        <time>2011-12-23T14:52:25Z</time>
      </trkpt>
      <trkpt lat="44.78581" lon="-0.45123">
        <ele>44</ele>
        <time>2011-12-23T14:52:29Z</time>
      </trkpt>
      <trkpt lat="44.78571" lon="-0.4513">
        <ele>42</ele>
        <time>2011-12-23T14:52:33Z</time>
      </trkpt>
      <trkpt lat="44.78562" lon="-0.45136">
        <ele>41</ele>
        <time>2011-12-23T14:52:37Z</time>
      </trkpt>
      <trkpt lat="44.78554" lon="-0.45144">
        <ele>42</ele>
        <time>2011-12-23T14:52:42Z</time>
      </trkpt>
      <trkpt lat="44.78546" lon="-0.4515">
        <ele>42</ele>
        <time>2011-12-23T14:52:52Z</time>
      </trkpt>
      <trkpt lat="44.78536" lon="-0.45151">
        <ele>40</ele>
        <time>2011-12-23T14:53:14Z</time>
      </trkpt>
      <trkpt lat="44.78528" lon="-0.45157">
        <ele>40</ele>
        <time>2011-12-23T14:53:20Z</time>
      </trkpt>
      <trkpt lat="44.78519" lon="-0.45166">
        <ele>38</ele>
        <time>2011-12-23T14:53:24Z</time>
      </trkpt>
      <trkpt lat="44.78509" lon="-0.45172">
        <ele>36</ele>
        <time>2011-12-23T14:53:29Z</time>
      </trkpt>
      <trkpt lat="44.78502" lon="-0.45181">
        <ele>35</ele>
        <time>2011-12-23T14:53:35Z</time>
      </trkpt>
      <trkpt lat="44.78493" lon="-0.45195">
        <ele>35</ele>
        <time>2011-12-23T14:53:39Z</time>
      </trkpt>
      <trkpt lat="44.78488" lon="-0.4521">
        <ele>35</ele>
        <time>2011-12-23T14:53:42Z</time>
      </trkpt>
      <trkpt lat="44.78482" lon="-0.4522">
        <ele>35</ele>
        <time>2011-12-23T14:53:45Z</time>
      </trkpt>
      <trkpt lat="44.78474" lon="-0.45232">
        <ele>34</ele>
        <time>2011-12-23T14:53:48Z</time>
      </trkpt>
      <trkpt lat="44.78468" lon="-0.45245">
        <ele>33</ele>
        <time>2011-12-23T14:53:51Z</time>
      </trkpt>
      <trkpt lat="44.78459" lon="-0.45256">
        <ele>32</ele>
        <time>2011-12-23T14:53:54Z</time>
      </trkpt>
      <trkpt lat="44.78453" lon="-0.45267">
        <ele>32</ele>
        <time>2011-12-23T14:53:57Z</time>
      </trkpt>
      <trkpt lat="44.78447" lon="-0.45278">
        <ele>32</ele>
        <time>2011-12-23T14:54:00Z</time>
      </trkpt>
      <trkpt lat="44.78441" lon="-0.45288">
        <ele>32</ele>
        <time>2011-12-23T14:54:03Z</time>
      </trkpt>
      <trkpt lat="44.78434" lon="-0.45298">
        <ele>32</ele>
        <time>2011-12-23T14:54:07Z</time>
      </trkpt>
      <trkpt lat="44.78429" lon="-0.45313">
        <ele>31</ele>
        <time>2011-12-23T14:54:11Z</time>
      </trkpt>
      <trkpt lat="44.78426" lon="-0.45327">
        <ele>30</ele>
        <time>2011-12-23T14:54:16Z</time>
      </trkpt>
      <trkpt lat="44.78437" lon="-0.45337">
        <ele>30</ele>
        <time>2011-12-23T14:54:20Z</time>
      </trkpt>
      <trkpt lat="44.78445" lon="-0.45349">
        <ele>30</ele>
        <time>2011-12-23T14:54:23Z</time>
      </trkpt>
      <trkpt lat="44.7845" lon="-0.45364">
        <ele>30</ele>
        <time>2011-12-23T14:54:26Z</time>
      </trkpt>
      <trkpt lat="44.78454" lon="-0.45381">
        <ele>30</ele>
        <time>2011-12-23T14:54:29Z</time>
      </trkpt>
      <trkpt lat="44.78457" lon="-0.45394">
        <ele>30</ele>
        <time>2011-12-23T14:54:31Z</time>
      </trkpt>
      <trkpt lat="44.7846" lon="-0.45412">
        <ele>30</ele>
        <time>2011-12-23T14:54:34Z</time>
      </trkpt>
      <trkpt lat="44.78463" lon="-0.45429">
        <ele>29</ele>
        <time>2011-12-23T14:54:37Z</time>
      </trkpt>
      <trkpt lat="44.78467" lon="-0.45443">
        <ele>30</ele>
        <time>2011-12-23T14:54:40Z</time>
      </trkpt>
      <trkpt lat="44.78471" lon="-0.45456">
        <ele>30</ele>
        <time>2011-12-23T14:54:43Z</time>
      </trkpt>
      <trkpt lat="44.78476" lon="-0.45473">
        <ele>29</ele>
        <time>2011-12-23T14:54:46Z</time>
      </trkpt>
      <trkpt lat="44.78482" lon="-0.45489">
        <ele>29</ele>
        <time>2011-12-23T14:54:49Z</time>
      </trkpt>
      <trkpt lat="44.78489" lon="-0.45502">
        <ele>28</ele>
        <time>2011-12-23T14:54:52Z</time>
      </trkpt>
      <trkpt lat="44.78498" lon="-0.45519">
        <ele>27</ele>
        <time>2011-12-23T14:54:55Z</time>
      </trkpt>
      <trkpt lat="44.78504" lon="-0.45531">
        <ele>27</ele>
        <time>2011-12-23T14:54:57Z</time>
      </trkpt>
      <trkpt lat="44.78509" lon="-0.45544">
        <ele>28</ele>
        <time>2011-12-23T14:54:59Z</time>
      </trkpt>
      <trkpt lat="44.78514" lon="-0.45557">
        <ele>28</ele>
        <time>2011-12-23T14:55:01Z</time>
      </trkpt>
      <trkpt lat="44.78518" lon="-0.45572">
        <ele>27</ele>
        <time>2011-12-23T14:55:03Z</time>
      </trkpt>
      <trkpt lat="44.78523" lon="-0.45586">
        <ele>27</ele>
        <time>2011-12-23T14:55:05Z</time>
      </trkpt>
      <trkpt lat="44.78527" lon="-0.45601">
        <ele>26</ele>
        <time>2011-12-23T14:55:07Z</time>
      </trkpt>
      <trkpt lat="44.78532" lon="-0.45616">
        <ele>26</ele>
        <time>2011-12-23T14:55:09Z</time>
      </trkpt>
      <trkpt lat="44.78536" lon="-0.4563">
        <ele>25</ele>
        <time>2011-12-23T14:55:11Z</time>
      </trkpt>
      <trkpt lat="44.78541" lon="-0.45645">
        <ele>24</ele>
        <time>2011-12-23T14:55:13Z</time>
      </trkpt>
      <trkpt lat="44.78546" lon="-0.45661">
        <ele>24</ele>
        <time>2011-12-23T14:55:15Z</time>
      </trkpt>
      <trkpt lat="44.7855" lon="-0.45675">
        <ele>24</ele>
        <time>2011-12-23T14:55:17Z</time>
      </trkpt>
      <trkpt lat="44.78555" lon="-0.4569">
        <ele>24</ele>
        <time>2011-12-23T14:55:19Z</time>
      </trkpt>
      <trkpt lat="44.7856" lon="-0.45705">
        <ele>24</ele>
        <time>2011-12-23T14:55:21Z</time>
      </trkpt>
      <trkpt lat="44.78565" lon="-0.4572">
        <ele>24</ele>
        <time>2011-12-23T14:55:23Z</time>
      </trkpt>
      <trkpt lat="44.78571" lon="-0.45736">
        <ele>24</ele>
        <time>2011-12-23T14:55:25Z</time>
      </trkpt>
      <trkpt lat="44.78577" lon="-0.4575">
        <ele>23</ele>
        <time>2011-12-23T14:55:27Z</time>
      </trkpt>
      <trkpt lat="44.78583" lon="-0.45764">
        <ele>22</ele>
        <time>2011-12-23T14:55:29Z</time>
      </trkpt>
      <trkpt lat="44.7859" lon="-0.45776">
        <ele>23</ele>
        <time>2011-12-23T14:55:31Z</time>
      </trkpt>
      <trkpt lat="44.78597" lon="-0.45787">
        <ele>23</ele>
        <time>2011-12-23T14:55:33Z</time>
      </trkpt>
      <trkpt lat="44.78603" lon="-0.45798">
        <ele>24</ele>
        <time>2011-12-23T14:55:35Z</time>
      </trkpt>
      <trkpt lat="44.78609" lon="-0.45809">
        <ele>24</ele>
        <time>2011-12-23T14:55:37Z</time>
      </trkpt>
      <trkpt lat="44.78619" lon="-0.45824">
        <ele>23</ele>
        <time>2011-12-23T14:55:40Z</time>
      </trkpt>
      <trkpt lat="44.78625" lon="-0.45835">
        <ele>22</ele>
        <time>2011-12-23T14:55:42Z</time>
      </trkpt>
      <trkpt lat="44.78631" lon="-0.45846">
        <ele>23</ele>
        <time>2011-12-23T14:55:44Z</time>
      </trkpt>
      <trkpt lat="44.78636" lon="-0.45858">
        <ele>24</ele>
        <time>2011-12-23T14:55:46Z</time>
      </trkpt>
      <trkpt lat="44.7864" lon="-0.4587">
        <ele>24</ele>
        <time>2011-12-23T14:55:48Z</time>
      </trkpt>
      <trkpt lat="44.78645" lon="-0.45888">
        <ele>24</ele>
        <time>2011-12-23T14:55:51Z</time>
      </trkpt>
      <trkpt lat="44.78651" lon="-0.45901">
        <ele>25</ele>
        <time>2011-12-23T14:55:54Z</time>
      </trkpt>
      <trkpt lat="44.78656" lon="-0.45915">
        <ele>25</ele>
        <time>2011-12-23T14:55:57Z</time>
      </trkpt>
      <trkpt lat="44.78663" lon="-0.45927">
        <ele>26</ele>
        <time>2011-12-23T14:56:01Z</time>
      </trkpt>
      <trkpt lat="44.7867" lon="-0.45936">
        <ele>26</ele>
        <time>2011-12-23T14:56:08Z</time>
      </trkpt>
      <trkpt lat="44.78667" lon="-0.45952">
        <ele>25</ele>
        <time>2011-12-23T14:56:15Z</time>
      </trkpt>
      <trkpt lat="44.78667" lon="-0.45965">
        <ele>24</ele>
        <time>2011-12-23T14:56:18Z</time>
      </trkpt>
      <trkpt lat="44.78674" lon="-0.45974">
        <ele>25</ele>
        <time>2011-12-23T14:56:25Z</time>
      </trkpt>
      <trkpt lat="44.78683" lon="-0.45981">
        <ele>26</ele>
        <time>2011-12-23T14:56:57Z</time>
      </trkpt>
      <trkpt lat="44.7869" lon="-0.45989">
        <ele>28</ele>
        <time>2011-12-23T14:57:13Z</time>
      </trkpt>
      <trkpt lat="44.78697" lon="-0.46">
        <ele>28</ele>
        <time>2011-12-23T14:57:30Z</time>
      </trkpt>
      <trkpt lat="44.78704" lon="-0.46009">
        <ele>29</ele>
        <time>2011-12-23T14:57:46Z</time>
      </trkpt>
      <trkpt lat="44.78712" lon="-0.46017">
        <ele>30</ele>
        <time>2011-12-23T14:58:02Z</time>
      </trkpt>
      <trkpt lat="44.78708" lon="-0.46029">
        <ele>28</ele>
        <time>2011-12-23T14:58:47Z</time>
      </trkpt>
      <trkpt lat="44.78718" lon="-0.46031">
        <ele>31</ele>
        <time>2011-12-23T14:59:11Z</time>
      </trkpt>
      <trkpt lat="44.78727" lon="-0.46032">
        <ele>33</ele>
        <time>2011-12-23T14:59:19Z</time>
      </trkpt>
      <trkpt lat="44.78737" lon="-0.46036">
        <ele>35</ele>
        <time>2011-12-23T14:59:26Z</time>
      </trkpt>
      <trkpt lat="44.78747" lon="-0.46042">
        <ele>37</ele>
        <time>2011-12-23T14:59:33Z</time>
      </trkpt>
      <trkpt lat="44.78755" lon="-0.46046">
        <ele>38</ele>
        <time>2011-12-23T15:00:13Z</time>
      </trkpt>
      <trkpt lat="44.78765" lon="-0.46049">
        <ele>39</ele>
        <time>2011-12-23T15:00:38Z</time>
      </trkpt>
      <trkpt lat="44.78775" lon="-0.46045">
        <ele>41</ele>
        <time>2011-12-23T15:00:59Z</time>
      </trkpt>
      <trkpt lat="44.78784" lon="-0.46042">
        <ele>43</ele>
        <time>2011-12-23T15:01:15Z</time>
      </trkpt>
      <trkpt lat="44.78793" lon="-0.46039">
        <ele>44</ele>
        <time>2011-12-23T15:01:26Z</time>
      </trkpt>
      <trkpt lat="44.78802" lon="-0.46034">
        <ele>46</ele>
        <time>2011-12-23T15:01:38Z</time>
      </trkpt>
      <trkpt lat="44.78812" lon="-0.46031">
        <ele>47</ele>
        <time>2011-12-23T15:01:54Z</time>
      </trkpt>
      <trkpt lat="44.78822" lon="-0.46027">
        <ele>49</ele>
        <time>2011-12-23T15:02:13Z</time>
      </trkpt>
      <trkpt lat="44.78831" lon="-0.46022">
        <ele>50</ele>
        <time>2011-12-23T15:02:19Z</time>
      </trkpt>
      <trkpt lat="44.78841" lon="-0.46019">
        <ele>51</ele>
        <time>2011-12-23T15:02:26Z</time>
      </trkpt>
      <trkpt lat="44.78852" lon="-0.46015">
        <ele>52</ele>
        <time>2011-12-23T15:02:34Z</time>
      </trkpt>
      <trkpt lat="44.78862" lon="-0.46016">
        <ele>53</ele>
        <time>2011-12-23T15:02:41Z</time>
      </trkpt>
      <trkpt lat="44.78871" lon="-0.46017">
        <ele>53</ele>
        <time>2011-12-23T15:02:51Z</time>
      </trkpt>
      <trkpt lat="44.78881" lon="-0.46016">
        <ele>54</ele>
        <time>2011-12-23T15:03:02Z</time>
      </trkpt>
      <trkpt lat="44.78884" lon="-0.46004">
        <ele>55</ele>
        <time>2011-12-23T15:03:23Z</time>
      </trkpt>
      <trkpt lat="44.78882" lon="-0.45989">
        <ele>55</ele>
        <time>2011-12-23T15:03:32Z</time>
      </trkpt>
      <trkpt lat="44.78882" lon="-0.45975">
        <ele>55</ele>
        <time>2011-12-23T15:03:40Z</time>
      </trkpt>
      <trkpt lat="44.78882" lon="-0.45961">
        <ele>56</ele>
        <time>2011-12-23T15:03:47Z</time>
      </trkpt>
      <trkpt lat="44.7888" lon="-0.45947">
        <ele>56</ele>
        <time>2011-12-23T15:03:54Z</time>
      </trkpt>
      <trkpt lat="44.78881" lon="-0.45932">
        <ele>56</ele>
        <time>2011-12-23T15:04:01Z</time>
      </trkpt>
      <trkpt lat="44.78882" lon="-0.45917">
        <ele>57</ele>
        <time>2011-12-23T15:04:07Z</time>
      </trkpt>
      <trkpt lat="44.78881" lon="-0.45904">
        <ele>57</ele>
        <time>2011-12-23T15:04:13Z</time>
      </trkpt>
      <trkpt lat="44.78881" lon="-0.4589">
        <ele>57</ele>
        <time>2011-12-23T15:04:19Z</time>
      </trkpt>
      <trkpt lat="44.7888" lon="-0.45877">
        <ele>58</ele>
        <time>2011-12-23T15:04:25Z</time>
      </trkpt>
      <trkpt lat="44.78882" lon="-0.45863">
        <ele>58</ele>
        <time>2011-12-23T15:04:32Z</time>
      </trkpt>
      <trkpt lat="44.78882" lon="-0.45849">
        <ele>58</ele>
        <time>2011-12-23T15:04:39Z</time>
      </trkpt>
      <trkpt lat="44.78882" lon="-0.45836">
        <ele>58</ele>
        <time>2011-12-23T15:04:46Z</time>
      </trkpt>
      <trkpt lat="44.78883" lon="-0.45822">
        <ele>59</ele>
        <time>2011-12-23T15:04:53Z</time>
      </trkpt>
      <trkpt lat="44.78885" lon="-0.45808">
        <ele>59</ele>
        <time>2011-12-23T15:05:00Z</time>
      </trkpt>
      <trkpt lat="44.78889" lon="-0.45794">
        <ele>60</ele>
        <time>2011-12-23T15:05:07Z</time>
      </trkpt>
      <trkpt lat="44.78896" lon="-0.45784">
        <ele>61</ele>
        <time>2011-12-23T15:05:16Z</time>
      </trkpt>
      <trkpt lat="44.78903" lon="-0.45775">
        <ele>61</ele>
        <time>2011-12-23T15:05:25Z</time>
      </trkpt>
      <trkpt lat="44.7891" lon="-0.45765">
        <ele>62</ele>
        <time>2011-12-23T15:05:33Z</time>
      </trkpt>
      <trkpt lat="44.78919" lon="-0.45757">
        <ele>63</ele>
        <time>2011-12-23T15:05:41Z</time>
      </trkpt>
      <trkpt lat="44.78926" lon="-0.45749">
        <ele>64</ele>
        <time>2011-12-23T15:06:03Z</time>
      </trkpt>
      <trkpt lat="44.78935" lon="-0.4574">
        <ele>65</ele>
        <time>2011-12-23T15:06:19Z</time>
      </trkpt>
      <trkpt lat="44.78944" lon="-0.45732">
        <ele>66</ele>
        <time>2011-12-23T15:06:32Z</time>
      </trkpt>
      <trkpt lat="44.78951" lon="-0.45723">
        <ele>66</ele>
        <time>2011-12-23T15:06:55Z</time>
      </trkpt>
      <trkpt lat="44.78959" lon="-0.45715">
        <ele>67</ele>
        <time>2011-12-23T15:07:02Z</time>
      </trkpt>
      <trkpt lat="44.78966" lon="-0.45706">
        <ele>67</ele>
        <time>2011-12-23T15:07:08Z</time>
      </trkpt>
      <trkpt lat="44.78974" lon="-0.45698">
        <ele>68</ele>
        <time>2011-12-23T15:07:15Z</time>
      </trkpt>
      <trkpt lat="44.78981" lon="-0.4569">
        <ele>69</ele>
        <time>2011-12-23T15:07:22Z</time>
      </trkpt>
      <trkpt lat="44.78988" lon="-0.45681">
        <ele>69</ele>
        <time>2011-12-23T15:07:29Z</time>
      </trkpt>
      <trkpt lat="44.78997" lon="-0.45675">
        <ele>70</ele>
        <time>2011-12-23T15:07:35Z</time>
      </trkpt>
      <trkpt lat="44.79006" lon="-0.45666">
        <ele>70</ele>
        <time>2011-12-23T15:07:42Z</time>
      </trkpt>
      <trkpt lat="44.79014" lon="-0.45659">
        <ele>70</ele>
        <time>2011-12-23T15:07:47Z</time>
      </trkpt>
      <trkpt lat="44.79023" lon="-0.45651">
        <ele>70</ele>
        <time>2011-12-23T15:07:52Z</time>
      </trkpt>
      <trkpt lat="44.79031" lon="-0.45643">
        <ele>69</ele>
        <time>2011-12-23T15:07:56Z</time>
      </trkpt>
      <trkpt lat="44.79041" lon="-0.45635">
        <ele>69</ele>
        <time>2011-12-23T15:08:01Z</time>
      </trkpt>
      <trkpt lat="44.79052" lon="-0.45627">
        <ele>69</ele>
        <time>2011-12-23T15:08:06Z</time>
      </trkpt>
      <trkpt lat="44.7906" lon="-0.45621">
        <ele>69</ele>
        <time>2011-12-23T15:08:10Z</time>
      </trkpt>
      <trkpt lat="44.7907" lon="-0.45614">
        <ele>69</ele>
        <time>2011-12-23T15:08:15Z</time>
      </trkpt>
      <trkpt lat="44.79079" lon="-0.45608">
        <ele>69</ele>
        <time>2011-12-23T15:08:19Z</time>
      </trkpt>
      <trkpt lat="44.79087" lon="-0.45604">
        <ele>69</ele>
        <time>2011-12-23T15:08:23Z</time>
      </trkpt>
      <trkpt lat="44.79096" lon="-0.45597">
        <ele>69</ele>
        <time>2011-12-23T15:08:27Z</time>
      </trkpt>
      <trkpt lat="44.79105" lon="-0.45589">
        <ele>69</ele>
        <time>2011-12-23T15:08:31Z</time>
      </trkpt>
      <trkpt lat="44.79116" lon="-0.45581">
        <ele>69</ele>
        <time>2011-12-23T15:08:35Z</time>
      </trkpt>
      <trkpt lat="44.79124" lon="-0.45574">
        <ele>69</ele>
        <time>2011-12-23T15:08:38Z</time>
      </trkpt>
      <trkpt lat="44.79132" lon="-0.45568">
        <ele>69</ele>
        <time>2011-12-23T15:08:41Z</time>
      </trkpt>
      <trkpt lat="44.79141" lon="-0.45562">
        <ele>69</ele>
        <time>2011-12-23T15:08:44Z</time>
      </trkpt>
      <trkpt lat="44.7915" lon="-0.45555">
        <ele>69</ele>
        <time>2011-12-23T15:08:47Z</time>
      </trkpt>
      <trkpt lat="44.79161" lon="-0.45546">
        <ele>69</ele>
        <time>2011-12-23T15:08:51Z</time>
      </trkpt>
      <trkpt lat="44.79172" lon="-0.45539">
        <ele>69</ele>
        <time>2011-12-23T15:08:55Z</time>
      </trkpt>
      <trkpt lat="44.79181" lon="-0.45532">
        <ele>69</ele>
        <time>2011-12-23T15:08:59Z</time>
      </trkpt>
      <trkpt lat="44.79187" lon="-0.45521">
        <ele>69</ele>
        <time>2011-12-23T15:09:03Z</time>
      </trkpt>
      <trkpt lat="44.79184" lon="-0.45506">
        <ele>69</ele>
        <time>2011-12-23T15:09:07Z</time>
      </trkpt>
      <trkpt lat="44.7919" lon="-0.45493">
        <ele>69</ele>
        <time>2011-12-23T15:09:11Z</time>
      </trkpt>
      <trkpt lat="44.79198" lon="-0.45483">
        <ele>69</ele>
        <time>2011-12-23T15:09:14Z</time>
      </trkpt>
      <trkpt lat="44.79205" lon="-0.45474">
        <ele>70</ele>
        <time>2011-12-23T15:09:17Z</time>
      </trkpt>
      <trkpt lat="44.79212" lon="-0.45464">
        <ele>70</ele>
        <time>2011-12-23T15:09:21Z</time>
      </trkpt>
      <trkpt lat="44.79219" lon="-0.45453">
        <ele>70</ele>
        <time>2011-12-23T15:09:25Z</time>
      </trkpt>
      <trkpt lat="44.79226" lon="-0.45443">
        <ele>70</ele>
        <time>2011-12-23T15:09:28Z</time>
      </trkpt>
      <trkpt lat="44.79233" lon="-0.45434">
        <ele>70</ele>
        <time>2011-12-23T15:09:31Z</time>
      </trkpt>
      <trkpt lat="44.79241" lon="-0.45423">
        <ele>70</ele>
        <time>2011-12-23T15:09:34Z</time>
      </trkpt>
      <trkpt lat="44.7925" lon="-0.4542">
        <ele>70</ele>
        <time>2011-12-23T15:09:37Z</time>
      </trkpt>
      <trkpt lat="44.7926" lon="-0.45426">
        <ele>71</ele>
        <time>2011-12-23T15:09:40Z</time>
      </trkpt>
      <trkpt lat="44.79268" lon="-0.45432">
        <ele>71</ele>
        <time>2011-12-23T15:09:43Z</time>
      </trkpt>
      <trkpt lat="44.79278" lon="-0.4544">
        <ele>71</ele>
        <time>2011-12-23T15:09:47Z</time>
      </trkpt>
      <trkpt lat="44.79288" lon="-0.45448">
        <ele>71</ele>
        <time>2011-12-23T15:09:51Z</time>
      </trkpt>
      <trkpt lat="44.79297" lon="-0.45455">
        <ele>71</ele>
        <time>2011-12-23T15:09:55Z</time>
      </trkpt>
      <trkpt lat="44.79307" lon="-0.45461">
        <ele>72</ele>
        <time>2011-12-23T15:09:59Z</time>
      </trkpt>
      <trkpt lat="44.79316" lon="-0.45467">
        <ele>72</ele>
        <time>2011-12-23T15:10:03Z</time>
      </trkpt>
      <trkpt lat="44.79325" lon="-0.45472">
        <ele>72</ele>
        <time>2011-12-23T15:10:07Z</time>
      </trkpt>
      <trkpt lat="44.79335" lon="-0.45477">
        <ele>72</ele>
        <time>2011-12-23T15:10:12Z</time>
      </trkpt>
      <trkpt lat="44.79344" lon="-0.45482">
        <ele>72</ele>
        <time>2011-12-23T15:10:16Z</time>
      </trkpt>
      <trkpt lat="44.79355" lon="-0.45486">
        <ele>72</ele>
        <time>2011-12-23T15:10:20Z</time>
      </trkpt>
      <trkpt lat="44.79365" lon="-0.45493">
        <ele>71</ele>
        <time>2011-12-23T15:10:24Z</time>
      </trkpt>
      <trkpt lat="44.79373" lon="-0.45502">
        <ele>71</ele>
        <time>2011-12-23T15:10:27Z</time>
      </trkpt>
      <trkpt lat="44.79382" lon="-0.45509">
        <ele>70</ele>
        <time>2011-12-23T15:10:30Z</time>
      </trkpt>
      <trkpt lat="44.79391" lon="-0.45517">
        <ele>70</ele>
        <time>2011-12-23T15:10:33Z</time>
      </trkpt>
      <trkpt lat="44.794" lon="-0.45524">
        <ele>69</ele>
        <time>2011-12-23T15:10:36Z</time>
      </trkpt>
      <trkpt lat="44.79408" lon="-0.45531">
        <ele>69</ele>
        <time>2011-12-23T15:10:39Z</time>
      </trkpt>
      <trkpt lat="44.79416" lon="-0.45538">
        <ele>68</ele>
        <time>2011-12-23T15:10:43Z</time>
      </trkpt>
      <trkpt lat="44.79425" lon="-0.45547">
        <ele>68</ele>
        <time>2011-12-23T15:10:48Z</time>
      </trkpt>
      <trkpt lat="44.79437" lon="-0.45548">
        <ele>67</ele>
        <time>2011-12-23T15:10:53Z</time>
      </trkpt>
      <trkpt lat="44.7945" lon="-0.45545">
        <ele>66</ele>
        <time>2011-12-23T15:10:56Z</time>
      </trkpt>
      <trkpt lat="44.7946" lon="-0.4554">
        <ele>66</ele>
        <time>2011-12-23T15:10:58Z</time>
      </trkpt>
      <trkpt lat="44.79471" lon="-0.45532">
        <ele>65</ele>
        <time>2011-12-23T15:11:00Z</time>
      </trkpt>
      <trkpt lat="44.7948" lon="-0.4552">
        <ele>64</ele>
        <time>2011-12-23T15:11:02Z</time>
      </trkpt>
      <trkpt lat="44.79488" lon="-0.45509">
        <ele>63</ele>
        <time>2011-12-23T15:11:04Z</time>
      </trkpt>
      <trkpt lat="44.79496" lon="-0.45496">
        <ele>63</ele>
        <time>2011-12-23T15:11:06Z</time>
      </trkpt>
      <trkpt lat="44.79505" lon="-0.45483">
        <ele>63</ele>
        <time>2011-12-23T15:11:08Z</time>
      </trkpt>
      <trkpt lat="44.79514" lon="-0.45471">
        <ele>62</ele>
        <time>2011-12-23T15:11:10Z</time>
      </trkpt>
      <trkpt lat="44.79525" lon="-0.4546">
        <ele>61</ele>
        <time>2011-12-23T15:11:12Z</time>
      </trkpt>
      <trkpt lat="44.79536" lon="-0.45451">
        <ele>61</ele>
        <time>2011-12-23T15:11:14Z</time>
      </trkpt>
      <trkpt lat="44.79546" lon="-0.45445">
        <ele>60</ele>
        <time>2011-12-23T15:11:16Z</time>
      </trkpt>
      <trkpt lat="44.79556" lon="-0.45441">
        <ele>60</ele>
        <time>2011-12-23T15:11:18Z</time>
      </trkpt>
      <trkpt lat="44.79565" lon="-0.4544">
        <ele>59</ele>
        <time>2011-12-23T15:11:21Z</time>
      </trkpt>
      <trkpt lat="44.79576" lon="-0.45446">
        <ele>59</ele>
        <time>2011-12-23T15:11:24Z</time>
      </trkpt>
      <trkpt lat="44.79585" lon="-0.45457">
        <ele>59</ele>
        <time>2011-12-23T15:11:27Z</time>
      </trkpt>
      <trkpt lat="44.79595" lon="-0.45468">
        <ele>59</ele>
        <time>2011-12-23T15:11:30Z</time>
      </trkpt>
      <trkpt lat="44.79607" lon="-0.45476">
        <ele>59</ele>
        <time>2011-12-23T15:11:33Z</time>
      </trkpt>
      <trkpt lat="44.79622" lon="-0.45479">
        <ele>58</ele>
        <time>2011-12-23T15:11:36Z</time>
      </trkpt>
      <trkpt lat="44.79632" lon="-0.45478">
        <ele>57</ele>
        <time>2011-12-23T15:11:38Z</time>
      </trkpt>
      <trkpt lat="44.79642" lon="-0.45477">
        <ele>56</ele>
        <time>2011-12-23T15:11:40Z</time>
      </trkpt>
      <trkpt lat="44.79653" lon="-0.45476">
        <ele>55</ele>
        <time>2011-12-23T15:11:42Z</time>
      </trkpt>
      <trkpt lat="44.79664" lon="-0.45475">
        <ele>55</ele>
        <time>2011-12-23T15:11:44Z</time>
      </trkpt>
      <trkpt lat="44.79674" lon="-0.45473">
        <ele>54</ele>
        <time>2011-12-23T15:11:46Z</time>
      </trkpt>
      <trkpt lat="44.79684" lon="-0.45471">
        <ele>53</ele>
        <time>2011-12-23T15:11:48Z</time>
      </trkpt>
      <trkpt lat="44.79695" lon="-0.4547">
        <ele>52</ele>
        <time>2011-12-23T15:11:51Z</time>
      </trkpt>
      <trkpt lat="44.79705" lon="-0.45468">
        <ele>51</ele>
        <time>2011-12-23T15:11:56Z</time>
      </trkpt>
      <trkpt lat="44.7971" lon="-0.4548">
        <ele>50</ele>
        <time>2011-12-23T15:12:06Z</time>
      </trkpt>
      <trkpt lat="44.79707" lon="-0.45493">
        <ele>50</ele>
        <time>2011-12-23T15:12:16Z</time>
      </trkpt>
      <trkpt lat="44.79706" lon="-0.4551">
        <ele>50</ele>
        <time>2011-12-23T15:12:36Z</time>
      </trkpt>
      <trkpt lat="44.79706" lon="-0.45523">
        <ele>49</ele>
        <time>2011-12-23T15:12:43Z</time>
      </trkpt>
      <trkpt lat="44.79706" lon="-0.45537">
        <ele>49</ele>
        <time>2011-12-23T15:12:52Z</time>
      </trkpt>
      <trkpt lat="44.79707" lon="-0.4555">
        <ele>48</ele>
        <time>2011-12-23T15:12:59Z</time>
      </trkpt>
      <trkpt lat="44.79709" lon="-0.45564">
        <ele>47</ele>
        <time>2011-12-23T15:13:08Z</time>
      </trkpt>
      <trkpt lat="44.79709" lon="-0.45578">
        <ele>46</ele>
        <time>2011-12-23T15:13:21Z</time>
      </trkpt>
      <trkpt lat="44.79717" lon="-0.45587">
        <ele>45</ele>
        <time>2011-12-23T15:13:38Z</time>
      </trkpt>
      <trkpt lat="44.79726" lon="-0.45587">
        <ele>44</ele>
        <time>2011-12-23T15:13:50Z</time>
      </trkpt>
      <trkpt lat="44.79738" lon="-0.45586">
        <ele>42</ele>
        <time>2011-12-23T15:13:57Z</time>
      </trkpt>
      <trkpt lat="44.79748" lon="-0.45586">
        <ele>40</ele>
        <time>2011-12-23T15:14:02Z</time>
      </trkpt>
      <trkpt lat="44.79757" lon="-0.4559">
        <ele>39</ele>
        <time>2011-12-23T15:14:09Z</time>
      </trkpt>
      <trkpt lat="44.79767" lon="-0.4559">
        <ele>37</ele>
        <time>2011-12-23T15:14:17Z</time>
      </trkpt>
      <trkpt lat="44.79776" lon="-0.45588">
        <ele>35</ele>
        <time>2011-12-23T15:14:28Z</time>
      </trkpt>
      <trkpt lat="44.79786" lon="-0.45589">
        <ele>33</ele>
        <time>2011-12-23T15:14:35Z</time>
      </trkpt>
      <trkpt lat="44.79796" lon="-0.45592">
        <ele>30</ele>
        <time>2011-12-23T15:14:42Z</time>
      </trkpt>
      <trkpt lat="44.79806" lon="-0.45598">
        <ele>28</ele>
        <time>2011-12-23T15:14:48Z</time>
      </trkpt>
      <trkpt lat="44.79815" lon="-0.45594">
        <ele>27</ele>
        <time>2011-12-23T15:14:56Z</time>
      </trkpt>
      <trkpt lat="44.79825" lon="-0.45596">
        <ele>25</ele>
        <time>2011-12-23T15:15:04Z</time>
      </trkpt>
      <trkpt lat="44.79835" lon="-0.45598">
        <ele>23</ele>
        <time>2011-12-23T15:15:12Z</time>
      </trkpt>
      <trkpt lat="44.79842" lon="-0.45606">
        <ele>21</ele>
        <time>2011-12-23T15:15:27Z</time>
      </trkpt>
      <trkpt lat="44.79855" lon="-0.45577">
        <ele>22</ele>
        <time>2011-12-23T15:16:46Z</time>
      </trkpt>
      <trkpt lat="44.79901" lon="-0.45545">
        <ele>22</ele>
        <time>2011-12-23T15:16:49Z</time>
      </trkpt>
      <trkpt lat="44.79959" lon="-0.45542">
        <ele>18</ele>
        <time>2011-12-23T15:20:37Z</time>
      </trkpt>
      <trkpt lat="44.79992" lon="-0.45426">
        <ele>20</ele>
        <time>2011-12-23T15:20:43Z</time>
      </trkpt>
      <trkpt lat="44.80093" lon="-0.45223">
        <ele>19</ele>
        <time>2011-12-23T15:20:48Z</time>
      </trkpt>
      <trkpt lat="44.80129" lon="-0.45168">
        <ele>19</ele>
        <time>2011-12-23T15:20:51Z</time>
      </trkpt>
      <trkpt lat="44.8019" lon="-0.45047">
        <ele>22</ele>
        <time>2011-12-23T15:20:55Z</time>
      </trkpt>
      <trkpt lat="44.80217" lon="-0.44884">
        <ele>23</ele>
        <time>2011-12-23T15:20:59Z</time>
      </trkpt>
      <trkpt lat="44.80223" lon="-0.44626">
        <ele>19</ele>
        <time>2011-12-23T15:21:03Z</time>
      </trkpt>
      <trkpt lat="44.8024" lon="-0.44314">
        <ele>22</ele>
        <time>2011-12-23T15:21:07Z</time>
      </trkpt>
      <trkpt lat="44.80251" lon="-0.44143">
        <ele>24</ele>
        <time>2011-12-23T15:21:10Z</time>
      </trkpt>
      <trkpt lat="44.80303" lon="-0.44143">
        <ele>22</ele>
        <time>2011-12-23T15:21:17Z</time>
      </trkpt>
      <trkpt lat="44.80425" lon="-0.44124">
        <ele>20</ele>
        <time>2011-12-23T15:21:22Z</time>
      </trkpt>
      <trkpt lat="44.80496" lon="-0.44089">
        <ele>21</ele>
        <time>2011-12-23T15:21:27Z</time>
      </trkpt>
      <trkpt lat="44.80508" lon="-0.44144">
        <ele>24</ele>
        <time>2011-12-23T15:46:27Z</time>
      </trkpt>
      <trkpt lat="44.80513" lon="-0.44158">
        <ele>26</ele>
        <time>2011-12-23T15:46:36Z</time>
      </trkpt>
      <trkpt lat="44.80518" lon="-0.44168">
        <ele>27</ele>
        <time>2011-12-23T15:46:42Z</time>
      </trkpt>
      <trkpt lat="44.80526" lon="-0.44177">
        <ele>28</ele>
        <time>2011-12-23T15:46:48Z</time>
      </trkpt>
      <trkpt lat="44.80535" lon="-0.44184">
        <ele>29</ele>
        <time>2011-12-23T15:46:54Z</time>
      </trkpt>
      <trkpt lat="44.80545" lon="-0.44185">
        <ele>30</ele>
        <time>2011-12-23T15:47:00Z</time>
      </trkpt>
      <trkpt lat="44.80555" lon="-0.44185">
        <ele>31</ele>
        <time>2011-12-23T15:47:06Z</time>
      </trkpt>
      <trkpt lat="44.80564" lon="-0.44181">
        <ele>32</ele>
        <time>2011-12-23T15:47:12Z</time>
      </trkpt>
      <trkpt lat="44.80574" lon="-0.44176">
        <ele>32</ele>
        <time>2011-12-23T15:47:18Z</time>
      </trkpt>
      <trkpt lat="44.80582" lon="-0.44169">
        <ele>32</ele>
        <time>2011-12-23T15:47:23Z</time>
      </trkpt>
      <trkpt lat="44.80591" lon="-0.4416">
        <ele>32</ele>
        <time>2011-12-23T15:47:29Z</time>
      </trkpt>
      <trkpt lat="44.80599" lon="-0.44151">
        <ele>32</ele>
        <time>2011-12-23T15:47:36Z</time>
      </trkpt>
      <trkpt lat="44.80607" lon="-0.44142">
        <ele>32</ele>
        <time>2011-12-23T15:47:43Z</time>
      </trkpt>
      <trkpt lat="44.80615" lon="-0.44133">
        <ele>33</ele>
        <time>2011-12-23T15:47:50Z</time>
      </trkpt>
      <trkpt lat="44.80623" lon="-0.44124">
        <ele>33</ele>
        <time>2011-12-23T15:47:57Z</time>
      </trkpt>
      <trkpt lat="44.80631" lon="-0.44115">
        <ele>33</ele>
        <time>2011-12-23T15:48:04Z</time>
      </trkpt>
      <trkpt lat="44.8064" lon="-0.4411">
        <ele>34</ele>
        <time>2011-12-23T15:48:11Z</time>
      </trkpt>
      <trkpt lat="44.8065" lon="-0.44111">
        <ele>36</ele>
        <time>2011-12-23T15:48:20Z</time>
      </trkpt>
      <trkpt lat="44.80659" lon="-0.44117">
        <ele>38</ele>
        <time>2011-12-23T15:48:27Z</time>
      </trkpt>
      <trkpt lat="44.80664" lon="-0.4413">
        <ele>39</ele>
        <time>2011-12-23T15:48:34Z</time>
      </trkpt>
      <trkpt lat="44.80668" lon="-0.44143">
        <ele>40</ele>
        <time>2011-12-23T15:48:41Z</time>
      </trkpt>
      <trkpt lat="44.80669" lon="-0.44157">
        <ele>41</ele>
        <time>2011-12-23T15:48:47Z</time>
      </trkpt>
      <trkpt lat="44.80666" lon="-0.44169">
        <ele>42</ele>
        <time>2011-12-23T15:48:54Z</time>
      </trkpt>
      <trkpt lat="44.80662" lon="-0.44181">
        <ele>42</ele>
        <time>2011-12-23T15:49:00Z</time>
      </trkpt>
      <trkpt lat="44.80656" lon="-0.44194">
        <ele>43</ele>
        <time>2011-12-23T15:49:07Z</time>
      </trkpt>
      <trkpt lat="44.80648" lon="-0.44203">
        <ele>43</ele>
        <time>2011-12-23T15:49:15Z</time>
      </trkpt>
      <trkpt lat="44.8064" lon="-0.44212">
        <ele>43</ele>
        <time>2011-12-23T15:49:23Z</time>
      </trkpt>
      <trkpt lat="44.80631" lon="-0.4422">
        <ele>43</ele>
        <time>2011-12-23T15:49:30Z</time>
      </trkpt>
      <trkpt lat="44.80625" lon="-0.44231">
        <ele>43</ele>
        <time>2011-12-23T15:49:37Z</time>
      </trkpt>
      <trkpt lat="44.8062" lon="-0.44243">
        <ele>44</ele>
        <time>2011-12-23T15:49:43Z</time>
      </trkpt>
      <trkpt lat="44.80622" lon="-0.44256">
        <ele>45</ele>
        <time>2011-12-23T15:49:49Z</time>
      </trkpt>
      <trkpt lat="44.80628" lon="-0.44269">
        <ele>46</ele>
        <time>2011-12-23T15:49:56Z</time>
      </trkpt>
      <trkpt lat="44.80636" lon="-0.44277">
        <ele>47</ele>
        <time>2011-12-23T15:50:02Z</time>
      </trkpt>
      <trkpt lat="44.80644" lon="-0.44286">
        <ele>48</ele>
        <time>2011-12-23T15:50:07Z</time>
      </trkpt>
      <trkpt lat="44.80653" lon="-0.44294">
        <ele>50</ele>
        <time>2011-12-23T15:50:12Z</time>
      </trkpt>
      <trkpt lat="44.8066" lon="-0.44303">
        <ele>51</ele>
        <time>2011-12-23T15:50:18Z</time>
      </trkpt>
      <trkpt lat="44.80669" lon="-0.4431">
        <ele>52</ele>
        <time>2011-12-23T15:50:23Z</time>
      </trkpt>
      <trkpt lat="44.80676" lon="-0.4432">
        <ele>53</ele>
        <time>2011-12-23T15:50:29Z</time>
      </trkpt>
      <trkpt lat="44.80685" lon="-0.44329">
        <ele>54</ele>
        <time>2011-12-23T15:50:35Z</time>
      </trkpt>
      <trkpt lat="44.80693" lon="-0.44336">
        <ele>54</ele>
        <time>2011-12-23T15:50:41Z</time>
      </trkpt>
      <trkpt lat="44.80701" lon="-0.44346">
        <ele>55</ele>
        <time>2011-12-23T15:50:48Z</time>
      </trkpt>
      <trkpt lat="44.80709" lon="-0.44355">
        <ele>55</ele>
        <time>2011-12-23T15:50:55Z</time>
      </trkpt>
      <trkpt lat="44.80717" lon="-0.44364">
        <ele>56</ele>
        <time>2011-12-23T15:51:01Z</time>
      </trkpt>
      <trkpt lat="44.80725" lon="-0.44373">
        <ele>55</ele>
        <time>2011-12-23T15:51:07Z</time>
      </trkpt>
      <trkpt lat="44.80734" lon="-0.44383">
        <ele>55</ele>
        <time>2011-12-23T15:51:14Z</time>
      </trkpt>
      <trkpt lat="44.80742" lon="-0.44391">
        <ele>55</ele>
        <time>2011-12-23T15:51:21Z</time>
      </trkpt>
      <trkpt lat="44.80752" lon="-0.44397">
        <ele>55</ele>
        <time>2011-12-23T15:51:27Z</time>
      </trkpt>
      <trkpt lat="44.80761" lon="-0.44401">
        <ele>55</ele>
        <time>2011-12-23T15:51:32Z</time>
      </trkpt>
      <trkpt lat="44.80771" lon="-0.44402">
        <ele>56</ele>
        <time>2011-12-23T15:51:37Z</time>
      </trkpt>
      <trkpt lat="44.80781" lon="-0.44402">
        <ele>57</ele>
        <time>2011-12-23T15:51:42Z</time>
      </trkpt>
      <trkpt lat="44.80791" lon="-0.444">
        <ele>58</ele>
        <time>2011-12-23T15:51:47Z</time>
      </trkpt>
      <trkpt lat="44.80801" lon="-0.44398">
        <ele>58</ele>
        <time>2011-12-23T15:51:52Z</time>
      </trkpt>
      <trkpt lat="44.80811" lon="-0.44397">
        <ele>59</ele>
        <time>2011-12-23T15:51:57Z</time>
      </trkpt>
      <trkpt lat="44.8082" lon="-0.44395">
        <ele>60</ele>
        <time>2011-12-23T15:52:02Z</time>
      </trkpt>
      <trkpt lat="44.8083" lon="-0.44394">
        <ele>61</ele>
        <time>2011-12-23T15:52:07Z</time>
      </trkpt>
      <trkpt lat="44.8084" lon="-0.44392">
        <ele>61</ele>
        <time>2011-12-23T15:52:12Z</time>
      </trkpt>
      <trkpt lat="44.80851" lon="-0.44389">
        <ele>62</ele>
        <time>2011-12-23T15:52:18Z</time>
      </trkpt>
      <trkpt lat="44.80862" lon="-0.44387">
        <ele>62</ele>
        <time>2011-12-23T15:52:24Z</time>
      </trkpt>
      <trkpt lat="44.80871" lon="-0.44386">
        <ele>63</ele>
        <time>2011-12-23T15:52:29Z</time>
      </trkpt>
      <trkpt lat="44.80881" lon="-0.44383">
        <ele>63</ele>
        <time>2011-12-23T15:52:34Z</time>
      </trkpt>
      <trkpt lat="44.80891" lon="-0.44381">
        <ele>64</ele>
        <time>2011-12-23T15:52:39Z</time>
      </trkpt>
      <trkpt lat="44.80901" lon="-0.44379">
        <ele>64</ele>
        <time>2011-12-23T15:52:44Z</time>
      </trkpt>
      <trkpt lat="44.80912" lon="-0.44377">
        <ele>65</ele>
        <time>2011-12-23T15:52:50Z</time>
      </trkpt>
      <trkpt lat="44.80923" lon="-0.44375">
        <ele>66</ele>
        <time>2011-12-23T15:52:56Z</time>
      </trkpt>
      <trkpt lat="44.80934" lon="-0.44373">
        <ele>66</ele>
        <time>2011-12-23T15:53:02Z</time>
      </trkpt>
      <trkpt lat="44.80945" lon="-0.44371">
        <ele>67</ele>
        <time>2011-12-23T15:53:07Z</time>
      </trkpt>
      <trkpt lat="44.80954" lon="-0.4437">
        <ele>68</ele>
        <time>2011-12-23T15:53:12Z</time>
      </trkpt>
      <trkpt lat="44.80964" lon="-0.4437">
        <ele>68</ele>
        <time>2011-12-23T15:53:16Z</time>
      </trkpt>
      <trkpt lat="44.80974" lon="-0.44371">
        <ele>69</ele>
        <time>2011-12-23T15:53:20Z</time>
      </trkpt>
      <trkpt lat="44.80983" lon="-0.44375">
        <ele>70</ele>
        <time>2011-12-23T15:53:24Z</time>
      </trkpt>
      <trkpt lat="44.80993" lon="-0.44379">
        <ele>70</ele>
        <time>2011-12-23T15:53:28Z</time>
      </trkpt>
      <trkpt lat="44.81002" lon="-0.44383">
        <ele>71</ele>
        <time>2011-12-23T15:53:32Z</time>
      </trkpt>
      <trkpt lat="44.81011" lon="-0.44389">
        <ele>71</ele>
        <time>2011-12-23T15:53:36Z</time>
      </trkpt>
      <trkpt lat="44.8102" lon="-0.44395">
        <ele>71</ele>
        <time>2011-12-23T15:53:41Z</time>
      </trkpt>
      <trkpt lat="44.81031" lon="-0.44401">
        <ele>71</ele>
        <time>2011-12-23T15:53:47Z</time>
      </trkpt>
      <trkpt lat="44.8104" lon="-0.44407">
        <ele>72</ele>
        <time>2011-12-23T15:53:53Z</time>
      </trkpt>
      <trkpt lat="44.8105" lon="-0.44413">
        <ele>72</ele>
        <time>2011-12-23T15:53:59Z</time>
      </trkpt>
      <trkpt lat="44.81059" lon="-0.44418">
        <ele>72</ele>
        <time>2011-12-23T15:54:06Z</time>
      </trkpt>
      <trkpt lat="44.81069" lon="-0.44424">
        <ele>73</ele>
        <time>2011-12-23T15:54:13Z</time>
      </trkpt>
      <trkpt lat="44.81078" lon="-0.44431">
        <ele>73</ele>
        <time>2011-12-23T15:54:19Z</time>
      </trkpt>
      <trkpt lat="44.81086" lon="-0.44437">
        <ele>74</ele>
        <time>2011-12-23T15:54:25Z</time>
      </trkpt>
      <trkpt lat="44.81095" lon="-0.44446">
        <ele>74</ele>
        <time>2011-12-23T15:54:32Z</time>
      </trkpt>
      <trkpt lat="44.81103" lon="-0.44457">
        <ele>74</ele>
        <time>2011-12-23T15:54:38Z</time>
      </trkpt>
      <trkpt lat="44.81109" lon="-0.44467">
        <ele>75</ele>
        <time>2011-12-23T15:54:43Z</time>
      </trkpt>
      <trkpt lat="44.81116" lon="-0.44478">
        <ele>75</ele>
        <time>2011-12-23T15:54:49Z</time>
      </trkpt>
      <trkpt lat="44.81123" lon="-0.44489">
        <ele>76</ele>
        <time>2011-12-23T15:54:55Z</time>
      </trkpt>
      <trkpt lat="44.81128" lon="-0.445">
        <ele>76</ele>
        <time>2011-12-23T15:55:00Z</time>
      </trkpt>
      <trkpt lat="44.81135" lon="-0.4451">
        <ele>77</ele>
        <time>2011-12-23T15:55:05Z</time>
      </trkpt>
      <trkpt lat="44.81141" lon="-0.44521">
        <ele>77</ele>
        <time>2011-12-23T15:55:10Z</time>
      </trkpt>
      <trkpt lat="44.81147" lon="-0.4453">
        <ele>78</ele>
        <time>2011-12-23T15:55:15Z</time>
      </trkpt>
      <trkpt lat="44.81155" lon="-0.44541">
        <ele>78</ele>
        <time>2011-12-23T15:55:21Z</time>
      </trkpt>
      <trkpt lat="44.81163" lon="-0.4455">
        <ele>79</ele>
        <time>2011-12-23T15:55:27Z</time>
      </trkpt>
      <trkpt lat="44.81171" lon="-0.44559">
        <ele>79</ele>
        <time>2011-12-23T15:55:33Z</time>
      </trkpt>
      <trkpt lat="44.81181" lon="-0.44567">
        <ele>80</ele>
        <time>2011-12-23T15:55:40Z</time>
      </trkpt>
      <trkpt lat="44.8119" lon="-0.44573">
        <ele>80</ele>
        <time>2011-12-23T15:55:47Z</time>
      </trkpt>
      <trkpt lat="44.81199" lon="-0.44578">
        <ele>80</ele>
        <time>2011-12-23T15:55:53Z</time>
      </trkpt>
      <trkpt lat="44.8121" lon="-0.44584">
        <ele>80</ele>
        <time>2011-12-23T15:55:58Z</time>
      </trkpt>
      <trkpt lat="44.8122" lon="-0.44591">
        <ele>80</ele>
        <time>2011-12-23T15:56:03Z</time>
      </trkpt>
      <trkpt lat="44.81228" lon="-0.44597">
        <ele>80</ele>
        <time>2011-12-23T15:56:06Z</time>
      </trkpt>
      <trkpt lat="44.81238" lon="-0.44603">
        <ele>80</ele>
        <time>2011-12-23T15:56:10Z</time>
      </trkpt>
      <trkpt lat="44.81247" lon="-0.44612">
        <ele>80</ele>
        <time>2011-12-23T15:56:15Z</time>
      </trkpt>
      <trkpt lat="44.81256" lon="-0.44619">
        <ele>80</ele>
        <time>2011-12-23T15:56:21Z</time>
      </trkpt>
      <trkpt lat="44.81264" lon="-0.44628">
        <ele>80</ele>
        <time>2011-12-23T15:56:25Z</time>
      </trkpt>
      <trkpt lat="44.81273" lon="-0.44639">
        <ele>80</ele>
        <time>2011-12-23T15:56:30Z</time>
      </trkpt>
      <trkpt lat="44.81281" lon="-0.44646">
        <ele>80</ele>
        <time>2011-12-23T15:56:34Z</time>
      </trkpt>
      <trkpt lat="44.81291" lon="-0.44653">
        <ele>80</ele>
        <time>2011-12-23T15:56:38Z</time>
      </trkpt>
      <trkpt lat="44.81302" lon="-0.44655">
        <ele>81</ele>
        <time>2011-12-23T15:56:42Z</time>
      </trkpt>
      <trkpt lat="44.81314" lon="-0.44654">
        <ele>81</ele>
        <time>2011-12-23T15:56:46Z</time>
      </trkpt>
      <trkpt lat="44.81325" lon="-0.44653">
        <ele>81</ele>
        <time>2011-12-23T15:56:50Z</time>
      </trkpt>
      <trkpt lat="44.81336" lon="-0.44652">
        <ele>81</ele>
        <time>2011-12-23T15:56:53Z</time>
      </trkpt>
      <trkpt lat="44.81346" lon="-0.44651">
        <ele>81</ele>
        <time>2011-12-23T15:56:56Z</time>
      </trkpt>
      <trkpt lat="44.81357" lon="-0.44654">
        <ele>81</ele>
        <time>2011-12-23T15:56:59Z</time>
      </trkpt>
      <trkpt lat="44.81368" lon="-0.44662">
        <ele>81</ele>
        <time>2011-12-23T15:57:02Z</time>
      </trkpt>
      <trkpt lat="44.81375" lon="-0.44671">
        <ele>81</ele>
        <time>2011-12-23T15:57:05Z</time>
      </trkpt>
      <trkpt lat="44.81382" lon="-0.44684">
        <ele>81</ele>
        <time>2011-12-23T15:57:09Z</time>
      </trkpt>
      <trkpt lat="44.81389" lon="-0.44698">
        <ele>81</ele>
        <time>2011-12-23T15:57:13Z</time>
      </trkpt>
      <trkpt lat="44.81394" lon="-0.44709">
        <ele>81</ele>
        <time>2011-12-23T15:57:16Z</time>
      </trkpt>
      <trkpt lat="44.814" lon="-0.44722">
        <ele>81</ele>
        <time>2011-12-23T15:57:19Z</time>
      </trkpt>
      <trkpt lat="44.81407" lon="-0.44734">
        <ele>81</ele>
        <time>2011-12-23T15:57:22Z</time>
      </trkpt>
      <trkpt lat="44.81415" lon="-0.44747">
        <ele>81</ele>
        <time>2011-12-23T15:57:25Z</time>
      </trkpt>
      <trkpt lat="44.81424" lon="-0.44759">
        <ele>81</ele>
        <time>2011-12-23T15:57:28Z</time>
      </trkpt>
      <trkpt lat="44.81434" lon="-0.44768">
        <ele>81</ele>
        <time>2011-12-23T15:57:31Z</time>
      </trkpt>
      <trkpt lat="44.81446" lon="-0.44775">
        <ele>81</ele>
        <time>2011-12-23T15:57:34Z</time>
      </trkpt>
      <trkpt lat="44.81457" lon="-0.44778">
        <ele>81</ele>
        <time>2011-12-23T15:57:37Z</time>
      </trkpt>
      <trkpt lat="44.81469" lon="-0.4478">
        <ele>80</ele>
        <time>2011-12-23T15:57:40Z</time>
      </trkpt>
      <trkpt lat="44.81482" lon="-0.44781">
        <ele>80</ele>
        <time>2011-12-23T15:57:43Z</time>
      </trkpt>
      <trkpt lat="44.81495" lon="-0.44782">
        <ele>80</ele>
        <time>2011-12-23T15:57:46Z</time>
      </trkpt>
      <trkpt lat="44.81507" lon="-0.44782">
        <ele>80</ele>
        <time>2011-12-23T15:57:49Z</time>
      </trkpt>
      <trkpt lat="44.81519" lon="-0.44783">
        <ele>80</ele>
        <time>2011-12-23T15:57:52Z</time>
      </trkpt>
      <trkpt lat="44.8153" lon="-0.44783">
        <ele>80</ele>
        <time>2011-12-23T15:57:55Z</time>
      </trkpt>
      <trkpt lat="44.8154" lon="-0.44784">
        <ele>80</ele>
        <time>2011-12-23T15:57:58Z</time>
      </trkpt>
      <trkpt lat="44.81552" lon="-0.44784">
        <ele>80</ele>
        <time>2011-12-23T15:58:01Z</time>
      </trkpt>
      <trkpt lat="44.81563" lon="-0.44784">
        <ele>79</ele>
        <time>2011-12-23T15:58:04Z</time>
      </trkpt>
      <trkpt lat="44.81574" lon="-0.44782">
        <ele>79</ele>
        <time>2011-12-23T15:58:07Z</time>
      </trkpt>
      <trkpt lat="44.81586" lon="-0.44781">
        <ele>79</ele>
        <time>2011-12-23T15:58:10Z</time>
      </trkpt>
      <trkpt lat="44.81596" lon="-0.4478">
        <ele>79</ele>
        <time>2011-12-23T15:58:13Z</time>
      </trkpt>
      <trkpt lat="44.81607" lon="-0.44779">
        <ele>79</ele>
        <time>2011-12-23T15:58:16Z</time>
      </trkpt>
      <trkpt lat="44.81618" lon="-0.4478">
        <ele>79</ele>
        <time>2011-12-23T15:58:19Z</time>
      </trkpt>
      <trkpt lat="44.81629" lon="-0.44782">
        <ele>79</ele>
        <time>2011-12-23T15:58:22Z</time>
      </trkpt>
      <trkpt lat="44.8164" lon="-0.44782">
        <ele>79</ele>
        <time>2011-12-23T15:58:25Z</time>
      </trkpt>
      <trkpt lat="44.81651" lon="-0.44782">
        <ele>80</ele>
        <time>2011-12-23T15:58:28Z</time>
      </trkpt>
      <trkpt lat="44.81662" lon="-0.44779">
        <ele>80</ele>
        <time>2011-12-23T15:58:31Z</time>
      </trkpt>
      <trkpt lat="44.81673" lon="-0.44776">
        <ele>80</ele>
        <time>2011-12-23T15:58:34Z</time>
      </trkpt>
      <trkpt lat="44.81683" lon="-0.44772">
        <ele>80</ele>
        <time>2011-12-23T15:58:37Z</time>
      </trkpt>
      <trkpt lat="44.81692" lon="-0.44768">
        <ele>81</ele>
        <time>2011-12-23T15:58:40Z</time>
      </trkpt>
      <trkpt lat="44.81701" lon="-0.44764">
        <ele>81</ele>
        <time>2011-12-23T15:58:43Z</time>
      </trkpt>
      <trkpt lat="44.81713" lon="-0.4476">
        <ele>81</ele>
        <time>2011-12-23T15:58:47Z</time>
      </trkpt>
      <trkpt lat="44.81724" lon="-0.44756">
        <ele>81</ele>
        <time>2011-12-23T15:58:51Z</time>
      </trkpt>
      <trkpt lat="44.81735" lon="-0.44754">
        <ele>81</ele>
        <time>2011-12-23T15:58:54Z</time>
      </trkpt>
      <trkpt lat="44.81744" lon="-0.44752">
        <ele>82</ele>
        <time>2011-12-23T15:58:57Z</time>
      </trkpt>
      <trkpt lat="44.81755" lon="-0.44751">
        <ele>82</ele>
        <time>2011-12-23T15:59:00Z</time>
      </trkpt>
      <trkpt lat="44.81766" lon="-0.44749">
        <ele>82</ele>
        <time>2011-12-23T15:59:03Z</time>
      </trkpt>
      <trkpt lat="44.81777" lon="-0.44747">
        <ele>83</ele>
        <time>2011-12-23T15:59:06Z</time>
      </trkpt>
      <trkpt lat="44.81787" lon="-0.44744">
        <ele>83</ele>
        <time>2011-12-23T15:59:09Z</time>
      </trkpt>
      <trkpt lat="44.81797" lon="-0.44742">
        <ele>84</ele>
        <time>2011-12-23T15:59:12Z</time>
      </trkpt>
      <trkpt lat="44.81808" lon="-0.44737">
        <ele>84</ele>
        <time>2011-12-23T15:59:16Z</time>
      </trkpt>
      <trkpt lat="44.81817" lon="-0.44733">
        <ele>84</ele>
        <time>2011-12-23T15:59:19Z</time>
      </trkpt>
      <trkpt lat="44.81825" lon="-0.44727">
        <ele>84</ele>
        <time>2011-12-23T15:59:22Z</time>
      </trkpt>
      <trkpt lat="44.81834" lon="-0.44715">
        <ele>85</ele>
        <time>2011-12-23T15:59:26Z</time>
      </trkpt>
      <trkpt lat="44.81841" lon="-0.44701">
        <ele>85</ele>
        <time>2011-12-23T15:59:30Z</time>
      </trkpt>
      <trkpt lat="44.81846" lon="-0.44689">
        <ele>85</ele>
        <time>2011-12-23T15:59:33Z</time>
      </trkpt>
      <trkpt lat="44.81852" lon="-0.44677">
        <ele>85</ele>
        <time>2011-12-23T15:59:36Z</time>
      </trkpt>
      <trkpt lat="44.81857" lon="-0.44665">
        <ele>85</ele>
        <time>2011-12-23T15:59:39Z</time>
      </trkpt>
      <trkpt lat="44.81863" lon="-0.44653">
        <ele>85</ele>
        <time>2011-12-23T15:59:42Z</time>
      </trkpt>
      <trkpt lat="44.81869" lon="-0.44641">
        <ele>85</ele>
        <time>2011-12-23T15:59:45Z</time>
      </trkpt>
      <trkpt lat="44.81875" lon="-0.44629">
        <ele>85</ele>
        <time>2011-12-23T15:59:48Z</time>
      </trkpt>
      <trkpt lat="44.81881" lon="-0.44618">
        <ele>85</ele>
        <time>2011-12-23T15:59:51Z</time>
      </trkpt>
      <trkpt lat="44.81888" lon="-0.44607">
        <ele>85</ele>
        <time>2011-12-23T15:59:54Z</time>
      </trkpt>
      <trkpt lat="44.81895" lon="-0.44598">
        <ele>85</ele>
        <time>2011-12-23T15:59:57Z</time>
      </trkpt>
      <trkpt lat="44.81903" lon="-0.44587">
        <ele>85</ele>
        <time>2011-12-23T16:00:01Z</time>
      </trkpt>
      <trkpt lat="44.81911" lon="-0.44579">
        <ele>85</ele>
        <time>2011-12-23T16:00:05Z</time>
      </trkpt>
      <trkpt lat="44.81919" lon="-0.44569">
        <ele>85</ele>
        <time>2011-12-23T16:00:09Z</time>
      </trkpt>
      <trkpt lat="44.81928" lon="-0.4456">
        <ele>85</ele>
        <time>2011-12-23T16:00:13Z</time>
      </trkpt>
      <trkpt lat="44.81937" lon="-0.44551">
        <ele>86</ele>
        <time>2011-12-23T16:00:18Z</time>
      </trkpt>
      <trkpt lat="44.81945" lon="-0.4454">
        <ele>86</ele>
        <time>2011-12-23T16:00:22Z</time>
      </trkpt>
      <trkpt lat="44.81954" lon="-0.44531">
        <ele>86</ele>
        <time>2011-12-23T16:00:26Z</time>
      </trkpt>
      <trkpt lat="44.81963" lon="-0.44522">
        <ele>86</ele>
        <time>2011-12-23T16:00:30Z</time>
      </trkpt>
      <trkpt lat="44.81972" lon="-0.44513">
        <ele>86</ele>
        <time>2011-12-23T16:00:34Z</time>
      </trkpt>
      <trkpt lat="44.8198" lon="-0.44503">
        <ele>86</ele>
        <time>2011-12-23T16:00:38Z</time>
      </trkpt>
      <trkpt lat="44.81989" lon="-0.44493">
        <ele>86</ele>
        <time>2011-12-23T16:00:42Z</time>
      </trkpt>
      <trkpt lat="44.81997" lon="-0.44485">
        <ele>86</ele>
        <time>2011-12-23T16:00:45Z</time>
      </trkpt>
      <trkpt lat="44.82006" lon="-0.44474">
        <ele>86</ele>
        <time>2011-12-23T16:00:49Z</time>
      </trkpt>
      <trkpt lat="44.82015" lon="-0.44467">
        <ele>86</ele>
        <time>2011-12-23T16:00:52Z</time>
      </trkpt>
      <trkpt lat="44.82024" lon="-0.44457">
        <ele>86</ele>
        <time>2011-12-23T16:00:56Z</time>
      </trkpt>
      <trkpt lat="44.82034" lon="-0.44447">
        <ele>86</ele>
        <time>2011-12-23T16:01:00Z</time>
      </trkpt>
      <trkpt lat="44.82042" lon="-0.44438">
        <ele>86</ele>
        <time>2011-12-23T16:01:05Z</time>
      </trkpt>
      <trkpt lat="44.82064" lon="-0.44423">
        <ele>85</ele>
        <time>2011-12-23T16:01:11Z</time>
      </trkpt>
      <trkpt lat="44.82081" lon="-0.44408">
        <ele>85</ele>
        <time>2011-12-23T16:01:17Z</time>
      </trkpt>
      <trkpt lat="44.82108" lon="-0.44397">
        <ele>86</ele>
        <time>2011-12-23T16:02:29Z</time>
      </trkpt>
      <trkpt lat="44.82122" lon="-0.4439">
        <ele>86</ele>
        <time>2011-12-23T16:02:32Z</time>
      </trkpt>
      <trkpt lat="44.82133" lon="-0.44384">
        <ele>86</ele>
        <time>2011-12-23T16:02:35Z</time>
      </trkpt>
      <trkpt lat="44.82143" lon="-0.44383">
        <ele>86</ele>
        <time>2011-12-23T16:02:41Z</time>
      </trkpt>
      <trkpt lat="44.82143" lon="-0.44369">
        <ele>86</ele>
        <time>2011-12-23T16:02:46Z</time>
      </trkpt>
      <trkpt lat="44.8214" lon="-0.44353">
        <ele>86</ele>
        <time>2011-12-23T16:02:50Z</time>
      </trkpt>
      <trkpt lat="44.82137" lon="-0.44337">
        <ele>86</ele>
        <time>2011-12-23T16:02:53Z</time>
      </trkpt>
      <trkpt lat="44.82134" lon="-0.44321">
        <ele>85</ele>
        <time>2011-12-23T16:02:56Z</time>
      </trkpt>
      <trkpt lat="44.82132" lon="-0.44309">
        <ele>85</ele>
        <time>2011-12-23T16:02:58Z</time>
      </trkpt>
      <trkpt lat="44.82128" lon="-0.44291">
        <ele>85</ele>
        <time>2011-12-23T16:03:01Z</time>
      </trkpt>
      <trkpt lat="44.82126" lon="-0.44274">
        <ele>85</ele>
        <time>2011-12-23T16:03:04Z</time>
      </trkpt>
      <trkpt lat="44.82123" lon="-0.4426">
        <ele>84</ele>
        <time>2011-12-23T16:03:06Z</time>
      </trkpt>
      <trkpt lat="44.82121" lon="-0.44247">
        <ele>84</ele>
        <time>2011-12-23T16:03:08Z</time>
      </trkpt>
      <trkpt lat="44.82118" lon="-0.44231">
        <ele>84</ele>
        <time>2011-12-23T16:03:10Z</time>
      </trkpt>
      <trkpt lat="44.82116" lon="-0.44216">
        <ele>84</ele>
        <time>2011-12-23T16:03:12Z</time>
      </trkpt>
      <trkpt lat="44.82112" lon="-0.442">
        <ele>83</ele>
        <time>2011-12-23T16:03:14Z</time>
      </trkpt>
      <trkpt lat="44.82109" lon="-0.44184">
        <ele>83</ele>
        <time>2011-12-23T16:03:16Z</time>
      </trkpt>
      <trkpt lat="44.82106" lon="-0.44166">
        <ele>83</ele>
        <time>2011-12-23T16:03:18Z</time>
      </trkpt>
      <trkpt lat="44.82103" lon="-0.44149">
        <ele>83</ele>
        <time>2011-12-23T16:03:20Z</time>
      </trkpt>
      <trkpt lat="44.82099" lon="-0.44132">
        <ele>83</ele>
        <time>2011-12-23T16:03:22Z</time>
      </trkpt>
      <trkpt lat="44.82096" lon="-0.44115">
        <ele>84</ele>
        <time>2011-12-23T16:03:24Z</time>
      </trkpt>
      <trkpt lat="44.82093" lon="-0.441">
        <ele>84</ele>
        <time>2011-12-23T16:03:26Z</time>
      </trkpt>
      <trkpt lat="44.82089" lon="-0.44084">
        <ele>84</ele>
        <time>2011-12-23T16:03:28Z</time>
      </trkpt>
      <trkpt lat="44.82086" lon="-0.44069">
        <ele>83</ele>
        <time>2011-12-23T16:03:30Z</time>
      </trkpt>
      <trkpt lat="44.82081" lon="-0.44053">
        <ele>83</ele>
        <time>2011-12-23T16:03:32Z</time>
      </trkpt>
      <trkpt lat="44.82077" lon="-0.44038">
        <ele>83</ele>
        <time>2011-12-23T16:03:34Z</time>
      </trkpt>
      <trkpt lat="44.82074" lon="-0.44026">
        <ele>83</ele>
        <time>2011-12-23T16:03:36Z</time>
      </trkpt>
      <trkpt lat="44.8207" lon="-0.44013">
        <ele>83</ele>
        <time>2011-12-23T16:03:38Z</time>
      </trkpt>
      <trkpt lat="44.82067" lon="-0.43994">
        <ele>83</ele>
        <time>2011-12-23T16:03:41Z</time>
      </trkpt>
    </trkseg>
  </trk>
</gpx>